<?xml version="1.0" encoding="UTF-8" standalone="no" ?>
<gpx xmlns="http://www.topografix.com/GPX/1/1" xmlns:xsi="http://www.w3.org/2001/XMLSchema-instance" xsi:schemaLocation="http://www.topografix.com/GPX/1/1 http://www.topografix.com/GPX/1/1/gpx.xsd" version="1.1" creator="VisuGPX - https://www.visugpx.com">
  <metadata>
    <name>VTT autour de Salvagnac</name>
    <desc><![CDATA[Très joli circuit, vallonné, qui emprunte d’abord le sentier de randonnée de pays balisé du Salvagnacois pour ensuite rejoindre entre Salvagnac et Puycelsi l’autre sentier « Les Hauts de Maladène » et des portions de circuits VTT du Gaillacois ou le GR46, nombreux sentiers balisés pédestres, VTT ou cavaliers existent sur ce secteur.
Première partie sur des pistes agréables alternant de belles descentes sans difficulté technique et des montées plus ou moins raides … De beaux panoramas sur les coteaux, quelques passages ombragés. Un peu de goudron vers le 20ème kilomètre pour rallier la deuxième partie vers Puycelsi, il doit y avoir possiblité de réduire cette portion peut-être en revenant sur Salvagnac pour boucler le circuit du Salvagnacois et suivre les Hauts de Maladène. La Base de loisirs des Sourigous à Salvagnac est un point de départ des sentiers de randonnée.
La deuxième partie du circuit est plus ombragée et plus caillouteuse aussi aux abords de Puycelsi.

Thierry
]]></desc>
  </metadata>
  <trk>
    <name><![CDATA[Tracé actuel: 27 AOU 2017 08:45]]></name>
    <trkseg>
      <trkpt lat="43.90643" lon="1.68738">
        <ele>241.91</ele>
        <time>2017-08-27T06:45:52Z</time>
      </trkpt>
      <trkpt lat="43.90642" lon="1.68735">
        <ele>241.91</ele>
        <time>2017-08-27T06:46:11Z</time>
      </trkpt>
      <trkpt lat="43.90641" lon="1.68735">
        <ele>241.91</ele>
        <time>2017-08-27T06:46:13Z</time>
      </trkpt>
      <trkpt lat="43.90642" lon="1.68722">
        <ele>242.39</ele>
        <time>2017-08-27T06:46:20Z</time>
      </trkpt>
      <trkpt lat="43.90643" lon="1.6871">
        <ele>238.06</ele>
        <time>2017-08-27T06:46:24Z</time>
      </trkpt>
      <trkpt lat="43.90644" lon="1.68706">
        <ele>244.79</ele>
        <time>2017-08-27T06:46:25Z</time>
      </trkpt>
      <trkpt lat="43.90645" lon="1.68703">
        <ele>244.79</ele>
        <time>2017-08-27T06:46:26Z</time>
      </trkpt>
      <trkpt lat="43.90649" lon="1.68693">
        <ele>241.91</ele>
        <time>2017-08-27T06:46:28Z</time>
      </trkpt>
      <trkpt lat="43.90653" lon="1.6867">
        <ele>239.02</ele>
        <time>2017-08-27T06:46:32Z</time>
      </trkpt>
      <trkpt lat="43.9065" lon="1.68667">
        <ele>239.02</ele>
        <time>2017-08-27T06:46:33Z</time>
      </trkpt>
      <trkpt lat="43.90646" lon="1.68663">
        <ele>239.02</ele>
        <time>2017-08-27T06:46:34Z</time>
      </trkpt>
      <trkpt lat="43.90642" lon="1.68659">
        <ele>238.06</ele>
        <time>2017-08-27T06:46:35Z</time>
      </trkpt>
      <trkpt lat="43.90637" lon="1.68654">
        <ele>238.06</ele>
        <time>2017-08-27T06:46:36Z</time>
      </trkpt>
      <trkpt lat="43.90633" lon="1.68649">
        <ele>238.06</ele>
        <time>2017-08-27T06:46:37Z</time>
      </trkpt>
      <trkpt lat="43.90629" lon="1.68644">
        <ele>237.58</ele>
        <time>2017-08-27T06:46:38Z</time>
      </trkpt>
      <trkpt lat="43.90624" lon="1.68641">
        <ele>236.62</ele>
        <time>2017-08-27T06:46:39Z</time>
      </trkpt>
      <trkpt lat="43.90619" lon="1.6864">
        <ele>237.1</ele>
        <time>2017-08-27T06:46:40Z</time>
      </trkpt>
      <trkpt lat="43.90614" lon="1.68642">
        <ele>236.62</ele>
        <time>2017-08-27T06:46:41Z</time>
      </trkpt>
      <trkpt lat="43.90609" lon="1.68645">
        <ele>236.62</ele>
        <time>2017-08-27T06:46:42Z</time>
      </trkpt>
      <trkpt lat="43.90594" lon="1.68649">
        <ele>235.18</ele>
        <time>2017-08-27T06:46:46Z</time>
      </trkpt>
      <trkpt lat="43.90593" lon="1.68646">
        <ele>234.22</ele>
        <time>2017-08-27T06:46:47Z</time>
      </trkpt>
      <trkpt lat="43.90592" lon="1.6864">
        <ele>234.7</ele>
        <time>2017-08-27T06:46:52Z</time>
      </trkpt>
      <trkpt lat="43.90593" lon="1.68637">
        <ele>234.22</ele>
        <time>2017-08-27T06:47:05Z</time>
      </trkpt>
      <trkpt lat="43.90593" lon="1.68635">
        <ele>234.22</ele>
        <time>2017-08-27T06:47:20Z</time>
      </trkpt>
      <trkpt lat="43.90592" lon="1.68634">
        <ele>234.22</ele>
        <time>2017-08-27T06:47:29Z</time>
      </trkpt>
      <trkpt lat="43.90592" lon="1.68633">
        <ele>234.22</ele>
        <time>2017-08-27T06:47:32Z</time>
      </trkpt>
      <trkpt lat="43.90599" lon="1.68631">
        <ele>233.74</ele>
        <time>2017-08-27T06:47:36Z</time>
      </trkpt>
      <trkpt lat="43.906" lon="1.6863">
        <ele>234.22</ele>
        <time>2017-08-27T06:47:37Z</time>
      </trkpt>
      <trkpt lat="43.90601" lon="1.68629">
        <ele>234.22</ele>
        <time>2017-08-27T06:47:38Z</time>
      </trkpt>
      <trkpt lat="43.90603" lon="1.68627">
        <ele>233.74</ele>
        <time>2017-08-27T06:47:39Z</time>
      </trkpt>
      <trkpt lat="43.90605" lon="1.68625">
        <ele>233.74</ele>
        <time>2017-08-27T06:47:40Z</time>
      </trkpt>
      <trkpt lat="43.90607" lon="1.68622">
        <ele>233.26</ele>
        <time>2017-08-27T06:47:41Z</time>
      </trkpt>
      <trkpt lat="43.9061" lon="1.6862">
        <ele>232.78</ele>
        <time>2017-08-27T06:47:42Z</time>
      </trkpt>
      <trkpt lat="43.90613" lon="1.68617">
        <ele>232.3</ele>
        <time>2017-08-27T06:47:43Z</time>
      </trkpt>
      <trkpt lat="43.90616" lon="1.68613">
        <ele>231.33</ele>
        <time>2017-08-27T06:47:44Z</time>
      </trkpt>
      <trkpt lat="43.90619" lon="1.6861">
        <ele>230.85</ele>
        <time>2017-08-27T06:47:45Z</time>
      </trkpt>
      <trkpt lat="43.90622" lon="1.68608">
        <ele>230.37</ele>
        <time>2017-08-27T06:47:46Z</time>
      </trkpt>
      <trkpt lat="43.90625" lon="1.68605">
        <ele>229.89</ele>
        <time>2017-08-27T06:47:47Z</time>
      </trkpt>
      <trkpt lat="43.90623" lon="1.68592">
        <ele>228.45</ele>
        <time>2017-08-27T06:47:50Z</time>
      </trkpt>
      <trkpt lat="43.90622" lon="1.68588">
        <ele>227.97</ele>
        <time>2017-08-27T06:47:51Z</time>
      </trkpt>
      <trkpt lat="43.90618" lon="1.68585">
        <ele>227.97</ele>
        <time>2017-08-27T06:47:52Z</time>
      </trkpt>
      <trkpt lat="43.90611" lon="1.68579">
        <ele>227.49</ele>
        <time>2017-08-27T06:47:54Z</time>
      </trkpt>
      <trkpt lat="43.90602" lon="1.68571">
        <ele>224.61</ele>
        <time>2017-08-27T06:47:56Z</time>
      </trkpt>
      <trkpt lat="43.90597" lon="1.68566">
        <ele>222.68</ele>
        <time>2017-08-27T06:47:57Z</time>
      </trkpt>
      <trkpt lat="43.90586" lon="1.68553">
        <ele>221.24</ele>
        <time>2017-08-27T06:47:59Z</time>
      </trkpt>
      <trkpt lat="43.90577" lon="1.6854">
        <ele>216.91</ele>
        <time>2017-08-27T06:48:01Z</time>
      </trkpt>
      <trkpt lat="43.90573" lon="1.68533">
        <ele>215.47</ele>
        <time>2017-08-27T06:48:02Z</time>
      </trkpt>
      <trkpt lat="43.90565" lon="1.68518">
        <ele>212.11</ele>
        <time>2017-08-27T06:48:04Z</time>
      </trkpt>
      <trkpt lat="43.90554" lon="1.68497">
        <ele>208.26</ele>
        <time>2017-08-27T06:48:07Z</time>
      </trkpt>
      <trkpt lat="43.90544" lon="1.68484">
        <ele>204.9</ele>
        <time>2017-08-27T06:48:10Z</time>
      </trkpt>
      <trkpt lat="43.9054" lon="1.68481">
        <ele>203.94</ele>
        <time>2017-08-27T06:48:11Z</time>
      </trkpt>
      <trkpt lat="43.90527" lon="1.68471">
        <ele>200.57</ele>
        <time>2017-08-27T06:48:16Z</time>
      </trkpt>
      <trkpt lat="43.90527" lon="1.68471">
        <ele>200.57</ele>
        <time>2017-08-27T06:48:17Z</time>
      </trkpt>
      <trkpt lat="43.90528" lon="1.68474">
        <ele>200.57</ele>
        <time>2017-08-27T06:48:32Z</time>
      </trkpt>
      <trkpt lat="43.90521" lon="1.68468">
        <ele>199.61</ele>
        <time>2017-08-27T06:48:36Z</time>
      </trkpt>
      <trkpt lat="43.90498" lon="1.68445">
        <ele>195.77</ele>
        <time>2017-08-27T06:48:40Z</time>
      </trkpt>
      <trkpt lat="43.90485" lon="1.68431">
        <ele>192.4</ele>
        <time>2017-08-27T06:48:42Z</time>
      </trkpt>
      <trkpt lat="43.90462" lon="1.68404">
        <ele>188.56</ele>
        <time>2017-08-27T06:48:45Z</time>
      </trkpt>
      <trkpt lat="43.90436" lon="1.68376">
        <ele>185.19</ele>
        <time>2017-08-27T06:48:48Z</time>
      </trkpt>
      <trkpt lat="43.9041" lon="1.68347">
        <ele>181.83</ele>
        <time>2017-08-27T06:48:51Z</time>
      </trkpt>
      <trkpt lat="43.90379" lon="1.6831">
        <ele>178.94</ele>
        <time>2017-08-27T06:48:56Z</time>
      </trkpt>
      <trkpt lat="43.90371" lon="1.683">
        <ele>178.94</ele>
        <time>2017-08-27T06:48:58Z</time>
      </trkpt>
      <trkpt lat="43.9037" lon="1.68295">
        <ele>179.42</ele>
        <time>2017-08-27T06:48:59Z</time>
      </trkpt>
      <trkpt lat="43.9037" lon="1.6829">
        <ele>178.94</ele>
        <time>2017-08-27T06:49:00Z</time>
      </trkpt>
      <trkpt lat="43.90369" lon="1.68266">
        <ele>179.9</ele>
        <time>2017-08-27T06:49:05Z</time>
      </trkpt>
      <trkpt lat="43.90356" lon="1.68256">
        <ele>181.35</ele>
        <time>2017-08-27T06:49:10Z</time>
      </trkpt>
      <trkpt lat="43.90342" lon="1.68242">
        <ele>183.75</ele>
        <time>2017-08-27T06:49:18Z</time>
      </trkpt>
      <trkpt lat="43.90329" lon="1.68229">
        <ele>186.63</ele>
        <time>2017-08-27T06:49:26Z</time>
      </trkpt>
      <trkpt lat="43.90317" lon="1.68219">
        <ele>189.52</ele>
        <time>2017-08-27T06:49:33Z</time>
      </trkpt>
      <trkpt lat="43.90304" lon="1.6821">
        <ele>191.44</ele>
        <time>2017-08-27T06:49:41Z</time>
      </trkpt>
      <trkpt lat="43.90294" lon="1.68199">
        <ele>193.36</ele>
        <time>2017-08-27T06:49:49Z</time>
      </trkpt>
      <trkpt lat="43.90279" lon="1.68187">
        <ele>195.77</ele>
        <time>2017-08-27T06:49:58Z</time>
      </trkpt>
      <trkpt lat="43.90264" lon="1.68177">
        <ele>197.21</ele>
        <time>2017-08-27T06:50:07Z</time>
      </trkpt>
      <trkpt lat="43.9025" lon="1.68174">
        <ele>197.21</ele>
        <time>2017-08-27T06:50:15Z</time>
      </trkpt>
      <trkpt lat="43.90238" lon="1.68163">
        <ele>199.13</ele>
        <time>2017-08-27T06:50:23Z</time>
      </trkpt>
      <trkpt lat="43.90237" lon="1.68164">
        <ele>198.65</ele>
        <time>2017-08-27T06:50:31Z</time>
      </trkpt>
      <trkpt lat="43.90236" lon="1.68162">
        <ele>199.13</ele>
        <time>2017-08-27T06:50:38Z</time>
      </trkpt>
      <trkpt lat="43.90235" lon="1.6816">
        <ele>199.13</ele>
        <time>2017-08-27T06:50:39Z</time>
      </trkpt>
      <trkpt lat="43.90224" lon="1.68147">
        <ele>200.09</ele>
        <time>2017-08-27T06:50:47Z</time>
      </trkpt>
      <trkpt lat="43.90213" lon="1.68136">
        <ele>201.53</ele>
        <time>2017-08-27T06:50:54Z</time>
      </trkpt>
      <trkpt lat="43.90196" lon="1.68121">
        <ele>203.94</ele>
        <time>2017-08-27T06:51:04Z</time>
      </trkpt>
      <trkpt lat="43.90191" lon="1.68115">
        <ele>205.38</ele>
        <time>2017-08-27T06:51:08Z</time>
      </trkpt>
      <trkpt lat="43.90179" lon="1.68104">
        <ele>207.3</ele>
        <time>2017-08-27T06:51:16Z</time>
      </trkpt>
      <trkpt lat="43.90168" lon="1.68094">
        <ele>209.22</ele>
        <time>2017-08-27T06:51:24Z</time>
      </trkpt>
      <trkpt lat="43.90154" lon="1.68081">
        <ele>211.15</ele>
        <time>2017-08-27T06:51:33Z</time>
      </trkpt>
      <trkpt lat="43.90142" lon="1.68067">
        <ele>213.07</ele>
        <time>2017-08-27T06:51:42Z</time>
      </trkpt>
      <trkpt lat="43.90132" lon="1.68057">
        <ele>214.99</ele>
        <time>2017-08-27T06:51:49Z</time>
      </trkpt>
      <trkpt lat="43.90121" lon="1.68046">
        <ele>216.91</ele>
        <time>2017-08-27T06:51:57Z</time>
      </trkpt>
      <trkpt lat="43.90109" lon="1.68033">
        <ele>219.32</ele>
        <time>2017-08-27T06:52:07Z</time>
      </trkpt>
      <trkpt lat="43.90099" lon="1.68023">
        <ele>222.2</ele>
        <time>2017-08-27T06:52:16Z</time>
      </trkpt>
      <trkpt lat="43.9009" lon="1.68013">
        <ele>224.12</ele>
        <time>2017-08-27T06:52:25Z</time>
      </trkpt>
      <trkpt lat="43.90074" lon="1.67997">
        <ele>226.53</ele>
        <time>2017-08-27T06:52:38Z</time>
      </trkpt>
      <trkpt lat="43.9006" lon="1.67983">
        <ele>228.45</ele>
        <time>2017-08-27T06:52:50Z</time>
      </trkpt>
      <trkpt lat="43.90048" lon="1.6797">
        <ele>231.81</ele>
        <time>2017-08-27T06:53:00Z</time>
      </trkpt>
      <trkpt lat="43.90037" lon="1.67961">
        <ele>232.78</ele>
        <time>2017-08-27T06:53:08Z</time>
      </trkpt>
      <trkpt lat="43.90023" lon="1.67946">
        <ele>235.18</ele>
        <time>2017-08-27T06:53:19Z</time>
      </trkpt>
      <trkpt lat="43.90018" lon="1.67942">
        <ele>235.18</ele>
        <time>2017-08-27T06:53:25Z</time>
      </trkpt>
      <trkpt lat="43.90021" lon="1.67941">
        <ele>234.22</ele>
        <time>2017-08-27T06:53:40Z</time>
      </trkpt>
      <trkpt lat="43.9002" lon="1.67942">
        <ele>234.22</ele>
        <time>2017-08-27T06:54:03Z</time>
      </trkpt>
      <trkpt lat="43.9002" lon="1.67942">
        <ele>234.7</ele>
        <time>2017-08-27T06:54:25Z</time>
      </trkpt>
      <trkpt lat="43.9002" lon="1.67942">
        <ele>234.7</ele>
        <time>2017-08-27T06:54:45Z</time>
      </trkpt>
      <trkpt lat="43.90019" lon="1.67941">
        <ele>234.7</ele>
        <time>2017-08-27T06:55:02Z</time>
      </trkpt>
      <trkpt lat="43.90014" lon="1.67935">
        <ele>234.7</ele>
        <time>2017-08-27T06:55:07Z</time>
      </trkpt>
      <trkpt lat="43.90013" lon="1.67933">
        <ele>235.66</ele>
        <time>2017-08-27T06:55:08Z</time>
      </trkpt>
      <trkpt lat="43.90012" lon="1.67931">
        <ele>234.7</ele>
        <time>2017-08-27T06:55:09Z</time>
      </trkpt>
      <trkpt lat="43.90012" lon="1.67927">
        <ele>235.18</ele>
        <time>2017-08-27T06:55:11Z</time>
      </trkpt>
      <trkpt lat="43.90013" lon="1.67924">
        <ele>234.7</ele>
        <time>2017-08-27T06:55:12Z</time>
      </trkpt>
      <trkpt lat="43.90016" lon="1.67921">
        <ele>234.7</ele>
        <time>2017-08-27T06:55:13Z</time>
      </trkpt>
      <trkpt lat="43.90019" lon="1.6792">
        <ele>234.7</ele>
        <time>2017-08-27T06:55:14Z</time>
      </trkpt>
      <trkpt lat="43.90022" lon="1.67918">
        <ele>234.22</ele>
        <time>2017-08-27T06:55:15Z</time>
      </trkpt>
      <trkpt lat="43.90025" lon="1.67917">
        <ele>234.22</ele>
        <time>2017-08-27T06:55:16Z</time>
      </trkpt>
      <trkpt lat="43.90029" lon="1.67915">
        <ele>234.22</ele>
        <time>2017-08-27T06:55:17Z</time>
      </trkpt>
      <trkpt lat="43.90033" lon="1.67913">
        <ele>233.74</ele>
        <time>2017-08-27T06:55:18Z</time>
      </trkpt>
      <trkpt lat="43.90048" lon="1.67909">
        <ele>232.3</ele>
        <time>2017-08-27T06:55:21Z</time>
      </trkpt>
      <trkpt lat="43.90054" lon="1.67907">
        <ele>232.3</ele>
        <time>2017-08-27T06:55:22Z</time>
      </trkpt>
      <trkpt lat="43.90059" lon="1.67906">
        <ele>231.81</ele>
        <time>2017-08-27T06:55:23Z</time>
      </trkpt>
      <trkpt lat="43.90066" lon="1.67902">
        <ele>230.37</ele>
        <time>2017-08-27T06:55:25Z</time>
      </trkpt>
      <trkpt lat="43.90067" lon="1.67899">
        <ele>229.41</ele>
        <time>2017-08-27T06:55:26Z</time>
      </trkpt>
      <trkpt lat="43.90067" lon="1.67896">
        <ele>229.41</ele>
        <time>2017-08-27T06:55:27Z</time>
      </trkpt>
      <trkpt lat="43.90066" lon="1.67892">
        <ele>228.45</ele>
        <time>2017-08-27T06:55:28Z</time>
      </trkpt>
      <trkpt lat="43.90063" lon="1.67886">
        <ele>228.45</ele>
        <time>2017-08-27T06:55:29Z</time>
      </trkpt>
      <trkpt lat="43.90061" lon="1.67879">
        <ele>227.49</ele>
        <time>2017-08-27T06:55:30Z</time>
      </trkpt>
      <trkpt lat="43.90058" lon="1.6787">
        <ele>227.49</ele>
        <time>2017-08-27T06:55:31Z</time>
      </trkpt>
      <trkpt lat="43.90053" lon="1.67843">
        <ele>224.12</ele>
        <time>2017-08-27T06:55:34Z</time>
      </trkpt>
      <trkpt lat="43.90046" lon="1.67802">
        <ele>220.28</ele>
        <time>2017-08-27T06:55:38Z</time>
      </trkpt>
      <trkpt lat="43.90038" lon="1.67767">
        <ele>215.95</ele>
        <time>2017-08-27T06:55:41Z</time>
      </trkpt>
      <trkpt lat="43.90032" lon="1.67729">
        <ele>212.59</ele>
        <time>2017-08-27T06:55:44Z</time>
      </trkpt>
      <trkpt lat="43.90024" lon="1.67689">
        <ele>209.7</ele>
        <time>2017-08-27T06:55:47Z</time>
      </trkpt>
      <trkpt lat="43.90015" lon="1.67649">
        <ele>206.34</ele>
        <time>2017-08-27T06:55:50Z</time>
      </trkpt>
      <trkpt lat="43.9001" lon="1.67631">
        <ele>204.9</ele>
        <time>2017-08-27T06:55:52Z</time>
      </trkpt>
      <trkpt lat="43.90008" lon="1.67624">
        <ele>203.46</ele>
        <time>2017-08-27T06:55:53Z</time>
      </trkpt>
      <trkpt lat="43.90005" lon="1.67619">
        <ele>202.01</ele>
        <time>2017-08-27T06:55:54Z</time>
      </trkpt>
      <trkpt lat="43.90002" lon="1.67616">
        <ele>201.05</ele>
        <time>2017-08-27T06:55:55Z</time>
      </trkpt>
      <trkpt lat="43.89997" lon="1.67615">
        <ele>200.09</ele>
        <time>2017-08-27T06:55:56Z</time>
      </trkpt>
      <trkpt lat="43.89992" lon="1.67613">
        <ele>199.13</ele>
        <time>2017-08-27T06:55:57Z</time>
      </trkpt>
      <trkpt lat="43.89986" lon="1.67613">
        <ele>198.17</ele>
        <time>2017-08-27T06:55:58Z</time>
      </trkpt>
      <trkpt lat="43.8998" lon="1.67611">
        <ele>196.25</ele>
        <time>2017-08-27T06:55:59Z</time>
      </trkpt>
      <trkpt lat="43.89973" lon="1.67609">
        <ele>195.28</ele>
        <time>2017-08-27T06:56:00Z</time>
      </trkpt>
      <trkpt lat="43.89964" lon="1.67607">
        <ele>193.84</ele>
        <time>2017-08-27T06:56:01Z</time>
      </trkpt>
      <trkpt lat="43.89949" lon="1.67603">
        <ele>191.92</ele>
        <time>2017-08-27T06:56:03Z</time>
      </trkpt>
      <trkpt lat="43.89943" lon="1.676">
        <ele>191.44</ele>
        <time>2017-08-27T06:56:04Z</time>
      </trkpt>
      <trkpt lat="43.89938" lon="1.67598">
        <ele>191.44</ele>
        <time>2017-08-27T06:56:05Z</time>
      </trkpt>
      <trkpt lat="43.89934" lon="1.67597">
        <ele>190.96</ele>
        <time>2017-08-27T06:56:06Z</time>
      </trkpt>
      <trkpt lat="43.89933" lon="1.67595">
        <ele>190.96</ele>
        <time>2017-08-27T06:56:07Z</time>
      </trkpt>
      <trkpt lat="43.89931" lon="1.67592">
        <ele>191.44</ele>
        <time>2017-08-27T06:56:08Z</time>
      </trkpt>
      <trkpt lat="43.89928" lon="1.67589">
        <ele>190.96</ele>
        <time>2017-08-27T06:56:09Z</time>
      </trkpt>
      <trkpt lat="43.89919" lon="1.6757">
        <ele>191.92</ele>
        <time>2017-08-27T06:56:16Z</time>
      </trkpt>
      <trkpt lat="43.89912" lon="1.67554">
        <ele>193.36</ele>
        <time>2017-08-27T06:56:23Z</time>
      </trkpt>
      <trkpt lat="43.89904" lon="1.67534">
        <ele>195.77</ele>
        <time>2017-08-27T06:56:32Z</time>
      </trkpt>
      <trkpt lat="43.89901" lon="1.67513">
        <ele>197.69</ele>
        <time>2017-08-27T06:56:42Z</time>
      </trkpt>
      <trkpt lat="43.89904" lon="1.675">
        <ele>200.09</ele>
        <time>2017-08-27T06:56:48Z</time>
      </trkpt>
      <trkpt lat="43.89908" lon="1.67484">
        <ele>202.49</ele>
        <time>2017-08-27T06:56:57Z</time>
      </trkpt>
      <trkpt lat="43.89908" lon="1.6748">
        <ele>203.46</ele>
        <time>2017-08-27T06:56:59Z</time>
      </trkpt>
      <trkpt lat="43.89909" lon="1.67462">
        <ele>206.34</ele>
        <time>2017-08-27T06:57:08Z</time>
      </trkpt>
      <trkpt lat="43.89912" lon="1.67448">
        <ele>208.74</ele>
        <time>2017-08-27T06:57:16Z</time>
      </trkpt>
      <trkpt lat="43.89913" lon="1.67441">
        <ele>209.7</ele>
        <time>2017-08-27T06:57:20Z</time>
      </trkpt>
      <trkpt lat="43.89912" lon="1.67439">
        <ele>209.7</ele>
        <time>2017-08-27T06:57:21Z</time>
      </trkpt>
      <trkpt lat="43.89912" lon="1.67438">
        <ele>210.67</ele>
        <time>2017-08-27T06:57:22Z</time>
      </trkpt>
      <trkpt lat="43.89911" lon="1.67425">
        <ele>212.11</ele>
        <time>2017-08-27T06:57:30Z</time>
      </trkpt>
      <trkpt lat="43.89908" lon="1.67411">
        <ele>214.03</ele>
        <time>2017-08-27T06:57:38Z</time>
      </trkpt>
      <trkpt lat="43.89904" lon="1.67395">
        <ele>216.43</ele>
        <time>2017-08-27T06:57:48Z</time>
      </trkpt>
      <trkpt lat="43.89904" lon="1.67394">
        <ele>216.43</ele>
        <time>2017-08-27T06:57:49Z</time>
      </trkpt>
      <trkpt lat="43.89904" lon="1.67392">
        <ele>216.91</ele>
        <time>2017-08-27T06:57:50Z</time>
      </trkpt>
      <trkpt lat="43.89903" lon="1.6739">
        <ele>216.91</ele>
        <time>2017-08-27T06:57:51Z</time>
      </trkpt>
      <trkpt lat="43.89903" lon="1.67389">
        <ele>216.91</ele>
        <time>2017-08-27T06:57:52Z</time>
      </trkpt>
      <trkpt lat="43.89903" lon="1.67387">
        <ele>217.4</ele>
        <time>2017-08-27T06:57:53Z</time>
      </trkpt>
      <trkpt lat="43.89902" lon="1.67386">
        <ele>217.88</ele>
        <time>2017-08-27T06:57:54Z</time>
      </trkpt>
      <trkpt lat="43.89902" lon="1.67385">
        <ele>217.88</ele>
        <time>2017-08-27T06:57:55Z</time>
      </trkpt>
      <trkpt lat="43.89902" lon="1.67383">
        <ele>217.88</ele>
        <time>2017-08-27T06:57:56Z</time>
      </trkpt>
      <trkpt lat="43.89902" lon="1.67382">
        <ele>217.88</ele>
        <time>2017-08-27T06:57:57Z</time>
      </trkpt>
      <trkpt lat="43.89902" lon="1.6738">
        <ele>218.36</ele>
        <time>2017-08-27T06:57:58Z</time>
      </trkpt>
      <trkpt lat="43.89902" lon="1.67378">
        <ele>218.36</ele>
        <time>2017-08-27T06:57:59Z</time>
      </trkpt>
      <trkpt lat="43.89902" lon="1.67376">
        <ele>218.84</ele>
        <time>2017-08-27T06:58:00Z</time>
      </trkpt>
      <trkpt lat="43.89902" lon="1.67375">
        <ele>218.36</ele>
        <time>2017-08-27T06:58:01Z</time>
      </trkpt>
      <trkpt lat="43.89899" lon="1.6736">
        <ele>219.8</ele>
        <time>2017-08-27T06:58:10Z</time>
      </trkpt>
      <trkpt lat="43.89897" lon="1.67352">
        <ele>220.28</ele>
        <time>2017-08-27T06:58:15Z</time>
      </trkpt>
      <trkpt lat="43.89885" lon="1.6734">
        <ele>221.72</ele>
        <time>2017-08-27T06:58:26Z</time>
      </trkpt>
      <trkpt lat="43.89874" lon="1.67332">
        <ele>222.68</ele>
        <time>2017-08-27T06:58:35Z</time>
      </trkpt>
      <trkpt lat="43.8986" lon="1.67314">
        <ele>224.12</ele>
        <time>2017-08-27T06:58:47Z</time>
      </trkpt>
      <trkpt lat="43.89851" lon="1.67298">
        <ele>226.53</ele>
        <time>2017-08-27T06:58:56Z</time>
      </trkpt>
      <trkpt lat="43.89846" lon="1.67278">
        <ele>227.97</ele>
        <time>2017-08-27T06:59:06Z</time>
      </trkpt>
      <trkpt lat="43.89842" lon="1.67256">
        <ele>229.41</ele>
        <time>2017-08-27T06:59:17Z</time>
      </trkpt>
      <trkpt lat="43.89837" lon="1.67233">
        <ele>231.33</ele>
        <time>2017-08-27T06:59:28Z</time>
      </trkpt>
      <trkpt lat="43.89832" lon="1.67208">
        <ele>233.26</ele>
        <time>2017-08-27T06:59:40Z</time>
      </trkpt>
      <trkpt lat="43.89834" lon="1.67188">
        <ele>234.7</ele>
        <time>2017-08-27T06:59:50Z</time>
      </trkpt>
      <trkpt lat="43.89834" lon="1.67187">
        <ele>234.7</ele>
        <time>2017-08-27T06:59:51Z</time>
      </trkpt>
      <trkpt lat="43.89837" lon="1.67186">
        <ele>234.22</ele>
        <time>2017-08-27T06:59:58Z</time>
      </trkpt>
      <trkpt lat="43.89834" lon="1.67188">
        <ele>234.7</ele>
        <time>2017-08-27T07:00:11Z</time>
      </trkpt>
      <trkpt lat="43.89834" lon="1.67188">
        <ele>233.74</ele>
        <time>2017-08-27T07:00:23Z</time>
      </trkpt>
      <trkpt lat="43.89833" lon="1.67189">
        <ele>233.74</ele>
        <time>2017-08-27T07:00:48Z</time>
      </trkpt>
      <trkpt lat="43.89834" lon="1.67188">
        <ele>233.74</ele>
        <time>2017-08-27T07:00:59Z</time>
      </trkpt>
      <trkpt lat="43.89842" lon="1.67187">
        <ele>233.74</ele>
        <time>2017-08-27T07:01:05Z</time>
      </trkpt>
      <trkpt lat="43.89859" lon="1.6719">
        <ele>233.26</ele>
        <time>2017-08-27T07:01:12Z</time>
      </trkpt>
      <trkpt lat="43.8988" lon="1.67185">
        <ele>232.3</ele>
        <time>2017-08-27T07:01:20Z</time>
      </trkpt>
      <trkpt lat="43.89909" lon="1.67163">
        <ele>231.81</ele>
        <time>2017-08-27T07:01:29Z</time>
      </trkpt>
      <trkpt lat="43.89915" lon="1.67157">
        <ele>231.81</ele>
        <time>2017-08-27T07:01:31Z</time>
      </trkpt>
      <trkpt lat="43.89918" lon="1.67154">
        <ele>230.85</ele>
        <time>2017-08-27T07:01:32Z</time>
      </trkpt>
      <trkpt lat="43.89925" lon="1.67147">
        <ele>231.33</ele>
        <time>2017-08-27T07:01:34Z</time>
      </trkpt>
      <trkpt lat="43.89929" lon="1.67143">
        <ele>231.33</ele>
        <time>2017-08-27T07:01:35Z</time>
      </trkpt>
      <trkpt lat="43.8995" lon="1.67124">
        <ele>230.37</ele>
        <time>2017-08-27T07:01:41Z</time>
      </trkpt>
      <trkpt lat="43.89988" lon="1.67086">
        <ele>229.41</ele>
        <time>2017-08-27T07:01:51Z</time>
      </trkpt>
      <trkpt lat="43.90026" lon="1.67043">
        <ele>226.53</ele>
        <time>2017-08-27T07:02:00Z</time>
      </trkpt>
      <trkpt lat="43.90058" lon="1.67008">
        <ele>226.05</ele>
        <time>2017-08-27T07:02:08Z</time>
      </trkpt>
      <trkpt lat="43.90085" lon="1.6697">
        <ele>226.05</ele>
        <time>2017-08-27T07:02:16Z</time>
      </trkpt>
      <trkpt lat="43.90087" lon="1.66965">
        <ele>225.09</ele>
        <time>2017-08-27T07:02:17Z</time>
      </trkpt>
      <trkpt lat="43.9009" lon="1.66959">
        <ele>225.09</ele>
        <time>2017-08-27T07:02:18Z</time>
      </trkpt>
      <trkpt lat="43.90092" lon="1.66954">
        <ele>225.57</ele>
        <time>2017-08-27T07:02:19Z</time>
      </trkpt>
      <trkpt lat="43.90093" lon="1.66948">
        <ele>225.09</ele>
        <time>2017-08-27T07:02:20Z</time>
      </trkpt>
      <trkpt lat="43.90095" lon="1.66942">
        <ele>225.09</ele>
        <time>2017-08-27T07:02:21Z</time>
      </trkpt>
      <trkpt lat="43.9011" lon="1.66898">
        <ele>225.09</ele>
        <time>2017-08-27T07:02:29Z</time>
      </trkpt>
      <trkpt lat="43.90118" lon="1.66884">
        <ele>225.09</ele>
        <time>2017-08-27T07:02:32Z</time>
      </trkpt>
      <trkpt lat="43.90121" lon="1.66881">
        <ele>225.57</ele>
        <time>2017-08-27T07:02:33Z</time>
      </trkpt>
      <trkpt lat="43.90124" lon="1.66878">
        <ele>225.09</ele>
        <time>2017-08-27T07:02:34Z</time>
      </trkpt>
      <trkpt lat="43.90147" lon="1.66849">
        <ele>226.05</ele>
        <time>2017-08-27T07:02:43Z</time>
      </trkpt>
      <trkpt lat="43.90172" lon="1.6682">
        <ele>225.57</ele>
        <time>2017-08-27T07:02:52Z</time>
      </trkpt>
      <trkpt lat="43.902" lon="1.66796">
        <ele>226.53</ele>
        <time>2017-08-27T07:03:01Z</time>
      </trkpt>
      <trkpt lat="43.90229" lon="1.66781">
        <ele>228.45</ele>
        <time>2017-08-27T07:03:10Z</time>
      </trkpt>
      <trkpt lat="43.90258" lon="1.66766">
        <ele>228.93</ele>
        <time>2017-08-27T07:03:19Z</time>
      </trkpt>
      <trkpt lat="43.90264" lon="1.66757">
        <ele>228.45</ele>
        <time>2017-08-27T07:03:22Z</time>
      </trkpt>
      <trkpt lat="43.90264" lon="1.66754">
        <ele>228.93</ele>
        <time>2017-08-27T07:03:23Z</time>
      </trkpt>
      <trkpt lat="43.90263" lon="1.6675">
        <ele>228.93</ele>
        <time>2017-08-27T07:03:24Z</time>
      </trkpt>
      <trkpt lat="43.90263" lon="1.66747">
        <ele>228.45</ele>
        <time>2017-08-27T07:03:25Z</time>
      </trkpt>
      <trkpt lat="43.90264" lon="1.66745">
        <ele>228.45</ele>
        <time>2017-08-27T07:03:30Z</time>
      </trkpt>
      <trkpt lat="43.90266" lon="1.66748">
        <ele>228.93</ele>
        <time>2017-08-27T07:03:32Z</time>
      </trkpt>
      <trkpt lat="43.90267" lon="1.6675">
        <ele>228.93</ele>
        <time>2017-08-27T07:03:33Z</time>
      </trkpt>
      <trkpt lat="43.90265" lon="1.66752">
        <ele>228.45</ele>
        <time>2017-08-27T07:03:36Z</time>
      </trkpt>
      <trkpt lat="43.90264" lon="1.66751">
        <ele>227.97</ele>
        <time>2017-08-27T07:03:37Z</time>
      </trkpt>
      <trkpt lat="43.90263" lon="1.66749">
        <ele>227.97</ele>
        <time>2017-08-27T07:03:38Z</time>
      </trkpt>
      <trkpt lat="43.90262" lon="1.66747">
        <ele>228.93</ele>
        <time>2017-08-27T07:03:39Z</time>
      </trkpt>
      <trkpt lat="43.90261" lon="1.66745">
        <ele>228.93</ele>
        <time>2017-08-27T07:03:40Z</time>
      </trkpt>
      <trkpt lat="43.90259" lon="1.66744">
        <ele>228.45</ele>
        <time>2017-08-27T07:03:41Z</time>
      </trkpt>
      <trkpt lat="43.90251" lon="1.66733">
        <ele>228.45</ele>
        <time>2017-08-27T07:03:45Z</time>
      </trkpt>
      <trkpt lat="43.90249" lon="1.66728">
        <ele>227.97</ele>
        <time>2017-08-27T07:03:46Z</time>
      </trkpt>
      <trkpt lat="43.90247" lon="1.66721">
        <ele>227.49</ele>
        <time>2017-08-27T07:03:47Z</time>
      </trkpt>
      <trkpt lat="43.90246" lon="1.66714">
        <ele>227.01</ele>
        <time>2017-08-27T07:03:48Z</time>
      </trkpt>
      <trkpt lat="43.90245" lon="1.66706">
        <ele>226.05</ele>
        <time>2017-08-27T07:03:49Z</time>
      </trkpt>
      <trkpt lat="43.90243" lon="1.66697">
        <ele>225.09</ele>
        <time>2017-08-27T07:03:50Z</time>
      </trkpt>
      <trkpt lat="43.90242" lon="1.66686">
        <ele>224.12</ele>
        <time>2017-08-27T07:03:51Z</time>
      </trkpt>
      <trkpt lat="43.90239" lon="1.66633">
        <ele>219.8</ele>
        <time>2017-08-27T07:03:55Z</time>
      </trkpt>
      <trkpt lat="43.90237" lon="1.66587">
        <ele>215.47</ele>
        <time>2017-08-27T07:03:58Z</time>
      </trkpt>
      <trkpt lat="43.90238" lon="1.66536">
        <ele>211.63</ele>
        <time>2017-08-27T07:04:01Z</time>
      </trkpt>
      <trkpt lat="43.9024" lon="1.6652">
        <ele>210.67</ele>
        <time>2017-08-27T07:04:02Z</time>
      </trkpt>
      <trkpt lat="43.90251" lon="1.66438">
        <ele>209.22</ele>
        <time>2017-08-27T07:04:08Z</time>
      </trkpt>
      <trkpt lat="43.90255" lon="1.66387">
        <ele>209.22</ele>
        <time>2017-08-27T07:04:13Z</time>
      </trkpt>
      <trkpt lat="43.90255" lon="1.66369">
        <ele>209.7</ele>
        <time>2017-08-27T07:04:17Z</time>
      </trkpt>
      <trkpt lat="43.90251" lon="1.6637">
        <ele>209.22</ele>
        <time>2017-08-27T07:04:23Z</time>
      </trkpt>
      <trkpt lat="43.90252" lon="1.66371">
        <ele>209.22</ele>
        <time>2017-08-27T07:04:34Z</time>
      </trkpt>
      <trkpt lat="43.90253" lon="1.66371">
        <ele>209.7</ele>
        <time>2017-08-27T07:04:42Z</time>
      </trkpt>
      <trkpt lat="43.90253" lon="1.66356">
        <ele>209.7</ele>
        <time>2017-08-27T07:04:47Z</time>
      </trkpt>
      <trkpt lat="43.90252" lon="1.6632">
        <ele>209.7</ele>
        <time>2017-08-27T07:04:54Z</time>
      </trkpt>
      <trkpt lat="43.90245" lon="1.66274">
        <ele>208.26</ele>
        <time>2017-08-27T07:05:00Z</time>
      </trkpt>
      <trkpt lat="43.90228" lon="1.66208">
        <ele>206.34</ele>
        <time>2017-08-27T07:05:07Z</time>
      </trkpt>
      <trkpt lat="43.90214" lon="1.66162">
        <ele>202.98</ele>
        <time>2017-08-27T07:05:11Z</time>
      </trkpt>
      <trkpt lat="43.90202" lon="1.661">
        <ele>199.13</ele>
        <time>2017-08-27T07:05:16Z</time>
      </trkpt>
      <trkpt lat="43.90195" lon="1.66047">
        <ele>195.28</ele>
        <time>2017-08-27T07:05:20Z</time>
      </trkpt>
      <trkpt lat="43.90189" lon="1.66002">
        <ele>190.96</ele>
        <time>2017-08-27T07:05:23Z</time>
      </trkpt>
      <trkpt lat="43.90182" lon="1.65948">
        <ele>186.63</ele>
        <time>2017-08-27T07:05:26Z</time>
      </trkpt>
      <trkpt lat="43.90178" lon="1.65909">
        <ele>181.83</ele>
        <time>2017-08-27T07:05:28Z</time>
      </trkpt>
      <trkpt lat="43.90175" lon="1.65873">
        <ele>177.98</ele>
        <time>2017-08-27T07:05:30Z</time>
      </trkpt>
      <trkpt lat="43.90173" lon="1.65859">
        <ele>176.06</ele>
        <time>2017-08-27T07:05:31Z</time>
      </trkpt>
      <trkpt lat="43.90169" lon="1.65839">
        <ele>174.14</ele>
        <time>2017-08-27T07:05:33Z</time>
      </trkpt>
      <trkpt lat="43.9017" lon="1.6583">
        <ele>173.17</ele>
        <time>2017-08-27T07:05:34Z</time>
      </trkpt>
      <trkpt lat="43.90174" lon="1.65822">
        <ele>172.69</ele>
        <time>2017-08-27T07:05:35Z</time>
      </trkpt>
      <trkpt lat="43.90179" lon="1.65815">
        <ele>172.69</ele>
        <time>2017-08-27T07:05:36Z</time>
      </trkpt>
      <trkpt lat="43.90186" lon="1.6581">
        <ele>172.69</ele>
        <time>2017-08-27T07:05:37Z</time>
      </trkpt>
      <trkpt lat="43.90192" lon="1.65806">
        <ele>172.21</ele>
        <time>2017-08-27T07:05:38Z</time>
      </trkpt>
      <trkpt lat="43.90198" lon="1.65803">
        <ele>172.69</ele>
        <time>2017-08-27T07:05:39Z</time>
      </trkpt>
      <trkpt lat="43.90234" lon="1.65787">
        <ele>172.69</ele>
        <time>2017-08-27T07:05:45Z</time>
      </trkpt>
      <trkpt lat="43.90278" lon="1.65765">
        <ele>171.73</ele>
        <time>2017-08-27T07:05:53Z</time>
      </trkpt>
      <trkpt lat="43.90283" lon="1.65761">
        <ele>171.73</ele>
        <time>2017-08-27T07:05:54Z</time>
      </trkpt>
      <trkpt lat="43.90321" lon="1.65742">
        <ele>171.25</ele>
        <time>2017-08-27T07:06:02Z</time>
      </trkpt>
      <trkpt lat="43.90363" lon="1.65728">
        <ele>170.77</ele>
        <time>2017-08-27T07:06:11Z</time>
      </trkpt>
      <trkpt lat="43.90367" lon="1.65726">
        <ele>170.29</ele>
        <time>2017-08-27T07:06:12Z</time>
      </trkpt>
      <trkpt lat="43.90371" lon="1.65722">
        <ele>170.29</ele>
        <time>2017-08-27T07:06:13Z</time>
      </trkpt>
      <trkpt lat="43.90373" lon="1.65716">
        <ele>170.77</ele>
        <time>2017-08-27T07:06:14Z</time>
      </trkpt>
      <trkpt lat="43.90372" lon="1.65711">
        <ele>170.77</ele>
        <time>2017-08-27T07:06:15Z</time>
      </trkpt>
      <trkpt lat="43.90369" lon="1.65706">
        <ele>170.77</ele>
        <time>2017-08-27T07:06:16Z</time>
      </trkpt>
      <trkpt lat="43.90367" lon="1.65701">
        <ele>170.77</ele>
        <time>2017-08-27T07:06:17Z</time>
      </trkpt>
      <trkpt lat="43.90364" lon="1.65697">
        <ele>170.77</ele>
        <time>2017-08-27T07:06:18Z</time>
      </trkpt>
      <trkpt lat="43.90356" lon="1.65679">
        <ele>172.21</ele>
        <time>2017-08-27T07:06:23Z</time>
      </trkpt>
      <trkpt lat="43.90344" lon="1.65656">
        <ele>175.1</ele>
        <time>2017-08-27T07:06:32Z</time>
      </trkpt>
      <trkpt lat="43.90335" lon="1.65637">
        <ele>177.5</ele>
        <time>2017-08-27T07:06:41Z</time>
      </trkpt>
      <trkpt lat="43.90324" lon="1.65626">
        <ele>179.9</ele>
        <time>2017-08-27T07:06:48Z</time>
      </trkpt>
      <trkpt lat="43.9031" lon="1.65618">
        <ele>180.87</ele>
        <time>2017-08-27T07:06:55Z</time>
      </trkpt>
      <trkpt lat="43.90292" lon="1.65605">
        <ele>182.31</ele>
        <time>2017-08-27T07:07:04Z</time>
      </trkpt>
      <trkpt lat="43.90281" lon="1.65588">
        <ele>184.23</ele>
        <time>2017-08-27T07:07:11Z</time>
      </trkpt>
      <trkpt lat="43.90266" lon="1.65563">
        <ele>186.15</ele>
        <time>2017-08-27T07:07:19Z</time>
      </trkpt>
      <trkpt lat="43.90265" lon="1.65556">
        <ele>190</ele>
        <time>2017-08-27T07:07:22Z</time>
      </trkpt>
      <trkpt lat="43.90264" lon="1.65553">
        <ele>186.63</ele>
        <time>2017-08-27T07:07:23Z</time>
      </trkpt>
      <trkpt lat="43.90264" lon="1.65529">
        <ele>188.56</ele>
        <time>2017-08-27T07:07:31Z</time>
      </trkpt>
      <trkpt lat="43.90261" lon="1.65505">
        <ele>190.48</ele>
        <time>2017-08-27T07:07:38Z</time>
      </trkpt>
      <trkpt lat="43.90262" lon="1.65486">
        <ele>191.92</ele>
        <time>2017-08-27T07:07:44Z</time>
      </trkpt>
      <trkpt lat="43.90262" lon="1.65465">
        <ele>192.4</ele>
        <time>2017-08-27T07:07:52Z</time>
      </trkpt>
      <trkpt lat="43.90261" lon="1.65446">
        <ele>193.36</ele>
        <time>2017-08-27T07:08:00Z</time>
      </trkpt>
      <trkpt lat="43.90258" lon="1.65425">
        <ele>192.88</ele>
        <time>2017-08-27T07:08:08Z</time>
      </trkpt>
      <trkpt lat="43.90253" lon="1.65403">
        <ele>194.32</ele>
        <time>2017-08-27T07:08:17Z</time>
      </trkpt>
      <trkpt lat="43.90245" lon="1.65389">
        <ele>195.28</ele>
        <time>2017-08-27T07:08:26Z</time>
      </trkpt>
      <trkpt lat="43.90236" lon="1.6538">
        <ele>195.77</ele>
        <time>2017-08-27T07:08:35Z</time>
      </trkpt>
      <trkpt lat="43.90224" lon="1.65373">
        <ele>196.73</ele>
        <time>2017-08-27T07:08:44Z</time>
      </trkpt>
      <trkpt lat="43.90224" lon="1.65375">
        <ele>196.73</ele>
        <time>2017-08-27T07:08:57Z</time>
      </trkpt>
      <trkpt lat="43.90224" lon="1.65374">
        <ele>196.73</ele>
        <time>2017-08-27T07:09:09Z</time>
      </trkpt>
      <trkpt lat="43.90223" lon="1.65373">
        <ele>197.21</ele>
        <time>2017-08-27T07:09:10Z</time>
      </trkpt>
      <trkpt lat="43.90209" lon="1.65361">
        <ele>197.69</ele>
        <time>2017-08-27T07:09:19Z</time>
      </trkpt>
      <trkpt lat="43.90191" lon="1.65348">
        <ele>199.13</ele>
        <time>2017-08-27T07:09:30Z</time>
      </trkpt>
      <trkpt lat="43.90173" lon="1.65337">
        <ele>201.05</ele>
        <time>2017-08-27T07:09:41Z</time>
      </trkpt>
      <trkpt lat="43.90158" lon="1.65331">
        <ele>202.98</ele>
        <time>2017-08-27T07:09:50Z</time>
      </trkpt>
      <trkpt lat="43.90144" lon="1.65326">
        <ele>203.94</ele>
        <time>2017-08-27T07:09:59Z</time>
      </trkpt>
      <trkpt lat="43.90127" lon="1.65324">
        <ele>206.82</ele>
        <time>2017-08-27T07:10:09Z</time>
      </trkpt>
      <trkpt lat="43.9011" lon="1.65324">
        <ele>209.22</ele>
        <time>2017-08-27T07:10:19Z</time>
      </trkpt>
      <trkpt lat="43.90093" lon="1.65319">
        <ele>211.63</ele>
        <time>2017-08-27T07:10:30Z</time>
      </trkpt>
      <trkpt lat="43.90083" lon="1.65313">
        <ele>213.55</ele>
        <time>2017-08-27T07:10:36Z</time>
      </trkpt>
      <trkpt lat="43.90063" lon="1.65306">
        <ele>214.03</ele>
        <time>2017-08-27T07:10:46Z</time>
      </trkpt>
      <trkpt lat="43.9004" lon="1.65302">
        <ele>215.95</ele>
        <time>2017-08-27T07:10:58Z</time>
      </trkpt>
      <trkpt lat="43.90015" lon="1.65304">
        <ele>218.36</ele>
        <time>2017-08-27T07:11:11Z</time>
      </trkpt>
      <trkpt lat="43.89996" lon="1.65306">
        <ele>220.28</ele>
        <time>2017-08-27T07:11:22Z</time>
      </trkpt>
      <trkpt lat="43.89995" lon="1.65308">
        <ele>220.28</ele>
        <time>2017-08-27T07:11:27Z</time>
      </trkpt>
      <trkpt lat="43.89994" lon="1.65309">
        <ele>220.28</ele>
        <time>2017-08-27T07:11:48Z</time>
      </trkpt>
      <trkpt lat="43.89994" lon="1.6531">
        <ele>220.28</ele>
        <time>2017-08-27T07:12:12Z</time>
      </trkpt>
      <trkpt lat="43.89995" lon="1.65312">
        <ele>220.28</ele>
        <time>2017-08-27T07:12:34Z</time>
      </trkpt>
      <trkpt lat="43.89994" lon="1.6531">
        <ele>219.8</ele>
        <time>2017-08-27T07:12:53Z</time>
      </trkpt>
      <trkpt lat="43.89995" lon="1.65309">
        <ele>220.28</ele>
        <time>2017-08-27T07:13:14Z</time>
      </trkpt>
      <trkpt lat="43.89994" lon="1.65309">
        <ele>220.28</ele>
        <time>2017-08-27T07:13:29Z</time>
      </trkpt>
      <trkpt lat="43.89993" lon="1.65308">
        <ele>219.8</ele>
        <time>2017-08-27T07:13:51Z</time>
      </trkpt>
      <trkpt lat="43.89993" lon="1.65308">
        <ele>219.8</ele>
        <time>2017-08-27T07:14:07Z</time>
      </trkpt>
      <trkpt lat="43.89994" lon="1.65307">
        <ele>219.8</ele>
        <time>2017-08-27T07:14:28Z</time>
      </trkpt>
      <trkpt lat="43.89995" lon="1.65308">
        <ele>219.8</ele>
        <time>2017-08-27T07:14:50Z</time>
      </trkpt>
      <trkpt lat="43.89994" lon="1.6531">
        <ele>219.8</ele>
        <time>2017-08-27T07:15:14Z</time>
      </trkpt>
      <trkpt lat="43.89995" lon="1.65308">
        <ele>219.32</ele>
        <time>2017-08-27T07:15:38Z</time>
      </trkpt>
      <trkpt lat="43.89995" lon="1.65311">
        <ele>219.32</ele>
        <time>2017-08-27T07:16:04Z</time>
      </trkpt>
      <trkpt lat="43.89997" lon="1.6531">
        <ele>219.32</ele>
        <time>2017-08-27T07:16:27Z</time>
      </trkpt>
      <trkpt lat="43.89996" lon="1.6531">
        <ele>219.32</ele>
        <time>2017-08-27T07:16:55Z</time>
      </trkpt>
      <trkpt lat="43.89995" lon="1.65311">
        <ele>219.32</ele>
        <time>2017-08-27T07:17:23Z</time>
      </trkpt>
      <trkpt lat="43.89996" lon="1.65313">
        <ele>219.8</ele>
        <time>2017-08-27T07:17:42Z</time>
      </trkpt>
      <trkpt lat="43.89996" lon="1.65312">
        <ele>219.8</ele>
        <time>2017-08-27T07:18:04Z</time>
      </trkpt>
      <trkpt lat="43.89997" lon="1.65312">
        <ele>219.8</ele>
        <time>2017-08-27T07:18:28Z</time>
      </trkpt>
      <trkpt lat="43.89997" lon="1.65312">
        <ele>219.32</ele>
        <time>2017-08-27T07:18:54Z</time>
      </trkpt>
      <trkpt lat="43.89995" lon="1.65314">
        <ele>219.8</ele>
        <time>2017-08-27T07:19:14Z</time>
      </trkpt>
      <trkpt lat="43.89995" lon="1.65313">
        <ele>219.32</ele>
        <time>2017-08-27T07:19:30Z</time>
      </trkpt>
      <trkpt lat="43.89995" lon="1.65313">
        <ele>219.32</ele>
        <time>2017-08-27T07:19:43Z</time>
      </trkpt>
      <trkpt lat="43.89995" lon="1.65312">
        <ele>219.8</ele>
        <time>2017-08-27T07:20:00Z</time>
      </trkpt>
      <trkpt lat="43.89996" lon="1.65312">
        <ele>219.32</ele>
        <time>2017-08-27T07:20:17Z</time>
      </trkpt>
      <trkpt lat="43.89997" lon="1.65312">
        <ele>219.8</ele>
        <time>2017-08-27T07:20:36Z</time>
      </trkpt>
      <trkpt lat="43.89997" lon="1.65312">
        <ele>219.8</ele>
        <time>2017-08-27T07:20:56Z</time>
      </trkpt>
      <trkpt lat="43.89997" lon="1.65313">
        <ele>219.32</ele>
        <time>2017-08-27T07:21:14Z</time>
      </trkpt>
      <trkpt lat="43.89998" lon="1.65312">
        <ele>219.8</ele>
        <time>2017-08-27T07:21:28Z</time>
      </trkpt>
      <trkpt lat="43.89999" lon="1.6531">
        <ele>219.32</ele>
        <time>2017-08-27T07:21:37Z</time>
      </trkpt>
      <trkpt lat="43.89998" lon="1.65308">
        <ele>220.28</ele>
        <time>2017-08-27T07:21:41Z</time>
      </trkpt>
      <trkpt lat="43.89992" lon="1.653">
        <ele>220.28</ele>
        <time>2017-08-27T07:21:47Z</time>
      </trkpt>
      <trkpt lat="43.8998" lon="1.65289">
        <ele>221.72</ele>
        <time>2017-08-27T07:21:53Z</time>
      </trkpt>
      <trkpt lat="43.89963" lon="1.65269">
        <ele>223.64</ele>
        <time>2017-08-27T07:22:03Z</time>
      </trkpt>
      <trkpt lat="43.89952" lon="1.65256">
        <ele>224.61</ele>
        <time>2017-08-27T07:22:09Z</time>
      </trkpt>
      <trkpt lat="43.89938" lon="1.65239">
        <ele>225.57</ele>
        <time>2017-08-27T07:22:17Z</time>
      </trkpt>
      <trkpt lat="43.89927" lon="1.65225">
        <ele>226.53</ele>
        <time>2017-08-27T07:22:24Z</time>
      </trkpt>
      <trkpt lat="43.89911" lon="1.65201">
        <ele>227.97</ele>
        <time>2017-08-27T07:22:36Z</time>
      </trkpt>
      <trkpt lat="43.89902" lon="1.65189">
        <ele>228.45</ele>
        <time>2017-08-27T07:22:43Z</time>
      </trkpt>
      <trkpt lat="43.89891" lon="1.65173">
        <ele>227.97</ele>
        <time>2017-08-27T07:22:51Z</time>
      </trkpt>
      <trkpt lat="43.89873" lon="1.65152">
        <ele>227.97</ele>
        <time>2017-08-27T07:22:58Z</time>
      </trkpt>
      <trkpt lat="43.89868" lon="1.65147">
        <ele>227.97</ele>
        <time>2017-08-27T07:23:00Z</time>
      </trkpt>
      <trkpt lat="43.89851" lon="1.65137">
        <ele>227.97</ele>
        <time>2017-08-27T07:23:06Z</time>
      </trkpt>
      <trkpt lat="43.89833" lon="1.6513">
        <ele>227.97</ele>
        <time>2017-08-27T07:23:12Z</time>
      </trkpt>
      <trkpt lat="43.89813" lon="1.65127">
        <ele>228.45</ele>
        <time>2017-08-27T07:23:20Z</time>
      </trkpt>
      <trkpt lat="43.89804" lon="1.65128">
        <ele>228.45</ele>
        <time>2017-08-27T07:23:25Z</time>
      </trkpt>
      <trkpt lat="43.89803" lon="1.65129">
        <ele>228.93</ele>
        <time>2017-08-27T07:23:26Z</time>
      </trkpt>
      <trkpt lat="43.89802" lon="1.65129">
        <ele>228.93</ele>
        <time>2017-08-27T07:23:27Z</time>
      </trkpt>
      <trkpt lat="43.898" lon="1.65129">
        <ele>228.93</ele>
        <time>2017-08-27T07:23:28Z</time>
      </trkpt>
      <trkpt lat="43.89798" lon="1.65128">
        <ele>228.45</ele>
        <time>2017-08-27T07:23:29Z</time>
      </trkpt>
      <trkpt lat="43.89788" lon="1.65127">
        <ele>230.37</ele>
        <time>2017-08-27T07:23:35Z</time>
      </trkpt>
      <trkpt lat="43.89786" lon="1.65126">
        <ele>230.37</ele>
        <time>2017-08-27T07:23:36Z</time>
      </trkpt>
      <trkpt lat="43.89784" lon="1.65126">
        <ele>229.89</ele>
        <time>2017-08-27T07:23:37Z</time>
      </trkpt>
      <trkpt lat="43.89765" lon="1.65125">
        <ele>230.85</ele>
        <time>2017-08-27T07:23:44Z</time>
      </trkpt>
      <trkpt lat="43.8974" lon="1.65124">
        <ele>231.81</ele>
        <time>2017-08-27T07:23:52Z</time>
      </trkpt>
      <trkpt lat="43.89718" lon="1.65123">
        <ele>232.78</ele>
        <time>2017-08-27T07:24:01Z</time>
      </trkpt>
      <trkpt lat="43.89702" lon="1.65124">
        <ele>233.74</ele>
        <time>2017-08-27T07:24:07Z</time>
      </trkpt>
      <trkpt lat="43.89681" lon="1.65116">
        <ele>233.26</ele>
        <time>2017-08-27T07:24:14Z</time>
      </trkpt>
      <trkpt lat="43.89675" lon="1.65114">
        <ele>233.26</ele>
        <time>2017-08-27T07:24:16Z</time>
      </trkpt>
      <trkpt lat="43.89673" lon="1.65115">
        <ele>233.74</ele>
        <time>2017-08-27T07:24:17Z</time>
      </trkpt>
      <trkpt lat="43.89652" lon="1.65124">
        <ele>233.26</ele>
        <time>2017-08-27T07:24:24Z</time>
      </trkpt>
      <trkpt lat="43.89648" lon="1.65123">
        <ele>233.26</ele>
        <time>2017-08-27T07:24:26Z</time>
      </trkpt>
      <trkpt lat="43.89646" lon="1.6512">
        <ele>233.26</ele>
        <time>2017-08-27T07:24:27Z</time>
      </trkpt>
      <trkpt lat="43.89645" lon="1.65119">
        <ele>234.22</ele>
        <time>2017-08-27T07:24:28Z</time>
      </trkpt>
      <trkpt lat="43.89643" lon="1.65117">
        <ele>233.74</ele>
        <time>2017-08-27T07:24:29Z</time>
      </trkpt>
      <trkpt lat="43.89641" lon="1.65117">
        <ele>234.22</ele>
        <time>2017-08-27T07:24:30Z</time>
      </trkpt>
      <trkpt lat="43.89638" lon="1.65117">
        <ele>234.22</ele>
        <time>2017-08-27T07:24:31Z</time>
      </trkpt>
      <trkpt lat="43.8962" lon="1.6512">
        <ele>234.22</ele>
        <time>2017-08-27T07:24:37Z</time>
      </trkpt>
      <trkpt lat="43.89602" lon="1.65123">
        <ele>234.7</ele>
        <time>2017-08-27T07:24:44Z</time>
      </trkpt>
      <trkpt lat="43.89585" lon="1.65124">
        <ele>235.18</ele>
        <time>2017-08-27T07:24:50Z</time>
      </trkpt>
      <trkpt lat="43.89564" lon="1.65122">
        <ele>236.14</ele>
        <time>2017-08-27T07:24:57Z</time>
      </trkpt>
      <trkpt lat="43.89541" lon="1.65123">
        <ele>236.14</ele>
        <time>2017-08-27T07:25:04Z</time>
      </trkpt>
      <trkpt lat="43.89521" lon="1.65128">
        <ele>235.18</ele>
        <time>2017-08-27T07:25:09Z</time>
      </trkpt>
      <trkpt lat="43.895" lon="1.65148">
        <ele>234.7</ele>
        <time>2017-08-27T07:25:15Z</time>
      </trkpt>
      <trkpt lat="43.8948" lon="1.65166">
        <ele>235.18</ele>
        <time>2017-08-27T07:25:19Z</time>
      </trkpt>
      <trkpt lat="43.89468" lon="1.65182">
        <ele>234.7</ele>
        <time>2017-08-27T07:25:22Z</time>
      </trkpt>
      <trkpt lat="43.89448" lon="1.65199">
        <ele>235.66</ele>
        <time>2017-08-27T07:25:27Z</time>
      </trkpt>
      <trkpt lat="43.89443" lon="1.652">
        <ele>235.66</ele>
        <time>2017-08-27T07:25:28Z</time>
      </trkpt>
      <trkpt lat="43.89438" lon="1.65201">
        <ele>236.14</ele>
        <time>2017-08-27T07:25:29Z</time>
      </trkpt>
      <trkpt lat="43.89433" lon="1.65203">
        <ele>236.14</ele>
        <time>2017-08-27T07:25:30Z</time>
      </trkpt>
      <trkpt lat="43.89428" lon="1.65205">
        <ele>236.14</ele>
        <time>2017-08-27T07:25:31Z</time>
      </trkpt>
      <trkpt lat="43.89423" lon="1.65209">
        <ele>236.14</ele>
        <time>2017-08-27T07:25:32Z</time>
      </trkpt>
      <trkpt lat="43.89419" lon="1.65211">
        <ele>235.18</ele>
        <time>2017-08-27T07:25:33Z</time>
      </trkpt>
      <trkpt lat="43.89415" lon="1.65214">
        <ele>235.66</ele>
        <time>2017-08-27T07:25:34Z</time>
      </trkpt>
      <trkpt lat="43.89411" lon="1.65217">
        <ele>234.7</ele>
        <time>2017-08-27T07:25:35Z</time>
      </trkpt>
      <trkpt lat="43.89407" lon="1.65219">
        <ele>235.18</ele>
        <time>2017-08-27T07:25:36Z</time>
      </trkpt>
      <trkpt lat="43.89382" lon="1.65242">
        <ele>235.18</ele>
        <time>2017-08-27T07:25:43Z</time>
      </trkpt>
      <trkpt lat="43.8935" lon="1.65267">
        <ele>236.14</ele>
        <time>2017-08-27T07:25:51Z</time>
      </trkpt>
      <trkpt lat="43.89342" lon="1.65272">
        <ele>235.66</ele>
        <time>2017-08-27T07:25:53Z</time>
      </trkpt>
      <trkpt lat="43.89338" lon="1.65275">
        <ele>236.14</ele>
        <time>2017-08-27T07:25:54Z</time>
      </trkpt>
      <trkpt lat="43.89334" lon="1.65278">
        <ele>235.66</ele>
        <time>2017-08-27T07:25:55Z</time>
      </trkpt>
      <trkpt lat="43.89309" lon="1.6529">
        <ele>236.62</ele>
        <time>2017-08-27T07:26:01Z</time>
      </trkpt>
      <trkpt lat="43.89291" lon="1.653">
        <ele>236.14</ele>
        <time>2017-08-27T07:26:06Z</time>
      </trkpt>
      <trkpt lat="43.89271" lon="1.65316">
        <ele>236.62</ele>
        <time>2017-08-27T07:26:12Z</time>
      </trkpt>
      <trkpt lat="43.89254" lon="1.65325">
        <ele>236.62</ele>
        <time>2017-08-27T07:26:17Z</time>
      </trkpt>
      <trkpt lat="43.89234" lon="1.65337">
        <ele>237.1</ele>
        <time>2017-08-27T07:26:23Z</time>
      </trkpt>
      <trkpt lat="43.89217" lon="1.65357">
        <ele>237.58</ele>
        <time>2017-08-27T07:26:29Z</time>
      </trkpt>
      <trkpt lat="43.89205" lon="1.6537">
        <ele>237.58</ele>
        <time>2017-08-27T07:26:34Z</time>
      </trkpt>
      <trkpt lat="43.89181" lon="1.65382">
        <ele>238.54</ele>
        <time>2017-08-27T07:26:41Z</time>
      </trkpt>
      <trkpt lat="43.89177" lon="1.65382">
        <ele>238.06</ele>
        <time>2017-08-27T07:26:42Z</time>
      </trkpt>
      <trkpt lat="43.89174" lon="1.6538">
        <ele>238.54</ele>
        <time>2017-08-27T07:26:43Z</time>
      </trkpt>
      <trkpt lat="43.89157" lon="1.65354">
        <ele>238.54</ele>
        <time>2017-08-27T07:26:49Z</time>
      </trkpt>
      <trkpt lat="43.89135" lon="1.65312">
        <ele>238.06</ele>
        <time>2017-08-27T07:26:57Z</time>
      </trkpt>
      <trkpt lat="43.89121" lon="1.65288">
        <ele>238.54</ele>
        <time>2017-08-27T07:27:02Z</time>
      </trkpt>
      <trkpt lat="43.89118" lon="1.65284">
        <ele>238.06</ele>
        <time>2017-08-27T07:27:03Z</time>
      </trkpt>
      <trkpt lat="43.89097" lon="1.65249">
        <ele>239.02</ele>
        <time>2017-08-27T07:27:11Z</time>
      </trkpt>
      <trkpt lat="43.8908" lon="1.65211">
        <ele>239.99</ele>
        <time>2017-08-27T07:27:20Z</time>
      </trkpt>
      <trkpt lat="43.89079" lon="1.65184">
        <ele>239.51</ele>
        <time>2017-08-27T07:27:25Z</time>
      </trkpt>
      <trkpt lat="43.89079" lon="1.65174">
        <ele>239.99</ele>
        <time>2017-08-27T07:27:27Z</time>
      </trkpt>
      <trkpt lat="43.89077" lon="1.65171">
        <ele>239.99</ele>
        <time>2017-08-27T07:27:28Z</time>
      </trkpt>
      <trkpt lat="43.89074" lon="1.65168">
        <ele>240.47</ele>
        <time>2017-08-27T07:27:29Z</time>
      </trkpt>
      <trkpt lat="43.89071" lon="1.65165">
        <ele>239.99</ele>
        <time>2017-08-27T07:27:30Z</time>
      </trkpt>
      <trkpt lat="43.89068" lon="1.65161">
        <ele>239.99</ele>
        <time>2017-08-27T07:27:31Z</time>
      </trkpt>
      <trkpt lat="43.89065" lon="1.65158">
        <ele>240.47</ele>
        <time>2017-08-27T07:27:32Z</time>
      </trkpt>
      <trkpt lat="43.89062" lon="1.65155">
        <ele>239.51</ele>
        <time>2017-08-27T07:27:33Z</time>
      </trkpt>
      <trkpt lat="43.89059" lon="1.65152">
        <ele>239.99</ele>
        <time>2017-08-27T07:27:34Z</time>
      </trkpt>
      <trkpt lat="43.89056" lon="1.65149">
        <ele>239.51</ele>
        <time>2017-08-27T07:27:35Z</time>
      </trkpt>
      <trkpt lat="43.89053" lon="1.65145">
        <ele>239.99</ele>
        <time>2017-08-27T07:27:36Z</time>
      </trkpt>
      <trkpt lat="43.89032" lon="1.65122">
        <ele>239.99</ele>
        <time>2017-08-27T07:27:43Z</time>
      </trkpt>
      <trkpt lat="43.89025" lon="1.65115">
        <ele>239.99</ele>
        <time>2017-08-27T07:27:45Z</time>
      </trkpt>
      <trkpt lat="43.8899" lon="1.65086">
        <ele>239.02</ele>
        <time>2017-08-27T07:27:54Z</time>
      </trkpt>
      <trkpt lat="43.88947" lon="1.65061">
        <ele>238.06</ele>
        <time>2017-08-27T07:28:02Z</time>
      </trkpt>
      <trkpt lat="43.88887" lon="1.65028">
        <ele>236.14</ele>
        <time>2017-08-27T07:28:12Z</time>
      </trkpt>
      <trkpt lat="43.88841" lon="1.65002">
        <ele>235.18</ele>
        <time>2017-08-27T07:28:20Z</time>
      </trkpt>
      <trkpt lat="43.888" lon="1.64981">
        <ele>234.7</ele>
        <time>2017-08-27T07:28:27Z</time>
      </trkpt>
      <trkpt lat="43.88746" lon="1.64956">
        <ele>233.26</ele>
        <time>2017-08-27T07:28:36Z</time>
      </trkpt>
      <trkpt lat="43.88697" lon="1.64937">
        <ele>232.3</ele>
        <time>2017-08-27T07:28:44Z</time>
      </trkpt>
      <trkpt lat="43.88646" lon="1.64919">
        <ele>232.78</ele>
        <time>2017-08-27T07:28:53Z</time>
      </trkpt>
      <trkpt lat="43.88618" lon="1.64909">
        <ele>232.78</ele>
        <time>2017-08-27T07:28:59Z</time>
      </trkpt>
      <trkpt lat="43.88565" lon="1.64897">
        <ele>232.3</ele>
        <time>2017-08-27T07:29:09Z</time>
      </trkpt>
      <trkpt lat="43.88516" lon="1.64888">
        <ele>232.3</ele>
        <time>2017-08-27T07:29:18Z</time>
      </trkpt>
      <trkpt lat="43.8847" lon="1.64878">
        <ele>232.78</ele>
        <time>2017-08-27T07:29:27Z</time>
      </trkpt>
      <trkpt lat="43.88465" lon="1.64875">
        <ele>232.78</ele>
        <time>2017-08-27T07:29:28Z</time>
      </trkpt>
      <trkpt lat="43.88462" lon="1.64871">
        <ele>233.26</ele>
        <time>2017-08-27T07:29:29Z</time>
      </trkpt>
      <trkpt lat="43.88459" lon="1.64866">
        <ele>232.78</ele>
        <time>2017-08-27T07:29:30Z</time>
      </trkpt>
      <trkpt lat="43.88457" lon="1.6486">
        <ele>233.26</ele>
        <time>2017-08-27T07:29:31Z</time>
      </trkpt>
      <trkpt lat="43.88456" lon="1.64855">
        <ele>233.26</ele>
        <time>2017-08-27T07:29:32Z</time>
      </trkpt>
      <trkpt lat="43.88439" lon="1.64804">
        <ele>235.18</ele>
        <time>2017-08-27T07:29:42Z</time>
      </trkpt>
      <trkpt lat="43.88426" lon="1.64776">
        <ele>238.06</ele>
        <time>2017-08-27T07:29:50Z</time>
      </trkpt>
      <trkpt lat="43.88415" lon="1.64762">
        <ele>239.99</ele>
        <time>2017-08-27T07:29:55Z</time>
      </trkpt>
      <trkpt lat="43.88397" lon="1.64738">
        <ele>240.47</ele>
        <time>2017-08-27T07:30:02Z</time>
      </trkpt>
      <trkpt lat="43.88369" lon="1.64707">
        <ele>238.54</ele>
        <time>2017-08-27T07:30:08Z</time>
      </trkpt>
      <trkpt lat="43.88326" lon="1.64659">
        <ele>235.66</ele>
        <time>2017-08-27T07:30:16Z</time>
      </trkpt>
      <trkpt lat="43.883" lon="1.64608">
        <ele>235.18</ele>
        <time>2017-08-27T07:30:23Z</time>
      </trkpt>
      <trkpt lat="43.88297" lon="1.64601">
        <ele>235.18</ele>
        <time>2017-08-27T07:30:24Z</time>
      </trkpt>
      <trkpt lat="43.88295" lon="1.64594">
        <ele>234.7</ele>
        <time>2017-08-27T07:30:25Z</time>
      </trkpt>
      <trkpt lat="43.88294" lon="1.64586">
        <ele>234.7</ele>
        <time>2017-08-27T07:30:26Z</time>
      </trkpt>
      <trkpt lat="43.88294" lon="1.64579">
        <ele>234.7</ele>
        <time>2017-08-27T07:30:27Z</time>
      </trkpt>
      <trkpt lat="43.88295" lon="1.64572">
        <ele>234.7</ele>
        <time>2017-08-27T07:30:28Z</time>
      </trkpt>
      <trkpt lat="43.88296" lon="1.64565">
        <ele>234.7</ele>
        <time>2017-08-27T07:30:29Z</time>
      </trkpt>
      <trkpt lat="43.88296" lon="1.64558">
        <ele>235.18</ele>
        <time>2017-08-27T07:30:30Z</time>
      </trkpt>
      <trkpt lat="43.88297" lon="1.64552">
        <ele>234.7</ele>
        <time>2017-08-27T07:30:31Z</time>
      </trkpt>
      <trkpt lat="43.88299" lon="1.64546">
        <ele>234.7</ele>
        <time>2017-08-27T07:30:32Z</time>
      </trkpt>
      <trkpt lat="43.883" lon="1.6454">
        <ele>235.18</ele>
        <time>2017-08-27T07:30:33Z</time>
      </trkpt>
      <trkpt lat="43.883" lon="1.64534">
        <ele>234.7</ele>
        <time>2017-08-27T07:30:34Z</time>
      </trkpt>
      <trkpt lat="43.88308" lon="1.64489">
        <ele>236.14</ele>
        <time>2017-08-27T07:30:43Z</time>
      </trkpt>
      <trkpt lat="43.88312" lon="1.64461">
        <ele>236.14</ele>
        <time>2017-08-27T07:30:49Z</time>
      </trkpt>
      <trkpt lat="43.88315" lon="1.64401">
        <ele>236.62</ele>
        <time>2017-08-27T07:31:01Z</time>
      </trkpt>
      <trkpt lat="43.88304" lon="1.64364">
        <ele>237.58</ele>
        <time>2017-08-27T07:31:09Z</time>
      </trkpt>
      <trkpt lat="43.88286" lon="1.64319">
        <ele>236.62</ele>
        <time>2017-08-27T07:31:17Z</time>
      </trkpt>
      <trkpt lat="43.88271" lon="1.64266">
        <ele>233.26</ele>
        <time>2017-08-27T07:31:22Z</time>
      </trkpt>
      <trkpt lat="43.88256" lon="1.64212">
        <ele>229.41</ele>
        <time>2017-08-27T07:31:26Z</time>
      </trkpt>
      <trkpt lat="43.88222" lon="1.6414">
        <ele>227.97</ele>
        <time>2017-08-27T07:31:32Z</time>
      </trkpt>
      <trkpt lat="43.88172" lon="1.64061">
        <ele>225.57</ele>
        <time>2017-08-27T07:31:40Z</time>
      </trkpt>
      <trkpt lat="43.88141" lon="1.6403">
        <ele>225.57</ele>
        <time>2017-08-27T07:31:45Z</time>
      </trkpt>
      <trkpt lat="43.8811" lon="1.64006">
        <ele>227.97</ele>
        <time>2017-08-27T07:31:51Z</time>
      </trkpt>
      <trkpt lat="43.88076" lon="1.63976">
        <ele>228.45</ele>
        <time>2017-08-27T07:31:59Z</time>
      </trkpt>
      <trkpt lat="43.88049" lon="1.63943">
        <ele>229.89</ele>
        <time>2017-08-27T07:32:07Z</time>
      </trkpt>
      <trkpt lat="43.88031" lon="1.6392">
        <ele>232.78</ele>
        <time>2017-08-27T07:32:14Z</time>
      </trkpt>
      <trkpt lat="43.88013" lon="1.639">
        <ele>234.22</ele>
        <time>2017-08-27T07:32:21Z</time>
      </trkpt>
      <trkpt lat="43.88006" lon="1.63886">
        <ele>235.18</ele>
        <time>2017-08-27T07:32:25Z</time>
      </trkpt>
      <trkpt lat="43.88006" lon="1.63881">
        <ele>234.7</ele>
        <time>2017-08-27T07:32:26Z</time>
      </trkpt>
      <trkpt lat="43.88008" lon="1.63876">
        <ele>235.18</ele>
        <time>2017-08-27T07:32:27Z</time>
      </trkpt>
      <trkpt lat="43.88009" lon="1.63872">
        <ele>235.18</ele>
        <time>2017-08-27T07:32:28Z</time>
      </trkpt>
      <trkpt lat="43.88011" lon="1.63867">
        <ele>235.18</ele>
        <time>2017-08-27T07:32:29Z</time>
      </trkpt>
      <trkpt lat="43.88029" lon="1.63828">
        <ele>235.18</ele>
        <time>2017-08-27T07:32:38Z</time>
      </trkpt>
      <trkpt lat="43.88044" lon="1.63799">
        <ele>235.18</ele>
        <time>2017-08-27T07:32:46Z</time>
      </trkpt>
      <trkpt lat="43.88057" lon="1.63782">
        <ele>234.7</ele>
        <time>2017-08-27T07:32:53Z</time>
      </trkpt>
      <trkpt lat="43.88067" lon="1.63764">
        <ele>236.14</ele>
        <time>2017-08-27T07:33:00Z</time>
      </trkpt>
      <trkpt lat="43.88069" lon="1.63761">
        <ele>235.66</ele>
        <time>2017-08-27T07:33:01Z</time>
      </trkpt>
      <trkpt lat="43.8807" lon="1.63759">
        <ele>235.66</ele>
        <time>2017-08-27T07:33:02Z</time>
      </trkpt>
      <trkpt lat="43.88072" lon="1.63756">
        <ele>235.66</ele>
        <time>2017-08-27T07:33:03Z</time>
      </trkpt>
      <trkpt lat="43.88073" lon="1.63754">
        <ele>236.14</ele>
        <time>2017-08-27T07:33:04Z</time>
      </trkpt>
      <trkpt lat="43.88075" lon="1.63752">
        <ele>236.14</ele>
        <time>2017-08-27T07:33:05Z</time>
      </trkpt>
      <trkpt lat="43.88076" lon="1.63749">
        <ele>235.66</ele>
        <time>2017-08-27T07:33:06Z</time>
      </trkpt>
      <trkpt lat="43.88086" lon="1.63715">
        <ele>236.14</ele>
        <time>2017-08-27T07:33:14Z</time>
      </trkpt>
      <trkpt lat="43.88088" lon="1.63692">
        <ele>235.66</ele>
        <time>2017-08-27T07:33:18Z</time>
      </trkpt>
      <trkpt lat="43.88089" lon="1.63639">
        <ele>233.74</ele>
        <time>2017-08-27T07:33:25Z</time>
      </trkpt>
      <trkpt lat="43.88087" lon="1.63567">
        <ele>232.3</ele>
        <time>2017-08-27T07:33:32Z</time>
      </trkpt>
      <trkpt lat="43.88083" lon="1.63464">
        <ele>229.89</ele>
        <time>2017-08-27T07:33:41Z</time>
      </trkpt>
      <trkpt lat="43.88072" lon="1.63361">
        <ele>229.41</ele>
        <time>2017-08-27T07:33:50Z</time>
      </trkpt>
      <trkpt lat="43.88058" lon="1.63252">
        <ele>230.37</ele>
        <time>2017-08-27T07:34:01Z</time>
      </trkpt>
      <trkpt lat="43.88053" lon="1.63225">
        <ele>230.37</ele>
        <time>2017-08-27T07:34:04Z</time>
      </trkpt>
      <trkpt lat="43.88052" lon="1.63217">
        <ele>230.85</ele>
        <time>2017-08-27T07:34:05Z</time>
      </trkpt>
      <trkpt lat="43.88048" lon="1.63188">
        <ele>230.85</ele>
        <time>2017-08-27T07:34:09Z</time>
      </trkpt>
      <trkpt lat="43.88042" lon="1.6314">
        <ele>230.37</ele>
        <time>2017-08-27T07:34:17Z</time>
      </trkpt>
      <trkpt lat="43.88041" lon="1.63128">
        <ele>229.89</ele>
        <time>2017-08-27T07:34:19Z</time>
      </trkpt>
      <trkpt lat="43.88033" lon="1.63083">
        <ele>229.89</ele>
        <time>2017-08-27T07:34:27Z</time>
      </trkpt>
      <trkpt lat="43.88011" lon="1.63025">
        <ele>228.45</ele>
        <time>2017-08-27T07:34:36Z</time>
      </trkpt>
      <trkpt lat="43.87981" lon="1.62979">
        <ele>229.41</ele>
        <time>2017-08-27T07:34:44Z</time>
      </trkpt>
      <trkpt lat="43.87943" lon="1.62929">
        <ele>228.45</ele>
        <time>2017-08-27T07:34:53Z</time>
      </trkpt>
      <trkpt lat="43.87919" lon="1.62896">
        <ele>225.57</ele>
        <time>2017-08-27T07:34:58Z</time>
      </trkpt>
      <trkpt lat="43.87909" lon="1.62883">
        <ele>224.61</ele>
        <time>2017-08-27T07:35:00Z</time>
      </trkpt>
      <trkpt lat="43.87884" lon="1.62848">
        <ele>222.68</ele>
        <time>2017-08-27T07:35:05Z</time>
      </trkpt>
      <trkpt lat="43.87875" lon="1.62832">
        <ele>222.2</ele>
        <time>2017-08-27T07:35:07Z</time>
      </trkpt>
      <trkpt lat="43.87872" lon="1.62824">
        <ele>221.72</ele>
        <time>2017-08-27T07:35:08Z</time>
      </trkpt>
      <trkpt lat="43.87869" lon="1.62815">
        <ele>221.24</ele>
        <time>2017-08-27T07:35:09Z</time>
      </trkpt>
      <trkpt lat="43.87868" lon="1.62806">
        <ele>221.72</ele>
        <time>2017-08-27T07:35:10Z</time>
      </trkpt>
      <trkpt lat="43.87867" lon="1.62797">
        <ele>221.24</ele>
        <time>2017-08-27T07:35:11Z</time>
      </trkpt>
      <trkpt lat="43.87864" lon="1.62724">
        <ele>217.88</ele>
        <time>2017-08-27T07:35:18Z</time>
      </trkpt>
      <trkpt lat="43.87864" lon="1.6269">
        <ele>216.91</ele>
        <time>2017-08-27T07:35:21Z</time>
      </trkpt>
      <trkpt lat="43.87865" lon="1.62679">
        <ele>215.95</ele>
        <time>2017-08-27T07:35:22Z</time>
      </trkpt>
      <trkpt lat="43.87868" lon="1.62668">
        <ele>215.47</ele>
        <time>2017-08-27T07:35:23Z</time>
      </trkpt>
      <trkpt lat="43.87871" lon="1.62658">
        <ele>215.47</ele>
        <time>2017-08-27T07:35:24Z</time>
      </trkpt>
      <trkpt lat="43.87875" lon="1.62648">
        <ele>215.47</ele>
        <time>2017-08-27T07:35:25Z</time>
      </trkpt>
      <trkpt lat="43.87879" lon="1.62637">
        <ele>214.99</ele>
        <time>2017-08-27T07:35:26Z</time>
      </trkpt>
      <trkpt lat="43.87898" lon="1.62576">
        <ele>211.15</ele>
        <time>2017-08-27T07:35:31Z</time>
      </trkpt>
      <trkpt lat="43.87914" lon="1.62524">
        <ele>208.74</ele>
        <time>2017-08-27T07:35:35Z</time>
      </trkpt>
      <trkpt lat="43.8792" lon="1.62512">
        <ele>207.3</ele>
        <time>2017-08-27T07:35:36Z</time>
      </trkpt>
      <trkpt lat="43.87948" lon="1.62465">
        <ele>204.42</ele>
        <time>2017-08-27T07:35:40Z</time>
      </trkpt>
      <trkpt lat="43.87976" lon="1.6242">
        <ele>201.53</ele>
        <time>2017-08-27T07:35:44Z</time>
      </trkpt>
      <trkpt lat="43.87997" lon="1.62384">
        <ele>198.17</ele>
        <time>2017-08-27T07:35:47Z</time>
      </trkpt>
      <trkpt lat="43.8801" lon="1.62359">
        <ele>196.73</ele>
        <time>2017-08-27T07:35:49Z</time>
      </trkpt>
      <trkpt lat="43.88014" lon="1.62346">
        <ele>195.77</ele>
        <time>2017-08-27T07:35:50Z</time>
      </trkpt>
      <trkpt lat="43.88016" lon="1.62336">
        <ele>194.8</ele>
        <time>2017-08-27T07:35:51Z</time>
      </trkpt>
      <trkpt lat="43.88016" lon="1.62328">
        <ele>193.84</ele>
        <time>2017-08-27T07:35:52Z</time>
      </trkpt>
      <trkpt lat="43.88014" lon="1.62322">
        <ele>192.88</ele>
        <time>2017-08-27T07:35:53Z</time>
      </trkpt>
      <trkpt lat="43.8801" lon="1.62317">
        <ele>192.4</ele>
        <time>2017-08-27T07:35:54Z</time>
      </trkpt>
      <trkpt lat="43.88005" lon="1.62314">
        <ele>192.4</ele>
        <time>2017-08-27T07:35:55Z</time>
      </trkpt>
      <trkpt lat="43.87998" lon="1.62311">
        <ele>192.4</ele>
        <time>2017-08-27T07:35:56Z</time>
      </trkpt>
      <trkpt lat="43.87983" lon="1.62305">
        <ele>190.48</ele>
        <time>2017-08-27T07:35:58Z</time>
      </trkpt>
      <trkpt lat="43.87975" lon="1.62302">
        <ele>190.48</ele>
        <time>2017-08-27T07:35:59Z</time>
      </trkpt>
      <trkpt lat="43.87966" lon="1.62301">
        <ele>189.52</ele>
        <time>2017-08-27T07:36:00Z</time>
      </trkpt>
      <trkpt lat="43.87957" lon="1.62302">
        <ele>188.56</ele>
        <time>2017-08-27T07:36:01Z</time>
      </trkpt>
      <trkpt lat="43.87948" lon="1.62304">
        <ele>187.59</ele>
        <time>2017-08-27T07:36:02Z</time>
      </trkpt>
      <trkpt lat="43.87939" lon="1.62308">
        <ele>187.59</ele>
        <time>2017-08-27T07:36:03Z</time>
      </trkpt>
      <trkpt lat="43.8793" lon="1.62313">
        <ele>187.11</ele>
        <time>2017-08-27T07:36:04Z</time>
      </trkpt>
      <trkpt lat="43.87921" lon="1.62319">
        <ele>185.67</ele>
        <time>2017-08-27T07:36:05Z</time>
      </trkpt>
      <trkpt lat="43.87912" lon="1.62326">
        <ele>185.19</ele>
        <time>2017-08-27T07:36:06Z</time>
      </trkpt>
      <trkpt lat="43.87876" lon="1.62351">
        <ele>181.35</ele>
        <time>2017-08-27T07:36:10Z</time>
      </trkpt>
      <trkpt lat="43.87865" lon="1.62356">
        <ele>180.87</ele>
        <time>2017-08-27T07:36:11Z</time>
      </trkpt>
      <trkpt lat="43.87854" lon="1.62357">
        <ele>179.42</ele>
        <time>2017-08-27T07:36:12Z</time>
      </trkpt>
      <trkpt lat="43.87843" lon="1.62355">
        <ele>177.98</ele>
        <time>2017-08-27T07:36:13Z</time>
      </trkpt>
      <trkpt lat="43.87832" lon="1.62351">
        <ele>176.54</ele>
        <time>2017-08-27T07:36:14Z</time>
      </trkpt>
      <trkpt lat="43.87821" lon="1.62348">
        <ele>176.06</ele>
        <time>2017-08-27T07:36:15Z</time>
      </trkpt>
      <trkpt lat="43.8781" lon="1.62346">
        <ele>174.62</ele>
        <time>2017-08-27T07:36:16Z</time>
      </trkpt>
      <trkpt lat="43.87798" lon="1.62346">
        <ele>174.14</ele>
        <time>2017-08-27T07:36:17Z</time>
      </trkpt>
      <trkpt lat="43.87774" lon="1.62348">
        <ele>170.77</ele>
        <time>2017-08-27T07:36:19Z</time>
      </trkpt>
      <trkpt lat="43.8774" lon="1.62353">
        <ele>166.45</ele>
        <time>2017-08-27T07:36:22Z</time>
      </trkpt>
      <trkpt lat="43.87732" lon="1.62353">
        <ele>165.48</ele>
        <time>2017-08-27T07:36:23Z</time>
      </trkpt>
      <trkpt lat="43.87724" lon="1.6235">
        <ele>164.04</ele>
        <time>2017-08-27T07:36:24Z</time>
      </trkpt>
      <trkpt lat="43.87719" lon="1.62343">
        <ele>162.6</ele>
        <time>2017-08-27T07:36:25Z</time>
      </trkpt>
      <trkpt lat="43.87716" lon="1.62333">
        <ele>161.64</ele>
        <time>2017-08-27T07:36:26Z</time>
      </trkpt>
      <trkpt lat="43.87714" lon="1.62323">
        <ele>161.64</ele>
        <time>2017-08-27T07:36:27Z</time>
      </trkpt>
      <trkpt lat="43.87704" lon="1.62279">
        <ele>159.72</ele>
        <time>2017-08-27T07:36:31Z</time>
      </trkpt>
      <trkpt lat="43.87695" lon="1.62246">
        <ele>157.31</ele>
        <time>2017-08-27T07:36:34Z</time>
      </trkpt>
      <trkpt lat="43.87674" lon="1.62159">
        <ele>155.39</ele>
        <time>2017-08-27T07:36:43Z</time>
      </trkpt>
      <trkpt lat="43.87674" lon="1.62151">
        <ele>154.43</ele>
        <time>2017-08-27T07:36:44Z</time>
      </trkpt>
      <trkpt lat="43.87675" lon="1.62144">
        <ele>153.95</ele>
        <time>2017-08-27T07:36:45Z</time>
      </trkpt>
      <trkpt lat="43.87678" lon="1.62139">
        <ele>154.43</ele>
        <time>2017-08-27T07:36:46Z</time>
      </trkpt>
      <trkpt lat="43.87682" lon="1.62135">
        <ele>153.95</ele>
        <time>2017-08-27T07:36:47Z</time>
      </trkpt>
      <trkpt lat="43.87686" lon="1.62133">
        <ele>154.43</ele>
        <time>2017-08-27T07:36:48Z</time>
      </trkpt>
      <trkpt lat="43.8769" lon="1.62131">
        <ele>155.39</ele>
        <time>2017-08-27T07:36:49Z</time>
      </trkpt>
      <trkpt lat="43.87694" lon="1.6213">
        <ele>155.39</ele>
        <time>2017-08-27T07:36:50Z</time>
      </trkpt>
      <trkpt lat="43.87714" lon="1.62119">
        <ele>155.87</ele>
        <time>2017-08-27T07:36:57Z</time>
      </trkpt>
      <trkpt lat="43.87735" lon="1.6211">
        <ele>157.31</ele>
        <time>2017-08-27T07:37:05Z</time>
      </trkpt>
      <trkpt lat="43.87736" lon="1.62109">
        <ele>157.79</ele>
        <time>2017-08-27T07:37:06Z</time>
      </trkpt>
      <trkpt lat="43.87738" lon="1.62107">
        <ele>157.79</ele>
        <time>2017-08-27T07:37:07Z</time>
      </trkpt>
      <trkpt lat="43.87739" lon="1.62106">
        <ele>158.27</ele>
        <time>2017-08-27T07:37:08Z</time>
      </trkpt>
      <trkpt lat="43.87741" lon="1.62105">
        <ele>158.27</ele>
        <time>2017-08-27T07:37:09Z</time>
      </trkpt>
      <trkpt lat="43.87744" lon="1.62104">
        <ele>158.75</ele>
        <time>2017-08-27T07:37:10Z</time>
      </trkpt>
      <trkpt lat="43.87746" lon="1.62103">
        <ele>158.75</ele>
        <time>2017-08-27T07:37:11Z</time>
      </trkpt>
      <trkpt lat="43.87748" lon="1.62101">
        <ele>158.75</ele>
        <time>2017-08-27T07:37:12Z</time>
      </trkpt>
      <trkpt lat="43.8775" lon="1.62099">
        <ele>159.24</ele>
        <time>2017-08-27T07:37:13Z</time>
      </trkpt>
      <trkpt lat="43.87765" lon="1.62076">
        <ele>161.16</ele>
        <time>2017-08-27T07:37:22Z</time>
      </trkpt>
      <trkpt lat="43.87779" lon="1.62045">
        <ele>163.56</ele>
        <time>2017-08-27T07:37:33Z</time>
      </trkpt>
      <trkpt lat="43.87782" lon="1.62021">
        <ele>165.48</ele>
        <time>2017-08-27T07:37:41Z</time>
      </trkpt>
      <trkpt lat="43.87782" lon="1.61993">
        <ele>166.93</ele>
        <time>2017-08-27T07:37:50Z</time>
      </trkpt>
      <trkpt lat="43.87775" lon="1.61956">
        <ele>169.81</ele>
        <time>2017-08-27T07:38:02Z</time>
      </trkpt>
      <trkpt lat="43.87772" lon="1.61925">
        <ele>170.77</ele>
        <time>2017-08-27T07:38:12Z</time>
      </trkpt>
      <trkpt lat="43.87772" lon="1.6192">
        <ele>172.21</ele>
        <time>2017-08-27T07:38:14Z</time>
      </trkpt>
      <trkpt lat="43.87774" lon="1.61918">
        <ele>171.73</ele>
        <time>2017-08-27T07:38:19Z</time>
      </trkpt>
      <trkpt lat="43.87775" lon="1.61917">
        <ele>171.73</ele>
        <time>2017-08-27T07:38:29Z</time>
      </trkpt>
      <trkpt lat="43.87775" lon="1.61918">
        <ele>171.25</ele>
        <time>2017-08-27T07:38:44Z</time>
      </trkpt>
      <trkpt lat="43.87775" lon="1.61918">
        <ele>171.73</ele>
        <time>2017-08-27T07:38:58Z</time>
      </trkpt>
      <trkpt lat="43.87777" lon="1.61918">
        <ele>171.25</ele>
        <time>2017-08-27T07:39:02Z</time>
      </trkpt>
      <trkpt lat="43.87779" lon="1.61917">
        <ele>171.25</ele>
        <time>2017-08-27T07:39:03Z</time>
      </trkpt>
      <trkpt lat="43.87782" lon="1.61917">
        <ele>171.25</ele>
        <time>2017-08-27T07:39:04Z</time>
      </trkpt>
      <trkpt lat="43.87787" lon="1.61916">
        <ele>170.29</ele>
        <time>2017-08-27T07:39:05Z</time>
      </trkpt>
      <trkpt lat="43.87793" lon="1.61916">
        <ele>169.33</ele>
        <time>2017-08-27T07:39:06Z</time>
      </trkpt>
      <trkpt lat="43.8781" lon="1.61915">
        <ele>166.93</ele>
        <time>2017-08-27T07:39:08Z</time>
      </trkpt>
      <trkpt lat="43.8782" lon="1.61916">
        <ele>165.48</ele>
        <time>2017-08-27T07:39:09Z</time>
      </trkpt>
      <trkpt lat="43.87842" lon="1.61922">
        <ele>161.64</ele>
        <time>2017-08-27T07:39:11Z</time>
      </trkpt>
      <trkpt lat="43.87851" lon="1.61926">
        <ele>161.16</ele>
        <time>2017-08-27T07:39:12Z</time>
      </trkpt>
      <trkpt lat="43.8786" lon="1.61932">
        <ele>161.16</ele>
        <time>2017-08-27T07:39:13Z</time>
      </trkpt>
      <trkpt lat="43.87866" lon="1.61938">
        <ele>161.16</ele>
        <time>2017-08-27T07:39:14Z</time>
      </trkpt>
      <trkpt lat="43.8787" lon="1.61946">
        <ele>162.12</ele>
        <time>2017-08-27T07:39:15Z</time>
      </trkpt>
      <trkpt lat="43.87871" lon="1.61953">
        <ele>162.6</ele>
        <time>2017-08-27T07:39:16Z</time>
      </trkpt>
      <trkpt lat="43.87873" lon="1.61958">
        <ele>163.56</ele>
        <time>2017-08-27T07:39:17Z</time>
      </trkpt>
      <trkpt lat="43.87874" lon="1.61962">
        <ele>163.56</ele>
        <time>2017-08-27T07:39:18Z</time>
      </trkpt>
      <trkpt lat="43.87881" lon="1.61979">
        <ele>165.48</ele>
        <time>2017-08-27T07:39:25Z</time>
      </trkpt>
      <trkpt lat="43.87882" lon="1.6198">
        <ele>165.96</ele>
        <time>2017-08-27T07:39:26Z</time>
      </trkpt>
      <trkpt lat="43.8789" lon="1.61974">
        <ele>167.41</ele>
        <time>2017-08-27T07:39:32Z</time>
      </trkpt>
      <trkpt lat="43.87891" lon="1.6197">
        <ele>167.89</ele>
        <time>2017-08-27T07:39:34Z</time>
      </trkpt>
      <trkpt lat="43.87893" lon="1.61953">
        <ele>170.77</ele>
        <time>2017-08-27T07:39:42Z</time>
      </trkpt>
      <trkpt lat="43.87898" lon="1.61938">
        <ele>173.17</ele>
        <time>2017-08-27T07:39:50Z</time>
      </trkpt>
      <trkpt lat="43.87906" lon="1.61918">
        <ele>176.54</ele>
        <time>2017-08-27T07:40:00Z</time>
      </trkpt>
      <trkpt lat="43.87916" lon="1.61903">
        <ele>177.98</ele>
        <time>2017-08-27T07:40:10Z</time>
      </trkpt>
      <trkpt lat="43.87929" lon="1.61893">
        <ele>180.87</ele>
        <time>2017-08-27T07:40:21Z</time>
      </trkpt>
      <trkpt lat="43.87931" lon="1.61891">
        <ele>181.35</ele>
        <time>2017-08-27T07:40:23Z</time>
      </trkpt>
      <trkpt lat="43.87933" lon="1.61891">
        <ele>181.35</ele>
        <time>2017-08-27T07:40:24Z</time>
      </trkpt>
      <trkpt lat="43.87934" lon="1.6189">
        <ele>181.35</ele>
        <time>2017-08-27T07:40:25Z</time>
      </trkpt>
      <trkpt lat="43.87936" lon="1.6189">
        <ele>181.83</ele>
        <time>2017-08-27T07:40:26Z</time>
      </trkpt>
      <trkpt lat="43.87937" lon="1.61889">
        <ele>181.83</ele>
        <time>2017-08-27T07:40:27Z</time>
      </trkpt>
      <trkpt lat="43.87939" lon="1.61889">
        <ele>181.83</ele>
        <time>2017-08-27T07:40:28Z</time>
      </trkpt>
      <trkpt lat="43.8794" lon="1.61889">
        <ele>182.31</ele>
        <time>2017-08-27T07:40:29Z</time>
      </trkpt>
      <trkpt lat="43.87954" lon="1.61892">
        <ele>183.75</ele>
        <time>2017-08-27T07:40:38Z</time>
      </trkpt>
      <trkpt lat="43.87964" lon="1.61891">
        <ele>184.23</ele>
        <time>2017-08-27T07:40:44Z</time>
      </trkpt>
      <trkpt lat="43.87966" lon="1.61892">
        <ele>184.71</ele>
        <time>2017-08-27T07:40:45Z</time>
      </trkpt>
      <trkpt lat="43.87967" lon="1.61891">
        <ele>184.71</ele>
        <time>2017-08-27T07:40:46Z</time>
      </trkpt>
      <trkpt lat="43.87968" lon="1.6189">
        <ele>183.75</ele>
        <time>2017-08-27T07:40:52Z</time>
      </trkpt>
      <trkpt lat="43.87968" lon="1.6189">
        <ele>184.23</ele>
        <time>2017-08-27T07:41:12Z</time>
      </trkpt>
      <trkpt lat="43.87969" lon="1.61889">
        <ele>184.23</ele>
        <time>2017-08-27T07:41:31Z</time>
      </trkpt>
      <trkpt lat="43.87969" lon="1.61889">
        <ele>184.23</ele>
        <time>2017-08-27T07:41:49Z</time>
      </trkpt>
      <trkpt lat="43.87969" lon="1.61889">
        <ele>184.23</ele>
        <time>2017-08-27T07:42:09Z</time>
      </trkpt>
      <trkpt lat="43.87968" lon="1.61889">
        <ele>184.71</ele>
        <time>2017-08-27T07:42:27Z</time>
      </trkpt>
      <trkpt lat="43.87967" lon="1.61889">
        <ele>183.75</ele>
        <time>2017-08-27T07:42:46Z</time>
      </trkpt>
      <trkpt lat="43.87967" lon="1.6189">
        <ele>184.23</ele>
        <time>2017-08-27T07:42:59Z</time>
      </trkpt>
      <trkpt lat="43.87968" lon="1.6189">
        <ele>183.75</ele>
        <time>2017-08-27T07:43:09Z</time>
      </trkpt>
      <trkpt lat="43.87967" lon="1.61888">
        <ele>184.23</ele>
        <time>2017-08-27T07:43:15Z</time>
      </trkpt>
      <trkpt lat="43.87967" lon="1.61889">
        <ele>184.23</ele>
        <time>2017-08-27T07:43:18Z</time>
      </trkpt>
      <trkpt lat="43.87969" lon="1.61889">
        <ele>184.23</ele>
        <time>2017-08-27T07:43:20Z</time>
      </trkpt>
      <trkpt lat="43.87983" lon="1.6188">
        <ele>186.15</ele>
        <time>2017-08-27T07:43:29Z</time>
      </trkpt>
      <trkpt lat="43.87996" lon="1.61873">
        <ele>188.08</ele>
        <time>2017-08-27T07:43:37Z</time>
      </trkpt>
      <trkpt lat="43.88013" lon="1.61866">
        <ele>191.44</ele>
        <time>2017-08-27T07:43:48Z</time>
      </trkpt>
      <trkpt lat="43.88026" lon="1.61859">
        <ele>193.36</ele>
        <time>2017-08-27T07:43:56Z</time>
      </trkpt>
      <trkpt lat="43.88041" lon="1.61852">
        <ele>196.25</ele>
        <time>2017-08-27T07:44:06Z</time>
      </trkpt>
      <trkpt lat="43.88054" lon="1.61845">
        <ele>197.69</ele>
        <time>2017-08-27T07:44:15Z</time>
      </trkpt>
      <trkpt lat="43.88071" lon="1.61834">
        <ele>200.09</ele>
        <time>2017-08-27T07:44:26Z</time>
      </trkpt>
      <trkpt lat="43.88085" lon="1.61826">
        <ele>200.09</ele>
        <time>2017-08-27T07:44:35Z</time>
      </trkpt>
      <trkpt lat="43.88101" lon="1.61818">
        <ele>202.49</ele>
        <time>2017-08-27T07:44:45Z</time>
      </trkpt>
      <trkpt lat="43.88118" lon="1.6181">
        <ele>204.42</ele>
        <time>2017-08-27T07:44:56Z</time>
      </trkpt>
      <trkpt lat="43.88135" lon="1.61805">
        <ele>205.86</ele>
        <time>2017-08-27T07:45:06Z</time>
      </trkpt>
      <trkpt lat="43.88153" lon="1.618">
        <ele>207.78</ele>
        <time>2017-08-27T07:45:15Z</time>
      </trkpt>
      <trkpt lat="43.88171" lon="1.61796">
        <ele>208.26</ele>
        <time>2017-08-27T07:45:24Z</time>
      </trkpt>
      <trkpt lat="43.88195" lon="1.6179">
        <ele>209.7</ele>
        <time>2017-08-27T07:45:35Z</time>
      </trkpt>
      <trkpt lat="43.88217" lon="1.61779">
        <ele>211.63</ele>
        <time>2017-08-27T07:45:46Z</time>
      </trkpt>
      <trkpt lat="43.88234" lon="1.6177">
        <ele>212.11</ele>
        <time>2017-08-27T07:45:55Z</time>
      </trkpt>
      <trkpt lat="43.88255" lon="1.61768">
        <ele>213.55</ele>
        <time>2017-08-27T07:46:05Z</time>
      </trkpt>
      <trkpt lat="43.88273" lon="1.61776">
        <ele>215.47</ele>
        <time>2017-08-27T07:46:14Z</time>
      </trkpt>
      <trkpt lat="43.88289" lon="1.61785">
        <ele>216.91</ele>
        <time>2017-08-27T07:46:23Z</time>
      </trkpt>
      <trkpt lat="43.88304" lon="1.61785">
        <ele>219.32</ele>
        <time>2017-08-27T07:46:31Z</time>
      </trkpt>
      <trkpt lat="43.88311" lon="1.61771">
        <ele>220.28</ele>
        <time>2017-08-27T07:46:38Z</time>
      </trkpt>
      <trkpt lat="43.88321" lon="1.61756">
        <ele>222.2</ele>
        <time>2017-08-27T07:46:47Z</time>
      </trkpt>
      <trkpt lat="43.88336" lon="1.61745">
        <ele>224.61</ele>
        <time>2017-08-27T07:46:57Z</time>
      </trkpt>
      <trkpt lat="43.8835" lon="1.61735">
        <ele>225.57</ele>
        <time>2017-08-27T07:47:06Z</time>
      </trkpt>
      <trkpt lat="43.88365" lon="1.6172">
        <ele>227.01</ele>
        <time>2017-08-27T07:47:17Z</time>
      </trkpt>
      <trkpt lat="43.88378" lon="1.61706">
        <ele>229.41</ele>
        <time>2017-08-27T07:47:27Z</time>
      </trkpt>
      <trkpt lat="43.88393" lon="1.61692">
        <ele>229.89</ele>
        <time>2017-08-27T07:47:36Z</time>
      </trkpt>
      <trkpt lat="43.88408" lon="1.61677">
        <ele>229.41</ele>
        <time>2017-08-27T07:47:44Z</time>
      </trkpt>
      <trkpt lat="43.8843" lon="1.61654">
        <ele>229.41</ele>
        <time>2017-08-27T07:47:55Z</time>
      </trkpt>
      <trkpt lat="43.88433" lon="1.61652">
        <ele>227.97</ele>
        <time>2017-08-27T07:48:00Z</time>
      </trkpt>
      <trkpt lat="43.88433" lon="1.61654">
        <ele>229.89</ele>
        <time>2017-08-27T07:48:18Z</time>
      </trkpt>
      <trkpt lat="43.88434" lon="1.61653">
        <ele>228.45</ele>
        <time>2017-08-27T07:48:40Z</time>
      </trkpt>
      <trkpt lat="43.88435" lon="1.61653">
        <ele>227.97</ele>
        <time>2017-08-27T07:48:59Z</time>
      </trkpt>
      <trkpt lat="43.88443" lon="1.6164">
        <ele>228.45</ele>
        <time>2017-08-27T07:49:04Z</time>
      </trkpt>
      <trkpt lat="43.88467" lon="1.61609">
        <ele>227.97</ele>
        <time>2017-08-27T07:49:13Z</time>
      </trkpt>
      <trkpt lat="43.88491" lon="1.61574">
        <ele>227.01</ele>
        <time>2017-08-27T07:49:22Z</time>
      </trkpt>
      <trkpt lat="43.88516" lon="1.6154">
        <ele>226.53</ele>
        <time>2017-08-27T07:49:30Z</time>
      </trkpt>
      <trkpt lat="43.88555" lon="1.6151">
        <ele>226.53</ele>
        <time>2017-08-27T07:49:40Z</time>
      </trkpt>
      <trkpt lat="43.88567" lon="1.61502">
        <ele>226.53</ele>
        <time>2017-08-27T07:49:43Z</time>
      </trkpt>
      <trkpt lat="43.886" lon="1.61472">
        <ele>227.01</ele>
        <time>2017-08-27T07:49:52Z</time>
      </trkpt>
      <trkpt lat="43.88613" lon="1.61458">
        <ele>227.01</ele>
        <time>2017-08-27T07:49:56Z</time>
      </trkpt>
      <trkpt lat="43.8862" lon="1.61449">
        <ele>227.01</ele>
        <time>2017-08-27T07:49:58Z</time>
      </trkpt>
      <trkpt lat="43.88623" lon="1.61445">
        <ele>227.01</ele>
        <time>2017-08-27T07:49:59Z</time>
      </trkpt>
      <trkpt lat="43.88657" lon="1.61405">
        <ele>227.97</ele>
        <time>2017-08-27T07:50:09Z</time>
      </trkpt>
      <trkpt lat="43.88687" lon="1.61369">
        <ele>228.93</ele>
        <time>2017-08-27T07:50:18Z</time>
      </trkpt>
      <trkpt lat="43.88718" lon="1.61323">
        <ele>228.45</ele>
        <time>2017-08-27T07:50:28Z</time>
      </trkpt>
      <trkpt lat="43.8872" lon="1.61318">
        <ele>227.49</ele>
        <time>2017-08-27T07:50:32Z</time>
      </trkpt>
      <trkpt lat="43.88722" lon="1.61319">
        <ele>227.49</ele>
        <time>2017-08-27T07:50:37Z</time>
      </trkpt>
      <trkpt lat="43.88724" lon="1.61319">
        <ele>227.01</ele>
        <time>2017-08-27T07:50:38Z</time>
      </trkpt>
      <trkpt lat="43.88726" lon="1.61322">
        <ele>227.01</ele>
        <time>2017-08-27T07:50:39Z</time>
      </trkpt>
      <trkpt lat="43.88727" lon="1.61326">
        <ele>227.01</ele>
        <time>2017-08-27T07:50:40Z</time>
      </trkpt>
      <trkpt lat="43.88729" lon="1.61331">
        <ele>227.01</ele>
        <time>2017-08-27T07:50:41Z</time>
      </trkpt>
      <trkpt lat="43.88744" lon="1.61375">
        <ele>226.05</ele>
        <time>2017-08-27T07:50:49Z</time>
      </trkpt>
      <trkpt lat="43.88762" lon="1.61419">
        <ele>225.09</ele>
        <time>2017-08-27T07:50:56Z</time>
      </trkpt>
      <trkpt lat="43.88782" lon="1.61468">
        <ele>224.12</ele>
        <time>2017-08-27T07:51:04Z</time>
      </trkpt>
      <trkpt lat="43.88789" lon="1.61484">
        <ele>224.12</ele>
        <time>2017-08-27T07:51:07Z</time>
      </trkpt>
      <trkpt lat="43.88792" lon="1.61489">
        <ele>224.61</ele>
        <time>2017-08-27T07:51:08Z</time>
      </trkpt>
      <trkpt lat="43.88795" lon="1.61495">
        <ele>224.61</ele>
        <time>2017-08-27T07:51:09Z</time>
      </trkpt>
      <trkpt lat="43.88797" lon="1.615">
        <ele>224.61</ele>
        <time>2017-08-27T07:51:10Z</time>
      </trkpt>
      <trkpt lat="43.888" lon="1.61505">
        <ele>224.61</ele>
        <time>2017-08-27T07:51:11Z</time>
      </trkpt>
      <trkpt lat="43.88828" lon="1.61555">
        <ele>224.12</ele>
        <time>2017-08-27T07:51:21Z</time>
      </trkpt>
      <trkpt lat="43.88846" lon="1.61592">
        <ele>224.61</ele>
        <time>2017-08-27T07:51:29Z</time>
      </trkpt>
      <trkpt lat="43.88868" lon="1.61637">
        <ele>226.05</ele>
        <time>2017-08-27T07:51:39Z</time>
      </trkpt>
      <trkpt lat="43.88887" lon="1.61674">
        <ele>228.45</ele>
        <time>2017-08-27T07:51:48Z</time>
      </trkpt>
      <trkpt lat="43.88901" lon="1.61699">
        <ele>229.89</ele>
        <time>2017-08-27T07:51:55Z</time>
      </trkpt>
      <trkpt lat="43.88922" lon="1.61722">
        <ele>231.81</ele>
        <time>2017-08-27T07:52:03Z</time>
      </trkpt>
      <trkpt lat="43.88926" lon="1.61727">
        <ele>231.81</ele>
        <time>2017-08-27T07:52:05Z</time>
      </trkpt>
      <trkpt lat="43.88927" lon="1.61732">
        <ele>231.33</ele>
        <time>2017-08-27T07:52:09Z</time>
      </trkpt>
      <trkpt lat="43.88929" lon="1.61733">
        <ele>231.81</ele>
        <time>2017-08-27T07:52:15Z</time>
      </trkpt>
      <trkpt lat="43.8893" lon="1.61735">
        <ele>231.81</ele>
        <time>2017-08-27T07:52:23Z</time>
      </trkpt>
      <trkpt lat="43.88931" lon="1.61745">
        <ele>231.33</ele>
        <time>2017-08-27T07:52:31Z</time>
      </trkpt>
      <trkpt lat="43.88942" lon="1.61763">
        <ele>230.37</ele>
        <time>2017-08-27T07:52:36Z</time>
      </trkpt>
      <trkpt lat="43.88948" lon="1.61774">
        <ele>229.89</ele>
        <time>2017-08-27T07:52:38Z</time>
      </trkpt>
      <trkpt lat="43.88954" lon="1.61787">
        <ele>229.41</ele>
        <time>2017-08-27T07:52:40Z</time>
      </trkpt>
      <trkpt lat="43.88959" lon="1.61802">
        <ele>228.93</ele>
        <time>2017-08-27T07:52:42Z</time>
      </trkpt>
      <trkpt lat="43.88961" lon="1.6181">
        <ele>229.41</ele>
        <time>2017-08-27T07:52:43Z</time>
      </trkpt>
      <trkpt lat="43.88963" lon="1.61819">
        <ele>228.45</ele>
        <time>2017-08-27T07:52:44Z</time>
      </trkpt>
      <trkpt lat="43.88963" lon="1.61827">
        <ele>228.45</ele>
        <time>2017-08-27T07:52:45Z</time>
      </trkpt>
      <trkpt lat="43.88963" lon="1.61836">
        <ele>228.45</ele>
        <time>2017-08-27T07:52:46Z</time>
      </trkpt>
      <trkpt lat="43.88962" lon="1.61844">
        <ele>228.45</ele>
        <time>2017-08-27T07:52:47Z</time>
      </trkpt>
      <trkpt lat="43.88961" lon="1.61853">
        <ele>228.45</ele>
        <time>2017-08-27T07:52:48Z</time>
      </trkpt>
      <trkpt lat="43.8896" lon="1.6186">
        <ele>228.45</ele>
        <time>2017-08-27T07:52:49Z</time>
      </trkpt>
      <trkpt lat="43.8896" lon="1.61876">
        <ele>228.45</ele>
        <time>2017-08-27T07:52:51Z</time>
      </trkpt>
      <trkpt lat="43.8896" lon="1.61883">
        <ele>228.93</ele>
        <time>2017-08-27T07:52:52Z</time>
      </trkpt>
      <trkpt lat="43.88961" lon="1.61889">
        <ele>228.45</ele>
        <time>2017-08-27T07:52:53Z</time>
      </trkpt>
      <trkpt lat="43.88963" lon="1.61896">
        <ele>228.93</ele>
        <time>2017-08-27T07:52:54Z</time>
      </trkpt>
      <trkpt lat="43.88964" lon="1.61902">
        <ele>228.93</ele>
        <time>2017-08-27T07:52:55Z</time>
      </trkpt>
      <trkpt lat="43.88966" lon="1.61907">
        <ele>229.41</ele>
        <time>2017-08-27T07:52:56Z</time>
      </trkpt>
      <trkpt lat="43.88975" lon="1.61928">
        <ele>229.41</ele>
        <time>2017-08-27T07:53:00Z</time>
      </trkpt>
      <trkpt lat="43.88977" lon="1.61934">
        <ele>229.89</ele>
        <time>2017-08-27T07:53:01Z</time>
      </trkpt>
      <trkpt lat="43.88979" lon="1.6194">
        <ele>229.41</ele>
        <time>2017-08-27T07:53:02Z</time>
      </trkpt>
      <trkpt lat="43.88992" lon="1.61984">
        <ele>229.89</ele>
        <time>2017-08-27T07:53:10Z</time>
      </trkpt>
      <trkpt lat="43.89002" lon="1.62036">
        <ele>230.85</ele>
        <time>2017-08-27T07:53:19Z</time>
      </trkpt>
      <trkpt lat="43.89014" lon="1.62091">
        <ele>232.3</ele>
        <time>2017-08-27T07:53:29Z</time>
      </trkpt>
      <trkpt lat="43.89032" lon="1.62142">
        <ele>232.78</ele>
        <time>2017-08-27T07:53:39Z</time>
      </trkpt>
      <trkpt lat="43.89049" lon="1.62187">
        <ele>233.74</ele>
        <time>2017-08-27T07:53:48Z</time>
      </trkpt>
      <trkpt lat="43.8907" lon="1.6224">
        <ele>234.22</ele>
        <time>2017-08-27T07:53:59Z</time>
      </trkpt>
      <trkpt lat="43.89092" lon="1.6229">
        <ele>235.18</ele>
        <time>2017-08-27T07:54:10Z</time>
      </trkpt>
      <trkpt lat="43.89095" lon="1.6229">
        <ele>235.18</ele>
        <time>2017-08-27T07:54:11Z</time>
      </trkpt>
      <trkpt lat="43.89099" lon="1.62287">
        <ele>234.7</ele>
        <time>2017-08-27T07:54:12Z</time>
      </trkpt>
      <trkpt lat="43.89102" lon="1.62284">
        <ele>234.7</ele>
        <time>2017-08-27T07:54:13Z</time>
      </trkpt>
      <trkpt lat="43.89105" lon="1.6228">
        <ele>234.7</ele>
        <time>2017-08-27T07:54:14Z</time>
      </trkpt>
      <trkpt lat="43.89108" lon="1.62276">
        <ele>234.7</ele>
        <time>2017-08-27T07:54:15Z</time>
      </trkpt>
      <trkpt lat="43.89109" lon="1.62273">
        <ele>234.22</ele>
        <time>2017-08-27T07:54:16Z</time>
      </trkpt>
      <trkpt lat="43.89111" lon="1.62268">
        <ele>234.22</ele>
        <time>2017-08-27T07:54:17Z</time>
      </trkpt>
      <trkpt lat="43.89124" lon="1.62237">
        <ele>235.18</ele>
        <time>2017-08-27T07:54:24Z</time>
      </trkpt>
      <trkpt lat="43.89134" lon="1.6222">
        <ele>235.18</ele>
        <time>2017-08-27T07:54:30Z</time>
      </trkpt>
      <trkpt lat="43.89134" lon="1.62219">
        <ele>235.66</ele>
        <time>2017-08-27T07:54:31Z</time>
      </trkpt>
      <trkpt lat="43.89135" lon="1.62217">
        <ele>235.66</ele>
        <time>2017-08-27T07:54:32Z</time>
      </trkpt>
      <trkpt lat="43.89136" lon="1.62216">
        <ele>235.18</ele>
        <time>2017-08-27T07:54:33Z</time>
      </trkpt>
      <trkpt lat="43.89137" lon="1.62214">
        <ele>235.66</ele>
        <time>2017-08-27T07:54:34Z</time>
      </trkpt>
      <trkpt lat="43.89139" lon="1.62211">
        <ele>236.14</ele>
        <time>2017-08-27T07:54:35Z</time>
      </trkpt>
      <trkpt lat="43.89141" lon="1.62207">
        <ele>235.66</ele>
        <time>2017-08-27T07:54:36Z</time>
      </trkpt>
      <trkpt lat="43.8916" lon="1.62174">
        <ele>235.66</ele>
        <time>2017-08-27T07:54:43Z</time>
      </trkpt>
      <trkpt lat="43.89185" lon="1.62116">
        <ele>234.22</ele>
        <time>2017-08-27T07:54:52Z</time>
      </trkpt>
      <trkpt lat="43.89214" lon="1.62052">
        <ele>232.3</ele>
        <time>2017-08-27T07:55:00Z</time>
      </trkpt>
      <trkpt lat="43.89255" lon="1.61956">
        <ele>229.89</ele>
        <time>2017-08-27T07:55:11Z</time>
      </trkpt>
      <trkpt lat="43.89297" lon="1.61882">
        <ele>227.49</ele>
        <time>2017-08-27T07:55:21Z</time>
      </trkpt>
      <trkpt lat="43.89336" lon="1.6182">
        <ele>225.09</ele>
        <time>2017-08-27T07:55:29Z</time>
      </trkpt>
      <trkpt lat="43.89378" lon="1.61751">
        <ele>224.12</ele>
        <time>2017-08-27T07:55:38Z</time>
      </trkpt>
      <trkpt lat="43.89409" lon="1.61705">
        <ele>224.12</ele>
        <time>2017-08-27T07:55:45Z</time>
      </trkpt>
      <trkpt lat="43.89442" lon="1.61672">
        <ele>223.64</ele>
        <time>2017-08-27T07:55:52Z</time>
      </trkpt>
      <trkpt lat="43.89452" lon="1.61663">
        <ele>224.12</ele>
        <time>2017-08-27T07:55:54Z</time>
      </trkpt>
      <trkpt lat="43.89458" lon="1.6166">
        <ele>224.12</ele>
        <time>2017-08-27T07:55:55Z</time>
      </trkpt>
      <trkpt lat="43.89463" lon="1.61657">
        <ele>224.12</ele>
        <time>2017-08-27T07:55:56Z</time>
      </trkpt>
      <trkpt lat="43.89469" lon="1.61654">
        <ele>223.16</ele>
        <time>2017-08-27T07:55:57Z</time>
      </trkpt>
      <trkpt lat="43.89475" lon="1.61652">
        <ele>223.64</ele>
        <time>2017-08-27T07:55:58Z</time>
      </trkpt>
      <trkpt lat="43.89503" lon="1.61646">
        <ele>222.68</ele>
        <time>2017-08-27T07:56:02Z</time>
      </trkpt>
      <trkpt lat="43.89526" lon="1.61648">
        <ele>221.24</ele>
        <time>2017-08-27T07:56:05Z</time>
      </trkpt>
      <trkpt lat="43.89581" lon="1.61657">
        <ele>219.8</ele>
        <time>2017-08-27T07:56:12Z</time>
      </trkpt>
      <trkpt lat="43.89589" lon="1.61655">
        <ele>219.32</ele>
        <time>2017-08-27T07:56:13Z</time>
      </trkpt>
      <trkpt lat="43.89596" lon="1.6165">
        <ele>218.36</ele>
        <time>2017-08-27T07:56:14Z</time>
      </trkpt>
      <trkpt lat="43.89622" lon="1.61623">
        <ele>216.91</ele>
        <time>2017-08-27T07:56:18Z</time>
      </trkpt>
      <trkpt lat="43.89649" lon="1.61592">
        <ele>214.99</ele>
        <time>2017-08-27T07:56:22Z</time>
      </trkpt>
      <trkpt lat="43.89687" lon="1.61541">
        <ele>212.59</ele>
        <time>2017-08-27T07:56:28Z</time>
      </trkpt>
      <trkpt lat="43.89693" lon="1.61531">
        <ele>211.63</ele>
        <time>2017-08-27T07:56:29Z</time>
      </trkpt>
      <trkpt lat="43.89698" lon="1.61521">
        <ele>211.15</ele>
        <time>2017-08-27T07:56:30Z</time>
      </trkpt>
      <trkpt lat="43.89702" lon="1.6151">
        <ele>210.67</ele>
        <time>2017-08-27T07:56:31Z</time>
      </trkpt>
      <trkpt lat="43.89735" lon="1.61413">
        <ele>207.3</ele>
        <time>2017-08-27T07:56:39Z</time>
      </trkpt>
      <trkpt lat="43.89745" lon="1.61392">
        <ele>207.3</ele>
        <time>2017-08-27T07:56:41Z</time>
      </trkpt>
      <trkpt lat="43.89775" lon="1.61338">
        <ele>206.82</ele>
        <time>2017-08-27T07:56:47Z</time>
      </trkpt>
      <trkpt lat="43.89804" lon="1.61263">
        <ele>205.38</ele>
        <time>2017-08-27T07:56:55Z</time>
      </trkpt>
      <trkpt lat="43.89826" lon="1.61208">
        <ele>204.9</ele>
        <time>2017-08-27T07:57:01Z</time>
      </trkpt>
      <trkpt lat="43.89851" lon="1.61153">
        <ele>202.49</ele>
        <time>2017-08-27T07:57:06Z</time>
      </trkpt>
      <trkpt lat="43.89882" lon="1.61096">
        <ele>200.09</ele>
        <time>2017-08-27T07:57:11Z</time>
      </trkpt>
      <trkpt lat="43.89914" lon="1.61054">
        <ele>196.25</ele>
        <time>2017-08-27T07:57:15Z</time>
      </trkpt>
      <trkpt lat="43.89938" lon="1.61017">
        <ele>192.88</ele>
        <time>2017-08-27T07:57:18Z</time>
      </trkpt>
      <trkpt lat="43.89964" lon="1.60976">
        <ele>190</ele>
        <time>2017-08-27T07:57:21Z</time>
      </trkpt>
      <trkpt lat="43.89988" lon="1.60935">
        <ele>186.63</ele>
        <time>2017-08-27T07:57:24Z</time>
      </trkpt>
      <trkpt lat="43.90028" lon="1.60868">
        <ele>182.79</ele>
        <time>2017-08-27T07:57:29Z</time>
      </trkpt>
      <trkpt lat="43.90051" lon="1.60824">
        <ele>180.38</ele>
        <time>2017-08-27T07:57:32Z</time>
      </trkpt>
      <trkpt lat="43.90082" lon="1.60755">
        <ele>177.02</ele>
        <time>2017-08-27T07:57:37Z</time>
      </trkpt>
      <trkpt lat="43.90086" lon="1.60743">
        <ele>176.06</ele>
        <time>2017-08-27T07:57:38Z</time>
      </trkpt>
      <trkpt lat="43.90088" lon="1.60728">
        <ele>175.1</ele>
        <time>2017-08-27T07:57:39Z</time>
      </trkpt>
      <trkpt lat="43.90092" lon="1.60699">
        <ele>173.17</ele>
        <time>2017-08-27T07:57:41Z</time>
      </trkpt>
      <trkpt lat="43.90096" lon="1.60685">
        <ele>173.17</ele>
        <time>2017-08-27T07:57:42Z</time>
      </trkpt>
      <trkpt lat="43.901" lon="1.60674">
        <ele>173.17</ele>
        <time>2017-08-27T07:57:43Z</time>
      </trkpt>
      <trkpt lat="43.90107" lon="1.60665">
        <ele>172.21</ele>
        <time>2017-08-27T07:57:44Z</time>
      </trkpt>
      <trkpt lat="43.90114" lon="1.60661">
        <ele>172.21</ele>
        <time>2017-08-27T07:57:45Z</time>
      </trkpt>
      <trkpt lat="43.90122" lon="1.60661">
        <ele>172.69</ele>
        <time>2017-08-27T07:57:46Z</time>
      </trkpt>
      <trkpt lat="43.9013" lon="1.60666">
        <ele>171.73</ele>
        <time>2017-08-27T07:57:47Z</time>
      </trkpt>
      <trkpt lat="43.90135" lon="1.60675">
        <ele>171.25</ele>
        <time>2017-08-27T07:57:48Z</time>
      </trkpt>
      <trkpt lat="43.90138" lon="1.60687">
        <ele>170.29</ele>
        <time>2017-08-27T07:57:49Z</time>
      </trkpt>
      <trkpt lat="43.9014" lon="1.607">
        <ele>170.29</ele>
        <time>2017-08-27T07:57:50Z</time>
      </trkpt>
      <trkpt lat="43.90142" lon="1.60712">
        <ele>169.81</ele>
        <time>2017-08-27T07:57:51Z</time>
      </trkpt>
      <trkpt lat="43.90144" lon="1.60726">
        <ele>169.81</ele>
        <time>2017-08-27T07:57:52Z</time>
      </trkpt>
      <trkpt lat="43.90149" lon="1.60752">
        <ele>167.41</ele>
        <time>2017-08-27T07:57:54Z</time>
      </trkpt>
      <trkpt lat="43.90154" lon="1.60764">
        <ele>165.96</ele>
        <time>2017-08-27T07:57:55Z</time>
      </trkpt>
      <trkpt lat="43.9016" lon="1.60774">
        <ele>165</ele>
        <time>2017-08-27T07:57:56Z</time>
      </trkpt>
      <trkpt lat="43.90168" lon="1.60781">
        <ele>163.56</ele>
        <time>2017-08-27T07:57:57Z</time>
      </trkpt>
      <trkpt lat="43.90178" lon="1.60785">
        <ele>162.6</ele>
        <time>2017-08-27T07:57:58Z</time>
      </trkpt>
      <trkpt lat="43.90188" lon="1.60785">
        <ele>161.64</ele>
        <time>2017-08-27T07:57:59Z</time>
      </trkpt>
      <trkpt lat="43.90198" lon="1.60784">
        <ele>161.16</ele>
        <time>2017-08-27T07:58:00Z</time>
      </trkpt>
      <trkpt lat="43.90208" lon="1.60781">
        <ele>160.2</ele>
        <time>2017-08-27T07:58:01Z</time>
      </trkpt>
      <trkpt lat="43.90217" lon="1.60777">
        <ele>160.2</ele>
        <time>2017-08-27T07:58:02Z</time>
      </trkpt>
      <trkpt lat="43.90226" lon="1.60773">
        <ele>159.72</ele>
        <time>2017-08-27T07:58:03Z</time>
      </trkpt>
      <trkpt lat="43.90283" lon="1.60746">
        <ele>159.24</ele>
        <time>2017-08-27T07:58:10Z</time>
      </trkpt>
      <trkpt lat="43.90301" lon="1.60742">
        <ele>159.24</ele>
        <time>2017-08-27T07:58:13Z</time>
      </trkpt>
      <trkpt lat="43.90304" lon="1.60744">
        <ele>160.2</ele>
        <time>2017-08-27T07:58:14Z</time>
      </trkpt>
      <trkpt lat="43.90305" lon="1.60748">
        <ele>160.68</ele>
        <time>2017-08-27T07:58:15Z</time>
      </trkpt>
      <trkpt lat="43.90305" lon="1.60777">
        <ele>161.16</ele>
        <time>2017-08-27T07:58:23Z</time>
      </trkpt>
      <trkpt lat="43.90309" lon="1.60805">
        <ele>163.56</ele>
        <time>2017-08-27T07:58:31Z</time>
      </trkpt>
      <trkpt lat="43.90309" lon="1.60808">
        <ele>164.04</ele>
        <time>2017-08-27T07:58:32Z</time>
      </trkpt>
      <trkpt lat="43.90313" lon="1.60827">
        <ele>166.93</ele>
        <time>2017-08-27T07:58:39Z</time>
      </trkpt>
      <trkpt lat="43.90317" lon="1.60847">
        <ele>169.81</ele>
        <time>2017-08-27T07:58:47Z</time>
      </trkpt>
      <trkpt lat="43.90318" lon="1.60858">
        <ele>171.25</ele>
        <time>2017-08-27T07:58:51Z</time>
      </trkpt>
      <trkpt lat="43.90319" lon="1.60879">
        <ele>174.14</ele>
        <time>2017-08-27T07:59:00Z</time>
      </trkpt>
      <trkpt lat="43.90321" lon="1.60898">
        <ele>176.54</ele>
        <time>2017-08-27T07:59:07Z</time>
      </trkpt>
      <trkpt lat="43.90327" lon="1.6092">
        <ele>177.98</ele>
        <time>2017-08-27T07:59:16Z</time>
      </trkpt>
      <trkpt lat="43.90333" lon="1.60946">
        <ele>179.42</ele>
        <time>2017-08-27T07:59:25Z</time>
      </trkpt>
      <trkpt lat="43.90337" lon="1.60969">
        <ele>180.38</ele>
        <time>2017-08-27T07:59:33Z</time>
      </trkpt>
      <trkpt lat="43.90345" lon="1.60994">
        <ele>181.83</ele>
        <time>2017-08-27T07:59:42Z</time>
      </trkpt>
      <trkpt lat="43.90356" lon="1.61025">
        <ele>181.35</ele>
        <time>2017-08-27T07:59:51Z</time>
      </trkpt>
      <trkpt lat="43.9038" lon="1.6106">
        <ele>181.83</ele>
        <time>2017-08-27T08:00:01Z</time>
      </trkpt>
      <trkpt lat="43.90401" lon="1.61087">
        <ele>183.27</ele>
        <time>2017-08-27T08:00:11Z</time>
      </trkpt>
      <trkpt lat="43.90416" lon="1.61107">
        <ele>185.67</ele>
        <time>2017-08-27T08:00:20Z</time>
      </trkpt>
      <trkpt lat="43.9043" lon="1.61127">
        <ele>188.56</ele>
        <time>2017-08-27T08:00:30Z</time>
      </trkpt>
      <trkpt lat="43.90444" lon="1.61145">
        <ele>190.96</ele>
        <time>2017-08-27T08:00:40Z</time>
      </trkpt>
      <trkpt lat="43.90452" lon="1.61162">
        <ele>192.88</ele>
        <time>2017-08-27T08:00:48Z</time>
      </trkpt>
      <trkpt lat="43.90462" lon="1.61188">
        <ele>193.84</ele>
        <time>2017-08-27T08:00:59Z</time>
      </trkpt>
      <trkpt lat="43.90464" lon="1.61195">
        <ele>195.28</ele>
        <time>2017-08-27T08:01:02Z</time>
      </trkpt>
      <trkpt lat="43.90475" lon="1.61226">
        <ele>196.73</ele>
        <time>2017-08-27T08:01:14Z</time>
      </trkpt>
      <trkpt lat="43.90487" lon="1.61249">
        <ele>199.13</ele>
        <time>2017-08-27T08:01:24Z</time>
      </trkpt>
      <trkpt lat="43.90493" lon="1.61266">
        <ele>200.09</ele>
        <time>2017-08-27T08:01:31Z</time>
      </trkpt>
      <trkpt lat="43.90503" lon="1.61289">
        <ele>202.01</ele>
        <time>2017-08-27T08:01:41Z</time>
      </trkpt>
      <trkpt lat="43.90509" lon="1.61307">
        <ele>203.46</ele>
        <time>2017-08-27T08:01:49Z</time>
      </trkpt>
      <trkpt lat="43.90514" lon="1.61335">
        <ele>205.38</ele>
        <time>2017-08-27T08:02:00Z</time>
      </trkpt>
      <trkpt lat="43.90514" lon="1.61362">
        <ele>206.82</ele>
        <time>2017-08-27T08:02:11Z</time>
      </trkpt>
      <trkpt lat="43.90512" lon="1.61387">
        <ele>209.22</ele>
        <time>2017-08-27T08:02:21Z</time>
      </trkpt>
      <trkpt lat="43.90509" lon="1.61411">
        <ele>211.63</ele>
        <time>2017-08-27T08:02:31Z</time>
      </trkpt>
      <trkpt lat="43.90506" lon="1.61427">
        <ele>214.03</ele>
        <time>2017-08-27T08:02:39Z</time>
      </trkpt>
      <trkpt lat="43.90505" lon="1.61444">
        <ele>215.47</ele>
        <time>2017-08-27T08:02:47Z</time>
      </trkpt>
      <trkpt lat="43.90503" lon="1.6145">
        <ele>216.91</ele>
        <time>2017-08-27T08:02:50Z</time>
      </trkpt>
      <trkpt lat="43.905" lon="1.61476">
        <ele>220.28</ele>
        <time>2017-08-27T08:03:02Z</time>
      </trkpt>
      <trkpt lat="43.90498" lon="1.61494">
        <ele>222.2</ele>
        <time>2017-08-27T08:03:12Z</time>
      </trkpt>
      <trkpt lat="43.90495" lon="1.61515">
        <ele>225.09</ele>
        <time>2017-08-27T08:03:23Z</time>
      </trkpt>
      <trkpt lat="43.90494" lon="1.6153">
        <ele>227.01</ele>
        <time>2017-08-27T08:03:31Z</time>
      </trkpt>
      <trkpt lat="43.90495" lon="1.61532">
        <ele>227.01</ele>
        <time>2017-08-27T08:03:32Z</time>
      </trkpt>
      <trkpt lat="43.90496" lon="1.61532">
        <ele>227.49</ele>
        <time>2017-08-27T08:03:33Z</time>
      </trkpt>
      <trkpt lat="43.90498" lon="1.61531">
        <ele>227.01</ele>
        <time>2017-08-27T08:03:34Z</time>
      </trkpt>
      <trkpt lat="43.90499" lon="1.61529">
        <ele>226.53</ele>
        <time>2017-08-27T08:03:35Z</time>
      </trkpt>
      <trkpt lat="43.90499" lon="1.61527">
        <ele>227.01</ele>
        <time>2017-08-27T08:03:36Z</time>
      </trkpt>
      <trkpt lat="43.90499" lon="1.61525">
        <ele>226.53</ele>
        <time>2017-08-27T08:03:37Z</time>
      </trkpt>
      <trkpt lat="43.90499" lon="1.61523">
        <ele>227.01</ele>
        <time>2017-08-27T08:03:38Z</time>
      </trkpt>
      <trkpt lat="43.905" lon="1.61521">
        <ele>226.53</ele>
        <time>2017-08-27T08:03:39Z</time>
      </trkpt>
      <trkpt lat="43.905" lon="1.61521">
        <ele>227.01</ele>
        <time>2017-08-27T08:03:45Z</time>
      </trkpt>
      <trkpt lat="43.90499" lon="1.61522">
        <ele>226.53</ele>
        <time>2017-08-27T08:03:46Z</time>
      </trkpt>
      <trkpt lat="43.90498" lon="1.61523">
        <ele>226.53</ele>
        <time>2017-08-27T08:03:47Z</time>
      </trkpt>
      <trkpt lat="43.90497" lon="1.61524">
        <ele>226.53</ele>
        <time>2017-08-27T08:03:48Z</time>
      </trkpt>
      <trkpt lat="43.90497" lon="1.61525">
        <ele>225.57</ele>
        <time>2017-08-27T08:03:53Z</time>
      </trkpt>
      <trkpt lat="43.90496" lon="1.61527">
        <ele>225.57</ele>
        <time>2017-08-27T08:04:11Z</time>
      </trkpt>
      <trkpt lat="43.90495" lon="1.61529">
        <ele>225.57</ele>
        <time>2017-08-27T08:04:37Z</time>
      </trkpt>
      <trkpt lat="43.90494" lon="1.61529">
        <ele>225.57</ele>
        <time>2017-08-27T08:04:59Z</time>
      </trkpt>
      <trkpt lat="43.90494" lon="1.6153">
        <ele>226.05</ele>
        <time>2017-08-27T08:05:21Z</time>
      </trkpt>
      <trkpt lat="43.90493" lon="1.6153">
        <ele>226.05</ele>
        <time>2017-08-27T08:05:43Z</time>
      </trkpt>
      <trkpt lat="43.90495" lon="1.61529">
        <ele>226.53</ele>
        <time>2017-08-27T08:06:07Z</time>
      </trkpt>
      <trkpt lat="43.90496" lon="1.61529">
        <ele>226.53</ele>
        <time>2017-08-27T08:06:29Z</time>
      </trkpt>
      <trkpt lat="43.90496" lon="1.6153">
        <ele>226.53</ele>
        <time>2017-08-27T08:06:49Z</time>
      </trkpt>
      <trkpt lat="43.90495" lon="1.61531">
        <ele>227.01</ele>
        <time>2017-08-27T08:07:08Z</time>
      </trkpt>
      <trkpt lat="43.90494" lon="1.61531">
        <ele>227.01</ele>
        <time>2017-08-27T08:07:32Z</time>
      </trkpt>
      <trkpt lat="43.90494" lon="1.6153">
        <ele>227.01</ele>
        <time>2017-08-27T08:07:44Z</time>
      </trkpt>
      <trkpt lat="43.90496" lon="1.61528">
        <ele>227.49</ele>
        <time>2017-08-27T08:08:00Z</time>
      </trkpt>
      <trkpt lat="43.90497" lon="1.61528">
        <ele>226.53</ele>
        <time>2017-08-27T08:08:19Z</time>
      </trkpt>
      <trkpt lat="43.90497" lon="1.61528">
        <ele>227.49</ele>
        <time>2017-08-27T08:08:39Z</time>
      </trkpt>
      <trkpt lat="43.90495" lon="1.61526">
        <ele>227.97</ele>
        <time>2017-08-27T08:09:02Z</time>
      </trkpt>
      <trkpt lat="43.90496" lon="1.61527">
        <ele>227.49</ele>
        <time>2017-08-27T08:09:29Z</time>
      </trkpt>
      <trkpt lat="43.90495" lon="1.61527">
        <ele>228.93</ele>
        <time>2017-08-27T08:09:43Z</time>
      </trkpt>
      <trkpt lat="43.90496" lon="1.61528">
        <ele>228.45</ele>
        <time>2017-08-27T08:09:44Z</time>
      </trkpt>
      <trkpt lat="43.90498" lon="1.61529">
        <ele>228.93</ele>
        <time>2017-08-27T08:09:49Z</time>
      </trkpt>
      <trkpt lat="43.905" lon="1.61527">
        <ele>228.93</ele>
        <time>2017-08-27T08:09:51Z</time>
      </trkpt>
      <trkpt lat="43.90501" lon="1.61525">
        <ele>228.45</ele>
        <time>2017-08-27T08:09:52Z</time>
      </trkpt>
      <trkpt lat="43.90501" lon="1.61524">
        <ele>228.93</ele>
        <time>2017-08-27T08:09:53Z</time>
      </trkpt>
      <trkpt lat="43.90502" lon="1.61522">
        <ele>228.93</ele>
        <time>2017-08-27T08:09:54Z</time>
      </trkpt>
      <trkpt lat="43.90503" lon="1.6152">
        <ele>228.45</ele>
        <time>2017-08-27T08:09:55Z</time>
      </trkpt>
      <trkpt lat="43.90504" lon="1.61518">
        <ele>228.93</ele>
        <time>2017-08-27T08:09:56Z</time>
      </trkpt>
      <trkpt lat="43.90517" lon="1.61496">
        <ele>229.41</ele>
        <time>2017-08-27T08:10:05Z</time>
      </trkpt>
      <trkpt lat="43.90537" lon="1.6148">
        <ele>229.41</ele>
        <time>2017-08-27T08:10:13Z</time>
      </trkpt>
      <trkpt lat="43.90559" lon="1.6148">
        <ele>232.3</ele>
        <time>2017-08-27T08:10:21Z</time>
      </trkpt>
      <trkpt lat="43.90582" lon="1.61488">
        <ele>231.33</ele>
        <time>2017-08-27T08:10:28Z</time>
      </trkpt>
      <trkpt lat="43.9059" lon="1.6149">
        <ele>230.37</ele>
        <time>2017-08-27T08:10:33Z</time>
      </trkpt>
      <trkpt lat="43.90596" lon="1.61492">
        <ele>229.89</ele>
        <time>2017-08-27T08:10:39Z</time>
      </trkpt>
      <trkpt lat="43.90622" lon="1.61507">
        <ele>227.49</ele>
        <time>2017-08-27T08:10:44Z</time>
      </trkpt>
      <trkpt lat="43.9063" lon="1.61512">
        <ele>227.01</ele>
        <time>2017-08-27T08:10:45Z</time>
      </trkpt>
      <trkpt lat="43.90637" lon="1.61519">
        <ele>226.05</ele>
        <time>2017-08-27T08:10:46Z</time>
      </trkpt>
      <trkpt lat="43.90646" lon="1.61528">
        <ele>225.09</ele>
        <time>2017-08-27T08:10:47Z</time>
      </trkpt>
      <trkpt lat="43.90663" lon="1.61549">
        <ele>220.76</ele>
        <time>2017-08-27T08:10:49Z</time>
      </trkpt>
      <trkpt lat="43.90692" lon="1.61583">
        <ele>216.43</ele>
        <time>2017-08-27T08:10:52Z</time>
      </trkpt>
      <trkpt lat="43.90713" lon="1.61602">
        <ele>212.11</ele>
        <time>2017-08-27T08:10:54Z</time>
      </trkpt>
      <trkpt lat="43.90724" lon="1.61609">
        <ele>211.63</ele>
        <time>2017-08-27T08:10:55Z</time>
      </trkpt>
      <trkpt lat="43.90736" lon="1.61614">
        <ele>210.19</ele>
        <time>2017-08-27T08:10:56Z</time>
      </trkpt>
      <trkpt lat="43.90762" lon="1.61621">
        <ele>206.82</ele>
        <time>2017-08-27T08:10:58Z</time>
      </trkpt>
      <trkpt lat="43.90776" lon="1.61622">
        <ele>204.9</ele>
        <time>2017-08-27T08:10:59Z</time>
      </trkpt>
      <trkpt lat="43.90804" lon="1.61622">
        <ele>202.01</ele>
        <time>2017-08-27T08:11:01Z</time>
      </trkpt>
      <trkpt lat="43.90818" lon="1.61619">
        <ele>200.09</ele>
        <time>2017-08-27T08:11:02Z</time>
      </trkpt>
      <trkpt lat="43.90832" lon="1.61615">
        <ele>198.17</ele>
        <time>2017-08-27T08:11:03Z</time>
      </trkpt>
      <trkpt lat="43.90872" lon="1.61598">
        <ele>195.77</ele>
        <time>2017-08-27T08:11:06Z</time>
      </trkpt>
      <trkpt lat="43.90903" lon="1.61578">
        <ele>192.88</ele>
        <time>2017-08-27T08:11:09Z</time>
      </trkpt>
      <trkpt lat="43.9091" lon="1.61572">
        <ele>191.44</ele>
        <time>2017-08-27T08:11:10Z</time>
      </trkpt>
      <trkpt lat="43.9093" lon="1.61557">
        <ele>189.04</ele>
        <time>2017-08-27T08:11:13Z</time>
      </trkpt>
      <trkpt lat="43.90937" lon="1.61556">
        <ele>189.04</ele>
        <time>2017-08-27T08:11:14Z</time>
      </trkpt>
      <trkpt lat="43.90944" lon="1.61557">
        <ele>189.04</ele>
        <time>2017-08-27T08:11:15Z</time>
      </trkpt>
      <trkpt lat="43.9095" lon="1.61561">
        <ele>188.08</ele>
        <time>2017-08-27T08:11:16Z</time>
      </trkpt>
      <trkpt lat="43.90957" lon="1.61565">
        <ele>187.11</ele>
        <time>2017-08-27T08:11:17Z</time>
      </trkpt>
      <trkpt lat="43.90966" lon="1.61567">
        <ele>185.67</ele>
        <time>2017-08-27T08:11:18Z</time>
      </trkpt>
      <trkpt lat="43.90975" lon="1.61569">
        <ele>184.71</ele>
        <time>2017-08-27T08:11:19Z</time>
      </trkpt>
      <trkpt lat="43.91015" lon="1.61571">
        <ele>181.35</ele>
        <time>2017-08-27T08:11:23Z</time>
      </trkpt>
      <trkpt lat="43.91051" lon="1.61573">
        <ele>176.06</ele>
        <time>2017-08-27T08:11:26Z</time>
      </trkpt>
      <trkpt lat="43.91076" lon="1.61578">
        <ele>171.25</ele>
        <time>2017-08-27T08:11:28Z</time>
      </trkpt>
      <trkpt lat="43.91102" lon="1.61585">
        <ele>166.45</ele>
        <time>2017-08-27T08:11:30Z</time>
      </trkpt>
      <trkpt lat="43.91128" lon="1.61595">
        <ele>162.6</ele>
        <time>2017-08-27T08:11:32Z</time>
      </trkpt>
      <trkpt lat="43.91139" lon="1.616">
        <ele>161.64</ele>
        <time>2017-08-27T08:11:33Z</time>
      </trkpt>
      <trkpt lat="43.91148" lon="1.61608">
        <ele>160.2</ele>
        <time>2017-08-27T08:11:34Z</time>
      </trkpt>
      <trkpt lat="43.91156" lon="1.61615">
        <ele>159.24</ele>
        <time>2017-08-27T08:11:35Z</time>
      </trkpt>
      <trkpt lat="43.91163" lon="1.61622">
        <ele>159.72</ele>
        <time>2017-08-27T08:11:36Z</time>
      </trkpt>
      <trkpt lat="43.9118" lon="1.61639">
        <ele>161.64</ele>
        <time>2017-08-27T08:11:40Z</time>
      </trkpt>
      <trkpt lat="43.91183" lon="1.61643">
        <ele>162.6</ele>
        <time>2017-08-27T08:11:42Z</time>
      </trkpt>
      <trkpt lat="43.9119" lon="1.61651">
        <ele>165.48</ele>
        <time>2017-08-27T08:11:49Z</time>
      </trkpt>
      <trkpt lat="43.91189" lon="1.61652">
        <ele>165.48</ele>
        <time>2017-08-27T08:11:56Z</time>
      </trkpt>
      <trkpt lat="43.91198" lon="1.61659">
        <ele>167.41</ele>
        <time>2017-08-27T08:12:03Z</time>
      </trkpt>
      <trkpt lat="43.91206" lon="1.61668">
        <ele>168.85</ele>
        <time>2017-08-27T08:12:11Z</time>
      </trkpt>
      <trkpt lat="43.91216" lon="1.61678">
        <ele>170.77</ele>
        <time>2017-08-27T08:12:20Z</time>
      </trkpt>
      <trkpt lat="43.91218" lon="1.61678">
        <ele>171.25</ele>
        <time>2017-08-27T08:12:24Z</time>
      </trkpt>
      <trkpt lat="43.91218" lon="1.61679">
        <ele>171.73</ele>
        <time>2017-08-27T08:12:25Z</time>
      </trkpt>
      <trkpt lat="43.91219" lon="1.61681">
        <ele>171.73</ele>
        <time>2017-08-27T08:12:26Z</time>
      </trkpt>
      <trkpt lat="43.91234" lon="1.61694">
        <ele>173.66</ele>
        <time>2017-08-27T08:12:34Z</time>
      </trkpt>
      <trkpt lat="43.91253" lon="1.6171">
        <ele>176.06</ele>
        <time>2017-08-27T08:12:44Z</time>
      </trkpt>
      <trkpt lat="43.9126" lon="1.61718">
        <ele>176.54</ele>
        <time>2017-08-27T08:12:48Z</time>
      </trkpt>
      <trkpt lat="43.9128" lon="1.6173">
        <ele>176.06</ele>
        <time>2017-08-27T08:12:56Z</time>
      </trkpt>
      <trkpt lat="43.91285" lon="1.61727">
        <ele>175.58</ele>
        <time>2017-08-27T08:12:57Z</time>
      </trkpt>
      <trkpt lat="43.91289" lon="1.61724">
        <ele>175.1</ele>
        <time>2017-08-27T08:12:58Z</time>
      </trkpt>
      <trkpt lat="43.91293" lon="1.61719">
        <ele>174.62</ele>
        <time>2017-08-27T08:12:59Z</time>
      </trkpt>
      <trkpt lat="43.91297" lon="1.61714">
        <ele>174.62</ele>
        <time>2017-08-27T08:13:00Z</time>
      </trkpt>
      <trkpt lat="43.913" lon="1.61709">
        <ele>174.62</ele>
        <time>2017-08-27T08:13:01Z</time>
      </trkpt>
      <trkpt lat="43.91314" lon="1.61686">
        <ele>173.66</ele>
        <time>2017-08-27T08:13:05Z</time>
      </trkpt>
      <trkpt lat="43.91324" lon="1.61667">
        <ele>173.17</ele>
        <time>2017-08-27T08:13:08Z</time>
      </trkpt>
      <trkpt lat="43.91325" lon="1.6166">
        <ele>172.69</ele>
        <time>2017-08-27T08:13:09Z</time>
      </trkpt>
      <trkpt lat="43.91328" lon="1.61646">
        <ele>172.69</ele>
        <time>2017-08-27T08:13:11Z</time>
      </trkpt>
      <trkpt lat="43.91329" lon="1.61632">
        <ele>171.73</ele>
        <time>2017-08-27T08:13:15Z</time>
      </trkpt>
      <trkpt lat="43.9133" lon="1.61633">
        <ele>171.73</ele>
        <time>2017-08-27T08:13:24Z</time>
      </trkpt>
      <trkpt lat="43.91327" lon="1.61632">
        <ele>171.73</ele>
        <time>2017-08-27T08:13:39Z</time>
      </trkpt>
      <trkpt lat="43.91327" lon="1.61632">
        <ele>171.73</ele>
        <time>2017-08-27T08:13:55Z</time>
      </trkpt>
      <trkpt lat="43.91329" lon="1.61633">
        <ele>171.73</ele>
        <time>2017-08-27T08:13:59Z</time>
      </trkpt>
      <trkpt lat="43.91331" lon="1.61634">
        <ele>171.73</ele>
        <time>2017-08-27T08:14:00Z</time>
      </trkpt>
      <trkpt lat="43.91335" lon="1.61635">
        <ele>170.77</ele>
        <time>2017-08-27T08:14:01Z</time>
      </trkpt>
      <trkpt lat="43.91344" lon="1.61639">
        <ele>170.29</ele>
        <time>2017-08-27T08:14:03Z</time>
      </trkpt>
      <trkpt lat="43.91348" lon="1.61642">
        <ele>169.33</ele>
        <time>2017-08-27T08:14:04Z</time>
      </trkpt>
      <trkpt lat="43.91353" lon="1.61646">
        <ele>169.33</ele>
        <time>2017-08-27T08:14:05Z</time>
      </trkpt>
      <trkpt lat="43.91357" lon="1.61651">
        <ele>168.37</ele>
        <time>2017-08-27T08:14:06Z</time>
      </trkpt>
      <trkpt lat="43.91359" lon="1.61658">
        <ele>167.89</ele>
        <time>2017-08-27T08:14:07Z</time>
      </trkpt>
      <trkpt lat="43.9136" lon="1.61666">
        <ele>167.89</ele>
        <time>2017-08-27T08:14:08Z</time>
      </trkpt>
      <trkpt lat="43.91361" lon="1.61673">
        <ele>167.41</ele>
        <time>2017-08-27T08:14:09Z</time>
      </trkpt>
      <trkpt lat="43.91362" lon="1.6168">
        <ele>167.41</ele>
        <time>2017-08-27T08:14:10Z</time>
      </trkpt>
      <trkpt lat="43.91362" lon="1.61687">
        <ele>167.41</ele>
        <time>2017-08-27T08:14:11Z</time>
      </trkpt>
      <trkpt lat="43.91361" lon="1.61695">
        <ele>166.45</ele>
        <time>2017-08-27T08:14:12Z</time>
      </trkpt>
      <trkpt lat="43.91361" lon="1.61703">
        <ele>165.96</ele>
        <time>2017-08-27T08:14:13Z</time>
      </trkpt>
      <trkpt lat="43.91359" lon="1.61725">
        <ele>164.04</ele>
        <time>2017-08-27T08:14:16Z</time>
      </trkpt>
      <trkpt lat="43.91357" lon="1.61731">
        <ele>163.56</ele>
        <time>2017-08-27T08:14:17Z</time>
      </trkpt>
      <trkpt lat="43.91355" lon="1.61737">
        <ele>163.08</ele>
        <time>2017-08-27T08:14:18Z</time>
      </trkpt>
      <trkpt lat="43.9133" lon="1.61796">
        <ele>161.16</ele>
        <time>2017-08-27T08:14:24Z</time>
      </trkpt>
      <trkpt lat="43.91316" lon="1.61832">
        <ele>159.72</ele>
        <time>2017-08-27T08:14:28Z</time>
      </trkpt>
      <trkpt lat="43.91313" lon="1.61839">
        <ele>160.68</ele>
        <time>2017-08-27T08:14:29Z</time>
      </trkpt>
      <trkpt lat="43.91311" lon="1.61846">
        <ele>159.72</ele>
        <time>2017-08-27T08:14:30Z</time>
      </trkpt>
      <trkpt lat="43.9131" lon="1.61852">
        <ele>159.24</ele>
        <time>2017-08-27T08:14:31Z</time>
      </trkpt>
      <trkpt lat="43.91309" lon="1.61859">
        <ele>159.72</ele>
        <time>2017-08-27T08:14:32Z</time>
      </trkpt>
      <trkpt lat="43.91309" lon="1.61895">
        <ele>158.75</ele>
        <time>2017-08-27T08:14:38Z</time>
      </trkpt>
      <trkpt lat="43.91318" lon="1.61914">
        <ele>158.27</ele>
        <time>2017-08-27T08:14:43Z</time>
      </trkpt>
      <trkpt lat="43.91371" lon="1.61959">
        <ele>166.93</ele>
        <time>2017-08-27T08:15:16Z</time>
      </trkpt>
      <trkpt lat="43.9138" lon="1.6197">
        <ele>169.33</ele>
        <time>2017-08-27T08:15:25Z</time>
      </trkpt>
      <trkpt lat="43.91491" lon="1.62066">
        <ele>175.1</ele>
        <time>2017-08-27T08:20:56Z</time>
      </trkpt>
      <trkpt lat="43.91515" lon="1.62086">
        <ele>172.69</ele>
        <time>2017-08-27T08:20:59Z</time>
      </trkpt>
      <trkpt lat="43.91544" lon="1.62112">
        <ele>173.66</ele>
        <time>2017-08-27T08:21:04Z</time>
      </trkpt>
      <trkpt lat="43.91564" lon="1.62131">
        <ele>175.1</ele>
        <time>2017-08-27T08:21:10Z</time>
      </trkpt>
      <trkpt lat="43.91575" lon="1.62148">
        <ele>175.58</ele>
        <time>2017-08-27T08:21:15Z</time>
      </trkpt>
      <trkpt lat="43.91576" lon="1.62152">
        <ele>175.58</ele>
        <time>2017-08-27T08:21:16Z</time>
      </trkpt>
      <trkpt lat="43.91575" lon="1.62157">
        <ele>175.58</ele>
        <time>2017-08-27T08:21:17Z</time>
      </trkpt>
      <trkpt lat="43.91575" lon="1.62159">
        <ele>175.1</ele>
        <time>2017-08-27T08:21:18Z</time>
      </trkpt>
      <trkpt lat="43.91575" lon="1.62161">
        <ele>175.1</ele>
        <time>2017-08-27T08:21:19Z</time>
      </trkpt>
      <trkpt lat="43.91575" lon="1.62163">
        <ele>174.14</ele>
        <time>2017-08-27T08:21:20Z</time>
      </trkpt>
      <trkpt lat="43.91576" lon="1.62165">
        <ele>174.62</ele>
        <time>2017-08-27T08:21:21Z</time>
      </trkpt>
      <trkpt lat="43.91578" lon="1.62167">
        <ele>175.1</ele>
        <time>2017-08-27T08:21:22Z</time>
      </trkpt>
      <trkpt lat="43.91581" lon="1.62167">
        <ele>174.62</ele>
        <time>2017-08-27T08:21:23Z</time>
      </trkpt>
      <trkpt lat="43.91585" lon="1.62166">
        <ele>174.14</ele>
        <time>2017-08-27T08:21:24Z</time>
      </trkpt>
      <trkpt lat="43.9159" lon="1.62163">
        <ele>173.66</ele>
        <time>2017-08-27T08:21:25Z</time>
      </trkpt>
      <trkpt lat="43.9161" lon="1.62151">
        <ele>172.21</ele>
        <time>2017-08-27T08:21:29Z</time>
      </trkpt>
      <trkpt lat="43.91617" lon="1.62146">
        <ele>171.25</ele>
        <time>2017-08-27T08:21:30Z</time>
      </trkpt>
      <trkpt lat="43.91623" lon="1.62141">
        <ele>171.25</ele>
        <time>2017-08-27T08:21:31Z</time>
      </trkpt>
      <trkpt lat="43.91629" lon="1.62134">
        <ele>171.25</ele>
        <time>2017-08-27T08:21:32Z</time>
      </trkpt>
      <trkpt lat="43.91635" lon="1.62126">
        <ele>170.77</ele>
        <time>2017-08-27T08:21:33Z</time>
      </trkpt>
      <trkpt lat="43.91641" lon="1.62117">
        <ele>169.81</ele>
        <time>2017-08-27T08:21:34Z</time>
      </trkpt>
      <trkpt lat="43.91653" lon="1.62099">
        <ele>168.37</ele>
        <time>2017-08-27T08:21:36Z</time>
      </trkpt>
      <trkpt lat="43.91679" lon="1.62056">
        <ele>165.48</ele>
        <time>2017-08-27T08:21:40Z</time>
      </trkpt>
      <trkpt lat="43.91703" lon="1.62008">
        <ele>162.12</ele>
        <time>2017-08-27T08:21:44Z</time>
      </trkpt>
      <trkpt lat="43.91726" lon="1.61961">
        <ele>158.75</ele>
        <time>2017-08-27T08:21:48Z</time>
      </trkpt>
      <trkpt lat="43.91732" lon="1.61951">
        <ele>157.79</ele>
        <time>2017-08-27T08:21:49Z</time>
      </trkpt>
      <trkpt lat="43.91739" lon="1.61944">
        <ele>156.83</ele>
        <time>2017-08-27T08:21:50Z</time>
      </trkpt>
      <trkpt lat="43.91747" lon="1.61939">
        <ele>155.87</ele>
        <time>2017-08-27T08:21:51Z</time>
      </trkpt>
      <trkpt lat="43.91755" lon="1.61937">
        <ele>154.91</ele>
        <time>2017-08-27T08:21:52Z</time>
      </trkpt>
      <trkpt lat="43.91763" lon="1.61935">
        <ele>154.43</ele>
        <time>2017-08-27T08:21:53Z</time>
      </trkpt>
      <trkpt lat="43.91771" lon="1.61935">
        <ele>153.95</ele>
        <time>2017-08-27T08:21:54Z</time>
      </trkpt>
      <trkpt lat="43.91779" lon="1.61935">
        <ele>153.47</ele>
        <time>2017-08-27T08:21:55Z</time>
      </trkpt>
      <trkpt lat="43.91787" lon="1.61936">
        <ele>152.03</ele>
        <time>2017-08-27T08:21:56Z</time>
      </trkpt>
      <trkpt lat="43.91794" lon="1.61937">
        <ele>152.03</ele>
        <time>2017-08-27T08:21:57Z</time>
      </trkpt>
      <trkpt lat="43.91812" lon="1.61938">
        <ele>149.62</ele>
        <time>2017-08-27T08:22:00Z</time>
      </trkpt>
      <trkpt lat="43.91815" lon="1.61939">
        <ele>149.14</ele>
        <time>2017-08-27T08:22:01Z</time>
      </trkpt>
      <trkpt lat="43.91817" lon="1.61941">
        <ele>148.66</ele>
        <time>2017-08-27T08:22:02Z</time>
      </trkpt>
      <trkpt lat="43.91819" lon="1.61944">
        <ele>148.66</ele>
        <time>2017-08-27T08:22:03Z</time>
      </trkpt>
      <trkpt lat="43.91818" lon="1.61948">
        <ele>148.66</ele>
        <time>2017-08-27T08:22:04Z</time>
      </trkpt>
      <trkpt lat="43.91818" lon="1.61951">
        <ele>148.18</ele>
        <time>2017-08-27T08:22:05Z</time>
      </trkpt>
      <trkpt lat="43.9182" lon="1.61972">
        <ele>146.74</ele>
        <time>2017-08-27T08:22:11Z</time>
      </trkpt>
      <trkpt lat="43.9182" lon="1.62008">
        <ele>146.26</ele>
        <time>2017-08-27T08:22:19Z</time>
      </trkpt>
      <trkpt lat="43.91819" lon="1.62053">
        <ele>146.74</ele>
        <time>2017-08-27T08:22:28Z</time>
      </trkpt>
      <trkpt lat="43.91819" lon="1.62103">
        <ele>146.74</ele>
        <time>2017-08-27T08:22:37Z</time>
      </trkpt>
      <trkpt lat="43.91819" lon="1.62148">
        <ele>146.74</ele>
        <time>2017-08-27T08:22:45Z</time>
      </trkpt>
      <trkpt lat="43.91822" lon="1.62213">
        <ele>146.26</ele>
        <time>2017-08-27T08:22:56Z</time>
      </trkpt>
      <trkpt lat="43.91824" lon="1.62273">
        <ele>146.26</ele>
        <time>2017-08-27T08:23:07Z</time>
      </trkpt>
      <trkpt lat="43.91827" lon="1.62328">
        <ele>146.74</ele>
        <time>2017-08-27T08:23:17Z</time>
      </trkpt>
      <trkpt lat="43.91828" lon="1.62357">
        <ele>146.74</ele>
        <time>2017-08-27T08:23:23Z</time>
      </trkpt>
      <trkpt lat="43.91828" lon="1.62406">
        <ele>146.74</ele>
        <time>2017-08-27T08:23:33Z</time>
      </trkpt>
      <trkpt lat="43.91823" lon="1.62438">
        <ele>146.74</ele>
        <time>2017-08-27T08:23:40Z</time>
      </trkpt>
      <trkpt lat="43.91816" lon="1.62469">
        <ele>147.7</ele>
        <time>2017-08-27T08:23:47Z</time>
      </trkpt>
      <trkpt lat="43.91808" lon="1.62519">
        <ele>147.7</ele>
        <time>2017-08-27T08:23:58Z</time>
      </trkpt>
      <trkpt lat="43.91802" lon="1.62557">
        <ele>148.18</ele>
        <time>2017-08-27T08:24:06Z</time>
      </trkpt>
      <trkpt lat="43.91792" lon="1.62621">
        <ele>147.7</ele>
        <time>2017-08-27T08:24:19Z</time>
      </trkpt>
      <trkpt lat="43.91787" lon="1.62667">
        <ele>147.7</ele>
        <time>2017-08-27T08:24:28Z</time>
      </trkpt>
      <trkpt lat="43.91785" lon="1.62711">
        <ele>148.18</ele>
        <time>2017-08-27T08:24:37Z</time>
      </trkpt>
      <trkpt lat="43.91784" lon="1.62763">
        <ele>148.66</ele>
        <time>2017-08-27T08:24:48Z</time>
      </trkpt>
      <trkpt lat="43.91785" lon="1.62809">
        <ele>148.66</ele>
        <time>2017-08-27T08:24:58Z</time>
      </trkpt>
      <trkpt lat="43.91789" lon="1.62865">
        <ele>148.18</ele>
        <time>2017-08-27T08:25:09Z</time>
      </trkpt>
      <trkpt lat="43.91796" lon="1.62911">
        <ele>148.18</ele>
        <time>2017-08-27T08:25:18Z</time>
      </trkpt>
      <trkpt lat="43.91797" lon="1.6295">
        <ele>148.66</ele>
        <time>2017-08-27T08:25:26Z</time>
      </trkpt>
      <trkpt lat="43.91789" lon="1.62971">
        <ele>149.14</ele>
        <time>2017-08-27T08:25:32Z</time>
      </trkpt>
      <trkpt lat="43.91789" lon="1.63004">
        <ele>148.66</ele>
        <time>2017-08-27T08:25:39Z</time>
      </trkpt>
      <trkpt lat="43.91793" lon="1.63054">
        <ele>148.66</ele>
        <time>2017-08-27T08:25:49Z</time>
      </trkpt>
      <trkpt lat="43.918" lon="1.63098">
        <ele>148.66</ele>
        <time>2017-08-27T08:25:57Z</time>
      </trkpt>
      <trkpt lat="43.91813" lon="1.63171">
        <ele>149.14</ele>
        <time>2017-08-27T08:26:09Z</time>
      </trkpt>
      <trkpt lat="43.91814" lon="1.63207">
        <ele>149.14</ele>
        <time>2017-08-27T08:26:15Z</time>
      </trkpt>
      <trkpt lat="43.91812" lon="1.63212">
        <ele>149.62</ele>
        <time>2017-08-27T08:26:16Z</time>
      </trkpt>
      <trkpt lat="43.9181" lon="1.63216">
        <ele>148.66</ele>
        <time>2017-08-27T08:26:17Z</time>
      </trkpt>
      <trkpt lat="43.91807" lon="1.6322">
        <ele>149.62</ele>
        <time>2017-08-27T08:26:18Z</time>
      </trkpt>
      <trkpt lat="43.91805" lon="1.63224">
        <ele>150.1</ele>
        <time>2017-08-27T08:26:19Z</time>
      </trkpt>
      <trkpt lat="43.91781" lon="1.63251">
        <ele>151.54</ele>
        <time>2017-08-27T08:26:28Z</time>
      </trkpt>
      <trkpt lat="43.91763" lon="1.63271">
        <ele>154.43</ele>
        <time>2017-08-27T08:26:38Z</time>
      </trkpt>
      <trkpt lat="43.91749" lon="1.63286">
        <ele>156.83</ele>
        <time>2017-08-27T08:26:47Z</time>
      </trkpt>
      <trkpt lat="43.91739" lon="1.63302">
        <ele>159.72</ele>
        <time>2017-08-27T08:26:56Z</time>
      </trkpt>
      <trkpt lat="43.91731" lon="1.63312">
        <ele>161.64</ele>
        <time>2017-08-27T08:27:02Z</time>
      </trkpt>
      <trkpt lat="43.91725" lon="1.63323">
        <ele>162.6</ele>
        <time>2017-08-27T08:27:08Z</time>
      </trkpt>
      <trkpt lat="43.91715" lon="1.63339">
        <ele>164.52</ele>
        <time>2017-08-27T08:27:16Z</time>
      </trkpt>
      <trkpt lat="43.91706" lon="1.63353">
        <ele>165.96</ele>
        <time>2017-08-27T08:27:23Z</time>
      </trkpt>
      <trkpt lat="43.91696" lon="1.63367">
        <ele>170.77</ele>
        <time>2017-08-27T08:27:31Z</time>
      </trkpt>
      <trkpt lat="43.91695" lon="1.63368">
        <ele>166.93</ele>
        <time>2017-08-27T08:27:32Z</time>
      </trkpt>
      <trkpt lat="43.91678" lon="1.63385">
        <ele>169.81</ele>
        <time>2017-08-27T08:27:44Z</time>
      </trkpt>
      <trkpt lat="43.91663" lon="1.63398">
        <ele>170.77</ele>
        <time>2017-08-27T08:27:54Z</time>
      </trkpt>
      <trkpt lat="43.91649" lon="1.63411">
        <ele>173.17</ele>
        <time>2017-08-27T08:28:04Z</time>
      </trkpt>
      <trkpt lat="43.91635" lon="1.63427">
        <ele>175.1</ele>
        <time>2017-08-27T08:28:13Z</time>
      </trkpt>
      <trkpt lat="43.91618" lon="1.63453">
        <ele>176.06</ele>
        <time>2017-08-27T08:28:24Z</time>
      </trkpt>
      <trkpt lat="43.916" lon="1.63474">
        <ele>176.06</ele>
        <time>2017-08-27T08:28:33Z</time>
      </trkpt>
      <trkpt lat="43.91594" lon="1.63487">
        <ele>176.54</ele>
        <time>2017-08-27T08:28:39Z</time>
      </trkpt>
      <trkpt lat="43.91595" lon="1.63489">
        <ele>176.06</ele>
        <time>2017-08-27T08:28:45Z</time>
      </trkpt>
      <trkpt lat="43.91597" lon="1.6349">
        <ele>176.06</ele>
        <time>2017-08-27T08:29:07Z</time>
      </trkpt>
      <trkpt lat="43.91596" lon="1.63492">
        <ele>177.02</ele>
        <time>2017-08-27T08:29:31Z</time>
      </trkpt>
      <trkpt lat="43.91596" lon="1.63492">
        <ele>176.06</ele>
        <time>2017-08-27T08:29:51Z</time>
      </trkpt>
      <trkpt lat="43.91597" lon="1.63492">
        <ele>176.54</ele>
        <time>2017-08-27T08:30:07Z</time>
      </trkpt>
      <trkpt lat="43.91598" lon="1.63493">
        <ele>176.06</ele>
        <time>2017-08-27T08:30:08Z</time>
      </trkpt>
      <trkpt lat="43.91599" lon="1.63493">
        <ele>176.06</ele>
        <time>2017-08-27T08:30:09Z</time>
      </trkpt>
      <trkpt lat="43.91601" lon="1.63493">
        <ele>176.06</ele>
        <time>2017-08-27T08:30:10Z</time>
      </trkpt>
      <trkpt lat="43.91603" lon="1.63494">
        <ele>176.06</ele>
        <time>2017-08-27T08:30:11Z</time>
      </trkpt>
      <trkpt lat="43.91605" lon="1.63496">
        <ele>176.06</ele>
        <time>2017-08-27T08:30:12Z</time>
      </trkpt>
      <trkpt lat="43.91626" lon="1.63517">
        <ele>174.14</ele>
        <time>2017-08-27T08:30:20Z</time>
      </trkpt>
      <trkpt lat="43.91649" lon="1.63539">
        <ele>174.62</ele>
        <time>2017-08-27T08:30:27Z</time>
      </trkpt>
      <trkpt lat="43.91661" lon="1.63552">
        <ele>174.14</ele>
        <time>2017-08-27T08:30:31Z</time>
      </trkpt>
      <trkpt lat="43.9169" lon="1.63587">
        <ele>171.73</ele>
        <time>2017-08-27T08:30:38Z</time>
      </trkpt>
      <trkpt lat="43.91712" lon="1.63619">
        <ele>169.33</ele>
        <time>2017-08-27T08:30:42Z</time>
      </trkpt>
      <trkpt lat="43.91744" lon="1.63663">
        <ele>165.96</ele>
        <time>2017-08-27T08:30:47Z</time>
      </trkpt>
      <trkpt lat="43.9177" lon="1.63699">
        <ele>163.08</ele>
        <time>2017-08-27T08:30:51Z</time>
      </trkpt>
      <trkpt lat="43.91797" lon="1.63738">
        <ele>159.72</ele>
        <time>2017-08-27T08:30:55Z</time>
      </trkpt>
      <trkpt lat="43.91812" lon="1.63754">
        <ele>158.27</ele>
        <time>2017-08-27T08:30:57Z</time>
      </trkpt>
      <trkpt lat="43.91849" lon="1.63793">
        <ele>154.43</ele>
        <time>2017-08-27T08:31:02Z</time>
      </trkpt>
      <trkpt lat="43.91863" lon="1.63807">
        <ele>153.47</ele>
        <time>2017-08-27T08:31:04Z</time>
      </trkpt>
      <trkpt lat="43.91901" lon="1.63841">
        <ele>151.54</ele>
        <time>2017-08-27T08:31:10Z</time>
      </trkpt>
      <trkpt lat="43.91943" lon="1.6387">
        <ele>150.58</ele>
        <time>2017-08-27T08:31:18Z</time>
      </trkpt>
      <trkpt lat="43.91946" lon="1.63876">
        <ele>150.58</ele>
        <time>2017-08-27T08:31:19Z</time>
      </trkpt>
      <trkpt lat="43.91948" lon="1.63882">
        <ele>151.06</ele>
        <time>2017-08-27T08:31:20Z</time>
      </trkpt>
      <trkpt lat="43.91948" lon="1.63889">
        <ele>150.58</ele>
        <time>2017-08-27T08:31:21Z</time>
      </trkpt>
      <trkpt lat="43.91948" lon="1.63895">
        <ele>150.1</ele>
        <time>2017-08-27T08:31:22Z</time>
      </trkpt>
      <trkpt lat="43.91944" lon="1.63947">
        <ele>150.58</ele>
        <time>2017-08-27T08:31:31Z</time>
      </trkpt>
      <trkpt lat="43.91942" lon="1.63994">
        <ele>151.06</ele>
        <time>2017-08-27T08:31:40Z</time>
      </trkpt>
      <trkpt lat="43.91946" lon="1.64029">
        <ele>150.58</ele>
        <time>2017-08-27T08:31:48Z</time>
      </trkpt>
      <trkpt lat="43.91953" lon="1.64064">
        <ele>150.58</ele>
        <time>2017-08-27T08:31:57Z</time>
      </trkpt>
      <trkpt lat="43.91958" lon="1.64098">
        <ele>150.1</ele>
        <time>2017-08-27T08:32:05Z</time>
      </trkpt>
      <trkpt lat="43.91962" lon="1.6413">
        <ele>150.1</ele>
        <time>2017-08-27T08:32:12Z</time>
      </trkpt>
      <trkpt lat="43.9197" lon="1.64176">
        <ele>150.58</ele>
        <time>2017-08-27T08:32:22Z</time>
      </trkpt>
      <trkpt lat="43.91976" lon="1.64212">
        <ele>150.58</ele>
        <time>2017-08-27T08:32:30Z</time>
      </trkpt>
      <trkpt lat="43.91982" lon="1.6425">
        <ele>150.58</ele>
        <time>2017-08-27T08:32:39Z</time>
      </trkpt>
      <trkpt lat="43.91982" lon="1.64266">
        <ele>151.06</ele>
        <time>2017-08-27T08:32:44Z</time>
      </trkpt>
      <trkpt lat="43.91983" lon="1.64268">
        <ele>151.06</ele>
        <time>2017-08-27T08:32:45Z</time>
      </trkpt>
      <trkpt lat="43.91985" lon="1.6427">
        <ele>150.58</ele>
        <time>2017-08-27T08:32:46Z</time>
      </trkpt>
      <trkpt lat="43.91986" lon="1.64271">
        <ele>151.06</ele>
        <time>2017-08-27T08:32:47Z</time>
      </trkpt>
      <trkpt lat="43.91987" lon="1.64272">
        <ele>151.06</ele>
        <time>2017-08-27T08:32:48Z</time>
      </trkpt>
      <trkpt lat="43.91989" lon="1.64273">
        <ele>151.06</ele>
        <time>2017-08-27T08:32:49Z</time>
      </trkpt>
      <trkpt lat="43.9199" lon="1.64275">
        <ele>151.54</ele>
        <time>2017-08-27T08:32:50Z</time>
      </trkpt>
      <trkpt lat="43.91992" lon="1.64276">
        <ele>150.1</ele>
        <time>2017-08-27T08:32:55Z</time>
      </trkpt>
      <trkpt lat="43.91994" lon="1.64285">
        <ele>151.06</ele>
        <time>2017-08-27T08:33:04Z</time>
      </trkpt>
      <trkpt lat="43.91996" lon="1.64314">
        <ele>150.1</ele>
        <time>2017-08-27T08:33:12Z</time>
      </trkpt>
      <trkpt lat="43.91992" lon="1.64343">
        <ele>151.06</ele>
        <time>2017-08-27T08:33:19Z</time>
      </trkpt>
      <trkpt lat="43.91987" lon="1.6438">
        <ele>151.06</ele>
        <time>2017-08-27T08:33:27Z</time>
      </trkpt>
      <trkpt lat="43.9198" lon="1.64414">
        <ele>150.58</ele>
        <time>2017-08-27T08:33:35Z</time>
      </trkpt>
      <trkpt lat="43.91968" lon="1.64454">
        <ele>151.54</ele>
        <time>2017-08-27T08:33:44Z</time>
      </trkpt>
      <trkpt lat="43.91963" lon="1.64466">
        <ele>147.7</ele>
        <time>2017-08-27T08:33:47Z</time>
      </trkpt>
      <trkpt lat="43.91962" lon="1.64471">
        <ele>152.99</ele>
        <time>2017-08-27T08:33:48Z</time>
      </trkpt>
      <trkpt lat="43.91957" lon="1.64483">
        <ele>149.14</ele>
        <time>2017-08-27T08:33:51Z</time>
      </trkpt>
      <trkpt lat="43.91954" lon="1.64489">
        <ele>155.87</ele>
        <time>2017-08-27T08:33:53Z</time>
      </trkpt>
      <trkpt lat="43.91953" lon="1.64493">
        <ele>148.66</ele>
        <time>2017-08-27T08:33:54Z</time>
      </trkpt>
      <trkpt lat="43.9195" lon="1.645">
        <ele>153.95</ele>
        <time>2017-08-27T08:33:56Z</time>
      </trkpt>
      <trkpt lat="43.91948" lon="1.64504">
        <ele>151.06</ele>
        <time>2017-08-27T08:33:57Z</time>
      </trkpt>
      <trkpt lat="43.91939" lon="1.64528">
        <ele>153.95</ele>
        <time>2017-08-27T08:34:03Z</time>
      </trkpt>
      <trkpt lat="43.91938" lon="1.64531">
        <ele>151.06</ele>
        <time>2017-08-27T08:34:04Z</time>
      </trkpt>
      <trkpt lat="43.91921" lon="1.64569">
        <ele>151.06</ele>
        <time>2017-08-27T08:34:13Z</time>
      </trkpt>
      <trkpt lat="43.91903" lon="1.64609">
        <ele>151.06</ele>
        <time>2017-08-27T08:34:22Z</time>
      </trkpt>
      <trkpt lat="43.91881" lon="1.64659">
        <ele>151.06</ele>
        <time>2017-08-27T08:34:33Z</time>
      </trkpt>
      <trkpt lat="43.9186" lon="1.64711">
        <ele>151.06</ele>
        <time>2017-08-27T08:34:44Z</time>
      </trkpt>
      <trkpt lat="43.91839" lon="1.64766">
        <ele>151.54</ele>
        <time>2017-08-27T08:34:55Z</time>
      </trkpt>
      <trkpt lat="43.91821" lon="1.64822">
        <ele>151.54</ele>
        <time>2017-08-27T08:35:06Z</time>
      </trkpt>
      <trkpt lat="43.91819" lon="1.64834">
        <ele>151.06</ele>
        <time>2017-08-27T08:35:08Z</time>
      </trkpt>
      <trkpt lat="43.91815" lon="1.64858">
        <ele>151.06</ele>
        <time>2017-08-27T08:35:12Z</time>
      </trkpt>
      <trkpt lat="43.91804" lon="1.64919">
        <ele>151.54</ele>
        <time>2017-08-27T08:35:23Z</time>
      </trkpt>
      <trkpt lat="43.91796" lon="1.64963">
        <ele>151.54</ele>
        <time>2017-08-27T08:35:31Z</time>
      </trkpt>
      <trkpt lat="43.91787" lon="1.65011">
        <ele>151.54</ele>
        <time>2017-08-27T08:35:40Z</time>
      </trkpt>
      <trkpt lat="43.91785" lon="1.65022">
        <ele>151.54</ele>
        <time>2017-08-27T08:35:42Z</time>
      </trkpt>
      <trkpt lat="43.91781" lon="1.65067">
        <ele>152.03</ele>
        <time>2017-08-27T08:35:51Z</time>
      </trkpt>
      <trkpt lat="43.91783" lon="1.65069">
        <ele>152.51</ele>
        <time>2017-08-27T08:35:52Z</time>
      </trkpt>
      <trkpt lat="43.91801" lon="1.65078">
        <ele>152.03</ele>
        <time>2017-08-27T08:35:58Z</time>
      </trkpt>
      <trkpt lat="43.91839" lon="1.65101">
        <ele>152.03</ele>
        <time>2017-08-27T08:36:07Z</time>
      </trkpt>
      <trkpt lat="43.9186" lon="1.65111">
        <ele>152.51</ele>
        <time>2017-08-27T08:36:12Z</time>
      </trkpt>
      <trkpt lat="43.91864" lon="1.65112">
        <ele>152.51</ele>
        <time>2017-08-27T08:36:13Z</time>
      </trkpt>
      <trkpt lat="43.91904" lon="1.65118">
        <ele>152.51</ele>
        <time>2017-08-27T08:36:23Z</time>
      </trkpt>
      <trkpt lat="43.91945" lon="1.65121">
        <ele>152.51</ele>
        <time>2017-08-27T08:36:31Z</time>
      </trkpt>
      <trkpt lat="43.91984" lon="1.65118">
        <ele>151.54</ele>
        <time>2017-08-27T08:36:39Z</time>
      </trkpt>
      <trkpt lat="43.91998" lon="1.65116">
        <ele>151.54</ele>
        <time>2017-08-27T08:36:42Z</time>
      </trkpt>
      <trkpt lat="43.92045" lon="1.65123">
        <ele>151.54</ele>
        <time>2017-08-27T08:36:52Z</time>
      </trkpt>
      <trkpt lat="43.92086" lon="1.65128">
        <ele>151.54</ele>
        <time>2017-08-27T08:37:01Z</time>
      </trkpt>
      <trkpt lat="43.92126" lon="1.65133">
        <ele>152.51</ele>
        <time>2017-08-27T08:37:10Z</time>
      </trkpt>
      <trkpt lat="43.92136" lon="1.65139">
        <ele>153.95</ele>
        <time>2017-08-27T08:37:14Z</time>
      </trkpt>
      <trkpt lat="43.92137" lon="1.65142">
        <ele>153.47</ele>
        <time>2017-08-27T08:37:15Z</time>
      </trkpt>
      <trkpt lat="43.92137" lon="1.65148">
        <ele>154.43</ele>
        <time>2017-08-27T08:37:20Z</time>
      </trkpt>
      <trkpt lat="43.92135" lon="1.65151">
        <ele>153.95</ele>
        <time>2017-08-27T08:37:38Z</time>
      </trkpt>
      <trkpt lat="43.92135" lon="1.65149">
        <ele>153.95</ele>
        <time>2017-08-27T08:37:51Z</time>
      </trkpt>
      <trkpt lat="43.92136" lon="1.65151">
        <ele>153.47</ele>
        <time>2017-08-27T08:38:11Z</time>
      </trkpt>
      <trkpt lat="43.92135" lon="1.65149">
        <ele>153.95</ele>
        <time>2017-08-27T08:38:35Z</time>
      </trkpt>
      <trkpt lat="43.92135" lon="1.65149">
        <ele>153.47</ele>
        <time>2017-08-27T08:38:50Z</time>
      </trkpt>
      <trkpt lat="43.92136" lon="1.6515">
        <ele>153.95</ele>
        <time>2017-08-27T08:39:06Z</time>
      </trkpt>
      <trkpt lat="43.92139" lon="1.65151">
        <ele>153.47</ele>
        <time>2017-08-27T08:39:24Z</time>
      </trkpt>
      <trkpt lat="43.92139" lon="1.65151">
        <ele>153.47</ele>
        <time>2017-08-27T08:39:44Z</time>
      </trkpt>
      <trkpt lat="43.92138" lon="1.65151">
        <ele>152.99</ele>
        <time>2017-08-27T08:39:46Z</time>
      </trkpt>
      <trkpt lat="43.92138" lon="1.6515">
        <ele>152.99</ele>
        <time>2017-08-27T08:40:03Z</time>
      </trkpt>
      <trkpt lat="43.92138" lon="1.65148">
        <ele>152.99</ele>
        <time>2017-08-27T08:40:15Z</time>
      </trkpt>
      <trkpt lat="43.92138" lon="1.65148">
        <ele>152.99</ele>
        <time>2017-08-27T08:40:30Z</time>
      </trkpt>
      <trkpt lat="43.92138" lon="1.65158">
        <ele>152.99</ele>
        <time>2017-08-27T08:40:39Z</time>
      </trkpt>
      <trkpt lat="43.92138" lon="1.65162">
        <ele>153.95</ele>
        <time>2017-08-27T08:40:40Z</time>
      </trkpt>
      <trkpt lat="43.92132" lon="1.65199">
        <ele>154.91</ele>
        <time>2017-08-27T08:40:47Z</time>
      </trkpt>
      <trkpt lat="43.92122" lon="1.65236">
        <ele>153.95</ele>
        <time>2017-08-27T08:40:53Z</time>
      </trkpt>
      <trkpt lat="43.92106" lon="1.65312">
        <ele>154.91</ele>
        <time>2017-08-27T08:41:04Z</time>
      </trkpt>
      <trkpt lat="43.9209" lon="1.65385">
        <ele>153.95</ele>
        <time>2017-08-27T08:41:15Z</time>
      </trkpt>
      <trkpt lat="43.92076" lon="1.65452">
        <ele>154.43</ele>
        <time>2017-08-27T08:41:25Z</time>
      </trkpt>
      <trkpt lat="43.92068" lon="1.65492">
        <ele>154.43</ele>
        <time>2017-08-27T08:41:31Z</time>
      </trkpt>
      <trkpt lat="43.92066" lon="1.65498">
        <ele>154.91</ele>
        <time>2017-08-27T08:41:32Z</time>
      </trkpt>
      <trkpt lat="43.92056" lon="1.65559">
        <ele>155.39</ele>
        <time>2017-08-27T08:41:41Z</time>
      </trkpt>
      <trkpt lat="43.9205" lon="1.65591">
        <ele>155.87</ele>
        <time>2017-08-27T08:41:46Z</time>
      </trkpt>
      <trkpt lat="43.92051" lon="1.65597">
        <ele>156.35</ele>
        <time>2017-08-27T08:41:47Z</time>
      </trkpt>
      <trkpt lat="43.92052" lon="1.65603">
        <ele>155.87</ele>
        <time>2017-08-27T08:41:48Z</time>
      </trkpt>
      <trkpt lat="43.92056" lon="1.65607">
        <ele>156.35</ele>
        <time>2017-08-27T08:41:49Z</time>
      </trkpt>
      <trkpt lat="43.9206" lon="1.65609">
        <ele>156.35</ele>
        <time>2017-08-27T08:41:50Z</time>
      </trkpt>
      <trkpt lat="43.92064" lon="1.65608">
        <ele>156.35</ele>
        <time>2017-08-27T08:41:51Z</time>
      </trkpt>
      <trkpt lat="43.92068" lon="1.65606">
        <ele>156.35</ele>
        <time>2017-08-27T08:41:52Z</time>
      </trkpt>
      <trkpt lat="43.92072" lon="1.65604">
        <ele>156.83</ele>
        <time>2017-08-27T08:41:53Z</time>
      </trkpt>
      <trkpt lat="43.92075" lon="1.65602">
        <ele>156.35</ele>
        <time>2017-08-27T08:41:54Z</time>
      </trkpt>
      <trkpt lat="43.92108" lon="1.65583">
        <ele>158.75</ele>
        <time>2017-08-27T08:42:04Z</time>
      </trkpt>
      <trkpt lat="43.92135" lon="1.65567">
        <ele>159.72</ele>
        <time>2017-08-27T08:42:13Z</time>
      </trkpt>
      <trkpt lat="43.92148" lon="1.65558">
        <ele>160.68</ele>
        <time>2017-08-27T08:42:18Z</time>
      </trkpt>
      <trkpt lat="43.92173" lon="1.65541">
        <ele>162.12</ele>
        <time>2017-08-27T08:42:28Z</time>
      </trkpt>
      <trkpt lat="43.92194" lon="1.65526">
        <ele>163.56</ele>
        <time>2017-08-27T08:42:36Z</time>
      </trkpt>
      <trkpt lat="43.92223" lon="1.65504">
        <ele>165</ele>
        <time>2017-08-27T08:42:47Z</time>
      </trkpt>
      <trkpt lat="43.92251" lon="1.65482">
        <ele>167.89</ele>
        <time>2017-08-27T08:42:58Z</time>
      </trkpt>
      <trkpt lat="43.9228" lon="1.65461">
        <ele>170.77</ele>
        <time>2017-08-27T08:43:10Z</time>
      </trkpt>
      <trkpt lat="43.92305" lon="1.65441">
        <ele>173.17</ele>
        <time>2017-08-27T08:43:20Z</time>
      </trkpt>
      <trkpt lat="43.92326" lon="1.65424">
        <ele>175.58</ele>
        <time>2017-08-27T08:43:29Z</time>
      </trkpt>
      <trkpt lat="43.9234" lon="1.65409">
        <ele>177.02</ele>
        <time>2017-08-27T08:43:36Z</time>
      </trkpt>
      <trkpt lat="43.92358" lon="1.6539">
        <ele>179.42</ele>
        <time>2017-08-27T08:43:45Z</time>
      </trkpt>
      <trkpt lat="43.92378" lon="1.65369">
        <ele>180.87</ele>
        <time>2017-08-27T08:43:54Z</time>
      </trkpt>
      <trkpt lat="43.92394" lon="1.65349">
        <ele>182.31</ele>
        <time>2017-08-27T08:44:03Z</time>
      </trkpt>
      <trkpt lat="43.92411" lon="1.65329">
        <ele>183.27</ele>
        <time>2017-08-27T08:44:11Z</time>
      </trkpt>
      <trkpt lat="43.92425" lon="1.65313">
        <ele>184.23</ele>
        <time>2017-08-27T08:44:18Z</time>
      </trkpt>
      <trkpt lat="43.92439" lon="1.65299">
        <ele>185.19</ele>
        <time>2017-08-27T08:44:25Z</time>
      </trkpt>
      <trkpt lat="43.92455" lon="1.65283">
        <ele>186.63</ele>
        <time>2017-08-27T08:44:32Z</time>
      </trkpt>
      <trkpt lat="43.92498" lon="1.65282">
        <ele>190</ele>
        <time>2017-08-27T08:50:10Z</time>
      </trkpt>
      <trkpt lat="43.92517" lon="1.6529">
        <ele>191.44</ele>
        <time>2017-08-27T08:50:19Z</time>
      </trkpt>
      <trkpt lat="43.92533" lon="1.65296">
        <ele>191.92</ele>
        <time>2017-08-27T08:50:26Z</time>
      </trkpt>
      <trkpt lat="43.92556" lon="1.65302">
        <ele>192.88</ele>
        <time>2017-08-27T08:50:34Z</time>
      </trkpt>
      <trkpt lat="43.92575" lon="1.65308">
        <ele>193.36</ele>
        <time>2017-08-27T08:50:42Z</time>
      </trkpt>
      <trkpt lat="43.92599" lon="1.65318">
        <ele>192.88</ele>
        <time>2017-08-27T08:50:50Z</time>
      </trkpt>
      <trkpt lat="43.92626" lon="1.65334">
        <ele>190.48</ele>
        <time>2017-08-27T08:50:56Z</time>
      </trkpt>
      <trkpt lat="43.92661" lon="1.65362">
        <ele>187.59</ele>
        <time>2017-08-27T08:51:02Z</time>
      </trkpt>
      <trkpt lat="43.92694" lon="1.65384">
        <ele>184.23</ele>
        <time>2017-08-27T08:51:06Z</time>
      </trkpt>
      <trkpt lat="43.92721" lon="1.654">
        <ele>179.42</ele>
        <time>2017-08-27T08:51:09Z</time>
      </trkpt>
      <trkpt lat="43.92729" lon="1.65408">
        <ele>177.5</ele>
        <time>2017-08-27T08:51:10Z</time>
      </trkpt>
      <trkpt lat="43.92736" lon="1.65418">
        <ele>175.58</ele>
        <time>2017-08-27T08:51:11Z</time>
      </trkpt>
      <trkpt lat="43.92742" lon="1.65431">
        <ele>173.66</ele>
        <time>2017-08-27T08:51:12Z</time>
      </trkpt>
      <trkpt lat="43.92745" lon="1.65444">
        <ele>172.21</ele>
        <time>2017-08-27T08:51:13Z</time>
      </trkpt>
      <trkpt lat="43.92747" lon="1.65458">
        <ele>171.25</ele>
        <time>2017-08-27T08:51:14Z</time>
      </trkpt>
      <trkpt lat="43.92746" lon="1.65472">
        <ele>169.81</ele>
        <time>2017-08-27T08:51:15Z</time>
      </trkpt>
      <trkpt lat="43.92745" lon="1.65485">
        <ele>168.85</ele>
        <time>2017-08-27T08:51:16Z</time>
      </trkpt>
      <trkpt lat="43.92743" lon="1.65497">
        <ele>168.37</ele>
        <time>2017-08-27T08:51:17Z</time>
      </trkpt>
      <trkpt lat="43.92741" lon="1.65507">
        <ele>166.45</ele>
        <time>2017-08-27T08:51:18Z</time>
      </trkpt>
      <trkpt lat="43.9274" lon="1.65516">
        <ele>165.96</ele>
        <time>2017-08-27T08:51:19Z</time>
      </trkpt>
      <trkpt lat="43.92738" lon="1.65522">
        <ele>165.48</ele>
        <time>2017-08-27T08:51:20Z</time>
      </trkpt>
      <trkpt lat="43.92735" lon="1.65528">
        <ele>164.52</ele>
        <time>2017-08-27T08:51:21Z</time>
      </trkpt>
      <trkpt lat="43.92732" lon="1.65533">
        <ele>163.56</ele>
        <time>2017-08-27T08:51:22Z</time>
      </trkpt>
      <trkpt lat="43.92727" lon="1.65537">
        <ele>163.08</ele>
        <time>2017-08-27T08:51:23Z</time>
      </trkpt>
      <trkpt lat="43.92721" lon="1.65537">
        <ele>162.6</ele>
        <time>2017-08-27T08:51:24Z</time>
      </trkpt>
      <trkpt lat="43.92715" lon="1.65536">
        <ele>162.12</ele>
        <time>2017-08-27T08:51:25Z</time>
      </trkpt>
      <trkpt lat="43.92703" lon="1.65536">
        <ele>161.64</ele>
        <time>2017-08-27T08:51:27Z</time>
      </trkpt>
      <trkpt lat="43.92698" lon="1.65538">
        <ele>161.64</ele>
        <time>2017-08-27T08:51:28Z</time>
      </trkpt>
      <trkpt lat="43.92693" lon="1.65541">
        <ele>161.16</ele>
        <time>2017-08-27T08:51:29Z</time>
      </trkpt>
      <trkpt lat="43.92689" lon="1.65547">
        <ele>161.16</ele>
        <time>2017-08-27T08:51:30Z</time>
      </trkpt>
      <trkpt lat="43.92685" lon="1.65555">
        <ele>161.16</ele>
        <time>2017-08-27T08:51:31Z</time>
      </trkpt>
      <trkpt lat="43.92682" lon="1.65562">
        <ele>161.16</ele>
        <time>2017-08-27T08:51:32Z</time>
      </trkpt>
      <trkpt lat="43.9268" lon="1.65571">
        <ele>161.16</ele>
        <time>2017-08-27T08:51:33Z</time>
      </trkpt>
      <trkpt lat="43.92673" lon="1.65594">
        <ele>161.16</ele>
        <time>2017-08-27T08:51:36Z</time>
      </trkpt>
      <trkpt lat="43.9267" lon="1.65601">
        <ele>161.16</ele>
        <time>2017-08-27T08:51:37Z</time>
      </trkpt>
      <trkpt lat="43.92667" lon="1.65607">
        <ele>161.16</ele>
        <time>2017-08-27T08:51:38Z</time>
      </trkpt>
      <trkpt lat="43.92663" lon="1.65611">
        <ele>161.16</ele>
        <time>2017-08-27T08:51:39Z</time>
      </trkpt>
      <trkpt lat="43.92659" lon="1.65614">
        <ele>161.16</ele>
        <time>2017-08-27T08:51:40Z</time>
      </trkpt>
      <trkpt lat="43.92655" lon="1.65617">
        <ele>161.16</ele>
        <time>2017-08-27T08:51:41Z</time>
      </trkpt>
      <trkpt lat="43.92651" lon="1.65618">
        <ele>161.16</ele>
        <time>2017-08-27T08:51:42Z</time>
      </trkpt>
      <trkpt lat="43.92589" lon="1.65655">
        <ele>165</ele>
        <time>2017-08-27T08:52:19Z</time>
      </trkpt>
      <trkpt lat="43.92562" lon="1.65681">
        <ele>167.41</ele>
        <time>2017-08-27T08:52:30Z</time>
      </trkpt>
      <trkpt lat="43.92564" lon="1.65703">
        <ele>168.37</ele>
        <time>2017-08-27T08:52:35Z</time>
      </trkpt>
      <trkpt lat="43.92568" lon="1.65726">
        <ele>169.81</ele>
        <time>2017-08-27T08:52:41Z</time>
      </trkpt>
      <trkpt lat="43.92564" lon="1.6576">
        <ele>172.21</ele>
        <time>2017-08-27T08:52:50Z</time>
      </trkpt>
      <trkpt lat="43.92566" lon="1.6578">
        <ele>174.14</ele>
        <time>2017-08-27T08:52:56Z</time>
      </trkpt>
      <trkpt lat="43.92569" lon="1.65802">
        <ele>175.58</ele>
        <time>2017-08-27T08:53:03Z</time>
      </trkpt>
      <trkpt lat="43.92573" lon="1.65835">
        <ele>178.46</ele>
        <time>2017-08-27T08:53:13Z</time>
      </trkpt>
      <trkpt lat="43.92577" lon="1.65875">
        <ele>181.83</ele>
        <time>2017-08-27T08:53:25Z</time>
      </trkpt>
      <trkpt lat="43.92583" lon="1.65902">
        <ele>183.27</ele>
        <time>2017-08-27T08:53:33Z</time>
      </trkpt>
      <trkpt lat="43.92591" lon="1.65937">
        <ele>185.67</ele>
        <time>2017-08-27T08:53:44Z</time>
      </trkpt>
      <trkpt lat="43.92599" lon="1.65965">
        <ele>186.63</ele>
        <time>2017-08-27T08:53:53Z</time>
      </trkpt>
      <trkpt lat="43.92605" lon="1.65989">
        <ele>187.11</ele>
        <time>2017-08-27T08:54:01Z</time>
      </trkpt>
      <trkpt lat="43.92607" lon="1.66">
        <ele>186.15</ele>
        <time>2017-08-27T08:54:07Z</time>
      </trkpt>
      <trkpt lat="43.92607" lon="1.66002">
        <ele>186.15</ele>
        <time>2017-08-27T08:54:17Z</time>
      </trkpt>
      <trkpt lat="43.92608" lon="1.66003">
        <ele>186.63</ele>
        <time>2017-08-27T08:54:31Z</time>
      </trkpt>
      <trkpt lat="43.92609" lon="1.66001">
        <ele>186.15</ele>
        <time>2017-08-27T08:54:43Z</time>
      </trkpt>
      <trkpt lat="43.92609" lon="1.66001">
        <ele>186.15</ele>
        <time>2017-08-27T08:55:00Z</time>
      </trkpt>
      <trkpt lat="43.92607" lon="1.66003">
        <ele>186.15</ele>
        <time>2017-08-27T08:55:18Z</time>
      </trkpt>
      <trkpt lat="43.92607" lon="1.66004">
        <ele>186.15</ele>
        <time>2017-08-27T08:55:23Z</time>
      </trkpt>
      <trkpt lat="43.92607" lon="1.66006">
        <ele>186.15</ele>
        <time>2017-08-27T08:55:24Z</time>
      </trkpt>
      <trkpt lat="43.92607" lon="1.66032">
        <ele>185.19</ele>
        <time>2017-08-27T08:55:30Z</time>
      </trkpt>
      <trkpt lat="43.92604" lon="1.66085">
        <ele>183.27</ele>
        <time>2017-08-27T08:55:37Z</time>
      </trkpt>
      <trkpt lat="43.92596" lon="1.66148">
        <ele>181.35</ele>
        <time>2017-08-27T08:55:45Z</time>
      </trkpt>
      <trkpt lat="43.9259" lon="1.66206">
        <ele>181.35</ele>
        <time>2017-08-27T08:55:54Z</time>
      </trkpt>
      <trkpt lat="43.9259" lon="1.66213">
        <ele>181.83</ele>
        <time>2017-08-27T08:55:55Z</time>
      </trkpt>
      <trkpt lat="43.92591" lon="1.66219">
        <ele>181.35</ele>
        <time>2017-08-27T08:55:56Z</time>
      </trkpt>
      <trkpt lat="43.92595" lon="1.66246">
        <ele>183.27</ele>
        <time>2017-08-27T08:56:02Z</time>
      </trkpt>
      <trkpt lat="43.92601" lon="1.66282">
        <ele>184.71</ele>
        <time>2017-08-27T08:56:11Z</time>
      </trkpt>
      <trkpt lat="43.92608" lon="1.66312">
        <ele>186.15</ele>
        <time>2017-08-27T08:56:20Z</time>
      </trkpt>
      <trkpt lat="43.92611" lon="1.66343">
        <ele>188.56</ele>
        <time>2017-08-27T08:56:29Z</time>
      </trkpt>
      <trkpt lat="43.92618" lon="1.66371">
        <ele>190.48</ele>
        <time>2017-08-27T08:56:38Z</time>
      </trkpt>
      <trkpt lat="43.92629" lon="1.66395">
        <ele>193.36</ele>
        <time>2017-08-27T08:56:48Z</time>
      </trkpt>
      <trkpt lat="43.92639" lon="1.66417">
        <ele>194.8</ele>
        <time>2017-08-27T08:56:56Z</time>
      </trkpt>
      <trkpt lat="43.92651" lon="1.66444">
        <ele>195.77</ele>
        <time>2017-08-27T08:57:05Z</time>
      </trkpt>
      <trkpt lat="43.92669" lon="1.66483">
        <ele>194.8</ele>
        <time>2017-08-27T08:57:15Z</time>
      </trkpt>
      <trkpt lat="43.92693" lon="1.66513">
        <ele>193.36</ele>
        <time>2017-08-27T08:57:24Z</time>
      </trkpt>
      <trkpt lat="43.92716" lon="1.6653">
        <ele>194.32</ele>
        <time>2017-08-27T08:57:32Z</time>
      </trkpt>
      <trkpt lat="43.9274" lon="1.66546">
        <ele>194.32</ele>
        <time>2017-08-27T08:57:41Z</time>
      </trkpt>
      <trkpt lat="43.92757" lon="1.66556">
        <ele>195.28</ele>
        <time>2017-08-27T08:57:50Z</time>
      </trkpt>
      <trkpt lat="43.92778" lon="1.6657">
        <ele>196.25</ele>
        <time>2017-08-27T08:58:00Z</time>
      </trkpt>
      <trkpt lat="43.92797" lon="1.66591">
        <ele>197.21</ele>
        <time>2017-08-27T08:58:10Z</time>
      </trkpt>
      <trkpt lat="43.92811" lon="1.66607">
        <ele>198.17</ele>
        <time>2017-08-27T08:58:17Z</time>
      </trkpt>
      <trkpt lat="43.92827" lon="1.66626">
        <ele>198.65</ele>
        <time>2017-08-27T08:58:25Z</time>
      </trkpt>
      <trkpt lat="43.9285" lon="1.66651">
        <ele>200.09</ele>
        <time>2017-08-27T08:58:36Z</time>
      </trkpt>
      <trkpt lat="43.9286" lon="1.66663">
        <ele>200.57</ele>
        <time>2017-08-27T08:58:43Z</time>
      </trkpt>
      <trkpt lat="43.92861" lon="1.66664">
        <ele>200.09</ele>
        <time>2017-08-27T08:58:51Z</time>
      </trkpt>
      <trkpt lat="43.92863" lon="1.66667">
        <ele>200.09</ele>
        <time>2017-08-27T08:58:58Z</time>
      </trkpt>
      <trkpt lat="43.92862" lon="1.66666">
        <ele>200.09</ele>
        <time>2017-08-27T08:59:09Z</time>
      </trkpt>
      <trkpt lat="43.92862" lon="1.66665">
        <ele>199.61</ele>
        <time>2017-08-27T08:59:27Z</time>
      </trkpt>
      <trkpt lat="43.92862" lon="1.66666">
        <ele>199.61</ele>
        <time>2017-08-27T08:59:48Z</time>
      </trkpt>
      <trkpt lat="43.92862" lon="1.66666">
        <ele>200.09</ele>
        <time>2017-08-27T09:00:10Z</time>
      </trkpt>
      <trkpt lat="43.92862" lon="1.66665">
        <ele>199.13</ele>
        <time>2017-08-27T09:00:32Z</time>
      </trkpt>
      <trkpt lat="43.92862" lon="1.66665">
        <ele>199.61</ele>
        <time>2017-08-27T09:00:48Z</time>
      </trkpt>
      <trkpt lat="43.92862" lon="1.66665">
        <ele>199.61</ele>
        <time>2017-08-27T09:01:06Z</time>
      </trkpt>
      <trkpt lat="43.92863" lon="1.66666">
        <ele>199.61</ele>
        <time>2017-08-27T09:01:22Z</time>
      </trkpt>
      <trkpt lat="43.92867" lon="1.66669">
        <ele>200.09</ele>
        <time>2017-08-27T09:01:26Z</time>
      </trkpt>
      <trkpt lat="43.92881" lon="1.66682">
        <ele>200.09</ele>
        <time>2017-08-27T09:01:32Z</time>
      </trkpt>
      <trkpt lat="43.92908" lon="1.66708">
        <ele>198.65</ele>
        <time>2017-08-27T09:01:39Z</time>
      </trkpt>
      <trkpt lat="43.9295" lon="1.66745">
        <ele>197.21</ele>
        <time>2017-08-27T09:01:49Z</time>
      </trkpt>
      <trkpt lat="43.92973" lon="1.66772">
        <ele>197.69</ele>
        <time>2017-08-27T09:01:58Z</time>
      </trkpt>
      <trkpt lat="43.92987" lon="1.66793">
        <ele>199.13</ele>
        <time>2017-08-27T09:02:06Z</time>
      </trkpt>
      <trkpt lat="43.92995" lon="1.66804">
        <ele>201.05</ele>
        <time>2017-08-27T09:02:12Z</time>
      </trkpt>
      <trkpt lat="43.93008" lon="1.6682">
        <ele>202.98</ele>
        <time>2017-08-27T09:02:22Z</time>
      </trkpt>
      <trkpt lat="43.93019" lon="1.66836">
        <ele>206.34</ele>
        <time>2017-08-27T09:02:32Z</time>
      </trkpt>
      <trkpt lat="43.93023" lon="1.66846">
        <ele>207.78</ele>
        <time>2017-08-27T09:02:37Z</time>
      </trkpt>
      <trkpt lat="43.93025" lon="1.66858">
        <ele>209.22</ele>
        <time>2017-08-27T09:02:43Z</time>
      </trkpt>
      <trkpt lat="43.93027" lon="1.66878">
        <ele>212.11</ele>
        <time>2017-08-27T09:02:52Z</time>
      </trkpt>
      <trkpt lat="43.93032" lon="1.66902">
        <ele>213.55</ele>
        <time>2017-08-27T09:03:03Z</time>
      </trkpt>
      <trkpt lat="43.93042" lon="1.66925">
        <ele>214.99</ele>
        <time>2017-08-27T09:03:14Z</time>
      </trkpt>
      <trkpt lat="43.93053" lon="1.66938">
        <ele>215.95</ele>
        <time>2017-08-27T09:03:22Z</time>
      </trkpt>
      <trkpt lat="43.93061" lon="1.6695">
        <ele>216.43</ele>
        <time>2017-08-27T09:03:30Z</time>
      </trkpt>
      <trkpt lat="43.93061" lon="1.6695">
        <ele>216.43</ele>
        <time>2017-08-27T09:03:41Z</time>
      </trkpt>
      <trkpt lat="43.93061" lon="1.6695">
        <ele>216.91</ele>
        <time>2017-08-27T09:03:57Z</time>
      </trkpt>
      <trkpt lat="43.93061" lon="1.6695">
        <ele>216.43</ele>
        <time>2017-08-27T09:04:10Z</time>
      </trkpt>
      <trkpt lat="43.93062" lon="1.66948">
        <ele>216.91</ele>
        <time>2017-08-27T09:04:29Z</time>
      </trkpt>
      <trkpt lat="43.93062" lon="1.6695">
        <ele>216.43</ele>
        <time>2017-08-27T09:04:44Z</time>
      </trkpt>
      <trkpt lat="43.93063" lon="1.6695">
        <ele>217.88</ele>
        <time>2017-08-27T09:05:05Z</time>
      </trkpt>
      <trkpt lat="43.9306" lon="1.66949">
        <ele>217.4</ele>
        <time>2017-08-27T09:05:21Z</time>
      </trkpt>
      <trkpt lat="43.93061" lon="1.6695">
        <ele>216.91</ele>
        <time>2017-08-27T09:05:35Z</time>
      </trkpt>
      <trkpt lat="43.93063" lon="1.66951">
        <ele>217.4</ele>
        <time>2017-08-27T09:05:56Z</time>
      </trkpt>
      <trkpt lat="43.93063" lon="1.66951">
        <ele>216.43</ele>
        <time>2017-08-27T09:06:07Z</time>
      </trkpt>
      <trkpt lat="43.93062" lon="1.66955">
        <ele>216.91</ele>
        <time>2017-08-27T09:06:12Z</time>
      </trkpt>
      <trkpt lat="43.93061" lon="1.66958">
        <ele>217.4</ele>
        <time>2017-08-27T09:06:13Z</time>
      </trkpt>
      <trkpt lat="43.9306" lon="1.6696">
        <ele>217.4</ele>
        <time>2017-08-27T09:06:14Z</time>
      </trkpt>
      <trkpt lat="43.93056" lon="1.66988">
        <ele>217.4</ele>
        <time>2017-08-27T09:06:22Z</time>
      </trkpt>
      <trkpt lat="43.93053" lon="1.67019">
        <ele>217.4</ele>
        <time>2017-08-27T09:06:30Z</time>
      </trkpt>
      <trkpt lat="43.93051" lon="1.67048">
        <ele>218.36</ele>
        <time>2017-08-27T09:06:38Z</time>
      </trkpt>
      <trkpt lat="43.9305" lon="1.67085">
        <ele>219.32</ele>
        <time>2017-08-27T09:06:48Z</time>
      </trkpt>
      <trkpt lat="43.93048" lon="1.67136">
        <ele>220.76</ele>
        <time>2017-08-27T09:07:01Z</time>
      </trkpt>
      <trkpt lat="43.93036" lon="1.67173">
        <ele>221.72</ele>
        <time>2017-08-27T09:07:12Z</time>
      </trkpt>
      <trkpt lat="43.93026" lon="1.67197">
        <ele>222.68</ele>
        <time>2017-08-27T09:07:20Z</time>
      </trkpt>
      <trkpt lat="43.93011" lon="1.67226">
        <ele>224.61</ele>
        <time>2017-08-27T09:07:29Z</time>
      </trkpt>
      <trkpt lat="43.92998" lon="1.67262">
        <ele>226.05</ele>
        <time>2017-08-27T09:07:39Z</time>
      </trkpt>
      <trkpt lat="43.92986" lon="1.67305">
        <ele>225.57</ele>
        <time>2017-08-27T09:07:49Z</time>
      </trkpt>
      <trkpt lat="43.92984" lon="1.6731">
        <ele>226.05</ele>
        <time>2017-08-27T09:07:50Z</time>
      </trkpt>
      <trkpt lat="43.92981" lon="1.67316">
        <ele>226.53</ele>
        <time>2017-08-27T09:07:51Z</time>
      </trkpt>
      <trkpt lat="43.92961" lon="1.67345">
        <ele>223.16</ele>
        <time>2017-08-27T09:07:56Z</time>
      </trkpt>
      <trkpt lat="43.92958" lon="1.67353">
        <ele>222.68</ele>
        <time>2017-08-27T09:07:58Z</time>
      </trkpt>
      <trkpt lat="43.92959" lon="1.67355">
        <ele>222.2</ele>
        <time>2017-08-27T09:07:59Z</time>
      </trkpt>
      <trkpt lat="43.92961" lon="1.67358">
        <ele>221.24</ele>
        <time>2017-08-27T09:08:00Z</time>
      </trkpt>
      <trkpt lat="43.92963" lon="1.67359">
        <ele>221.72</ele>
        <time>2017-08-27T09:08:01Z</time>
      </trkpt>
      <trkpt lat="43.92966" lon="1.6736">
        <ele>221.72</ele>
        <time>2017-08-27T09:08:02Z</time>
      </trkpt>
      <trkpt lat="43.92968" lon="1.6736">
        <ele>221.72</ele>
        <time>2017-08-27T09:08:03Z</time>
      </trkpt>
      <trkpt lat="43.92971" lon="1.6736">
        <ele>222.2</ele>
        <time>2017-08-27T09:08:04Z</time>
      </trkpt>
      <trkpt lat="43.92993" lon="1.6736">
        <ele>221.24</ele>
        <time>2017-08-27T09:08:12Z</time>
      </trkpt>
      <trkpt lat="43.93018" lon="1.67362">
        <ele>220.76</ele>
        <time>2017-08-27T09:08:21Z</time>
      </trkpt>
      <trkpt lat="43.93045" lon="1.67365">
        <ele>220.76</ele>
        <time>2017-08-27T09:08:29Z</time>
      </trkpt>
      <trkpt lat="43.9309" lon="1.6737">
        <ele>221.24</ele>
        <time>2017-08-27T09:08:39Z</time>
      </trkpt>
      <trkpt lat="43.93138" lon="1.67374">
        <ele>222.2</ele>
        <time>2017-08-27T09:08:51Z</time>
      </trkpt>
      <trkpt lat="43.93159" lon="1.6738">
        <ele>223.16</ele>
        <time>2017-08-27T09:08:57Z</time>
      </trkpt>
      <trkpt lat="43.93186" lon="1.67396">
        <ele>224.12</ele>
        <time>2017-08-27T09:09:05Z</time>
      </trkpt>
      <trkpt lat="43.9322" lon="1.67419">
        <ele>226.05</ele>
        <time>2017-08-27T09:09:16Z</time>
      </trkpt>
      <trkpt lat="43.93247" lon="1.67435">
        <ele>227.49</ele>
        <time>2017-08-27T09:09:25Z</time>
      </trkpt>
      <trkpt lat="43.93272" lon="1.67452">
        <ele>226.53</ele>
        <time>2017-08-27T09:09:32Z</time>
      </trkpt>
      <trkpt lat="43.93302" lon="1.67475">
        <ele>227.01</ele>
        <time>2017-08-27T09:09:40Z</time>
      </trkpt>
      <trkpt lat="43.93337" lon="1.67504">
        <ele>226.05</ele>
        <time>2017-08-27T09:09:48Z</time>
      </trkpt>
      <trkpt lat="43.93346" lon="1.6751">
        <ele>226.05</ele>
        <time>2017-08-27T09:09:50Z</time>
      </trkpt>
      <trkpt lat="43.93359" lon="1.67516">
        <ele>226.05</ele>
        <time>2017-08-27T09:09:53Z</time>
      </trkpt>
      <trkpt lat="43.93377" lon="1.6752">
        <ele>225.57</ele>
        <time>2017-08-27T09:09:57Z</time>
      </trkpt>
      <trkpt lat="43.93416" lon="1.67526">
        <ele>226.05</ele>
        <time>2017-08-27T09:10:05Z</time>
      </trkpt>
      <trkpt lat="43.93453" lon="1.67545">
        <ele>226.05</ele>
        <time>2017-08-27T09:10:13Z</time>
      </trkpt>
      <trkpt lat="43.93473" lon="1.67562">
        <ele>226.53</ele>
        <time>2017-08-27T09:10:18Z</time>
      </trkpt>
      <trkpt lat="43.93516" lon="1.67605">
        <ele>226.05</ele>
        <time>2017-08-27T09:10:29Z</time>
      </trkpt>
      <trkpt lat="43.93557" lon="1.67636">
        <ele>225.57</ele>
        <time>2017-08-27T09:10:38Z</time>
      </trkpt>
      <trkpt lat="43.9359" lon="1.67663">
        <ele>226.53</ele>
        <time>2017-08-27T09:10:46Z</time>
      </trkpt>
      <trkpt lat="43.93612" lon="1.67696">
        <ele>227.01</ele>
        <time>2017-08-27T09:10:53Z</time>
      </trkpt>
      <trkpt lat="43.93614" lon="1.677">
        <ele>227.01</ele>
        <time>2017-08-27T09:10:54Z</time>
      </trkpt>
      <trkpt lat="43.93641" lon="1.67744">
        <ele>227.97</ele>
        <time>2017-08-27T09:11:05Z</time>
      </trkpt>
      <trkpt lat="43.93672" lon="1.67777">
        <ele>231.33</ele>
        <time>2017-08-27T09:11:16Z</time>
      </trkpt>
      <trkpt lat="43.93702" lon="1.67806">
        <ele>233.74</ele>
        <time>2017-08-27T09:11:26Z</time>
      </trkpt>
      <trkpt lat="43.93708" lon="1.67814">
        <ele>233.74</ele>
        <time>2017-08-27T09:11:28Z</time>
      </trkpt>
      <trkpt lat="43.93711" lon="1.6782">
        <ele>232.78</ele>
        <time>2017-08-27T09:11:29Z</time>
      </trkpt>
      <trkpt lat="43.93713" lon="1.67826">
        <ele>232.3</ele>
        <time>2017-08-27T09:11:30Z</time>
      </trkpt>
      <trkpt lat="43.93715" lon="1.67833">
        <ele>232.3</ele>
        <time>2017-08-27T09:11:31Z</time>
      </trkpt>
      <trkpt lat="43.93716" lon="1.6784">
        <ele>231.81</ele>
        <time>2017-08-27T09:11:32Z</time>
      </trkpt>
      <trkpt lat="43.93726" lon="1.67902">
        <ele>230.85</ele>
        <time>2017-08-27T09:11:40Z</time>
      </trkpt>
      <trkpt lat="43.93728" lon="1.67919">
        <ele>229.89</ele>
        <time>2017-08-27T09:11:42Z</time>
      </trkpt>
      <trkpt lat="43.93729" lon="1.67964">
        <ele>227.97</ele>
        <time>2017-08-27T09:11:47Z</time>
      </trkpt>
      <trkpt lat="43.9373" lon="1.67982">
        <ele>227.97</ele>
        <time>2017-08-27T09:11:49Z</time>
      </trkpt>
      <trkpt lat="43.93732" lon="1.67991">
        <ele>227.49</ele>
        <time>2017-08-27T09:11:50Z</time>
      </trkpt>
      <trkpt lat="43.93734" lon="1.68">
        <ele>227.49</ele>
        <time>2017-08-27T09:11:51Z</time>
      </trkpt>
      <trkpt lat="43.93737" lon="1.68007">
        <ele>227.01</ele>
        <time>2017-08-27T09:11:52Z</time>
      </trkpt>
      <trkpt lat="43.93742" lon="1.68014">
        <ele>227.49</ele>
        <time>2017-08-27T09:11:53Z</time>
      </trkpt>
      <trkpt lat="43.93747" lon="1.68019">
        <ele>227.01</ele>
        <time>2017-08-27T09:11:54Z</time>
      </trkpt>
      <trkpt lat="43.93752" lon="1.68023">
        <ele>226.53</ele>
        <time>2017-08-27T09:11:55Z</time>
      </trkpt>
      <trkpt lat="43.93757" lon="1.68027">
        <ele>226.05</ele>
        <time>2017-08-27T09:11:56Z</time>
      </trkpt>
      <trkpt lat="43.93763" lon="1.6803">
        <ele>226.53</ele>
        <time>2017-08-27T09:11:57Z</time>
      </trkpt>
      <trkpt lat="43.93773" lon="1.68035">
        <ele>227.01</ele>
        <time>2017-08-27T09:11:59Z</time>
      </trkpt>
      <trkpt lat="43.93779" lon="1.68037">
        <ele>227.01</ele>
        <time>2017-08-27T09:12:00Z</time>
      </trkpt>
      <trkpt lat="43.93806" lon="1.68039">
        <ele>227.49</ele>
        <time>2017-08-27T09:12:05Z</time>
      </trkpt>
      <trkpt lat="43.93825" lon="1.68034">
        <ele>227.49</ele>
        <time>2017-08-27T09:12:09Z</time>
      </trkpt>
      <trkpt lat="43.9383" lon="1.68032">
        <ele>227.49</ele>
        <time>2017-08-27T09:12:10Z</time>
      </trkpt>
      <trkpt lat="43.93849" lon="1.68026">
        <ele>228.93</ele>
        <time>2017-08-27T09:12:14Z</time>
      </trkpt>
      <trkpt lat="43.93885" lon="1.68013">
        <ele>230.37</ele>
        <time>2017-08-27T09:12:23Z</time>
      </trkpt>
      <trkpt lat="43.93926" lon="1.67997">
        <ele>232.3</ele>
        <time>2017-08-27T09:12:34Z</time>
      </trkpt>
      <trkpt lat="43.93944" lon="1.6799">
        <ele>235.66</ele>
        <time>2017-08-27T09:12:40Z</time>
      </trkpt>
      <trkpt lat="43.93946" lon="1.6799">
        <ele>235.18</ele>
        <time>2017-08-27T09:12:41Z</time>
      </trkpt>
      <trkpt lat="43.93949" lon="1.67993">
        <ele>235.66</ele>
        <time>2017-08-27T09:12:43Z</time>
      </trkpt>
      <trkpt lat="43.93951" lon="1.67995">
        <ele>235.66</ele>
        <time>2017-08-27T09:12:44Z</time>
      </trkpt>
      <trkpt lat="43.93952" lon="1.67998">
        <ele>236.14</ele>
        <time>2017-08-27T09:12:45Z</time>
      </trkpt>
      <trkpt lat="43.93952" lon="1.68001">
        <ele>236.62</ele>
        <time>2017-08-27T09:12:46Z</time>
      </trkpt>
      <trkpt lat="43.93952" lon="1.68004">
        <ele>236.14</ele>
        <time>2017-08-27T09:12:47Z</time>
      </trkpt>
      <trkpt lat="43.93951" lon="1.68008">
        <ele>236.62</ele>
        <time>2017-08-27T09:12:48Z</time>
      </trkpt>
      <trkpt lat="43.9395" lon="1.68011">
        <ele>237.1</ele>
        <time>2017-08-27T09:12:49Z</time>
      </trkpt>
      <trkpt lat="43.93944" lon="1.68038">
        <ele>239.51</ele>
        <time>2017-08-27T09:12:56Z</time>
      </trkpt>
      <trkpt lat="43.93937" lon="1.68075">
        <ele>240.47</ele>
        <time>2017-08-27T09:13:06Z</time>
      </trkpt>
      <trkpt lat="43.93932" lon="1.68114">
        <ele>242.87</ele>
        <time>2017-08-27T09:13:16Z</time>
      </trkpt>
      <trkpt lat="43.93928" lon="1.68167">
        <ele>244.31</ele>
        <time>2017-08-27T09:13:29Z</time>
      </trkpt>
      <trkpt lat="43.93927" lon="1.68207">
        <ele>244.31</ele>
        <time>2017-08-27T09:13:38Z</time>
      </trkpt>
      <trkpt lat="43.93929" lon="1.68238">
        <ele>243.83</ele>
        <time>2017-08-27T09:13:43Z</time>
      </trkpt>
      <trkpt lat="43.93938" lon="1.6827">
        <ele>242.87</ele>
        <time>2017-08-27T09:13:48Z</time>
      </trkpt>
      <trkpt lat="43.93958" lon="1.68325">
        <ele>240.95</ele>
        <time>2017-08-27T09:13:55Z</time>
      </trkpt>
      <trkpt lat="43.93984" lon="1.68403">
        <ele>238.06</ele>
        <time>2017-08-27T09:14:03Z</time>
      </trkpt>
      <trkpt lat="43.93995" lon="1.68466">
        <ele>237.58</ele>
        <time>2017-08-27T09:14:10Z</time>
      </trkpt>
      <trkpt lat="43.94009" lon="1.68536">
        <ele>237.1</ele>
        <time>2017-08-27T09:14:19Z</time>
      </trkpt>
      <trkpt lat="43.94033" lon="1.68595">
        <ele>236.62</ele>
        <time>2017-08-27T09:14:28Z</time>
      </trkpt>
      <trkpt lat="43.94036" lon="1.68601">
        <ele>236.62</ele>
        <time>2017-08-27T09:14:29Z</time>
      </trkpt>
      <trkpt lat="43.94045" lon="1.68619">
        <ele>238.54</ele>
        <time>2017-08-27T09:14:32Z</time>
      </trkpt>
      <trkpt lat="43.94056" lon="1.6864">
        <ele>239.99</ele>
        <time>2017-08-27T09:14:36Z</time>
      </trkpt>
      <trkpt lat="43.94081" lon="1.68686">
        <ele>242.87</ele>
        <time>2017-08-27T09:14:46Z</time>
      </trkpt>
      <trkpt lat="43.94097" lon="1.68712">
        <ele>243.35</ele>
        <time>2017-08-27T09:14:53Z</time>
      </trkpt>
      <trkpt lat="43.94112" lon="1.68728">
        <ele>245.27</ele>
        <time>2017-08-27T09:15:00Z</time>
      </trkpt>
      <trkpt lat="43.94122" lon="1.68736">
        <ele>246.23</ele>
        <time>2017-08-27T09:15:05Z</time>
      </trkpt>
      <trkpt lat="43.94123" lon="1.68735">
        <ele>246.72</ele>
        <time>2017-08-27T09:15:11Z</time>
      </trkpt>
      <trkpt lat="43.94121" lon="1.68733">
        <ele>245.75</ele>
        <time>2017-08-27T09:15:28Z</time>
      </trkpt>
      <trkpt lat="43.94121" lon="1.68731">
        <ele>246.72</ele>
        <time>2017-08-27T09:15:50Z</time>
      </trkpt>
      <trkpt lat="43.94121" lon="1.68731">
        <ele>247.2</ele>
        <time>2017-08-27T09:16:12Z</time>
      </trkpt>
      <trkpt lat="43.94122" lon="1.68731">
        <ele>247.2</ele>
        <time>2017-08-27T09:16:14Z</time>
      </trkpt>
      <trkpt lat="43.94123" lon="1.6873">
        <ele>247.68</ele>
        <time>2017-08-27T09:16:15Z</time>
      </trkpt>
      <trkpt lat="43.94125" lon="1.68729">
        <ele>247.2</ele>
        <time>2017-08-27T09:16:16Z</time>
      </trkpt>
      <trkpt lat="43.94126" lon="1.68728">
        <ele>247.2</ele>
        <time>2017-08-27T09:16:17Z</time>
      </trkpt>
      <trkpt lat="43.94129" lon="1.68728">
        <ele>247.2</ele>
        <time>2017-08-27T09:16:18Z</time>
      </trkpt>
      <trkpt lat="43.94131" lon="1.6873">
        <ele>247.68</ele>
        <time>2017-08-27T09:16:19Z</time>
      </trkpt>
      <trkpt lat="43.94134" lon="1.68731">
        <ele>248.64</ele>
        <time>2017-08-27T09:16:20Z</time>
      </trkpt>
      <trkpt lat="43.94136" lon="1.68732">
        <ele>246.23</ele>
        <time>2017-08-27T09:16:21Z</time>
      </trkpt>
      <trkpt lat="43.94139" lon="1.68733">
        <ele>249.6</ele>
        <time>2017-08-27T09:16:22Z</time>
      </trkpt>
      <trkpt lat="43.94157" lon="1.68741">
        <ele>250.56</ele>
        <time>2017-08-27T09:16:29Z</time>
      </trkpt>
      <trkpt lat="43.94182" lon="1.68743">
        <ele>252.96</ele>
        <time>2017-08-27T09:16:38Z</time>
      </trkpt>
      <trkpt lat="43.94211" lon="1.68751">
        <ele>252</ele>
        <time>2017-08-27T09:16:46Z</time>
      </trkpt>
      <trkpt lat="43.94248" lon="1.68756">
        <ele>250.56</ele>
        <time>2017-08-27T09:16:53Z</time>
      </trkpt>
      <trkpt lat="43.94293" lon="1.68765">
        <ele>248.64</ele>
        <time>2017-08-27T09:17:00Z</time>
      </trkpt>
      <trkpt lat="43.94357" lon="1.68779">
        <ele>247.68</ele>
        <time>2017-08-27T09:17:08Z</time>
      </trkpt>
      <trkpt lat="43.94406" lon="1.68785">
        <ele>248.16</ele>
        <time>2017-08-27T09:17:15Z</time>
      </trkpt>
      <trkpt lat="43.94461" lon="1.68789">
        <ele>248.64</ele>
        <time>2017-08-27T09:17:24Z</time>
      </trkpt>
      <trkpt lat="43.94476" lon="1.6879">
        <ele>249.12</ele>
        <time>2017-08-27T09:17:27Z</time>
      </trkpt>
      <trkpt lat="43.94481" lon="1.68791">
        <ele>249.12</ele>
        <time>2017-08-27T09:17:28Z</time>
      </trkpt>
      <trkpt lat="43.94485" lon="1.68793">
        <ele>248.16</ele>
        <time>2017-08-27T09:17:29Z</time>
      </trkpt>
      <trkpt lat="43.94489" lon="1.68796">
        <ele>249.6</ele>
        <time>2017-08-27T09:17:30Z</time>
      </trkpt>
      <trkpt lat="43.94492" lon="1.68799">
        <ele>248.64</ele>
        <time>2017-08-27T09:17:31Z</time>
      </trkpt>
      <trkpt lat="43.94494" lon="1.68803">
        <ele>249.6</ele>
        <time>2017-08-27T09:17:32Z</time>
      </trkpt>
      <trkpt lat="43.94496" lon="1.68806">
        <ele>250.08</ele>
        <time>2017-08-27T09:17:33Z</time>
      </trkpt>
      <trkpt lat="43.94507" lon="1.68834">
        <ele>251.04</ele>
        <time>2017-08-27T09:17:40Z</time>
      </trkpt>
      <trkpt lat="43.9452" lon="1.68849">
        <ele>251.52</ele>
        <time>2017-08-27T09:17:47Z</time>
      </trkpt>
      <trkpt lat="43.94522" lon="1.68849">
        <ele>251.52</ele>
        <time>2017-08-27T09:17:52Z</time>
      </trkpt>
      <trkpt lat="43.94521" lon="1.68849">
        <ele>251.52</ele>
        <time>2017-08-27T09:18:06Z</time>
      </trkpt>
      <trkpt lat="43.94524" lon="1.68852">
        <ele>251.04</ele>
        <time>2017-08-27T09:18:14Z</time>
      </trkpt>
      <trkpt lat="43.9454" lon="1.68864">
        <ele>250.08</ele>
        <time>2017-08-27T09:18:19Z</time>
      </trkpt>
      <trkpt lat="43.94545" lon="1.68867">
        <ele>250.08</ele>
        <time>2017-08-27T09:18:20Z</time>
      </trkpt>
      <trkpt lat="43.9455" lon="1.68871">
        <ele>250.08</ele>
        <time>2017-08-27T09:18:21Z</time>
      </trkpt>
      <trkpt lat="43.94582" lon="1.689">
        <ele>248.16</ele>
        <time>2017-08-27T09:18:27Z</time>
      </trkpt>
      <trkpt lat="43.94602" lon="1.68915">
        <ele>245.75</ele>
        <time>2017-08-27T09:18:32Z</time>
      </trkpt>
      <trkpt lat="43.94643" lon="1.6895">
        <ele>241.91</ele>
        <time>2017-08-27T09:18:39Z</time>
      </trkpt>
      <trkpt lat="43.94667" lon="1.6897">
        <ele>239.99</ele>
        <time>2017-08-27T09:18:42Z</time>
      </trkpt>
      <trkpt lat="43.94685" lon="1.68984">
        <ele>238.54</ele>
        <time>2017-08-27T09:18:44Z</time>
      </trkpt>
      <trkpt lat="43.9471" lon="1.69007">
        <ele>236.62</ele>
        <time>2017-08-27T09:18:47Z</time>
      </trkpt>
      <trkpt lat="43.94719" lon="1.69013">
        <ele>236.14</ele>
        <time>2017-08-27T09:18:48Z</time>
      </trkpt>
      <trkpt lat="43.94737" lon="1.69022">
        <ele>234.22</ele>
        <time>2017-08-27T09:18:50Z</time>
      </trkpt>
      <trkpt lat="43.94746" lon="1.69024">
        <ele>233.74</ele>
        <time>2017-08-27T09:18:51Z</time>
      </trkpt>
      <trkpt lat="43.94754" lon="1.69024">
        <ele>233.26</ele>
        <time>2017-08-27T09:18:52Z</time>
      </trkpt>
      <trkpt lat="43.94763" lon="1.69023">
        <ele>231.81</ele>
        <time>2017-08-27T09:18:53Z</time>
      </trkpt>
      <trkpt lat="43.94773" lon="1.69021">
        <ele>230.85</ele>
        <time>2017-08-27T09:18:54Z</time>
      </trkpt>
      <trkpt lat="43.94782" lon="1.69017">
        <ele>229.89</ele>
        <time>2017-08-27T09:18:55Z</time>
      </trkpt>
      <trkpt lat="43.94792" lon="1.69014">
        <ele>228.93</ele>
        <time>2017-08-27T09:18:56Z</time>
      </trkpt>
      <trkpt lat="43.94806" lon="1.69007">
        <ele>227.01</ele>
        <time>2017-08-27T09:18:58Z</time>
      </trkpt>
      <trkpt lat="43.94818" lon="1.69006">
        <ele>225.09</ele>
        <time>2017-08-27T09:19:00Z</time>
      </trkpt>
      <trkpt lat="43.94824" lon="1.69007">
        <ele>224.61</ele>
        <time>2017-08-27T09:19:01Z</time>
      </trkpt>
      <trkpt lat="43.94841" lon="1.69013">
        <ele>221.24</ele>
        <time>2017-08-27T09:19:04Z</time>
      </trkpt>
      <trkpt lat="43.94858" lon="1.69022">
        <ele>219.32</ele>
        <time>2017-08-27T09:19:07Z</time>
      </trkpt>
      <trkpt lat="43.94864" lon="1.69024">
        <ele>218.36</ele>
        <time>2017-08-27T09:19:08Z</time>
      </trkpt>
      <trkpt lat="43.94871" lon="1.69024">
        <ele>217.4</ele>
        <time>2017-08-27T09:19:09Z</time>
      </trkpt>
      <trkpt lat="43.94878" lon="1.69024">
        <ele>215.95</ele>
        <time>2017-08-27T09:19:10Z</time>
      </trkpt>
      <trkpt lat="43.94886" lon="1.69022">
        <ele>215.95</ele>
        <time>2017-08-27T09:19:11Z</time>
      </trkpt>
      <trkpt lat="43.94918" lon="1.69017">
        <ele>212.11</ele>
        <time>2017-08-27T09:19:15Z</time>
      </trkpt>
      <trkpt lat="43.94945" lon="1.69015">
        <ele>208.74</ele>
        <time>2017-08-27T09:19:19Z</time>
      </trkpt>
      <trkpt lat="43.94973" lon="1.69011">
        <ele>204.42</ele>
        <time>2017-08-27T09:19:23Z</time>
      </trkpt>
      <trkpt lat="43.94981" lon="1.69012">
        <ele>202.49</ele>
        <time>2017-08-27T09:19:24Z</time>
      </trkpt>
      <trkpt lat="43.94997" lon="1.69017">
        <ele>201.05</ele>
        <time>2017-08-27T09:19:27Z</time>
      </trkpt>
      <trkpt lat="43.95001" lon="1.69022">
        <ele>200.09</ele>
        <time>2017-08-27T09:19:31Z</time>
      </trkpt>
      <trkpt lat="43.95005" lon="1.69022">
        <ele>200.57</ele>
        <time>2017-08-27T09:19:38Z</time>
      </trkpt>
      <trkpt lat="43.95006" lon="1.69019">
        <ele>201.05</ele>
        <time>2017-08-27T09:19:42Z</time>
      </trkpt>
      <trkpt lat="43.95016" lon="1.69003">
        <ele>200.09</ele>
        <time>2017-08-27T09:19:48Z</time>
      </trkpt>
      <trkpt lat="43.9503" lon="1.68975">
        <ele>199.61</ele>
        <time>2017-08-27T09:19:54Z</time>
      </trkpt>
      <trkpt lat="43.95032" lon="1.68969">
        <ele>199.13</ele>
        <time>2017-08-27T09:19:55Z</time>
      </trkpt>
      <trkpt lat="43.95033" lon="1.68963">
        <ele>199.61</ele>
        <time>2017-08-27T09:19:56Z</time>
      </trkpt>
      <trkpt lat="43.95039" lon="1.68909">
        <ele>198.17</ele>
        <time>2017-08-27T09:20:04Z</time>
      </trkpt>
      <trkpt lat="43.95046" lon="1.68854">
        <ele>197.69</ele>
        <time>2017-08-27T09:20:14Z</time>
      </trkpt>
      <trkpt lat="43.95049" lon="1.68826">
        <ele>197.21</ele>
        <time>2017-08-27T09:20:19Z</time>
      </trkpt>
      <trkpt lat="43.9505" lon="1.68814">
        <ele>197.69</ele>
        <time>2017-08-27T09:20:21Z</time>
      </trkpt>
      <trkpt lat="43.9505" lon="1.68807">
        <ele>197.21</ele>
        <time>2017-08-27T09:20:22Z</time>
      </trkpt>
      <trkpt lat="43.9505" lon="1.68795">
        <ele>197.21</ele>
        <time>2017-08-27T09:20:24Z</time>
      </trkpt>
      <trkpt lat="43.95049" lon="1.68776">
        <ele>196.73</ele>
        <time>2017-08-27T09:20:27Z</time>
      </trkpt>
      <trkpt lat="43.9505" lon="1.6877">
        <ele>196.25</ele>
        <time>2017-08-27T09:20:28Z</time>
      </trkpt>
      <trkpt lat="43.95051" lon="1.68763">
        <ele>196.25</ele>
        <time>2017-08-27T09:20:29Z</time>
      </trkpt>
      <trkpt lat="43.95052" lon="1.68757">
        <ele>196.25</ele>
        <time>2017-08-27T09:20:30Z</time>
      </trkpt>
      <trkpt lat="43.95054" lon="1.68751">
        <ele>196.25</ele>
        <time>2017-08-27T09:20:31Z</time>
      </trkpt>
      <trkpt lat="43.95056" lon="1.68746">
        <ele>196.25</ele>
        <time>2017-08-27T09:20:32Z</time>
      </trkpt>
      <trkpt lat="43.95059" lon="1.68742">
        <ele>196.25</ele>
        <time>2017-08-27T09:20:33Z</time>
      </trkpt>
      <trkpt lat="43.95062" lon="1.68738">
        <ele>196.73</ele>
        <time>2017-08-27T09:20:34Z</time>
      </trkpt>
      <trkpt lat="43.95064" lon="1.68734">
        <ele>196.73</ele>
        <time>2017-08-27T09:20:35Z</time>
      </trkpt>
      <trkpt lat="43.95067" lon="1.68731">
        <ele>196.73</ele>
        <time>2017-08-27T09:20:36Z</time>
      </trkpt>
      <trkpt lat="43.95094" lon="1.68702">
        <ele>197.69</ele>
        <time>2017-08-27T09:20:45Z</time>
      </trkpt>
      <trkpt lat="43.95107" lon="1.68673">
        <ele>198.65</ele>
        <time>2017-08-27T09:20:52Z</time>
      </trkpt>
      <trkpt lat="43.95104" lon="1.68643">
        <ele>199.61</ele>
        <time>2017-08-27T09:20:59Z</time>
      </trkpt>
      <trkpt lat="43.95104" lon="1.68617">
        <ele>201.05</ele>
        <time>2017-08-27T09:21:05Z</time>
      </trkpt>
      <trkpt lat="43.95109" lon="1.68586">
        <ele>202.98</ele>
        <time>2017-08-27T09:21:13Z</time>
      </trkpt>
      <trkpt lat="43.95115" lon="1.68562">
        <ele>204.42</ele>
        <time>2017-08-27T09:21:21Z</time>
      </trkpt>
      <trkpt lat="43.95126" lon="1.68548">
        <ele>205.86</ele>
        <time>2017-08-27T09:21:28Z</time>
      </trkpt>
      <trkpt lat="43.95135" lon="1.6853">
        <ele>206.82</ele>
        <time>2017-08-27T09:21:35Z</time>
      </trkpt>
      <trkpt lat="43.95148" lon="1.68502">
        <ele>209.22</ele>
        <time>2017-08-27T09:21:44Z</time>
      </trkpt>
      <trkpt lat="43.95157" lon="1.68479">
        <ele>210.67</ele>
        <time>2017-08-27T09:21:53Z</time>
      </trkpt>
      <trkpt lat="43.95166" lon="1.68457">
        <ele>211.63</ele>
        <time>2017-08-27T09:22:02Z</time>
      </trkpt>
      <trkpt lat="43.95174" lon="1.68438">
        <ele>213.07</ele>
        <time>2017-08-27T09:22:10Z</time>
      </trkpt>
      <trkpt lat="43.95181" lon="1.68419">
        <ele>214.99</ele>
        <time>2017-08-27T09:22:18Z</time>
      </trkpt>
      <trkpt lat="43.95192" lon="1.68394">
        <ele>217.4</ele>
        <time>2017-08-27T09:22:28Z</time>
      </trkpt>
      <trkpt lat="43.95203" lon="1.68367">
        <ele>219.32</ele>
        <time>2017-08-27T09:22:38Z</time>
      </trkpt>
      <trkpt lat="43.95265" lon="1.68301">
        <ele>226.05</ele>
        <time>2017-08-27T09:26:28Z</time>
      </trkpt>
      <trkpt lat="43.95277" lon="1.68293">
        <ele>227.97</ele>
        <time>2017-08-27T09:26:37Z</time>
      </trkpt>
      <trkpt lat="43.95291" lon="1.68284">
        <ele>229.89</ele>
        <time>2017-08-27T09:26:47Z</time>
      </trkpt>
      <trkpt lat="43.95296" lon="1.6828">
        <ele>230.37</ele>
        <time>2017-08-27T09:26:51Z</time>
      </trkpt>
      <trkpt lat="43.95298" lon="1.68279">
        <ele>230.37</ele>
        <time>2017-08-27T09:26:52Z</time>
      </trkpt>
      <trkpt lat="43.95299" lon="1.68278">
        <ele>230.85</ele>
        <time>2017-08-27T09:26:53Z</time>
      </trkpt>
      <trkpt lat="43.95301" lon="1.68277">
        <ele>230.85</ele>
        <time>2017-08-27T09:26:54Z</time>
      </trkpt>
      <trkpt lat="43.95303" lon="1.68275">
        <ele>231.33</ele>
        <time>2017-08-27T09:26:55Z</time>
      </trkpt>
      <trkpt lat="43.95304" lon="1.68274">
        <ele>230.37</ele>
        <time>2017-08-27T09:26:56Z</time>
      </trkpt>
      <trkpt lat="43.95306" lon="1.68273">
        <ele>231.81</ele>
        <time>2017-08-27T09:26:57Z</time>
      </trkpt>
      <trkpt lat="43.95307" lon="1.68271">
        <ele>231.33</ele>
        <time>2017-08-27T09:26:58Z</time>
      </trkpt>
      <trkpt lat="43.95319" lon="1.68266">
        <ele>232.78</ele>
        <time>2017-08-27T09:27:06Z</time>
      </trkpt>
      <trkpt lat="43.95321" lon="1.68268">
        <ele>232.78</ele>
        <time>2017-08-27T09:27:08Z</time>
      </trkpt>
      <trkpt lat="43.95323" lon="1.68269">
        <ele>233.26</ele>
        <time>2017-08-27T09:27:09Z</time>
      </trkpt>
      <trkpt lat="43.95324" lon="1.68271">
        <ele>233.26</ele>
        <time>2017-08-27T09:27:10Z</time>
      </trkpt>
      <trkpt lat="43.95335" lon="1.68282">
        <ele>234.7</ele>
        <time>2017-08-27T09:27:18Z</time>
      </trkpt>
      <trkpt lat="43.95343" lon="1.68292">
        <ele>236.14</ele>
        <time>2017-08-27T09:27:24Z</time>
      </trkpt>
      <trkpt lat="43.95354" lon="1.68306">
        <ele>237.1</ele>
        <time>2017-08-27T09:27:32Z</time>
      </trkpt>
      <trkpt lat="43.95368" lon="1.6832">
        <ele>238.54</ele>
        <time>2017-08-27T09:27:41Z</time>
      </trkpt>
      <trkpt lat="43.95379" lon="1.68331">
        <ele>239.99</ele>
        <time>2017-08-27T09:27:48Z</time>
      </trkpt>
      <trkpt lat="43.9538" lon="1.68333">
        <ele>240.47</ele>
        <time>2017-08-27T09:27:49Z</time>
      </trkpt>
      <trkpt lat="43.95388" lon="1.68337">
        <ele>241.43</ele>
        <time>2017-08-27T09:27:54Z</time>
      </trkpt>
      <trkpt lat="43.95401" lon="1.68334">
        <ele>241.91</ele>
        <time>2017-08-27T09:28:01Z</time>
      </trkpt>
      <trkpt lat="43.95402" lon="1.68333">
        <ele>241.91</ele>
        <time>2017-08-27T09:28:02Z</time>
      </trkpt>
      <trkpt lat="43.95403" lon="1.68332">
        <ele>242.87</ele>
        <time>2017-08-27T09:28:03Z</time>
      </trkpt>
      <trkpt lat="43.95405" lon="1.68331">
        <ele>241.91</ele>
        <time>2017-08-27T09:28:04Z</time>
      </trkpt>
      <trkpt lat="43.95406" lon="1.6833">
        <ele>242.87</ele>
        <time>2017-08-27T09:28:05Z</time>
      </trkpt>
      <trkpt lat="43.95408" lon="1.68329">
        <ele>242.87</ele>
        <time>2017-08-27T09:28:06Z</time>
      </trkpt>
      <trkpt lat="43.9541" lon="1.68328">
        <ele>242.39</ele>
        <time>2017-08-27T09:28:07Z</time>
      </trkpt>
      <trkpt lat="43.95412" lon="1.68327">
        <ele>243.35</ele>
        <time>2017-08-27T09:28:08Z</time>
      </trkpt>
      <trkpt lat="43.95414" lon="1.68327">
        <ele>243.35</ele>
        <time>2017-08-27T09:28:09Z</time>
      </trkpt>
      <trkpt lat="43.95416" lon="1.68326">
        <ele>243.83</ele>
        <time>2017-08-27T09:28:10Z</time>
      </trkpt>
      <trkpt lat="43.95417" lon="1.68325">
        <ele>243.35</ele>
        <time>2017-08-27T09:28:11Z</time>
      </trkpt>
      <trkpt lat="43.95419" lon="1.68324">
        <ele>243.35</ele>
        <time>2017-08-27T09:28:12Z</time>
      </trkpt>
      <trkpt lat="43.95436" lon="1.68318">
        <ele>245.75</ele>
        <time>2017-08-27T09:28:21Z</time>
      </trkpt>
      <trkpt lat="43.95453" lon="1.68308">
        <ele>246.23</ele>
        <time>2017-08-27T09:28:29Z</time>
      </trkpt>
      <trkpt lat="43.95477" lon="1.68301">
        <ele>248.16</ele>
        <time>2017-08-27T09:28:38Z</time>
      </trkpt>
      <trkpt lat="43.955" lon="1.68293">
        <ele>248.64</ele>
        <time>2017-08-27T09:28:48Z</time>
      </trkpt>
      <trkpt lat="43.95516" lon="1.68289">
        <ele>249.12</ele>
        <time>2017-08-27T09:28:56Z</time>
      </trkpt>
      <trkpt lat="43.95525" lon="1.68292">
        <ele>249.12</ele>
        <time>2017-08-27T09:29:03Z</time>
      </trkpt>
      <trkpt lat="43.95526" lon="1.68288">
        <ele>249.12</ele>
        <time>2017-08-27T09:29:14Z</time>
      </trkpt>
      <trkpt lat="43.95525" lon="1.68288">
        <ele>248.16</ele>
        <time>2017-08-27T09:29:30Z</time>
      </trkpt>
      <trkpt lat="43.95525" lon="1.6829">
        <ele>249.6</ele>
        <time>2017-08-27T09:29:40Z</time>
      </trkpt>
      <trkpt lat="43.95528" lon="1.68293">
        <ele>249.6</ele>
        <time>2017-08-27T09:30:00Z</time>
      </trkpt>
      <trkpt lat="43.95527" lon="1.6829">
        <ele>249.12</ele>
        <time>2017-08-27T09:30:15Z</time>
      </trkpt>
      <trkpt lat="43.9553" lon="1.68294">
        <ele>250.08</ele>
        <time>2017-08-27T09:30:26Z</time>
      </trkpt>
      <trkpt lat="43.95531" lon="1.68295">
        <ele>250.08</ele>
        <time>2017-08-27T09:30:27Z</time>
      </trkpt>
      <trkpt lat="43.95545" lon="1.68313">
        <ele>250.08</ele>
        <time>2017-08-27T09:30:36Z</time>
      </trkpt>
      <trkpt lat="43.95557" lon="1.68332">
        <ele>251.04</ele>
        <time>2017-08-27T09:30:44Z</time>
      </trkpt>
      <trkpt lat="43.95566" lon="1.68354">
        <ele>251.04</ele>
        <time>2017-08-27T09:30:51Z</time>
      </trkpt>
      <trkpt lat="43.95581" lon="1.6838">
        <ele>252.48</ele>
        <time>2017-08-27T09:31:00Z</time>
      </trkpt>
      <trkpt lat="43.95596" lon="1.684">
        <ele>252.96</ele>
        <time>2017-08-27T09:31:08Z</time>
      </trkpt>
      <trkpt lat="43.95614" lon="1.68415">
        <ele>252.48</ele>
        <time>2017-08-27T09:31:16Z</time>
      </trkpt>
      <trkpt lat="43.95632" lon="1.68428">
        <ele>254.41</ele>
        <time>2017-08-27T09:31:24Z</time>
      </trkpt>
      <trkpt lat="43.95647" lon="1.68437">
        <ele>255.37</ele>
        <time>2017-08-27T09:31:31Z</time>
      </trkpt>
      <trkpt lat="43.95668" lon="1.6845">
        <ele>257.29</ele>
        <time>2017-08-27T09:31:40Z</time>
      </trkpt>
      <trkpt lat="43.95684" lon="1.68457">
        <ele>257.77</ele>
        <time>2017-08-27T09:31:47Z</time>
      </trkpt>
      <trkpt lat="43.95707" lon="1.68467">
        <ele>259.21</ele>
        <time>2017-08-27T09:31:56Z</time>
      </trkpt>
      <trkpt lat="43.95727" lon="1.68475">
        <ele>259.69</ele>
        <time>2017-08-27T09:32:04Z</time>
      </trkpt>
      <trkpt lat="43.95744" lon="1.6848">
        <ele>260.17</ele>
        <time>2017-08-27T09:32:11Z</time>
      </trkpt>
      <trkpt lat="43.95765" lon="1.68488">
        <ele>260.17</ele>
        <time>2017-08-27T09:32:19Z</time>
      </trkpt>
      <trkpt lat="43.95783" lon="1.68494">
        <ele>260.65</ele>
        <time>2017-08-27T09:32:28Z</time>
      </trkpt>
      <trkpt lat="43.95803" lon="1.68504">
        <ele>261.14</ele>
        <time>2017-08-27T09:32:37Z</time>
      </trkpt>
      <trkpt lat="43.95814" lon="1.68509">
        <ele>260.17</ele>
        <time>2017-08-27T09:32:44Z</time>
      </trkpt>
      <trkpt lat="43.95828" lon="1.68513">
        <ele>261.14</ele>
        <time>2017-08-27T09:32:53Z</time>
      </trkpt>
      <trkpt lat="43.95842" lon="1.68518">
        <ele>261.62</ele>
        <time>2017-08-27T09:33:00Z</time>
      </trkpt>
      <trkpt lat="43.95859" lon="1.68526">
        <ele>262.1</ele>
        <time>2017-08-27T09:33:08Z</time>
      </trkpt>
      <trkpt lat="43.95879" lon="1.68536">
        <ele>261.62</ele>
        <time>2017-08-27T09:33:14Z</time>
      </trkpt>
      <trkpt lat="43.95897" lon="1.68546">
        <ele>260.65</ele>
        <time>2017-08-27T09:33:18Z</time>
      </trkpt>
      <trkpt lat="43.95906" lon="1.68553">
        <ele>260.65</ele>
        <time>2017-08-27T09:33:20Z</time>
      </trkpt>
      <trkpt lat="43.9591" lon="1.68557">
        <ele>260.17</ele>
        <time>2017-08-27T09:33:21Z</time>
      </trkpt>
      <trkpt lat="43.95915" lon="1.68562">
        <ele>259.69</ele>
        <time>2017-08-27T09:33:22Z</time>
      </trkpt>
      <trkpt lat="43.95919" lon="1.68567">
        <ele>259.69</ele>
        <time>2017-08-27T09:33:23Z</time>
      </trkpt>
      <trkpt lat="43.95922" lon="1.68573">
        <ele>259.21</ele>
        <time>2017-08-27T09:33:24Z</time>
      </trkpt>
      <trkpt lat="43.95926" lon="1.68579">
        <ele>259.21</ele>
        <time>2017-08-27T09:33:25Z</time>
      </trkpt>
      <trkpt lat="43.95929" lon="1.68586">
        <ele>259.21</ele>
        <time>2017-08-27T09:33:26Z</time>
      </trkpt>
      <trkpt lat="43.95939" lon="1.68613">
        <ele>259.21</ele>
        <time>2017-08-27T09:33:30Z</time>
      </trkpt>
      <trkpt lat="43.95959" lon="1.68687">
        <ele>259.21</ele>
        <time>2017-08-27T09:33:40Z</time>
      </trkpt>
      <trkpt lat="43.95976" lon="1.68749">
        <ele>259.21</ele>
        <time>2017-08-27T09:33:50Z</time>
      </trkpt>
      <trkpt lat="43.95988" lon="1.68808">
        <ele>261.14</ele>
        <time>2017-08-27T09:34:01Z</time>
      </trkpt>
      <trkpt lat="43.95997" lon="1.68844">
        <ele>261.62</ele>
        <time>2017-08-27T09:34:08Z</time>
      </trkpt>
      <trkpt lat="43.9602" lon="1.68883">
        <ele>261.62</ele>
        <time>2017-08-27T09:34:17Z</time>
      </trkpt>
      <trkpt lat="43.96044" lon="1.68915">
        <ele>263.54</ele>
        <time>2017-08-27T09:34:26Z</time>
      </trkpt>
      <trkpt lat="43.96061" lon="1.68936">
        <ele>264.02</ele>
        <time>2017-08-27T09:34:33Z</time>
      </trkpt>
      <trkpt lat="43.96074" lon="1.6896">
        <ele>264.98</ele>
        <time>2017-08-27T09:34:40Z</time>
      </trkpt>
      <trkpt lat="43.9608" lon="1.68988">
        <ele>264.98</ele>
        <time>2017-08-27T09:34:46Z</time>
      </trkpt>
      <trkpt lat="43.96082" lon="1.6901">
        <ele>264.5</ele>
        <time>2017-08-27T09:34:50Z</time>
      </trkpt>
      <trkpt lat="43.96083" lon="1.69016">
        <ele>264.02</ele>
        <time>2017-08-27T09:34:51Z</time>
      </trkpt>
      <trkpt lat="43.96083" lon="1.69022">
        <ele>264.02</ele>
        <time>2017-08-27T09:34:52Z</time>
      </trkpt>
      <trkpt lat="43.96083" lon="1.69028">
        <ele>264.02</ele>
        <time>2017-08-27T09:34:53Z</time>
      </trkpt>
      <trkpt lat="43.96082" lon="1.69035">
        <ele>264.02</ele>
        <time>2017-08-27T09:34:54Z</time>
      </trkpt>
      <trkpt lat="43.96081" lon="1.69042">
        <ele>264.02</ele>
        <time>2017-08-27T09:34:55Z</time>
      </trkpt>
      <trkpt lat="43.9608" lon="1.69049">
        <ele>263.06</ele>
        <time>2017-08-27T09:34:56Z</time>
      </trkpt>
      <trkpt lat="43.96078" lon="1.69055">
        <ele>263.54</ele>
        <time>2017-08-27T09:34:57Z</time>
      </trkpt>
      <trkpt lat="43.96076" lon="1.69061">
        <ele>263.06</ele>
        <time>2017-08-27T09:34:58Z</time>
      </trkpt>
      <trkpt lat="43.96074" lon="1.69066">
        <ele>263.54</ele>
        <time>2017-08-27T09:34:59Z</time>
      </trkpt>
      <trkpt lat="43.96071" lon="1.69072">
        <ele>263.06</ele>
        <time>2017-08-27T09:35:00Z</time>
      </trkpt>
      <trkpt lat="43.96067" lon="1.69077">
        <ele>263.06</ele>
        <time>2017-08-27T09:35:01Z</time>
      </trkpt>
      <trkpt lat="43.96064" lon="1.69082">
        <ele>262.58</ele>
        <time>2017-08-27T09:35:02Z</time>
      </trkpt>
      <trkpt lat="43.96041" lon="1.6911">
        <ele>263.06</ele>
        <time>2017-08-27T09:35:09Z</time>
      </trkpt>
      <trkpt lat="43.96029" lon="1.69133">
        <ele>263.06</ele>
        <time>2017-08-27T09:35:16Z</time>
      </trkpt>
      <trkpt lat="43.96028" lon="1.69135">
        <ele>263.06</ele>
        <time>2017-08-27T09:35:22Z</time>
      </trkpt>
      <trkpt lat="43.96029" lon="1.69135">
        <ele>263.06</ele>
        <time>2017-08-27T09:35:39Z</time>
      </trkpt>
      <trkpt lat="43.96027" lon="1.69135">
        <ele>263.54</ele>
        <time>2017-08-27T09:35:57Z</time>
      </trkpt>
      <trkpt lat="43.96027" lon="1.69134">
        <ele>263.06</ele>
        <time>2017-08-27T09:36:14Z</time>
      </trkpt>
      <trkpt lat="43.96028" lon="1.69135">
        <ele>263.06</ele>
        <time>2017-08-27T09:36:33Z</time>
      </trkpt>
      <trkpt lat="43.96028" lon="1.69139">
        <ele>262.58</ele>
        <time>2017-08-27T09:36:49Z</time>
      </trkpt>
      <trkpt lat="43.96026" lon="1.69139">
        <ele>263.54</ele>
        <time>2017-08-27T09:36:59Z</time>
      </trkpt>
      <trkpt lat="43.96025" lon="1.69138">
        <ele>264.02</ele>
        <time>2017-08-27T09:37:07Z</time>
      </trkpt>
      <trkpt lat="43.96025" lon="1.69138">
        <ele>261.62</ele>
        <time>2017-08-27T09:37:10Z</time>
      </trkpt>
      <trkpt lat="43.96024" lon="1.69137">
        <ele>263.54</ele>
        <time>2017-08-27T09:37:31Z</time>
      </trkpt>
      <trkpt lat="43.96025" lon="1.69137">
        <ele>264.02</ele>
        <time>2017-08-27T09:37:51Z</time>
      </trkpt>
      <trkpt lat="43.96026" lon="1.69139">
        <ele>264.02</ele>
        <time>2017-08-27T09:38:09Z</time>
      </trkpt>
      <trkpt lat="43.96025" lon="1.6914">
        <ele>264.5</ele>
        <time>2017-08-27T09:38:27Z</time>
      </trkpt>
      <trkpt lat="43.96025" lon="1.69139">
        <ele>263.54</ele>
        <time>2017-08-27T09:38:32Z</time>
      </trkpt>
      <trkpt lat="43.96027" lon="1.69138">
        <ele>264.5</ele>
        <time>2017-08-27T09:38:49Z</time>
      </trkpt>
      <trkpt lat="43.96027" lon="1.69137">
        <ele>264.98</ele>
        <time>2017-08-27T09:38:55Z</time>
      </trkpt>
      <trkpt lat="43.96028" lon="1.6914">
        <ele>264.98</ele>
        <time>2017-08-27T09:39:07Z</time>
      </trkpt>
      <trkpt lat="43.9603" lon="1.69141">
        <ele>264.98</ele>
        <time>2017-08-27T09:39:08Z</time>
      </trkpt>
      <trkpt lat="43.96033" lon="1.69139">
        <ele>264.02</ele>
        <time>2017-08-27T09:39:09Z</time>
      </trkpt>
      <trkpt lat="43.96035" lon="1.69136">
        <ele>263.54</ele>
        <time>2017-08-27T09:39:10Z</time>
      </trkpt>
      <trkpt lat="43.96039" lon="1.69132">
        <ele>263.54</ele>
        <time>2017-08-27T09:39:11Z</time>
      </trkpt>
      <trkpt lat="43.96042" lon="1.69127">
        <ele>264.5</ele>
        <time>2017-08-27T09:39:12Z</time>
      </trkpt>
      <trkpt lat="43.96046" lon="1.69122">
        <ele>264.02</ele>
        <time>2017-08-27T09:39:13Z</time>
      </trkpt>
      <trkpt lat="43.96067" lon="1.69103">
        <ele>262.58</ele>
        <time>2017-08-27T09:39:17Z</time>
      </trkpt>
      <trkpt lat="43.96111" lon="1.69077">
        <ele>260.65</ele>
        <time>2017-08-27T09:39:23Z</time>
      </trkpt>
      <trkpt lat="43.96156" lon="1.69052">
        <ele>257.29</ele>
        <time>2017-08-27T09:39:28Z</time>
      </trkpt>
      <trkpt lat="43.96166" lon="1.69047">
        <ele>257.29</ele>
        <time>2017-08-27T09:39:29Z</time>
      </trkpt>
      <trkpt lat="43.96206" lon="1.69032">
        <ele>254.89</ele>
        <time>2017-08-27T09:39:33Z</time>
      </trkpt>
      <trkpt lat="43.96283" lon="1.69013">
        <ele>252.48</ele>
        <time>2017-08-27T09:39:41Z</time>
      </trkpt>
      <trkpt lat="43.96301" lon="1.69007">
        <ele>252.48</ele>
        <time>2017-08-27T09:39:43Z</time>
      </trkpt>
      <trkpt lat="43.9631" lon="1.69002">
        <ele>253.44</ele>
        <time>2017-08-27T09:39:44Z</time>
      </trkpt>
      <trkpt lat="43.96318" lon="1.68997">
        <ele>253.44</ele>
        <time>2017-08-27T09:39:45Z</time>
      </trkpt>
      <trkpt lat="43.96325" lon="1.68991">
        <ele>253.44</ele>
        <time>2017-08-27T09:39:46Z</time>
      </trkpt>
      <trkpt lat="43.96333" lon="1.68985">
        <ele>252.48</ele>
        <time>2017-08-27T09:39:47Z</time>
      </trkpt>
      <trkpt lat="43.96409" lon="1.6892">
        <ele>251.52</ele>
        <time>2017-08-27T09:39:57Z</time>
      </trkpt>
      <trkpt lat="43.9646" lon="1.68878">
        <ele>253.44</ele>
        <time>2017-08-27T09:40:05Z</time>
      </trkpt>
      <trkpt lat="43.9651" lon="1.68836">
        <ele>255.37</ele>
        <time>2017-08-27T09:40:14Z</time>
      </trkpt>
      <trkpt lat="43.9652" lon="1.68828">
        <ele>255.37</ele>
        <time>2017-08-27T09:40:16Z</time>
      </trkpt>
      <trkpt lat="43.96549" lon="1.68808">
        <ele>257.29</ele>
        <time>2017-08-27T09:40:22Z</time>
      </trkpt>
      <trkpt lat="43.96586" lon="1.68789">
        <ele>259.69</ele>
        <time>2017-08-27T09:40:30Z</time>
      </trkpt>
      <trkpt lat="43.96634" lon="1.68769">
        <ele>261.62</ele>
        <time>2017-08-27T09:40:40Z</time>
      </trkpt>
      <trkpt lat="43.96667" lon="1.68755">
        <ele>263.06</ele>
        <time>2017-08-27T09:40:48Z</time>
      </trkpt>
      <trkpt lat="43.96701" lon="1.68734">
        <ele>264.5</ele>
        <time>2017-08-27T09:40:57Z</time>
      </trkpt>
      <trkpt lat="43.96714" lon="1.68725">
        <ele>265.94</ele>
        <time>2017-08-27T09:41:02Z</time>
      </trkpt>
      <trkpt lat="43.96717" lon="1.68726">
        <ele>265.46</ele>
        <time>2017-08-27T09:41:03Z</time>
      </trkpt>
      <trkpt lat="43.9672" lon="1.68728">
        <ele>266.9</ele>
        <time>2017-08-27T09:41:04Z</time>
      </trkpt>
      <trkpt lat="43.96722" lon="1.68731">
        <ele>265.46</ele>
        <time>2017-08-27T09:41:05Z</time>
      </trkpt>
      <trkpt lat="43.96724" lon="1.68734">
        <ele>266.42</ele>
        <time>2017-08-27T09:41:06Z</time>
      </trkpt>
      <trkpt lat="43.96727" lon="1.68737">
        <ele>266.42</ele>
        <time>2017-08-27T09:41:07Z</time>
      </trkpt>
      <trkpt lat="43.9673" lon="1.68739">
        <ele>266.42</ele>
        <time>2017-08-27T09:41:08Z</time>
      </trkpt>
      <trkpt lat="43.96733" lon="1.68741">
        <ele>267.38</ele>
        <time>2017-08-27T09:41:09Z</time>
      </trkpt>
      <trkpt lat="43.9676" lon="1.68769">
        <ele>268.35</ele>
        <time>2017-08-27T09:41:18Z</time>
      </trkpt>
      <trkpt lat="43.96767" lon="1.68784">
        <ele>269.79</ele>
        <time>2017-08-27T09:41:21Z</time>
      </trkpt>
      <trkpt lat="43.96781" lon="1.68833">
        <ele>266.9</ele>
        <time>2017-08-27T09:41:28Z</time>
      </trkpt>
      <trkpt lat="43.96799" lon="1.68906">
        <ele>264.98</ele>
        <time>2017-08-27T09:41:36Z</time>
      </trkpt>
      <trkpt lat="43.96813" lon="1.68952">
        <ele>264.5</ele>
        <time>2017-08-27T09:41:42Z</time>
      </trkpt>
      <trkpt lat="43.96822" lon="1.68972">
        <ele>264.5</ele>
        <time>2017-08-27T09:41:45Z</time>
      </trkpt>
      <trkpt lat="43.96826" lon="1.68978">
        <ele>263.54</ele>
        <time>2017-08-27T09:41:46Z</time>
      </trkpt>
      <trkpt lat="43.96834" lon="1.68989">
        <ele>263.54</ele>
        <time>2017-08-27T09:41:48Z</time>
      </trkpt>
      <trkpt lat="43.96838" lon="1.68994">
        <ele>263.06</ele>
        <time>2017-08-27T09:41:49Z</time>
      </trkpt>
      <trkpt lat="43.96842" lon="1.69">
        <ele>263.06</ele>
        <time>2017-08-27T09:41:50Z</time>
      </trkpt>
      <trkpt lat="43.96846" lon="1.69006">
        <ele>262.1</ele>
        <time>2017-08-27T09:41:51Z</time>
      </trkpt>
      <trkpt lat="43.9685" lon="1.69013">
        <ele>261.62</ele>
        <time>2017-08-27T09:41:52Z</time>
      </trkpt>
      <trkpt lat="43.96853" lon="1.69021">
        <ele>260.65</ele>
        <time>2017-08-27T09:41:53Z</time>
      </trkpt>
      <trkpt lat="43.96859" lon="1.6904">
        <ele>258.25</ele>
        <time>2017-08-27T09:41:55Z</time>
      </trkpt>
      <trkpt lat="43.96861" lon="1.69051">
        <ele>258.25</ele>
        <time>2017-08-27T09:41:56Z</time>
      </trkpt>
      <trkpt lat="43.9687" lon="1.69095">
        <ele>254.89</ele>
        <time>2017-08-27T09:42:00Z</time>
      </trkpt>
      <trkpt lat="43.96876" lon="1.69128">
        <ele>254.41</ele>
        <time>2017-08-27T09:42:03Z</time>
      </trkpt>
      <trkpt lat="43.96877" lon="1.69138">
        <ele>253.93</ele>
        <time>2017-08-27T09:42:04Z</time>
      </trkpt>
      <trkpt lat="43.96876" lon="1.69178">
        <ele>250.08</ele>
        <time>2017-08-27T09:42:08Z</time>
      </trkpt>
      <trkpt lat="43.96875" lon="1.69188">
        <ele>248.64</ele>
        <time>2017-08-27T09:42:09Z</time>
      </trkpt>
      <trkpt lat="43.96873" lon="1.69197">
        <ele>247.68</ele>
        <time>2017-08-27T09:42:10Z</time>
      </trkpt>
      <trkpt lat="43.96873" lon="1.69206">
        <ele>246.72</ele>
        <time>2017-08-27T09:42:11Z</time>
      </trkpt>
      <trkpt lat="43.96874" lon="1.69213">
        <ele>246.72</ele>
        <time>2017-08-27T09:42:12Z</time>
      </trkpt>
      <trkpt lat="43.96876" lon="1.69219">
        <ele>246.23</ele>
        <time>2017-08-27T09:42:13Z</time>
      </trkpt>
      <trkpt lat="43.96878" lon="1.69231">
        <ele>244.79</ele>
        <time>2017-08-27T09:42:15Z</time>
      </trkpt>
      <trkpt lat="43.96879" lon="1.69262">
        <ele>241.43</ele>
        <time>2017-08-27T09:42:19Z</time>
      </trkpt>
      <trkpt lat="43.9688" lon="1.69293">
        <ele>238.54</ele>
        <time>2017-08-27T09:42:22Z</time>
      </trkpt>
      <trkpt lat="43.96885" lon="1.69314">
        <ele>234.22</ele>
        <time>2017-08-27T09:42:25Z</time>
      </trkpt>
      <trkpt lat="43.96889" lon="1.69327">
        <ele>231.81</ele>
        <time>2017-08-27T09:42:27Z</time>
      </trkpt>
      <trkpt lat="43.96892" lon="1.69343">
        <ele>229.41</ele>
        <time>2017-08-27T09:42:29Z</time>
      </trkpt>
      <trkpt lat="43.96891" lon="1.69375">
        <ele>224.12</ele>
        <time>2017-08-27T09:42:34Z</time>
      </trkpt>
      <trkpt lat="43.9689" lon="1.69379">
        <ele>224.12</ele>
        <time>2017-08-27T09:42:35Z</time>
      </trkpt>
      <trkpt lat="43.96886" lon="1.69398">
        <ele>220.76</ele>
        <time>2017-08-27T09:42:40Z</time>
      </trkpt>
      <trkpt lat="43.96884" lon="1.69415">
        <ele>218.36</ele>
        <time>2017-08-27T09:42:44Z</time>
      </trkpt>
      <trkpt lat="43.96885" lon="1.69424">
        <ele>216.43</ele>
        <time>2017-08-27T09:42:46Z</time>
      </trkpt>
      <trkpt lat="43.96891" lon="1.69437">
        <ele>213.07</ele>
        <time>2017-08-27T09:42:50Z</time>
      </trkpt>
      <trkpt lat="43.96896" lon="1.69452">
        <ele>211.63</ele>
        <time>2017-08-27T09:42:54Z</time>
      </trkpt>
      <trkpt lat="43.96893" lon="1.69458">
        <ele>211.63</ele>
        <time>2017-08-27T09:42:56Z</time>
      </trkpt>
      <trkpt lat="43.96883" lon="1.69472">
        <ele>211.15</ele>
        <time>2017-08-27T09:43:01Z</time>
      </trkpt>
      <trkpt lat="43.96874" lon="1.69494">
        <ele>210.67</ele>
        <time>2017-08-27T09:43:05Z</time>
      </trkpt>
      <trkpt lat="43.96872" lon="1.69582">
        <ele>210.67</ele>
        <time>2017-08-27T09:43:16Z</time>
      </trkpt>
      <trkpt lat="43.96872" lon="1.69638">
        <ele>209.22</ele>
        <time>2017-08-27T09:43:24Z</time>
      </trkpt>
      <trkpt lat="43.96876" lon="1.69648">
        <ele>209.22</ele>
        <time>2017-08-27T09:43:27Z</time>
      </trkpt>
      <trkpt lat="43.96884" lon="1.69654">
        <ele>211.15</ele>
        <time>2017-08-27T09:43:33Z</time>
      </trkpt>
      <trkpt lat="43.9689" lon="1.69659">
        <ele>213.07</ele>
        <time>2017-08-27T09:43:39Z</time>
      </trkpt>
      <trkpt lat="43.96893" lon="1.69663">
        <ele>214.51</ele>
        <time>2017-08-27T09:43:43Z</time>
      </trkpt>
      <trkpt lat="43.96901" lon="1.69669">
        <ele>217.88</ele>
        <time>2017-08-27T09:43:52Z</time>
      </trkpt>
      <trkpt lat="43.96905" lon="1.69672">
        <ele>218.36</ele>
        <time>2017-08-27T09:43:57Z</time>
      </trkpt>
      <trkpt lat="43.96906" lon="1.69673">
        <ele>218.84</ele>
        <time>2017-08-27T09:43:58Z</time>
      </trkpt>
      <trkpt lat="43.96907" lon="1.69675">
        <ele>218.36</ele>
        <time>2017-08-27T09:43:59Z</time>
      </trkpt>
      <trkpt lat="43.96908" lon="1.69676">
        <ele>218.36</ele>
        <time>2017-08-27T09:44:00Z</time>
      </trkpt>
      <trkpt lat="43.96909" lon="1.69677">
        <ele>218.84</ele>
        <time>2017-08-27T09:44:01Z</time>
      </trkpt>
      <trkpt lat="43.96917" lon="1.69682">
        <ele>219.8</ele>
        <time>2017-08-27T09:44:08Z</time>
      </trkpt>
      <trkpt lat="43.96926" lon="1.69684">
        <ele>221.24</ele>
        <time>2017-08-27T09:44:16Z</time>
      </trkpt>
      <trkpt lat="43.96932" lon="1.69685">
        <ele>221.72</ele>
        <time>2017-08-27T09:44:23Z</time>
      </trkpt>
      <trkpt lat="43.9695" lon="1.69684">
        <ele>222.2</ele>
        <time>2017-08-27T09:44:30Z</time>
      </trkpt>
      <trkpt lat="43.96969" lon="1.69675">
        <ele>224.12</ele>
        <time>2017-08-27T09:44:37Z</time>
      </trkpt>
      <trkpt lat="43.96971" lon="1.69674">
        <ele>224.12</ele>
        <time>2017-08-27T09:44:38Z</time>
      </trkpt>
      <trkpt lat="43.96973" lon="1.69674">
        <ele>223.64</ele>
        <time>2017-08-27T09:44:39Z</time>
      </trkpt>
      <trkpt lat="43.96976" lon="1.69674">
        <ele>224.12</ele>
        <time>2017-08-27T09:44:40Z</time>
      </trkpt>
      <trkpt lat="43.96979" lon="1.69673">
        <ele>224.12</ele>
        <time>2017-08-27T09:44:41Z</time>
      </trkpt>
      <trkpt lat="43.96981" lon="1.69673">
        <ele>224.61</ele>
        <time>2017-08-27T09:44:42Z</time>
      </trkpt>
      <trkpt lat="43.96985" lon="1.69673">
        <ele>224.12</ele>
        <time>2017-08-27T09:44:43Z</time>
      </trkpt>
      <trkpt lat="43.96988" lon="1.69673">
        <ele>224.61</ele>
        <time>2017-08-27T09:44:44Z</time>
      </trkpt>
      <trkpt lat="43.97007" lon="1.69673">
        <ele>224.61</ele>
        <time>2017-08-27T09:44:50Z</time>
      </trkpt>
      <trkpt lat="43.97031" lon="1.69675">
        <ele>226.53</ele>
        <time>2017-08-27T09:44:58Z</time>
      </trkpt>
      <trkpt lat="43.97048" lon="1.69679">
        <ele>226.53</ele>
        <time>2017-08-27T09:45:05Z</time>
      </trkpt>
      <trkpt lat="43.97046" lon="1.69679">
        <ele>226.53</ele>
        <time>2017-08-27T09:45:11Z</time>
      </trkpt>
      <trkpt lat="43.97044" lon="1.69677">
        <ele>226.53</ele>
        <time>2017-08-27T09:45:36Z</time>
      </trkpt>
      <trkpt lat="43.97041" lon="1.69681">
        <ele>226.05</ele>
        <time>2017-08-27T09:46:00Z</time>
      </trkpt>
      <trkpt lat="43.97044" lon="1.6968">
        <ele>227.49</ele>
        <time>2017-08-27T09:46:14Z</time>
      </trkpt>
      <trkpt lat="43.97049" lon="1.6968">
        <ele>227.49</ele>
        <time>2017-08-27T09:46:20Z</time>
      </trkpt>
      <trkpt lat="43.97053" lon="1.69683">
        <ele>227.49</ele>
        <time>2017-08-27T09:46:35Z</time>
      </trkpt>
      <trkpt lat="43.97052" lon="1.69683">
        <ele>226.53</ele>
        <time>2017-08-27T09:46:48Z</time>
      </trkpt>
      <trkpt lat="43.97049" lon="1.6968">
        <ele>227.01</ele>
        <time>2017-08-27T09:47:08Z</time>
      </trkpt>
      <trkpt lat="43.97047" lon="1.69683">
        <ele>227.01</ele>
        <time>2017-08-27T09:47:24Z</time>
      </trkpt>
      <trkpt lat="43.97056" lon="1.69685">
        <ele>227.97</ele>
        <time>2017-08-27T09:47:29Z</time>
      </trkpt>
      <trkpt lat="43.97072" lon="1.6969">
        <ele>227.97</ele>
        <time>2017-08-27T09:47:35Z</time>
      </trkpt>
      <trkpt lat="43.97089" lon="1.69696">
        <ele>229.89</ele>
        <time>2017-08-27T09:47:42Z</time>
      </trkpt>
      <trkpt lat="43.97111" lon="1.69702">
        <ele>229.89</ele>
        <time>2017-08-27T09:47:49Z</time>
      </trkpt>
      <trkpt lat="43.97138" lon="1.69698">
        <ele>229.89</ele>
        <time>2017-08-27T09:47:57Z</time>
      </trkpt>
      <trkpt lat="43.97159" lon="1.69697">
        <ele>233.26</ele>
        <time>2017-08-27T09:48:05Z</time>
      </trkpt>
      <trkpt lat="43.97172" lon="1.69699">
        <ele>234.7</ele>
        <time>2017-08-27T09:48:11Z</time>
      </trkpt>
      <trkpt lat="43.97194" lon="1.69699">
        <ele>237.58</ele>
        <time>2017-08-27T09:48:20Z</time>
      </trkpt>
      <trkpt lat="43.97196" lon="1.69699">
        <ele>237.58</ele>
        <time>2017-08-27T09:48:21Z</time>
      </trkpt>
      <trkpt lat="43.97223" lon="1.6969">
        <ele>239.02</ele>
        <time>2017-08-27T09:48:31Z</time>
      </trkpt>
      <trkpt lat="43.97243" lon="1.69683">
        <ele>239.99</ele>
        <time>2017-08-27T09:48:38Z</time>
      </trkpt>
      <trkpt lat="43.97257" lon="1.6968">
        <ele>240.95</ele>
        <time>2017-08-27T09:48:44Z</time>
      </trkpt>
      <trkpt lat="43.97282" lon="1.69682">
        <ele>242.87</ele>
        <time>2017-08-27T09:48:53Z</time>
      </trkpt>
      <trkpt lat="43.97303" lon="1.69691">
        <ele>245.27</ele>
        <time>2017-08-27T09:49:03Z</time>
      </trkpt>
      <trkpt lat="43.9731" lon="1.69693">
        <ele>246.23</ele>
        <time>2017-08-27T09:49:07Z</time>
      </trkpt>
      <trkpt lat="43.97312" lon="1.69694">
        <ele>246.72</ele>
        <time>2017-08-27T09:49:08Z</time>
      </trkpt>
      <trkpt lat="43.97313" lon="1.69694">
        <ele>246.72</ele>
        <time>2017-08-27T09:49:09Z</time>
      </trkpt>
      <trkpt lat="43.97315" lon="1.69696">
        <ele>247.2</ele>
        <time>2017-08-27T09:49:10Z</time>
      </trkpt>
      <trkpt lat="43.97316" lon="1.69697">
        <ele>247.68</ele>
        <time>2017-08-27T09:49:11Z</time>
      </trkpt>
      <trkpt lat="43.97318" lon="1.69699">
        <ele>247.2</ele>
        <time>2017-08-27T09:49:12Z</time>
      </trkpt>
      <trkpt lat="43.97319" lon="1.697">
        <ele>247.2</ele>
        <time>2017-08-27T09:49:13Z</time>
      </trkpt>
      <trkpt lat="43.9733" lon="1.69717">
        <ele>249.12</ele>
        <time>2017-08-27T09:49:21Z</time>
      </trkpt>
      <trkpt lat="43.9734" lon="1.69735">
        <ele>252.48</ele>
        <time>2017-08-27T09:49:30Z</time>
      </trkpt>
      <trkpt lat="43.97351" lon="1.69756">
        <ele>253.93</ele>
        <time>2017-08-27T09:49:41Z</time>
      </trkpt>
      <trkpt lat="43.97357" lon="1.69775">
        <ele>255.85</ele>
        <time>2017-08-27T09:49:50Z</time>
      </trkpt>
      <trkpt lat="43.97363" lon="1.69797">
        <ele>259.21</ele>
        <time>2017-08-27T09:50:01Z</time>
      </trkpt>
      <trkpt lat="43.97371" lon="1.69818">
        <ele>261.14</ele>
        <time>2017-08-27T09:50:11Z</time>
      </trkpt>
      <trkpt lat="43.97378" lon="1.69835">
        <ele>263.06</ele>
        <time>2017-08-27T09:50:20Z</time>
      </trkpt>
      <trkpt lat="43.97387" lon="1.6985">
        <ele>265.94</ele>
        <time>2017-08-27T09:50:29Z</time>
      </trkpt>
      <trkpt lat="43.97389" lon="1.69853">
        <ele>266.42</ele>
        <time>2017-08-27T09:50:31Z</time>
      </trkpt>
      <trkpt lat="43.97398" lon="1.69867">
        <ele>267.86</ele>
        <time>2017-08-27T09:50:40Z</time>
      </trkpt>
      <trkpt lat="43.97408" lon="1.69882">
        <ele>270.27</ele>
        <time>2017-08-27T09:50:49Z</time>
      </trkpt>
      <trkpt lat="43.97418" lon="1.69897">
        <ele>272.19</ele>
        <time>2017-08-27T09:50:58Z</time>
      </trkpt>
      <trkpt lat="43.9743" lon="1.69914">
        <ele>274.11</ele>
        <time>2017-08-27T09:51:06Z</time>
      </trkpt>
      <trkpt lat="43.97445" lon="1.69931">
        <ele>275.07</ele>
        <time>2017-08-27T09:51:14Z</time>
      </trkpt>
      <trkpt lat="43.97464" lon="1.69953">
        <ele>275.56</ele>
        <time>2017-08-27T09:51:22Z</time>
      </trkpt>
      <trkpt lat="43.97494" lon="1.69976">
        <ele>275.07</ele>
        <time>2017-08-27T09:51:32Z</time>
      </trkpt>
      <trkpt lat="43.97521" lon="1.70003">
        <ele>276.52</ele>
        <time>2017-08-27T09:51:41Z</time>
      </trkpt>
      <trkpt lat="43.97543" lon="1.70042">
        <ele>277.48</ele>
        <time>2017-08-27T09:51:51Z</time>
      </trkpt>
      <trkpt lat="43.97562" lon="1.70074">
        <ele>278.44</ele>
        <time>2017-08-27T09:52:00Z</time>
      </trkpt>
      <trkpt lat="43.97578" lon="1.70092">
        <ele>279.88</ele>
        <time>2017-08-27T09:52:07Z</time>
      </trkpt>
      <trkpt lat="43.9759" lon="1.70108">
        <ele>278.92</ele>
        <time>2017-08-27T09:52:11Z</time>
      </trkpt>
      <trkpt lat="43.97602" lon="1.70127">
        <ele>276.04</ele>
        <time>2017-08-27T09:52:15Z</time>
      </trkpt>
      <trkpt lat="43.97615" lon="1.70152">
        <ele>271.71</ele>
        <time>2017-08-27T09:52:18Z</time>
      </trkpt>
      <trkpt lat="43.97633" lon="1.70182">
        <ele>268.35</ele>
        <time>2017-08-27T09:52:21Z</time>
      </trkpt>
      <trkpt lat="43.97649" lon="1.70211">
        <ele>265.94</ele>
        <time>2017-08-27T09:52:24Z</time>
      </trkpt>
      <trkpt lat="43.97653" lon="1.70221">
        <ele>264.5</ele>
        <time>2017-08-27T09:52:25Z</time>
      </trkpt>
      <trkpt lat="43.97657" lon="1.70232">
        <ele>263.54</ele>
        <time>2017-08-27T09:52:26Z</time>
      </trkpt>
      <trkpt lat="43.97664" lon="1.70254">
        <ele>263.54</ele>
        <time>2017-08-27T09:52:28Z</time>
      </trkpt>
      <trkpt lat="43.97668" lon="1.70263">
        <ele>262.58</ele>
        <time>2017-08-27T09:52:29Z</time>
      </trkpt>
      <trkpt lat="43.97681" lon="1.70291">
        <ele>262.1</ele>
        <time>2017-08-27T09:52:32Z</time>
      </trkpt>
      <trkpt lat="43.97692" lon="1.70308">
        <ele>261.62</ele>
        <time>2017-08-27T09:52:34Z</time>
      </trkpt>
      <trkpt lat="43.9771" lon="1.70328">
        <ele>258.73</ele>
        <time>2017-08-27T09:52:38Z</time>
      </trkpt>
      <trkpt lat="43.97729" lon="1.70349">
        <ele>257.29</ele>
        <time>2017-08-27T09:52:43Z</time>
      </trkpt>
      <trkpt lat="43.97736" lon="1.70357">
        <ele>255.37</ele>
        <time>2017-08-27T09:52:45Z</time>
      </trkpt>
      <trkpt lat="43.97753" lon="1.70375">
        <ele>252</ele>
        <time>2017-08-27T09:52:50Z</time>
      </trkpt>
      <trkpt lat="43.97767" lon="1.70391">
        <ele>249.12</ele>
        <time>2017-08-27T09:52:56Z</time>
      </trkpt>
      <trkpt lat="43.97771" lon="1.70394">
        <ele>247.68</ele>
        <time>2017-08-27T09:53:01Z</time>
      </trkpt>
      <trkpt lat="43.97772" lon="1.70396">
        <ele>247.68</ele>
        <time>2017-08-27T09:53:03Z</time>
      </trkpt>
      <trkpt lat="43.97774" lon="1.70399">
        <ele>247.2</ele>
        <time>2017-08-27T09:53:04Z</time>
      </trkpt>
      <trkpt lat="43.97786" lon="1.70414">
        <ele>243.83</ele>
        <time>2017-08-27T09:53:10Z</time>
      </trkpt>
      <trkpt lat="43.97788" lon="1.70415">
        <ele>243.83</ele>
        <time>2017-08-27T09:53:11Z</time>
      </trkpt>
      <trkpt lat="43.97794" lon="1.70421">
        <ele>242.39</ele>
        <time>2017-08-27T09:53:14Z</time>
      </trkpt>
      <trkpt lat="43.97801" lon="1.70427">
        <ele>240.47</ele>
        <time>2017-08-27T09:53:20Z</time>
      </trkpt>
      <trkpt lat="43.97805" lon="1.70424">
        <ele>240.47</ele>
        <time>2017-08-27T09:53:35Z</time>
      </trkpt>
      <trkpt lat="43.97808" lon="1.70431">
        <ele>239.99</ele>
        <time>2017-08-27T09:53:47Z</time>
      </trkpt>
      <trkpt lat="43.97811" lon="1.70432">
        <ele>240.47</ele>
        <time>2017-08-27T09:53:48Z</time>
      </trkpt>
      <trkpt lat="43.97814" lon="1.70433">
        <ele>239.02</ele>
        <time>2017-08-27T09:53:49Z</time>
      </trkpt>
      <trkpt lat="43.97817" lon="1.70433">
        <ele>238.54</ele>
        <time>2017-08-27T09:53:50Z</time>
      </trkpt>
      <trkpt lat="43.97821" lon="1.70435">
        <ele>238.06</ele>
        <time>2017-08-27T09:53:51Z</time>
      </trkpt>
      <trkpt lat="43.9783" lon="1.70441">
        <ele>236.62</ele>
        <time>2017-08-27T09:53:54Z</time>
      </trkpt>
      <trkpt lat="43.97835" lon="1.70442">
        <ele>234.7</ele>
        <time>2017-08-27T09:53:56Z</time>
      </trkpt>
      <trkpt lat="43.9784" lon="1.70443">
        <ele>233.74</ele>
        <time>2017-08-27T09:53:58Z</time>
      </trkpt>
      <trkpt lat="43.97841" lon="1.70445">
        <ele>233.26</ele>
        <time>2017-08-27T09:53:59Z</time>
      </trkpt>
      <trkpt lat="43.97842" lon="1.70447">
        <ele>233.26</ele>
        <time>2017-08-27T09:54:00Z</time>
      </trkpt>
      <trkpt lat="43.97843" lon="1.7045">
        <ele>232.3</ele>
        <time>2017-08-27T09:54:01Z</time>
      </trkpt>
      <trkpt lat="43.97845" lon="1.70454">
        <ele>232.3</ele>
        <time>2017-08-27T09:54:02Z</time>
      </trkpt>
      <trkpt lat="43.97848" lon="1.70457">
        <ele>230.85</ele>
        <time>2017-08-27T09:54:03Z</time>
      </trkpt>
      <trkpt lat="43.97851" lon="1.70459">
        <ele>230.85</ele>
        <time>2017-08-27T09:54:04Z</time>
      </trkpt>
      <trkpt lat="43.97855" lon="1.70461">
        <ele>230.85</ele>
        <time>2017-08-27T09:54:05Z</time>
      </trkpt>
      <trkpt lat="43.97858" lon="1.70463">
        <ele>229.41</ele>
        <time>2017-08-27T09:54:06Z</time>
      </trkpt>
      <trkpt lat="43.97861" lon="1.70466">
        <ele>228.93</ele>
        <time>2017-08-27T09:54:07Z</time>
      </trkpt>
      <trkpt lat="43.97863" lon="1.70468">
        <ele>227.97</ele>
        <time>2017-08-27T09:54:08Z</time>
      </trkpt>
      <trkpt lat="43.9787" lon="1.70476">
        <ele>226.53</ele>
        <time>2017-08-27T09:54:11Z</time>
      </trkpt>
      <trkpt lat="43.97875" lon="1.70481">
        <ele>225.57</ele>
        <time>2017-08-27T09:54:13Z</time>
      </trkpt>
      <trkpt lat="43.97888" lon="1.70498">
        <ele>222.2</ele>
        <time>2017-08-27T09:54:18Z</time>
      </trkpt>
      <trkpt lat="43.97896" lon="1.70504">
        <ele>221.24</ele>
        <time>2017-08-27T09:54:20Z</time>
      </trkpt>
      <trkpt lat="43.97905" lon="1.70514">
        <ele>218.84</ele>
        <time>2017-08-27T09:54:23Z</time>
      </trkpt>
      <trkpt lat="43.97912" lon="1.70522">
        <ele>217.4</ele>
        <time>2017-08-27T09:54:25Z</time>
      </trkpt>
      <trkpt lat="43.97915" lon="1.70527">
        <ele>216.91</ele>
        <time>2017-08-27T09:54:26Z</time>
      </trkpt>
      <trkpt lat="43.9792" lon="1.70535">
        <ele>215.47</ele>
        <time>2017-08-27T09:54:28Z</time>
      </trkpt>
      <trkpt lat="43.97928" lon="1.70547">
        <ele>212.11</ele>
        <time>2017-08-27T09:54:31Z</time>
      </trkpt>
      <trkpt lat="43.97946" lon="1.7057">
        <ele>208.74</ele>
        <time>2017-08-27T09:54:37Z</time>
      </trkpt>
      <trkpt lat="43.97949" lon="1.70575">
        <ele>208.74</ele>
        <time>2017-08-27T09:54:38Z</time>
      </trkpt>
      <trkpt lat="43.97953" lon="1.7058">
        <ele>207.78</ele>
        <time>2017-08-27T09:54:39Z</time>
      </trkpt>
      <trkpt lat="43.97959" lon="1.70587">
        <ele>207.3</ele>
        <time>2017-08-27T09:54:41Z</time>
      </trkpt>
      <trkpt lat="43.97987" lon="1.70617">
        <ele>203.94</ele>
        <time>2017-08-27T09:54:47Z</time>
      </trkpt>
      <trkpt lat="43.97992" lon="1.70623">
        <ele>204.42</ele>
        <time>2017-08-27T09:54:48Z</time>
      </trkpt>
      <trkpt lat="43.98001" lon="1.70642">
        <ele>201.53</ele>
        <time>2017-08-27T09:54:52Z</time>
      </trkpt>
      <trkpt lat="43.98002" lon="1.70645">
        <ele>201.53</ele>
        <time>2017-08-27T09:54:53Z</time>
      </trkpt>
      <trkpt lat="43.98" lon="1.70647">
        <ele>201.05</ele>
        <time>2017-08-27T09:54:54Z</time>
      </trkpt>
      <trkpt lat="43.97998" lon="1.70647">
        <ele>201.05</ele>
        <time>2017-08-27T09:54:55Z</time>
      </trkpt>
      <trkpt lat="43.97995" lon="1.70645">
        <ele>201.05</ele>
        <time>2017-08-27T09:54:56Z</time>
      </trkpt>
      <trkpt lat="43.97992" lon="1.70643">
        <ele>201.53</ele>
        <time>2017-08-27T09:54:57Z</time>
      </trkpt>
      <trkpt lat="43.97988" lon="1.70641">
        <ele>201.05</ele>
        <time>2017-08-27T09:54:58Z</time>
      </trkpt>
      <trkpt lat="43.97955" lon="1.70623">
        <ele>199.13</ele>
        <time>2017-08-27T09:55:05Z</time>
      </trkpt>
      <trkpt lat="43.97949" lon="1.70622">
        <ele>199.13</ele>
        <time>2017-08-27T09:55:06Z</time>
      </trkpt>
      <trkpt lat="43.97943" lon="1.70622">
        <ele>199.13</ele>
        <time>2017-08-27T09:55:07Z</time>
      </trkpt>
      <trkpt lat="43.97937" lon="1.70623">
        <ele>198.17</ele>
        <time>2017-08-27T09:55:08Z</time>
      </trkpt>
      <trkpt lat="43.9793" lon="1.70627">
        <ele>198.17</ele>
        <time>2017-08-27T09:55:09Z</time>
      </trkpt>
      <trkpt lat="43.97924" lon="1.70633">
        <ele>198.17</ele>
        <time>2017-08-27T09:55:10Z</time>
      </trkpt>
      <trkpt lat="43.9792" lon="1.70641">
        <ele>196.73</ele>
        <time>2017-08-27T09:55:11Z</time>
      </trkpt>
      <trkpt lat="43.97917" lon="1.7065">
        <ele>196.73</ele>
        <time>2017-08-27T09:55:12Z</time>
      </trkpt>
      <trkpt lat="43.97915" lon="1.70661">
        <ele>196.73</ele>
        <time>2017-08-27T09:55:13Z</time>
      </trkpt>
      <trkpt lat="43.97913" lon="1.70672">
        <ele>196.73</ele>
        <time>2017-08-27T09:55:14Z</time>
      </trkpt>
      <trkpt lat="43.9791" lon="1.70706">
        <ele>195.28</ele>
        <time>2017-08-27T09:55:17Z</time>
      </trkpt>
      <trkpt lat="43.97903" lon="1.70765">
        <ele>193.36</ele>
        <time>2017-08-27T09:55:22Z</time>
      </trkpt>
      <trkpt lat="43.97899" lon="1.70775">
        <ele>192.88</ele>
        <time>2017-08-27T09:55:23Z</time>
      </trkpt>
      <trkpt lat="43.97894" lon="1.70785">
        <ele>192.4</ele>
        <time>2017-08-27T09:55:24Z</time>
      </trkpt>
      <trkpt lat="43.97888" lon="1.70793">
        <ele>191.92</ele>
        <time>2017-08-27T09:55:25Z</time>
      </trkpt>
      <trkpt lat="43.97881" lon="1.70801">
        <ele>191.44</ele>
        <time>2017-08-27T09:55:26Z</time>
      </trkpt>
      <trkpt lat="43.97874" lon="1.70808">
        <ele>191.44</ele>
        <time>2017-08-27T09:55:27Z</time>
      </trkpt>
      <trkpt lat="43.97867" lon="1.70815">
        <ele>190.96</ele>
        <time>2017-08-27T09:55:28Z</time>
      </trkpt>
      <trkpt lat="43.97861" lon="1.70824">
        <ele>191.44</ele>
        <time>2017-08-27T09:55:29Z</time>
      </trkpt>
      <trkpt lat="43.97857" lon="1.70835">
        <ele>190</ele>
        <time>2017-08-27T09:55:30Z</time>
      </trkpt>
      <trkpt lat="43.97854" lon="1.70847">
        <ele>189.52</ele>
        <time>2017-08-27T09:55:31Z</time>
      </trkpt>
      <trkpt lat="43.97853" lon="1.70859">
        <ele>190</ele>
        <time>2017-08-27T09:55:32Z</time>
      </trkpt>
      <trkpt lat="43.97854" lon="1.70868">
        <ele>188.56</ele>
        <time>2017-08-27T09:55:33Z</time>
      </trkpt>
      <trkpt lat="43.97856" lon="1.70876">
        <ele>188.56</ele>
        <time>2017-08-27T09:55:34Z</time>
      </trkpt>
      <trkpt lat="43.97859" lon="1.70882">
        <ele>188.08</ele>
        <time>2017-08-27T09:55:35Z</time>
      </trkpt>
      <trkpt lat="43.97862" lon="1.70887">
        <ele>187.59</ele>
        <time>2017-08-27T09:55:36Z</time>
      </trkpt>
      <trkpt lat="43.97866" lon="1.70892">
        <ele>187.11</ele>
        <time>2017-08-27T09:55:37Z</time>
      </trkpt>
      <trkpt lat="43.97869" lon="1.70895">
        <ele>187.11</ele>
        <time>2017-08-27T09:55:38Z</time>
      </trkpt>
      <trkpt lat="43.97872" lon="1.70897">
        <ele>186.63</ele>
        <time>2017-08-27T09:55:39Z</time>
      </trkpt>
      <trkpt lat="43.97874" lon="1.709">
        <ele>186.15</ele>
        <time>2017-08-27T09:55:43Z</time>
      </trkpt>
      <trkpt lat="43.97875" lon="1.70901">
        <ele>185.67</ele>
        <time>2017-08-27T09:55:49Z</time>
      </trkpt>
      <trkpt lat="43.97873" lon="1.70901">
        <ele>186.15</ele>
        <time>2017-08-27T09:56:11Z</time>
      </trkpt>
      <trkpt lat="43.97873" lon="1.70899">
        <ele>185.67</ele>
        <time>2017-08-27T09:56:27Z</time>
      </trkpt>
      <trkpt lat="43.97873" lon="1.70896">
        <ele>185.19</ele>
        <time>2017-08-27T09:56:42Z</time>
      </trkpt>
      <trkpt lat="43.97876" lon="1.70897">
        <ele>185.19</ele>
        <time>2017-08-27T09:56:59Z</time>
      </trkpt>
      <trkpt lat="43.97875" lon="1.70898">
        <ele>185.67</ele>
        <time>2017-08-27T09:57:18Z</time>
      </trkpt>
      <trkpt lat="43.97879" lon="1.70898">
        <ele>185.67</ele>
        <time>2017-08-27T09:57:30Z</time>
      </trkpt>
      <trkpt lat="43.97896" lon="1.70906">
        <ele>185.67</ele>
        <time>2017-08-27T09:57:34Z</time>
      </trkpt>
      <trkpt lat="43.97902" lon="1.70907">
        <ele>185.19</ele>
        <time>2017-08-27T09:57:35Z</time>
      </trkpt>
      <trkpt lat="43.97915" lon="1.7091">
        <ele>184.23</ele>
        <time>2017-08-27T09:57:37Z</time>
      </trkpt>
      <trkpt lat="43.97954" lon="1.70931">
        <ele>182.79</ele>
        <time>2017-08-27T09:57:43Z</time>
      </trkpt>
      <trkpt lat="43.97966" lon="1.70943">
        <ele>181.83</ele>
        <time>2017-08-27T09:57:45Z</time>
      </trkpt>
      <trkpt lat="43.97971" lon="1.70951">
        <ele>181.83</ele>
        <time>2017-08-27T09:57:46Z</time>
      </trkpt>
      <trkpt lat="43.97975" lon="1.70959">
        <ele>180.87</ele>
        <time>2017-08-27T09:57:47Z</time>
      </trkpt>
      <trkpt lat="43.97979" lon="1.70969">
        <ele>181.35</ele>
        <time>2017-08-27T09:57:48Z</time>
      </trkpt>
      <trkpt lat="43.97982" lon="1.70979">
        <ele>180.38</ele>
        <time>2017-08-27T09:57:49Z</time>
      </trkpt>
      <trkpt lat="43.97984" lon="1.70989">
        <ele>180.38</ele>
        <time>2017-08-27T09:57:50Z</time>
      </trkpt>
      <trkpt lat="43.97986" lon="1.71">
        <ele>179.42</ele>
        <time>2017-08-27T09:57:51Z</time>
      </trkpt>
      <trkpt lat="43.97987" lon="1.71011">
        <ele>178.94</ele>
        <time>2017-08-27T09:57:52Z</time>
      </trkpt>
      <trkpt lat="43.97987" lon="1.71022">
        <ele>178.46</ele>
        <time>2017-08-27T09:57:53Z</time>
      </trkpt>
      <trkpt lat="43.97986" lon="1.71046">
        <ele>177.02</ele>
        <time>2017-08-27T09:57:55Z</time>
      </trkpt>
      <trkpt lat="43.9798" lon="1.71115">
        <ele>174.62</ele>
        <time>2017-08-27T09:58:01Z</time>
      </trkpt>
      <trkpt lat="43.97978" lon="1.71122">
        <ele>173.66</ele>
        <time>2017-08-27T09:58:02Z</time>
      </trkpt>
      <trkpt lat="43.97976" lon="1.71127">
        <ele>173.17</ele>
        <time>2017-08-27T09:58:03Z</time>
      </trkpt>
      <trkpt lat="43.97974" lon="1.7113">
        <ele>173.17</ele>
        <time>2017-08-27T09:58:04Z</time>
      </trkpt>
      <trkpt lat="43.97973" lon="1.71132">
        <ele>173.17</ele>
        <time>2017-08-27T09:58:05Z</time>
      </trkpt>
      <trkpt lat="43.97971" lon="1.71133">
        <ele>173.66</ele>
        <time>2017-08-27T09:58:11Z</time>
      </trkpt>
      <trkpt lat="43.9797" lon="1.71135">
        <ele>174.14</ele>
        <time>2017-08-27T09:58:17Z</time>
      </trkpt>
      <trkpt lat="43.97969" lon="1.71136">
        <ele>174.14</ele>
        <time>2017-08-27T09:58:25Z</time>
      </trkpt>
      <trkpt lat="43.97967" lon="1.71139">
        <ele>174.62</ele>
        <time>2017-08-27T09:58:32Z</time>
      </trkpt>
      <trkpt lat="43.97955" lon="1.7115">
        <ele>177.02</ele>
        <time>2017-08-27T09:58:39Z</time>
      </trkpt>
      <trkpt lat="43.97943" lon="1.7116">
        <ele>179.42</ele>
        <time>2017-08-27T09:58:46Z</time>
      </trkpt>
      <trkpt lat="43.97937" lon="1.71168">
        <ele>181.35</ele>
        <time>2017-08-27T09:58:51Z</time>
      </trkpt>
      <trkpt lat="43.97928" lon="1.71189">
        <ele>183.27</ele>
        <time>2017-08-27T09:59:00Z</time>
      </trkpt>
      <trkpt lat="43.97925" lon="1.71195">
        <ele>185.19</ele>
        <time>2017-08-27T09:59:03Z</time>
      </trkpt>
      <trkpt lat="43.9792" lon="1.7121">
        <ele>187.59</ele>
        <time>2017-08-27T09:59:11Z</time>
      </trkpt>
      <trkpt lat="43.97917" lon="1.71217">
        <ele>188.56</ele>
        <time>2017-08-27T09:59:18Z</time>
      </trkpt>
      <trkpt lat="43.97913" lon="1.71231">
        <ele>189.52</ele>
        <time>2017-08-27T09:59:25Z</time>
      </trkpt>
      <trkpt lat="43.9791" lon="1.71242">
        <ele>190.96</ele>
        <time>2017-08-27T09:59:33Z</time>
      </trkpt>
      <trkpt lat="43.97904" lon="1.71251">
        <ele>192.88</ele>
        <time>2017-08-27T09:59:42Z</time>
      </trkpt>
      <trkpt lat="43.97899" lon="1.71263">
        <ele>194.32</ele>
        <time>2017-08-27T09:59:52Z</time>
      </trkpt>
      <trkpt lat="43.97897" lon="1.71271">
        <ele>195.77</ele>
        <time>2017-08-27T10:00:00Z</time>
      </trkpt>
      <trkpt lat="43.97893" lon="1.71283">
        <ele>196.73</ele>
        <time>2017-08-27T10:00:09Z</time>
      </trkpt>
      <trkpt lat="43.97888" lon="1.71296">
        <ele>199.13</ele>
        <time>2017-08-27T10:00:19Z</time>
      </trkpt>
      <trkpt lat="43.97884" lon="1.71305">
        <ele>200.09</ele>
        <time>2017-08-27T10:00:27Z</time>
      </trkpt>
      <trkpt lat="43.97882" lon="1.71311">
        <ele>200.09</ele>
        <time>2017-08-27T10:00:33Z</time>
      </trkpt>
      <trkpt lat="43.97878" lon="1.71323">
        <ele>201.05</ele>
        <time>2017-08-27T10:00:39Z</time>
      </trkpt>
      <trkpt lat="43.9787" lon="1.71344">
        <ele>203.46</ele>
        <time>2017-08-27T10:00:49Z</time>
      </trkpt>
      <trkpt lat="43.9787" lon="1.71346">
        <ele>204.42</ele>
        <time>2017-08-27T10:00:50Z</time>
      </trkpt>
      <trkpt lat="43.97869" lon="1.71348">
        <ele>204.42</ele>
        <time>2017-08-27T10:00:51Z</time>
      </trkpt>
      <trkpt lat="43.97861" lon="1.71366">
        <ele>206.34</ele>
        <time>2017-08-27T10:00:59Z</time>
      </trkpt>
      <trkpt lat="43.97852" lon="1.71386">
        <ele>206.82</ele>
        <time>2017-08-27T10:01:07Z</time>
      </trkpt>
      <trkpt lat="43.97839" lon="1.71403">
        <ele>207.3</ele>
        <time>2017-08-27T10:01:13Z</time>
      </trkpt>
      <trkpt lat="43.97812" lon="1.71411">
        <ele>207.78</ele>
        <time>2017-08-27T10:01:23Z</time>
      </trkpt>
      <trkpt lat="43.97793" lon="1.714">
        <ele>209.22</ele>
        <time>2017-08-27T10:01:30Z</time>
      </trkpt>
      <trkpt lat="43.97786" lon="1.71395">
        <ele>209.22</ele>
        <time>2017-08-27T10:01:32Z</time>
      </trkpt>
      <trkpt lat="43.97782" lon="1.71393">
        <ele>208.74</ele>
        <time>2017-08-27T10:01:33Z</time>
      </trkpt>
      <trkpt lat="43.97778" lon="1.71392">
        <ele>208.74</ele>
        <time>2017-08-27T10:01:34Z</time>
      </trkpt>
      <trkpt lat="43.97773" lon="1.71392">
        <ele>207.78</ele>
        <time>2017-08-27T10:01:35Z</time>
      </trkpt>
      <trkpt lat="43.97768" lon="1.71391">
        <ele>208.26</ele>
        <time>2017-08-27T10:01:36Z</time>
      </trkpt>
      <trkpt lat="43.97763" lon="1.7139">
        <ele>207.78</ele>
        <time>2017-08-27T10:01:37Z</time>
      </trkpt>
      <trkpt lat="43.97758" lon="1.71388">
        <ele>206.82</ele>
        <time>2017-08-27T10:01:38Z</time>
      </trkpt>
      <trkpt lat="43.97754" lon="1.71385">
        <ele>207.3</ele>
        <time>2017-08-27T10:01:39Z</time>
      </trkpt>
      <trkpt lat="43.97749" lon="1.71382">
        <ele>207.3</ele>
        <time>2017-08-27T10:01:40Z</time>
      </trkpt>
      <trkpt lat="43.97744" lon="1.71379">
        <ele>206.34</ele>
        <time>2017-08-27T10:01:41Z</time>
      </trkpt>
      <trkpt lat="43.97738" lon="1.71376">
        <ele>206.82</ele>
        <time>2017-08-27T10:01:42Z</time>
      </trkpt>
      <trkpt lat="43.97722" lon="1.71368">
        <ele>206.34</ele>
        <time>2017-08-27T10:01:45Z</time>
      </trkpt>
      <trkpt lat="43.97716" lon="1.71367">
        <ele>205.86</ele>
        <time>2017-08-27T10:01:46Z</time>
      </trkpt>
      <trkpt lat="43.97711" lon="1.71368">
        <ele>205.86</ele>
        <time>2017-08-27T10:01:47Z</time>
      </trkpt>
      <trkpt lat="43.97705" lon="1.7137">
        <ele>205.86</ele>
        <time>2017-08-27T10:01:48Z</time>
      </trkpt>
      <trkpt lat="43.977" lon="1.71373">
        <ele>205.38</ele>
        <time>2017-08-27T10:01:49Z</time>
      </trkpt>
      <trkpt lat="43.97673" lon="1.7139">
        <ele>206.82</ele>
        <time>2017-08-27T10:01:55Z</time>
      </trkpt>
      <trkpt lat="43.97669" lon="1.71392">
        <ele>207.3</ele>
        <time>2017-08-27T10:01:56Z</time>
      </trkpt>
      <trkpt lat="43.97665" lon="1.71395">
        <ele>207.3</ele>
        <time>2017-08-27T10:01:57Z</time>
      </trkpt>
      <trkpt lat="43.97654" lon="1.71404">
        <ele>208.74</ele>
        <time>2017-08-27T10:02:00Z</time>
      </trkpt>
      <trkpt lat="43.97622" lon="1.71418">
        <ele>209.22</ele>
        <time>2017-08-27T10:02:09Z</time>
      </trkpt>
      <trkpt lat="43.97593" lon="1.71419">
        <ele>210.19</ele>
        <time>2017-08-27T10:02:17Z</time>
      </trkpt>
      <trkpt lat="43.97565" lon="1.71406">
        <ele>210.19</ele>
        <time>2017-08-27T10:02:25Z</time>
      </trkpt>
      <trkpt lat="43.97524" lon="1.71395">
        <ele>210.67</ele>
        <time>2017-08-27T10:02:35Z</time>
      </trkpt>
      <trkpt lat="43.97493" lon="1.71389">
        <ele>210.19</ele>
        <time>2017-08-27T10:02:43Z</time>
      </trkpt>
      <trkpt lat="43.97479" lon="1.71387">
        <ele>212.11</ele>
        <time>2017-08-27T10:02:47Z</time>
      </trkpt>
      <trkpt lat="43.97453" lon="1.71384">
        <ele>214.03</ele>
        <time>2017-08-27T10:02:55Z</time>
      </trkpt>
      <trkpt lat="43.97428" lon="1.71383">
        <ele>216.91</ele>
        <time>2017-08-27T10:03:04Z</time>
      </trkpt>
      <trkpt lat="43.97425" lon="1.7138">
        <ele>216.43</ele>
        <time>2017-08-27T10:03:05Z</time>
      </trkpt>
      <trkpt lat="43.97422" lon="1.71376">
        <ele>216.43</ele>
        <time>2017-08-27T10:03:06Z</time>
      </trkpt>
      <trkpt lat="43.9742" lon="1.71371">
        <ele>216.43</ele>
        <time>2017-08-27T10:03:07Z</time>
      </trkpt>
      <trkpt lat="43.97418" lon="1.71366">
        <ele>216.43</ele>
        <time>2017-08-27T10:03:08Z</time>
      </trkpt>
      <trkpt lat="43.97415" lon="1.7136">
        <ele>215.95</ele>
        <time>2017-08-27T10:03:09Z</time>
      </trkpt>
      <trkpt lat="43.974" lon="1.71332">
        <ele>213.55</ele>
        <time>2017-08-27T10:03:13Z</time>
      </trkpt>
      <trkpt lat="43.97394" lon="1.71326">
        <ele>213.55</ele>
        <time>2017-08-27T10:03:14Z</time>
      </trkpt>
      <trkpt lat="43.97388" lon="1.71321">
        <ele>213.07</ele>
        <time>2017-08-27T10:03:15Z</time>
      </trkpt>
      <trkpt lat="43.97381" lon="1.71318">
        <ele>214.03</ele>
        <time>2017-08-27T10:03:16Z</time>
      </trkpt>
      <trkpt lat="43.97374" lon="1.71316">
        <ele>213.55</ele>
        <time>2017-08-27T10:03:17Z</time>
      </trkpt>
      <trkpt lat="43.97368" lon="1.71315">
        <ele>213.07</ele>
        <time>2017-08-27T10:03:18Z</time>
      </trkpt>
      <trkpt lat="43.97361" lon="1.71316">
        <ele>213.07</ele>
        <time>2017-08-27T10:03:19Z</time>
      </trkpt>
      <trkpt lat="43.97354" lon="1.71317">
        <ele>212.59</ele>
        <time>2017-08-27T10:03:20Z</time>
      </trkpt>
      <trkpt lat="43.97294" lon="1.71335">
        <ele>210.67</ele>
        <time>2017-08-27T10:03:29Z</time>
      </trkpt>
      <trkpt lat="43.97254" lon="1.71343">
        <ele>208.74</ele>
        <time>2017-08-27T10:03:35Z</time>
      </trkpt>
      <trkpt lat="43.97224" lon="1.71347">
        <ele>207.3</ele>
        <time>2017-08-27T10:03:39Z</time>
      </trkpt>
      <trkpt lat="43.97215" lon="1.71346">
        <ele>206.34</ele>
        <time>2017-08-27T10:03:40Z</time>
      </trkpt>
      <trkpt lat="43.97207" lon="1.71342">
        <ele>204.9</ele>
        <time>2017-08-27T10:03:41Z</time>
      </trkpt>
      <trkpt lat="43.97199" lon="1.71336">
        <ele>203.94</ele>
        <time>2017-08-27T10:03:42Z</time>
      </trkpt>
      <trkpt lat="43.97194" lon="1.71325">
        <ele>202.98</ele>
        <time>2017-08-27T10:03:43Z</time>
      </trkpt>
      <trkpt lat="43.9719" lon="1.71313">
        <ele>202.98</ele>
        <time>2017-08-27T10:03:44Z</time>
      </trkpt>
      <trkpt lat="43.97187" lon="1.713">
        <ele>202.01</ele>
        <time>2017-08-27T10:03:45Z</time>
      </trkpt>
      <trkpt lat="43.97185" lon="1.71286">
        <ele>201.05</ele>
        <time>2017-08-27T10:03:46Z</time>
      </trkpt>
      <trkpt lat="43.97183" lon="1.71272">
        <ele>201.53</ele>
        <time>2017-08-27T10:03:47Z</time>
      </trkpt>
      <trkpt lat="43.97178" lon="1.71243">
        <ele>199.61</ele>
        <time>2017-08-27T10:03:49Z</time>
      </trkpt>
      <trkpt lat="43.97168" lon="1.71204">
        <ele>195.77</ele>
        <time>2017-08-27T10:03:52Z</time>
      </trkpt>
      <trkpt lat="43.97162" lon="1.71193">
        <ele>195.77</ele>
        <time>2017-08-27T10:03:53Z</time>
      </trkpt>
      <trkpt lat="43.97154" lon="1.71184">
        <ele>194.32</ele>
        <time>2017-08-27T10:03:54Z</time>
      </trkpt>
      <trkpt lat="43.97144" lon="1.71177">
        <ele>192.88</ele>
        <time>2017-08-27T10:03:55Z</time>
      </trkpt>
      <trkpt lat="43.97134" lon="1.71172">
        <ele>191.92</ele>
        <time>2017-08-27T10:03:56Z</time>
      </trkpt>
      <trkpt lat="43.97113" lon="1.71161">
        <ele>190.48</ele>
        <time>2017-08-27T10:03:58Z</time>
      </trkpt>
      <trkpt lat="43.97068" lon="1.71147">
        <ele>186.15</ele>
        <time>2017-08-27T10:04:02Z</time>
      </trkpt>
      <trkpt lat="43.97047" lon="1.71141">
        <ele>184.71</ele>
        <time>2017-08-27T10:04:04Z</time>
      </trkpt>
      <trkpt lat="43.97037" lon="1.71134">
        <ele>183.27</ele>
        <time>2017-08-27T10:04:05Z</time>
      </trkpt>
      <trkpt lat="43.97027" lon="1.71125">
        <ele>182.31</ele>
        <time>2017-08-27T10:04:06Z</time>
      </trkpt>
      <trkpt lat="43.96994" lon="1.71099">
        <ele>178.46</ele>
        <time>2017-08-27T10:04:09Z</time>
      </trkpt>
      <trkpt lat="43.96982" lon="1.71092">
        <ele>177.02</ele>
        <time>2017-08-27T10:04:10Z</time>
      </trkpt>
      <trkpt lat="43.96969" lon="1.71088">
        <ele>176.54</ele>
        <time>2017-08-27T10:04:11Z</time>
      </trkpt>
      <trkpt lat="43.96957" lon="1.71085">
        <ele>175.58</ele>
        <time>2017-08-27T10:04:12Z</time>
      </trkpt>
      <trkpt lat="43.96944" lon="1.71085">
        <ele>175.1</ele>
        <time>2017-08-27T10:04:13Z</time>
      </trkpt>
      <trkpt lat="43.96932" lon="1.71087">
        <ele>174.14</ele>
        <time>2017-08-27T10:04:14Z</time>
      </trkpt>
      <trkpt lat="43.96921" lon="1.71089">
        <ele>174.14</ele>
        <time>2017-08-27T10:04:15Z</time>
      </trkpt>
      <trkpt lat="43.96876" lon="1.71105">
        <ele>175.58</ele>
        <time>2017-08-27T10:04:20Z</time>
      </trkpt>
      <trkpt lat="43.96828" lon="1.71131">
        <ele>176.06</ele>
        <time>2017-08-27T10:04:27Z</time>
      </trkpt>
      <trkpt lat="43.96821" lon="1.71133">
        <ele>176.06</ele>
        <time>2017-08-27T10:04:28Z</time>
      </trkpt>
      <trkpt lat="43.96783" lon="1.71143">
        <ele>177.02</ele>
        <time>2017-08-27T10:04:35Z</time>
      </trkpt>
      <trkpt lat="43.96771" lon="1.71146">
        <ele>177.5</ele>
        <time>2017-08-27T10:04:40Z</time>
      </trkpt>
      <trkpt lat="43.96771" lon="1.71147">
        <ele>178.46</ele>
        <time>2017-08-27T10:04:50Z</time>
      </trkpt>
      <trkpt lat="43.96773" lon="1.71148">
        <ele>177.02</ele>
        <time>2017-08-27T10:05:06Z</time>
      </trkpt>
      <trkpt lat="43.96773" lon="1.71148">
        <ele>177.5</ele>
        <time>2017-08-27T10:05:22Z</time>
      </trkpt>
      <trkpt lat="43.96766" lon="1.71152">
        <ele>176.54</ele>
        <time>2017-08-27T10:05:27Z</time>
      </trkpt>
      <trkpt lat="43.96757" lon="1.71158">
        <ele>177.5</ele>
        <time>2017-08-27T10:05:32Z</time>
      </trkpt>
      <trkpt lat="43.96747" lon="1.71168">
        <ele>178.94</ele>
        <time>2017-08-27T10:05:38Z</time>
      </trkpt>
      <trkpt lat="43.96737" lon="1.7119">
        <ele>180.38</ele>
        <time>2017-08-27T10:05:46Z</time>
      </trkpt>
      <trkpt lat="43.96728" lon="1.71203">
        <ele>180.87</ele>
        <time>2017-08-27T10:05:52Z</time>
      </trkpt>
      <trkpt lat="43.96727" lon="1.71204">
        <ele>180.87</ele>
        <time>2017-08-27T10:05:53Z</time>
      </trkpt>
      <trkpt lat="43.96721" lon="1.71208">
        <ele>182.79</ele>
        <time>2017-08-27T10:05:57Z</time>
      </trkpt>
      <trkpt lat="43.96713" lon="1.71221">
        <ele>184.23</ele>
        <time>2017-08-27T10:06:04Z</time>
      </trkpt>
      <trkpt lat="43.96711" lon="1.71223">
        <ele>184.71</ele>
        <time>2017-08-27T10:06:05Z</time>
      </trkpt>
      <trkpt lat="43.96702" lon="1.71236">
        <ele>185.67</ele>
        <time>2017-08-27T10:06:12Z</time>
      </trkpt>
      <trkpt lat="43.96697" lon="1.7125">
        <ele>187.11</ele>
        <time>2017-08-27T10:06:18Z</time>
      </trkpt>
      <trkpt lat="43.96695" lon="1.71255">
        <ele>187.11</ele>
        <time>2017-08-27T10:06:23Z</time>
      </trkpt>
      <trkpt lat="43.96691" lon="1.71258">
        <ele>187.11</ele>
        <time>2017-08-27T10:06:26Z</time>
      </trkpt>
      <trkpt lat="43.9669" lon="1.7126">
        <ele>186.63</ele>
        <time>2017-08-27T10:06:27Z</time>
      </trkpt>
      <trkpt lat="43.96685" lon="1.71268">
        <ele>187.11</ele>
        <time>2017-08-27T10:06:31Z</time>
      </trkpt>
      <trkpt lat="43.96676" lon="1.7128">
        <ele>188.56</ele>
        <time>2017-08-27T10:06:38Z</time>
      </trkpt>
      <trkpt lat="43.96669" lon="1.71289">
        <ele>190.96</ele>
        <time>2017-08-27T10:06:46Z</time>
      </trkpt>
      <trkpt lat="43.96664" lon="1.71293">
        <ele>191.44</ele>
        <time>2017-08-27T10:06:51Z</time>
      </trkpt>
      <trkpt lat="43.96663" lon="1.71289">
        <ele>191.92</ele>
        <time>2017-08-27T10:06:55Z</time>
      </trkpt>
      <trkpt lat="43.96662" lon="1.71287">
        <ele>192.4</ele>
        <time>2017-08-27T10:06:56Z</time>
      </trkpt>
      <trkpt lat="43.96664" lon="1.71275">
        <ele>193.36</ele>
        <time>2017-08-27T10:07:03Z</time>
      </trkpt>
      <trkpt lat="43.96666" lon="1.71265">
        <ele>193.84</ele>
        <time>2017-08-27T10:07:11Z</time>
      </trkpt>
      <trkpt lat="43.96666" lon="1.71257">
        <ele>194.8</ele>
        <time>2017-08-27T10:07:17Z</time>
      </trkpt>
      <trkpt lat="43.96666" lon="1.71255">
        <ele>194.8</ele>
        <time>2017-08-27T10:07:18Z</time>
      </trkpt>
      <trkpt lat="43.96665" lon="1.71245">
        <ele>196.73</ele>
        <time>2017-08-27T10:07:25Z</time>
      </trkpt>
      <trkpt lat="43.96661" lon="1.71231">
        <ele>197.21</ele>
        <time>2017-08-27T10:07:34Z</time>
      </trkpt>
      <trkpt lat="43.96657" lon="1.7123">
        <ele>197.69</ele>
        <time>2017-08-27T10:07:36Z</time>
      </trkpt>
      <trkpt lat="43.96647" lon="1.71228">
        <ele>199.61</ele>
        <time>2017-08-27T10:07:44Z</time>
      </trkpt>
      <trkpt lat="43.96637" lon="1.71229">
        <ele>202.01</ele>
        <time>2017-08-27T10:07:53Z</time>
      </trkpt>
      <trkpt lat="43.96634" lon="1.71232">
        <ele>202.49</ele>
        <time>2017-08-27T10:07:58Z</time>
      </trkpt>
      <trkpt lat="43.96634" lon="1.71234">
        <ele>202.01</ele>
        <time>2017-08-27T10:07:59Z</time>
      </trkpt>
      <trkpt lat="43.96632" lon="1.71237">
        <ele>202.49</ele>
        <time>2017-08-27T10:08:01Z</time>
      </trkpt>
      <trkpt lat="43.96625" lon="1.71246">
        <ele>204.9</ele>
        <time>2017-08-27T10:08:09Z</time>
      </trkpt>
      <trkpt lat="43.96617" lon="1.71254">
        <ele>205.86</ele>
        <time>2017-08-27T10:08:18Z</time>
      </trkpt>
      <trkpt lat="43.96615" lon="1.71255">
        <ele>206.82</ele>
        <time>2017-08-27T10:08:20Z</time>
      </trkpt>
      <trkpt lat="43.96607" lon="1.71261">
        <ele>207.78</ele>
        <time>2017-08-27T10:08:28Z</time>
      </trkpt>
      <trkpt lat="43.96602" lon="1.71267">
        <ele>209.7</ele>
        <time>2017-08-27T10:08:36Z</time>
      </trkpt>
      <trkpt lat="43.96597" lon="1.71274">
        <ele>210.67</ele>
        <time>2017-08-27T10:08:44Z</time>
      </trkpt>
      <trkpt lat="43.96589" lon="1.71283">
        <ele>212.11</ele>
        <time>2017-08-27T10:08:54Z</time>
      </trkpt>
      <trkpt lat="43.96583" lon="1.7129">
        <ele>214.99</ele>
        <time>2017-08-27T10:09:03Z</time>
      </trkpt>
      <trkpt lat="43.96576" lon="1.71295">
        <ele>216.91</ele>
        <time>2017-08-27T10:09:12Z</time>
      </trkpt>
      <trkpt lat="43.96569" lon="1.71301">
        <ele>217.88</ele>
        <time>2017-08-27T10:09:20Z</time>
      </trkpt>
      <trkpt lat="43.96562" lon="1.71307">
        <ele>219.32</ele>
        <time>2017-08-27T10:09:29Z</time>
      </trkpt>
      <trkpt lat="43.96555" lon="1.7131">
        <ele>220.28</ele>
        <time>2017-08-27T10:09:37Z</time>
      </trkpt>
      <trkpt lat="43.9655" lon="1.71314">
        <ele>221.72</ele>
        <time>2017-08-27T10:09:45Z</time>
      </trkpt>
      <trkpt lat="43.96543" lon="1.71317">
        <ele>223.64</ele>
        <time>2017-08-27T10:09:54Z</time>
      </trkpt>
      <trkpt lat="43.96539" lon="1.71318">
        <ele>225.09</ele>
        <time>2017-08-27T10:10:02Z</time>
      </trkpt>
      <trkpt lat="43.96533" lon="1.71315">
        <ele>226.53</ele>
        <time>2017-08-27T10:10:08Z</time>
      </trkpt>
      <trkpt lat="43.9653" lon="1.71313">
        <ele>228.45</ele>
        <time>2017-08-27T10:10:19Z</time>
      </trkpt>
      <trkpt lat="43.96526" lon="1.71311">
        <ele>227.01</ele>
        <time>2017-08-27T10:10:25Z</time>
      </trkpt>
      <trkpt lat="43.96519" lon="1.71311">
        <ele>228.93</ele>
        <time>2017-08-27T10:10:31Z</time>
      </trkpt>
      <trkpt lat="43.96513" lon="1.71311">
        <ele>229.89</ele>
        <time>2017-08-27T10:10:36Z</time>
      </trkpt>
      <trkpt lat="43.96506" lon="1.71314">
        <ele>230.85</ele>
        <time>2017-08-27T10:10:44Z</time>
      </trkpt>
      <trkpt lat="43.96498" lon="1.71319">
        <ele>232.3</ele>
        <time>2017-08-27T10:10:52Z</time>
      </trkpt>
      <trkpt lat="43.96489" lon="1.71327">
        <ele>234.22</ele>
        <time>2017-08-27T10:11:01Z</time>
      </trkpt>
      <trkpt lat="43.96477" lon="1.71334">
        <ele>235.66</ele>
        <time>2017-08-27T10:11:10Z</time>
      </trkpt>
      <trkpt lat="43.96467" lon="1.71339">
        <ele>237.1</ele>
        <time>2017-08-27T10:11:19Z</time>
      </trkpt>
      <trkpt lat="43.96459" lon="1.71345">
        <ele>238.54</ele>
        <time>2017-08-27T10:11:27Z</time>
      </trkpt>
      <trkpt lat="43.96458" lon="1.71346">
        <ele>238.54</ele>
        <time>2017-08-27T10:11:28Z</time>
      </trkpt>
      <trkpt lat="43.96457" lon="1.71346">
        <ele>238.54</ele>
        <time>2017-08-27T10:11:29Z</time>
      </trkpt>
      <trkpt lat="43.96444" lon="1.71351">
        <ele>239.51</ele>
        <time>2017-08-27T10:11:40Z</time>
      </trkpt>
      <trkpt lat="43.96433" lon="1.71354">
        <ele>241.91</ele>
        <time>2017-08-27T10:11:51Z</time>
      </trkpt>
      <trkpt lat="43.9642" lon="1.71356">
        <ele>244.31</ele>
        <time>2017-08-27T10:12:02Z</time>
      </trkpt>
      <trkpt lat="43.96413" lon="1.71357">
        <ele>244.31</ele>
        <time>2017-08-27T10:12:10Z</time>
      </trkpt>
      <trkpt lat="43.9641" lon="1.71358">
        <ele>244.79</ele>
        <time>2017-08-27T10:12:15Z</time>
      </trkpt>
      <trkpt lat="43.9641" lon="1.71359">
        <ele>244.79</ele>
        <time>2017-08-27T10:12:21Z</time>
      </trkpt>
      <trkpt lat="43.96408" lon="1.7136">
        <ele>244.79</ele>
        <time>2017-08-27T10:12:47Z</time>
      </trkpt>
      <trkpt lat="43.96406" lon="1.7136">
        <ele>244.31</ele>
        <time>2017-08-27T10:12:56Z</time>
      </trkpt>
      <trkpt lat="43.96404" lon="1.7136">
        <ele>245.27</ele>
        <time>2017-08-27T10:12:57Z</time>
      </trkpt>
      <trkpt lat="43.96403" lon="1.71361">
        <ele>244.79</ele>
        <time>2017-08-27T10:12:58Z</time>
      </trkpt>
      <trkpt lat="43.96388" lon="1.71366">
        <ele>244.79</ele>
        <time>2017-08-27T10:13:05Z</time>
      </trkpt>
      <trkpt lat="43.96359" lon="1.71383">
        <ele>245.27</ele>
        <time>2017-08-27T10:13:17Z</time>
      </trkpt>
      <trkpt lat="43.96334" lon="1.7139">
        <ele>245.75</ele>
        <time>2017-08-27T10:13:26Z</time>
      </trkpt>
      <trkpt lat="43.9631" lon="1.71395">
        <ele>247.2</ele>
        <time>2017-08-27T10:13:35Z</time>
      </trkpt>
      <trkpt lat="43.96287" lon="1.71395">
        <ele>248.64</ele>
        <time>2017-08-27T10:13:44Z</time>
      </trkpt>
      <trkpt lat="43.96269" lon="1.71396">
        <ele>249.6</ele>
        <time>2017-08-27T10:13:51Z</time>
      </trkpt>
      <trkpt lat="43.9625" lon="1.71397">
        <ele>248.64</ele>
        <time>2017-08-27T10:13:57Z</time>
      </trkpt>
      <trkpt lat="43.96242" lon="1.71396">
        <ele>247.68</ele>
        <time>2017-08-27T10:13:59Z</time>
      </trkpt>
      <trkpt lat="43.96218" lon="1.71396">
        <ele>248.16</ele>
        <time>2017-08-27T10:14:04Z</time>
      </trkpt>
      <trkpt lat="43.96209" lon="1.71396">
        <ele>248.16</ele>
        <time>2017-08-27T10:14:06Z</time>
      </trkpt>
      <trkpt lat="43.96187" lon="1.71393">
        <ele>248.16</ele>
        <time>2017-08-27T10:14:12Z</time>
      </trkpt>
      <trkpt lat="43.96166" lon="1.71393">
        <ele>250.56</ele>
        <time>2017-08-27T10:14:18Z</time>
      </trkpt>
      <trkpt lat="43.96156" lon="1.71394">
        <ele>249.12</ele>
        <time>2017-08-27T10:14:21Z</time>
      </trkpt>
      <trkpt lat="43.96136" lon="1.7139">
        <ele>250.08</ele>
        <time>2017-08-27T10:14:27Z</time>
      </trkpt>
      <trkpt lat="43.96119" lon="1.71387">
        <ele>251.04</ele>
        <time>2017-08-27T10:14:32Z</time>
      </trkpt>
      <trkpt lat="43.96093" lon="1.71391">
        <ele>252</ele>
        <time>2017-08-27T10:14:39Z</time>
      </trkpt>
      <trkpt lat="43.96066" lon="1.71395">
        <ele>251.04</ele>
        <time>2017-08-27T10:14:46Z</time>
      </trkpt>
      <trkpt lat="43.9603" lon="1.7141">
        <ele>250.08</ele>
        <time>2017-08-27T10:14:52Z</time>
      </trkpt>
      <trkpt lat="43.95994" lon="1.71421">
        <ele>249.12</ele>
        <time>2017-08-27T10:14:59Z</time>
      </trkpt>
      <trkpt lat="43.95955" lon="1.71438">
        <ele>250.56</ele>
        <time>2017-08-27T10:15:08Z</time>
      </trkpt>
      <trkpt lat="43.9592" lon="1.71459">
        <ele>252</ele>
        <time>2017-08-27T10:15:17Z</time>
      </trkpt>
      <trkpt lat="43.959" lon="1.71474">
        <ele>252</ele>
        <time>2017-08-27T10:15:23Z</time>
      </trkpt>
      <trkpt lat="43.95893" lon="1.71489">
        <ele>250.56</ele>
        <time>2017-08-27T10:15:26Z</time>
      </trkpt>
      <trkpt lat="43.95889" lon="1.71494">
        <ele>250.56</ele>
        <time>2017-08-27T10:15:27Z</time>
      </trkpt>
      <trkpt lat="43.95886" lon="1.71499">
        <ele>250.08</ele>
        <time>2017-08-27T10:15:28Z</time>
      </trkpt>
      <trkpt lat="43.95884" lon="1.71504">
        <ele>250.56</ele>
        <time>2017-08-27T10:15:29Z</time>
      </trkpt>
      <trkpt lat="43.95882" lon="1.7151">
        <ele>250.08</ele>
        <time>2017-08-27T10:15:30Z</time>
      </trkpt>
      <trkpt lat="43.95871" lon="1.71548">
        <ele>249.6</ele>
        <time>2017-08-27T10:15:37Z</time>
      </trkpt>
      <trkpt lat="43.95869" lon="1.71555">
        <ele>249.6</ele>
        <time>2017-08-27T10:15:38Z</time>
      </trkpt>
      <trkpt lat="43.95867" lon="1.71561">
        <ele>249.6</ele>
        <time>2017-08-27T10:15:39Z</time>
      </trkpt>
      <trkpt lat="43.95845" lon="1.71605">
        <ele>249.6</ele>
        <time>2017-08-27T10:15:47Z</time>
      </trkpt>
      <trkpt lat="43.95818" lon="1.71622">
        <ele>250.56</ele>
        <time>2017-08-27T10:15:54Z</time>
      </trkpt>
      <trkpt lat="43.95794" lon="1.71632">
        <ele>251.04</ele>
        <time>2017-08-27T10:16:01Z</time>
      </trkpt>
      <trkpt lat="43.95767" lon="1.7163">
        <ele>252</ele>
        <time>2017-08-27T10:16:09Z</time>
      </trkpt>
      <trkpt lat="43.9574" lon="1.71625">
        <ele>252.48</ele>
        <time>2017-08-27T10:16:16Z</time>
      </trkpt>
      <trkpt lat="43.95712" lon="1.71619">
        <ele>252.96</ele>
        <time>2017-08-27T10:16:23Z</time>
      </trkpt>
      <trkpt lat="43.95689" lon="1.71612">
        <ele>254.41</ele>
        <time>2017-08-27T10:16:29Z</time>
      </trkpt>
      <trkpt lat="43.95659" lon="1.71595">
        <ele>252.48</ele>
        <time>2017-08-27T10:16:36Z</time>
      </trkpt>
      <trkpt lat="43.95655" lon="1.71594">
        <ele>252.96</ele>
        <time>2017-08-27T10:16:37Z</time>
      </trkpt>
      <trkpt lat="43.95634" lon="1.7159">
        <ele>252.48</ele>
        <time>2017-08-27T10:16:42Z</time>
      </trkpt>
      <trkpt lat="43.95605" lon="1.71594">
        <ele>252.96</ele>
        <time>2017-08-27T10:16:48Z</time>
      </trkpt>
      <trkpt lat="43.95573" lon="1.71604">
        <ele>253.44</ele>
        <time>2017-08-27T10:16:55Z</time>
      </trkpt>
      <trkpt lat="43.95569" lon="1.71604">
        <ele>253.44</ele>
        <time>2017-08-27T10:16:56Z</time>
      </trkpt>
      <trkpt lat="43.95536" lon="1.71604">
        <ele>254.89</ele>
        <time>2017-08-27T10:17:04Z</time>
      </trkpt>
      <trkpt lat="43.95509" lon="1.71599">
        <ele>256.81</ele>
        <time>2017-08-27T10:17:11Z</time>
      </trkpt>
      <trkpt lat="43.95476" lon="1.71596">
        <ele>258.25</ele>
        <time>2017-08-27T10:17:19Z</time>
      </trkpt>
      <trkpt lat="43.95452" lon="1.71595">
        <ele>259.21</ele>
        <time>2017-08-27T10:17:26Z</time>
      </trkpt>
      <trkpt lat="43.95422" lon="1.71594">
        <ele>261.14</ele>
        <time>2017-08-27T10:17:35Z</time>
      </trkpt>
      <trkpt lat="43.954" lon="1.71588">
        <ele>263.06</ele>
        <time>2017-08-27T10:17:42Z</time>
      </trkpt>
      <trkpt lat="43.95381" lon="1.71583">
        <ele>263.54</ele>
        <time>2017-08-27T10:17:48Z</time>
      </trkpt>
      <trkpt lat="43.95355" lon="1.71578">
        <ele>263.54</ele>
        <time>2017-08-27T10:17:56Z</time>
      </trkpt>
      <trkpt lat="43.95342" lon="1.71576">
        <ele>263.06</ele>
        <time>2017-08-27T10:18:01Z</time>
      </trkpt>
      <trkpt lat="43.95311" lon="1.7157">
        <ele>263.54</ele>
        <time>2017-08-27T10:18:09Z</time>
      </trkpt>
      <trkpt lat="43.95303" lon="1.71568">
        <ele>263.54</ele>
        <time>2017-08-27T10:18:11Z</time>
      </trkpt>
      <trkpt lat="43.95299" lon="1.71566">
        <ele>264.02</ele>
        <time>2017-08-27T10:18:12Z</time>
      </trkpt>
      <trkpt lat="43.95265" lon="1.71548">
        <ele>264.5</ele>
        <time>2017-08-27T10:18:21Z</time>
      </trkpt>
      <trkpt lat="43.95239" lon="1.71534">
        <ele>264.98</ele>
        <time>2017-08-27T10:18:28Z</time>
      </trkpt>
      <trkpt lat="43.95215" lon="1.71511">
        <ele>266.42</ele>
        <time>2017-08-27T10:18:36Z</time>
      </trkpt>
      <trkpt lat="43.95186" lon="1.71494">
        <ele>267.86</ele>
        <time>2017-08-27T10:18:44Z</time>
      </trkpt>
      <trkpt lat="43.95156" lon="1.71488">
        <ele>267.38</ele>
        <time>2017-08-27T10:18:52Z</time>
      </trkpt>
      <trkpt lat="43.95152" lon="1.71487">
        <ele>268.35</ele>
        <time>2017-08-27T10:18:56Z</time>
      </trkpt>
      <trkpt lat="43.95152" lon="1.71486">
        <ele>268.83</ele>
        <time>2017-08-27T10:19:11Z</time>
      </trkpt>
      <trkpt lat="43.95149" lon="1.71485">
        <ele>268.83</ele>
        <time>2017-08-27T10:19:23Z</time>
      </trkpt>
      <trkpt lat="43.95134" lon="1.71482">
        <ele>269.31</ele>
        <time>2017-08-27T10:19:30Z</time>
      </trkpt>
      <trkpt lat="43.95118" lon="1.71474">
        <ele>268.35</ele>
        <time>2017-08-27T10:19:38Z</time>
      </trkpt>
      <trkpt lat="43.95114" lon="1.71475">
        <ele>268.35</ele>
        <time>2017-08-27T10:19:52Z</time>
      </trkpt>
      <trkpt lat="43.95112" lon="1.71468">
        <ele>268.35</ele>
        <time>2017-08-27T10:20:15Z</time>
      </trkpt>
      <trkpt lat="43.95114" lon="1.71468">
        <ele>268.83</ele>
        <time>2017-08-27T10:20:31Z</time>
      </trkpt>
      <trkpt lat="43.95115" lon="1.7147">
        <ele>268.35</ele>
        <time>2017-08-27T10:20:49Z</time>
      </trkpt>
      <trkpt lat="43.95115" lon="1.71472">
        <ele>267.86</ele>
        <time>2017-08-27T10:20:57Z</time>
      </trkpt>
      <trkpt lat="43.95113" lon="1.71472">
        <ele>268.83</ele>
        <time>2017-08-27T10:21:16Z</time>
      </trkpt>
      <trkpt lat="43.95109" lon="1.71468">
        <ele>269.31</ele>
        <time>2017-08-27T10:21:30Z</time>
      </trkpt>
      <trkpt lat="43.95104" lon="1.71452">
        <ele>267.86</ele>
        <time>2017-08-27T10:21:36Z</time>
      </trkpt>
      <trkpt lat="43.95103" lon="1.71451">
        <ele>268.83</ele>
        <time>2017-08-27T10:21:37Z</time>
      </trkpt>
      <trkpt lat="43.95101" lon="1.71451">
        <ele>268.35</ele>
        <time>2017-08-27T10:21:38Z</time>
      </trkpt>
      <trkpt lat="43.95099" lon="1.71451">
        <ele>268.35</ele>
        <time>2017-08-27T10:21:39Z</time>
      </trkpt>
      <trkpt lat="43.95097" lon="1.71451">
        <ele>267.38</ele>
        <time>2017-08-27T10:21:40Z</time>
      </trkpt>
      <trkpt lat="43.95095" lon="1.71452">
        <ele>266.9</ele>
        <time>2017-08-27T10:21:41Z</time>
      </trkpt>
      <trkpt lat="43.95093" lon="1.71452">
        <ele>266.9</ele>
        <time>2017-08-27T10:21:42Z</time>
      </trkpt>
      <trkpt lat="43.95091" lon="1.71452">
        <ele>266.9</ele>
        <time>2017-08-27T10:21:43Z</time>
      </trkpt>
      <trkpt lat="43.95089" lon="1.71452">
        <ele>265.94</ele>
        <time>2017-08-27T10:21:45Z</time>
      </trkpt>
      <trkpt lat="43.95087" lon="1.71449">
        <ele>264.5</ele>
        <time>2017-08-27T10:21:52Z</time>
      </trkpt>
      <trkpt lat="43.95087" lon="1.7145">
        <ele>264.98</ele>
        <time>2017-08-27T10:21:55Z</time>
      </trkpt>
      <trkpt lat="43.95074" lon="1.7144">
        <ele>264.02</ele>
        <time>2017-08-27T10:22:00Z</time>
      </trkpt>
      <trkpt lat="43.95068" lon="1.71437">
        <ele>262.58</ele>
        <time>2017-08-27T10:22:01Z</time>
      </trkpt>
      <trkpt lat="43.95037" lon="1.71428">
        <ele>256.81</ele>
        <time>2017-08-27T10:22:06Z</time>
      </trkpt>
      <trkpt lat="43.9503" lon="1.71426">
        <ele>256.33</ele>
        <time>2017-08-27T10:22:07Z</time>
      </trkpt>
      <trkpt lat="43.95006" lon="1.71403">
        <ele>252</ele>
        <time>2017-08-27T10:22:12Z</time>
      </trkpt>
      <trkpt lat="43.94998" lon="1.71392">
        <ele>250.56</ele>
        <time>2017-08-27T10:22:15Z</time>
      </trkpt>
      <trkpt lat="43.94983" lon="1.71359">
        <ele>247.68</ele>
        <time>2017-08-27T10:22:20Z</time>
      </trkpt>
      <trkpt lat="43.94968" lon="1.71317">
        <ele>244.79</ele>
        <time>2017-08-27T10:22:24Z</time>
      </trkpt>
      <trkpt lat="43.94959" lon="1.71294">
        <ele>244.31</ele>
        <time>2017-08-27T10:22:26Z</time>
      </trkpt>
      <trkpt lat="43.94937" lon="1.71263">
        <ele>243.35</ele>
        <time>2017-08-27T10:22:30Z</time>
      </trkpt>
      <trkpt lat="43.94918" lon="1.71247">
        <ele>244.31</ele>
        <time>2017-08-27T10:22:36Z</time>
      </trkpt>
      <trkpt lat="43.94902" lon="1.71238">
        <ele>246.72</ele>
        <time>2017-08-27T10:22:43Z</time>
      </trkpt>
      <trkpt lat="43.94891" lon="1.71231">
        <ele>247.2</ele>
        <time>2017-08-27T10:22:49Z</time>
      </trkpt>
      <trkpt lat="43.94885" lon="1.71229">
        <ele>247.68</ele>
        <time>2017-08-27T10:23:03Z</time>
      </trkpt>
      <trkpt lat="43.94876" lon="1.71224">
        <ele>248.16</ele>
        <time>2017-08-27T10:23:09Z</time>
      </trkpt>
      <trkpt lat="43.94857" lon="1.71216">
        <ele>250.08</ele>
        <time>2017-08-27T10:23:16Z</time>
      </trkpt>
      <trkpt lat="43.94832" lon="1.71206">
        <ele>251.52</ele>
        <time>2017-08-27T10:23:25Z</time>
      </trkpt>
      <trkpt lat="43.94813" lon="1.712">
        <ele>253.44</ele>
        <time>2017-08-27T10:23:32Z</time>
      </trkpt>
      <trkpt lat="43.94792" lon="1.71192">
        <ele>255.37</ele>
        <time>2017-08-27T10:23:40Z</time>
      </trkpt>
      <trkpt lat="43.94769" lon="1.71186">
        <ele>255.85</ele>
        <time>2017-08-27T10:23:48Z</time>
      </trkpt>
      <trkpt lat="43.94751" lon="1.71183">
        <ele>257.77</ele>
        <time>2017-08-27T10:23:56Z</time>
      </trkpt>
      <trkpt lat="43.94735" lon="1.71179">
        <ele>258.25</ele>
        <time>2017-08-27T10:24:03Z</time>
      </trkpt>
      <trkpt lat="43.94714" lon="1.71175">
        <ele>259.21</ele>
        <time>2017-08-27T10:24:11Z</time>
      </trkpt>
      <trkpt lat="43.94691" lon="1.71176">
        <ele>261.14</ele>
        <time>2017-08-27T10:24:20Z</time>
      </trkpt>
      <trkpt lat="43.94667" lon="1.71182">
        <ele>262.1</ele>
        <time>2017-08-27T10:24:30Z</time>
      </trkpt>
      <trkpt lat="43.94645" lon="1.71183">
        <ele>264.5</ele>
        <time>2017-08-27T10:24:41Z</time>
      </trkpt>
      <trkpt lat="43.94625" lon="1.7118">
        <ele>264.98</ele>
        <time>2017-08-27T10:24:52Z</time>
      </trkpt>
      <trkpt lat="43.94617" lon="1.71175">
        <ele>265.94</ele>
        <time>2017-08-27T10:25:00Z</time>
      </trkpt>
      <trkpt lat="43.94611" lon="1.71172">
        <ele>266.42</ele>
        <time>2017-08-27T10:25:10Z</time>
      </trkpt>
      <trkpt lat="43.94606" lon="1.71168">
        <ele>267.86</ele>
        <time>2017-08-27T10:25:16Z</time>
      </trkpt>
      <trkpt lat="43.94599" lon="1.71164">
        <ele>267.38</ele>
        <time>2017-08-27T10:25:22Z</time>
      </trkpt>
      <trkpt lat="43.94597" lon="1.71166">
        <ele>267.38</ele>
        <time>2017-08-27T10:25:26Z</time>
      </trkpt>
      <trkpt lat="43.94592" lon="1.7117">
        <ele>267.86</ele>
        <time>2017-08-27T10:25:29Z</time>
      </trkpt>
      <trkpt lat="43.9459" lon="1.71171">
        <ele>267.86</ele>
        <time>2017-08-27T10:25:30Z</time>
      </trkpt>
      <trkpt lat="43.94588" lon="1.71173">
        <ele>267.38</ele>
        <time>2017-08-27T10:25:31Z</time>
      </trkpt>
      <trkpt lat="43.94574" lon="1.7119">
        <ele>267.86</ele>
        <time>2017-08-27T10:25:38Z</time>
      </trkpt>
      <trkpt lat="43.9456" lon="1.71214">
        <ele>269.31</ele>
        <time>2017-08-27T10:25:46Z</time>
      </trkpt>
      <trkpt lat="43.94549" lon="1.71246">
        <ele>269.79</ele>
        <time>2017-08-27T10:25:56Z</time>
      </trkpt>
      <trkpt lat="43.94541" lon="1.71277">
        <ele>268.83</ele>
        <time>2017-08-27T10:26:05Z</time>
      </trkpt>
      <trkpt lat="43.94529" lon="1.71315">
        <ele>269.31</ele>
        <time>2017-08-27T10:26:15Z</time>
      </trkpt>
      <trkpt lat="43.94513" lon="1.71344">
        <ele>269.79</ele>
        <time>2017-08-27T10:26:23Z</time>
      </trkpt>
      <trkpt lat="43.94501" lon="1.71363">
        <ele>270.27</ele>
        <time>2017-08-27T10:26:28Z</time>
      </trkpt>
      <trkpt lat="43.94499" lon="1.71368">
        <ele>270.27</ele>
        <time>2017-08-27T10:26:29Z</time>
      </trkpt>
      <trkpt lat="43.94497" lon="1.71373">
        <ele>270.27</ele>
        <time>2017-08-27T10:26:30Z</time>
      </trkpt>
      <trkpt lat="43.94495" lon="1.71378">
        <ele>269.79</ele>
        <time>2017-08-27T10:26:31Z</time>
      </trkpt>
      <trkpt lat="43.94492" lon="1.7139">
        <ele>269.31</ele>
        <time>2017-08-27T10:26:33Z</time>
      </trkpt>
      <trkpt lat="43.94474" lon="1.71449">
        <ele>269.31</ele>
        <time>2017-08-27T10:26:42Z</time>
      </trkpt>
      <trkpt lat="43.94448" lon="1.71508">
        <ele>269.31</ele>
        <time>2017-08-27T10:26:53Z</time>
      </trkpt>
      <trkpt lat="43.94441" lon="1.71523">
        <ele>270.27</ele>
        <time>2017-08-27T10:26:56Z</time>
      </trkpt>
      <trkpt lat="43.94425" lon="1.71577">
        <ele>269.79</ele>
        <time>2017-08-27T10:27:05Z</time>
      </trkpt>
      <trkpt lat="43.94411" lon="1.7163">
        <ele>270.75</ele>
        <time>2017-08-27T10:27:14Z</time>
      </trkpt>
      <trkpt lat="43.94397" lon="1.71677">
        <ele>270.27</ele>
        <time>2017-08-27T10:27:22Z</time>
      </trkpt>
      <trkpt lat="43.94384" lon="1.71739">
        <ele>270.75</ele>
        <time>2017-08-27T10:27:32Z</time>
      </trkpt>
      <trkpt lat="43.94385" lon="1.71788">
        <ele>269.79</ele>
        <time>2017-08-27T10:27:39Z</time>
      </trkpt>
      <trkpt lat="43.9439" lon="1.71876">
        <ele>269.31</ele>
        <time>2017-08-27T10:27:50Z</time>
      </trkpt>
      <trkpt lat="43.9439" lon="1.71905">
        <ele>268.83</ele>
        <time>2017-08-27T10:27:54Z</time>
      </trkpt>
      <trkpt lat="43.94389" lon="1.71912">
        <ele>268.83</ele>
        <time>2017-08-27T10:27:55Z</time>
      </trkpt>
      <trkpt lat="43.94387" lon="1.71917">
        <ele>268.83</ele>
        <time>2017-08-27T10:27:56Z</time>
      </trkpt>
      <trkpt lat="43.94383" lon="1.71921">
        <ele>268.35</ele>
        <time>2017-08-27T10:27:57Z</time>
      </trkpt>
      <trkpt lat="43.94378" lon="1.71923">
        <ele>268.83</ele>
        <time>2017-08-27T10:27:58Z</time>
      </trkpt>
      <trkpt lat="43.94374" lon="1.71922">
        <ele>268.35</ele>
        <time>2017-08-27T10:27:59Z</time>
      </trkpt>
      <trkpt lat="43.94369" lon="1.7192">
        <ele>268.83</ele>
        <time>2017-08-27T10:28:00Z</time>
      </trkpt>
      <trkpt lat="43.94364" lon="1.7192">
        <ele>269.31</ele>
        <time>2017-08-27T10:28:01Z</time>
      </trkpt>
      <trkpt lat="43.94359" lon="1.7192">
        <ele>268.83</ele>
        <time>2017-08-27T10:28:02Z</time>
      </trkpt>
      <trkpt lat="43.94316" lon="1.71926">
        <ele>269.31</ele>
        <time>2017-08-27T10:28:11Z</time>
      </trkpt>
      <trkpt lat="43.94262" lon="1.71936">
        <ele>270.27</ele>
        <time>2017-08-27T10:28:22Z</time>
      </trkpt>
      <trkpt lat="43.94235" lon="1.71944">
        <ele>272.19</ele>
        <time>2017-08-27T10:28:28Z</time>
      </trkpt>
      <trkpt lat="43.94203" lon="1.71957">
        <ele>271.71</ele>
        <time>2017-08-27T10:28:36Z</time>
      </trkpt>
      <trkpt lat="43.94158" lon="1.71979">
        <ele>270.75</ele>
        <time>2017-08-27T10:28:46Z</time>
      </trkpt>
      <trkpt lat="43.94153" lon="1.71979">
        <ele>271.71</ele>
        <time>2017-08-27T10:28:47Z</time>
      </trkpt>
      <trkpt lat="43.94148" lon="1.71978">
        <ele>271.71</ele>
        <time>2017-08-27T10:28:48Z</time>
      </trkpt>
      <trkpt lat="43.94144" lon="1.71977">
        <ele>271.23</ele>
        <time>2017-08-27T10:28:49Z</time>
      </trkpt>
      <trkpt lat="43.94139" lon="1.71974">
        <ele>271.71</ele>
        <time>2017-08-27T10:28:50Z</time>
      </trkpt>
      <trkpt lat="43.94135" lon="1.7197">
        <ele>270.75</ele>
        <time>2017-08-27T10:28:51Z</time>
      </trkpt>
      <trkpt lat="43.94098" lon="1.71934">
        <ele>268.83</ele>
        <time>2017-08-27T10:28:58Z</time>
      </trkpt>
      <trkpt lat="43.94067" lon="1.71898">
        <ele>265.94</ele>
        <time>2017-08-27T10:29:03Z</time>
      </trkpt>
      <trkpt lat="43.94061" lon="1.71889">
        <ele>265.94</ele>
        <time>2017-08-27T10:29:04Z</time>
      </trkpt>
      <trkpt lat="43.94023" lon="1.71833">
        <ele>263.06</ele>
        <time>2017-08-27T10:29:10Z</time>
      </trkpt>
      <trkpt lat="43.94005" lon="1.71803">
        <ele>262.58</ele>
        <time>2017-08-27T10:29:13Z</time>
      </trkpt>
      <trkpt lat="43.93996" lon="1.71781">
        <ele>262.58</ele>
        <time>2017-08-27T10:29:15Z</time>
      </trkpt>
      <trkpt lat="43.93993" lon="1.7177">
        <ele>262.1</ele>
        <time>2017-08-27T10:29:16Z</time>
      </trkpt>
      <trkpt lat="43.93979" lon="1.71702">
        <ele>262.58</ele>
        <time>2017-08-27T10:29:23Z</time>
      </trkpt>
      <trkpt lat="43.93966" lon="1.71644">
        <ele>264.5</ele>
        <time>2017-08-27T10:29:30Z</time>
      </trkpt>
      <trkpt lat="43.93961" lon="1.71621">
        <ele>264.98</ele>
        <time>2017-08-27T10:29:33Z</time>
      </trkpt>
      <trkpt lat="43.93948" lon="1.71555">
        <ele>264.98</ele>
        <time>2017-08-27T10:29:41Z</time>
      </trkpt>
      <trkpt lat="43.93944" lon="1.71538">
        <ele>264.5</ele>
        <time>2017-08-27T10:29:43Z</time>
      </trkpt>
      <trkpt lat="43.93943" lon="1.7153">
        <ele>264.5</ele>
        <time>2017-08-27T10:29:44Z</time>
      </trkpt>
      <trkpt lat="43.93942" lon="1.71522">
        <ele>264.02</ele>
        <time>2017-08-27T10:29:45Z</time>
      </trkpt>
      <trkpt lat="43.93942" lon="1.71513">
        <ele>264.98</ele>
        <time>2017-08-27T10:29:46Z</time>
      </trkpt>
      <trkpt lat="43.93942" lon="1.71504">
        <ele>264.5</ele>
        <time>2017-08-27T10:29:47Z</time>
      </trkpt>
      <trkpt lat="43.93943" lon="1.71495">
        <ele>264.5</ele>
        <time>2017-08-27T10:29:48Z</time>
      </trkpt>
      <trkpt lat="43.93945" lon="1.71486">
        <ele>264.98</ele>
        <time>2017-08-27T10:29:49Z</time>
      </trkpt>
      <trkpt lat="43.93947" lon="1.71478">
        <ele>264.98</ele>
        <time>2017-08-27T10:29:50Z</time>
      </trkpt>
      <trkpt lat="43.93949" lon="1.7147">
        <ele>264.98</ele>
        <time>2017-08-27T10:29:51Z</time>
      </trkpt>
      <trkpt lat="43.93972" lon="1.71401">
        <ele>265.46</ele>
        <time>2017-08-27T10:30:00Z</time>
      </trkpt>
      <trkpt lat="43.93983" lon="1.71356">
        <ele>265.46</ele>
        <time>2017-08-27T10:30:06Z</time>
      </trkpt>
      <trkpt lat="43.93991" lon="1.71284">
        <ele>266.42</ele>
        <time>2017-08-27T10:30:16Z</time>
      </trkpt>
      <trkpt lat="43.9399" lon="1.71264">
        <ele>266.42</ele>
        <time>2017-08-27T10:30:19Z</time>
      </trkpt>
      <trkpt lat="43.93988" lon="1.71259">
        <ele>266.9</ele>
        <time>2017-08-27T10:30:20Z</time>
      </trkpt>
      <trkpt lat="43.93984" lon="1.71255">
        <ele>266.9</ele>
        <time>2017-08-27T10:30:21Z</time>
      </trkpt>
      <trkpt lat="43.93979" lon="1.71254">
        <ele>266.9</ele>
        <time>2017-08-27T10:30:22Z</time>
      </trkpt>
      <trkpt lat="43.93974" lon="1.71254">
        <ele>266.9</ele>
        <time>2017-08-27T10:30:23Z</time>
      </trkpt>
      <trkpt lat="43.9397" lon="1.71254">
        <ele>266.9</ele>
        <time>2017-08-27T10:30:24Z</time>
      </trkpt>
      <trkpt lat="43.93965" lon="1.71253">
        <ele>267.38</ele>
        <time>2017-08-27T10:30:25Z</time>
      </trkpt>
      <trkpt lat="43.93946" lon="1.71252">
        <ele>268.35</ele>
        <time>2017-08-27T10:30:29Z</time>
      </trkpt>
      <trkpt lat="43.93942" lon="1.71252">
        <ele>267.86</ele>
        <time>2017-08-27T10:30:30Z</time>
      </trkpt>
      <trkpt lat="43.93937" lon="1.71253">
        <ele>267.86</ele>
        <time>2017-08-27T10:30:31Z</time>
      </trkpt>
      <trkpt lat="43.93932" lon="1.71253">
        <ele>268.83</ele>
        <time>2017-08-27T10:30:32Z</time>
      </trkpt>
      <trkpt lat="43.93928" lon="1.71253">
        <ele>268.83</ele>
        <time>2017-08-27T10:30:33Z</time>
      </trkpt>
      <trkpt lat="43.93894" lon="1.7126">
        <ele>270.75</ele>
        <time>2017-08-27T10:30:41Z</time>
      </trkpt>
      <trkpt lat="43.93871" lon="1.7126">
        <ele>269.79</ele>
        <time>2017-08-27T10:30:46Z</time>
      </trkpt>
      <trkpt lat="43.9383" lon="1.71258">
        <ele>271.23</ele>
        <time>2017-08-27T10:30:54Z</time>
      </trkpt>
      <trkpt lat="43.938" lon="1.71261">
        <ele>270.75</ele>
        <time>2017-08-27T10:31:00Z</time>
      </trkpt>
      <trkpt lat="43.93794" lon="1.71262">
        <ele>270.75</ele>
        <time>2017-08-27T10:31:01Z</time>
      </trkpt>
      <trkpt lat="43.93742" lon="1.71279">
        <ele>269.31</ele>
        <time>2017-08-27T10:31:09Z</time>
      </trkpt>
      <trkpt lat="43.93704" lon="1.71278">
        <ele>268.35</ele>
        <time>2017-08-27T10:31:15Z</time>
      </trkpt>
      <trkpt lat="43.93662" lon="1.71277">
        <ele>267.38</ele>
        <time>2017-08-27T10:31:22Z</time>
      </trkpt>
      <trkpt lat="43.93656" lon="1.71279">
        <ele>267.38</ele>
        <time>2017-08-27T10:31:23Z</time>
      </trkpt>
      <trkpt lat="43.93611" lon="1.71302">
        <ele>265.94</ele>
        <time>2017-08-27T10:31:30Z</time>
      </trkpt>
      <trkpt lat="43.93588" lon="1.71315">
        <ele>263.54</ele>
        <time>2017-08-27T10:31:33Z</time>
      </trkpt>
      <trkpt lat="43.93563" lon="1.71331">
        <ele>260.17</ele>
        <time>2017-08-27T10:31:36Z</time>
      </trkpt>
      <trkpt lat="43.93537" lon="1.71352">
        <ele>256.33</ele>
        <time>2017-08-27T10:31:39Z</time>
      </trkpt>
      <trkpt lat="43.93511" lon="1.71377">
        <ele>252.96</ele>
        <time>2017-08-27T10:31:42Z</time>
      </trkpt>
      <trkpt lat="43.93481" lon="1.71402">
        <ele>249.12</ele>
        <time>2017-08-27T10:31:45Z</time>
      </trkpt>
      <trkpt lat="43.93461" lon="1.71417">
        <ele>245.75</ele>
        <time>2017-08-27T10:31:47Z</time>
      </trkpt>
      <trkpt lat="43.93432" lon="1.71443">
        <ele>241.91</ele>
        <time>2017-08-27T10:31:50Z</time>
      </trkpt>
      <trkpt lat="43.93412" lon="1.71456">
        <ele>239.02</ele>
        <time>2017-08-27T10:31:52Z</time>
      </trkpt>
      <trkpt lat="43.9339" lon="1.71466">
        <ele>237.58</ele>
        <time>2017-08-27T10:31:54Z</time>
      </trkpt>
      <trkpt lat="43.93379" lon="1.71469">
        <ele>236.62</ele>
        <time>2017-08-27T10:31:55Z</time>
      </trkpt>
      <trkpt lat="43.93358" lon="1.71474">
        <ele>235.66</ele>
        <time>2017-08-27T10:31:57Z</time>
      </trkpt>
      <trkpt lat="43.9334" lon="1.71484">
        <ele>235.18</ele>
        <time>2017-08-27T10:31:59Z</time>
      </trkpt>
      <trkpt lat="43.93334" lon="1.71491">
        <ele>234.22</ele>
        <time>2017-08-27T10:32:00Z</time>
      </trkpt>
      <trkpt lat="43.93328" lon="1.71501">
        <ele>233.74</ele>
        <time>2017-08-27T10:32:01Z</time>
      </trkpt>
      <trkpt lat="43.93317" lon="1.71522">
        <ele>232.78</ele>
        <time>2017-08-27T10:32:03Z</time>
      </trkpt>
      <trkpt lat="43.93297" lon="1.71555">
        <ele>229.41</ele>
        <time>2017-08-27T10:32:06Z</time>
      </trkpt>
      <trkpt lat="43.93283" lon="1.71575">
        <ele>228.45</ele>
        <time>2017-08-27T10:32:08Z</time>
      </trkpt>
      <trkpt lat="43.93276" lon="1.71583">
        <ele>227.01</ele>
        <time>2017-08-27T10:32:09Z</time>
      </trkpt>
      <trkpt lat="43.9327" lon="1.71588">
        <ele>226.05</ele>
        <time>2017-08-27T10:32:10Z</time>
      </trkpt>
      <trkpt lat="43.93264" lon="1.71592">
        <ele>226.05</ele>
        <time>2017-08-27T10:32:11Z</time>
      </trkpt>
      <trkpt lat="43.93259" lon="1.71593">
        <ele>225.57</ele>
        <time>2017-08-27T10:32:12Z</time>
      </trkpt>
      <trkpt lat="43.93253" lon="1.71592">
        <ele>225.57</ele>
        <time>2017-08-27T10:32:13Z</time>
      </trkpt>
      <trkpt lat="43.93247" lon="1.71588">
        <ele>225.09</ele>
        <time>2017-08-27T10:32:14Z</time>
      </trkpt>
      <trkpt lat="43.93217" lon="1.71571">
        <ele>221.24</ele>
        <time>2017-08-27T10:32:18Z</time>
      </trkpt>
      <trkpt lat="43.93208" lon="1.71565">
        <ele>220.28</ele>
        <time>2017-08-27T10:32:19Z</time>
      </trkpt>
      <trkpt lat="43.93178" lon="1.71549">
        <ele>217.4</ele>
        <time>2017-08-27T10:32:22Z</time>
      </trkpt>
      <trkpt lat="43.93158" lon="1.71538">
        <ele>215.47</ele>
        <time>2017-08-27T10:32:24Z</time>
      </trkpt>
      <trkpt lat="43.93109" lon="1.71512">
        <ele>211.63</ele>
        <time>2017-08-27T10:32:29Z</time>
      </trkpt>
      <trkpt lat="43.9308" lon="1.71499">
        <ele>209.7</ele>
        <time>2017-08-27T10:32:32Z</time>
      </trkpt>
      <trkpt lat="43.93061" lon="1.71491">
        <ele>208.26</ele>
        <time>2017-08-27T10:32:34Z</time>
      </trkpt>
      <trkpt lat="43.93032" lon="1.71477">
        <ele>204.9</ele>
        <time>2017-08-27T10:32:37Z</time>
      </trkpt>
      <trkpt lat="43.93022" lon="1.71472">
        <ele>204.42</ele>
        <time>2017-08-27T10:32:38Z</time>
      </trkpt>
      <trkpt lat="43.92983" lon="1.71448">
        <ele>200.09</ele>
        <time>2017-08-27T10:32:42Z</time>
      </trkpt>
      <trkpt lat="43.92975" lon="1.7144">
        <ele>200.09</ele>
        <time>2017-08-27T10:32:43Z</time>
      </trkpt>
      <trkpt lat="43.92957" lon="1.71425">
        <ele>198.65</ele>
        <time>2017-08-27T10:32:45Z</time>
      </trkpt>
      <trkpt lat="43.92931" lon="1.71403">
        <ele>196.73</ele>
        <time>2017-08-27T10:32:48Z</time>
      </trkpt>
      <trkpt lat="43.92891" lon="1.71375">
        <ele>196.25</ele>
        <time>2017-08-27T10:32:53Z</time>
      </trkpt>
      <trkpt lat="43.92884" lon="1.71373">
        <ele>195.77</ele>
        <time>2017-08-27T10:32:54Z</time>
      </trkpt>
      <trkpt lat="43.92877" lon="1.71372">
        <ele>195.77</ele>
        <time>2017-08-27T10:32:55Z</time>
      </trkpt>
      <trkpt lat="43.92849" lon="1.71374">
        <ele>196.25</ele>
        <time>2017-08-27T10:33:00Z</time>
      </trkpt>
      <trkpt lat="43.92844" lon="1.71374">
        <ele>196.25</ele>
        <time>2017-08-27T10:33:01Z</time>
      </trkpt>
      <trkpt lat="43.92823" lon="1.7137">
        <ele>197.69</ele>
        <time>2017-08-27T10:33:06Z</time>
      </trkpt>
      <trkpt lat="43.92795" lon="1.7137">
        <ele>198.17</ele>
        <time>2017-08-27T10:33:13Z</time>
      </trkpt>
      <trkpt lat="43.92782" lon="1.7137">
        <ele>198.17</ele>
        <time>2017-08-27T10:33:16Z</time>
      </trkpt>
      <trkpt lat="43.92768" lon="1.71368">
        <ele>198.17</ele>
        <time>2017-08-27T10:33:19Z</time>
      </trkpt>
      <trkpt lat="43.92748" lon="1.7136">
        <ele>199.13</ele>
        <time>2017-08-27T10:33:24Z</time>
      </trkpt>
      <trkpt lat="43.92721" lon="1.71345">
        <ele>201.05</ele>
        <time>2017-08-27T10:33:32Z</time>
      </trkpt>
      <trkpt lat="43.92715" lon="1.71341">
        <ele>202.01</ele>
        <time>2017-08-27T10:33:34Z</time>
      </trkpt>
      <trkpt lat="43.92693" lon="1.7133">
        <ele>201.05</ele>
        <time>2017-08-27T10:33:40Z</time>
      </trkpt>
      <trkpt lat="43.92679" lon="1.71322">
        <ele>200.09</ele>
        <time>2017-08-27T10:33:43Z</time>
      </trkpt>
      <trkpt lat="43.92675" lon="1.71319">
        <ele>199.61</ele>
        <time>2017-08-27T10:33:44Z</time>
      </trkpt>
      <trkpt lat="43.92671" lon="1.71316">
        <ele>199.61</ele>
        <time>2017-08-27T10:33:45Z</time>
      </trkpt>
      <trkpt lat="43.92658" lon="1.71309">
        <ele>196.25</ele>
        <time>2017-08-27T10:33:49Z</time>
      </trkpt>
      <trkpt lat="43.92656" lon="1.71311">
        <ele>195.77</ele>
        <time>2017-08-27T10:33:50Z</time>
      </trkpt>
      <trkpt lat="43.92653" lon="1.71314">
        <ele>195.77</ele>
        <time>2017-08-27T10:33:51Z</time>
      </trkpt>
      <trkpt lat="43.92651" lon="1.71319">
        <ele>194.8</ele>
        <time>2017-08-27T10:33:52Z</time>
      </trkpt>
      <trkpt lat="43.92648" lon="1.71325">
        <ele>194.32</ele>
        <time>2017-08-27T10:33:53Z</time>
      </trkpt>
      <trkpt lat="43.92646" lon="1.71332">
        <ele>194.32</ele>
        <time>2017-08-27T10:33:54Z</time>
      </trkpt>
      <trkpt lat="43.92644" lon="1.71339">
        <ele>193.84</ele>
        <time>2017-08-27T10:33:55Z</time>
      </trkpt>
      <trkpt lat="43.92641" lon="1.71346">
        <ele>193.36</ele>
        <time>2017-08-27T10:33:56Z</time>
      </trkpt>
      <trkpt lat="43.92622" lon="1.71388">
        <ele>190.48</ele>
        <time>2017-08-27T10:34:01Z</time>
      </trkpt>
      <trkpt lat="43.92618" lon="1.71396">
        <ele>190.96</ele>
        <time>2017-08-27T10:34:02Z</time>
      </trkpt>
      <trkpt lat="43.92613" lon="1.71402">
        <ele>190.48</ele>
        <time>2017-08-27T10:34:03Z</time>
      </trkpt>
      <trkpt lat="43.92592" lon="1.71435">
        <ele>190.96</ele>
        <time>2017-08-27T10:34:09Z</time>
      </trkpt>
      <trkpt lat="43.92578" lon="1.71467">
        <ele>191.92</ele>
        <time>2017-08-27T10:34:16Z</time>
      </trkpt>
      <trkpt lat="43.92567" lon="1.71491">
        <ele>193.36</ele>
        <time>2017-08-27T10:34:23Z</time>
      </trkpt>
      <trkpt lat="43.92553" lon="1.71518">
        <ele>195.28</ele>
        <time>2017-08-27T10:34:32Z</time>
      </trkpt>
      <trkpt lat="43.92541" lon="1.71537">
        <ele>196.73</ele>
        <time>2017-08-27T10:34:41Z</time>
      </trkpt>
      <trkpt lat="43.92527" lon="1.71556">
        <ele>198.65</ele>
        <time>2017-08-27T10:34:50Z</time>
      </trkpt>
      <trkpt lat="43.92526" lon="1.71558">
        <ele>198.65</ele>
        <time>2017-08-27T10:34:51Z</time>
      </trkpt>
      <trkpt lat="43.9251" lon="1.71572">
        <ele>201.05</ele>
        <time>2017-08-27T10:35:00Z</time>
      </trkpt>
      <trkpt lat="43.92494" lon="1.71582">
        <ele>202.98</ele>
        <time>2017-08-27T10:35:11Z</time>
      </trkpt>
      <trkpt lat="43.9249" lon="1.71584">
        <ele>202.49</ele>
        <time>2017-08-27T10:35:16Z</time>
      </trkpt>
      <trkpt lat="43.9248" lon="1.7159">
        <ele>203.94</ele>
        <time>2017-08-27T10:35:25Z</time>
      </trkpt>
      <trkpt lat="43.92474" lon="1.71596">
        <ele>205.86</ele>
        <time>2017-08-27T10:35:32Z</time>
      </trkpt>
      <trkpt lat="43.92473" lon="1.71596">
        <ele>205.38</ele>
        <time>2017-08-27T10:35:33Z</time>
      </trkpt>
      <trkpt lat="43.9247" lon="1.71599">
        <ele>205.86</ele>
        <time>2017-08-27T10:35:36Z</time>
      </trkpt>
      <trkpt lat="43.9247" lon="1.716">
        <ele>205.86</ele>
        <time>2017-08-27T10:35:37Z</time>
      </trkpt>
      <trkpt lat="43.92468" lon="1.71601">
        <ele>206.34</ele>
        <time>2017-08-27T10:35:38Z</time>
      </trkpt>
      <trkpt lat="43.92458" lon="1.71608">
        <ele>207.78</ele>
        <time>2017-08-27T10:35:48Z</time>
      </trkpt>
      <trkpt lat="43.9245" lon="1.71609">
        <ele>210.19</ele>
        <time>2017-08-27T10:35:57Z</time>
      </trkpt>
      <trkpt lat="43.92445" lon="1.71618">
        <ele>210.19</ele>
        <time>2017-08-27T10:36:04Z</time>
      </trkpt>
      <trkpt lat="43.92439" lon="1.7163">
        <ele>210.19</ele>
        <time>2017-08-27T10:36:13Z</time>
      </trkpt>
      <trkpt lat="43.92438" lon="1.71634">
        <ele>210.67</ele>
        <time>2017-08-27T10:36:19Z</time>
      </trkpt>
      <trkpt lat="43.92437" lon="1.71634">
        <ele>210.67</ele>
        <time>2017-08-27T10:36:27Z</time>
      </trkpt>
      <trkpt lat="43.92436" lon="1.71634">
        <ele>211.15</ele>
        <time>2017-08-27T10:36:43Z</time>
      </trkpt>
      <trkpt lat="43.92434" lon="1.71638">
        <ele>211.15</ele>
        <time>2017-08-27T10:36:50Z</time>
      </trkpt>
      <trkpt lat="43.92426" lon="1.71654">
        <ele>211.63</ele>
        <time>2017-08-27T10:36:58Z</time>
      </trkpt>
      <trkpt lat="43.92414" lon="1.71673">
        <ele>212.59</ele>
        <time>2017-08-27T10:37:07Z</time>
      </trkpt>
      <trkpt lat="43.924" lon="1.71694">
        <ele>215.47</ele>
        <time>2017-08-27T10:37:17Z</time>
      </trkpt>
      <trkpt lat="43.9239" lon="1.71712">
        <ele>216.91</ele>
        <time>2017-08-27T10:37:25Z</time>
      </trkpt>
      <trkpt lat="43.92378" lon="1.71727">
        <ele>219.32</ele>
        <time>2017-08-27T10:37:33Z</time>
      </trkpt>
      <trkpt lat="43.92359" lon="1.71743">
        <ele>221.24</ele>
        <time>2017-08-27T10:37:44Z</time>
      </trkpt>
      <trkpt lat="43.92343" lon="1.71755">
        <ele>222.68</ele>
        <time>2017-08-27T10:37:54Z</time>
      </trkpt>
      <trkpt lat="43.92333" lon="1.71762">
        <ele>223.64</ele>
        <time>2017-08-27T10:38:02Z</time>
      </trkpt>
      <trkpt lat="43.92334" lon="1.71763">
        <ele>223.16</ele>
        <time>2017-08-27T10:38:14Z</time>
      </trkpt>
      <trkpt lat="43.92332" lon="1.71764">
        <ele>223.64</ele>
        <time>2017-08-27T10:38:27Z</time>
      </trkpt>
      <trkpt lat="43.92314" lon="1.71778">
        <ele>224.61</ele>
        <time>2017-08-27T10:38:36Z</time>
      </trkpt>
      <trkpt lat="43.92297" lon="1.71792">
        <ele>225.57</ele>
        <time>2017-08-27T10:38:46Z</time>
      </trkpt>
      <trkpt lat="43.92297" lon="1.7179">
        <ele>226.53</ele>
        <time>2017-08-27T10:38:57Z</time>
      </trkpt>
      <trkpt lat="43.92292" lon="1.71794">
        <ele>226.05</ele>
        <time>2017-08-27T10:39:06Z</time>
      </trkpt>
      <trkpt lat="43.92272" lon="1.71807">
        <ele>227.97</ele>
        <time>2017-08-27T10:39:15Z</time>
      </trkpt>
      <trkpt lat="43.92251" lon="1.71819">
        <ele>229.89</ele>
        <time>2017-08-27T10:39:25Z</time>
      </trkpt>
      <trkpt lat="43.9223" lon="1.71826">
        <ele>231.33</ele>
        <time>2017-08-27T10:39:36Z</time>
      </trkpt>
      <trkpt lat="43.92216" lon="1.71826">
        <ele>232.78</ele>
        <time>2017-08-27T10:39:43Z</time>
      </trkpt>
      <trkpt lat="43.92198" lon="1.71823">
        <ele>234.7</ele>
        <time>2017-08-27T10:39:53Z</time>
      </trkpt>
      <trkpt lat="43.92183" lon="1.71817">
        <ele>236.14</ele>
        <time>2017-08-27T10:40:02Z</time>
      </trkpt>
      <trkpt lat="43.92172" lon="1.71813">
        <ele>237.58</ele>
        <time>2017-08-27T10:40:09Z</time>
      </trkpt>
      <trkpt lat="43.92152" lon="1.71811">
        <ele>239.51</ele>
        <time>2017-08-27T10:40:18Z</time>
      </trkpt>
      <trkpt lat="43.92125" lon="1.71822">
        <ele>239.99</ele>
        <time>2017-08-27T10:40:28Z</time>
      </trkpt>
      <trkpt lat="43.92092" lon="1.71834">
        <ele>238.54</ele>
        <time>2017-08-27T10:40:37Z</time>
      </trkpt>
      <trkpt lat="43.92071" lon="1.71837">
        <ele>235.66</ele>
        <time>2017-08-27T10:40:41Z</time>
      </trkpt>
      <trkpt lat="43.92059" lon="1.71839">
        <ele>234.7</ele>
        <time>2017-08-27T10:40:43Z</time>
      </trkpt>
      <trkpt lat="43.92054" lon="1.71841">
        <ele>233.74</ele>
        <time>2017-08-27T10:40:44Z</time>
      </trkpt>
      <trkpt lat="43.92049" lon="1.71845">
        <ele>233.26</ele>
        <time>2017-08-27T10:40:45Z</time>
      </trkpt>
      <trkpt lat="43.92044" lon="1.7185">
        <ele>231.81</ele>
        <time>2017-08-27T10:40:46Z</time>
      </trkpt>
      <trkpt lat="43.92039" lon="1.71857">
        <ele>231.81</ele>
        <time>2017-08-27T10:40:47Z</time>
      </trkpt>
      <trkpt lat="43.92033" lon="1.71863">
        <ele>231.81</ele>
        <time>2017-08-27T10:40:48Z</time>
      </trkpt>
      <trkpt lat="43.92012" lon="1.71884">
        <ele>228.93</ele>
        <time>2017-08-27T10:40:51Z</time>
      </trkpt>
      <trkpt lat="43.91996" lon="1.71902">
        <ele>225.57</ele>
        <time>2017-08-27T10:40:53Z</time>
      </trkpt>
      <trkpt lat="43.91988" lon="1.7191">
        <ele>225.57</ele>
        <time>2017-08-27T10:40:54Z</time>
      </trkpt>
      <trkpt lat="43.91967" lon="1.71937">
        <ele>221.24</ele>
        <time>2017-08-27T10:40:57Z</time>
      </trkpt>
      <trkpt lat="43.91959" lon="1.71944">
        <ele>220.76</ele>
        <time>2017-08-27T10:40:58Z</time>
      </trkpt>
      <trkpt lat="43.91951" lon="1.71948">
        <ele>220.28</ele>
        <time>2017-08-27T10:40:59Z</time>
      </trkpt>
      <trkpt lat="43.91942" lon="1.71951">
        <ele>219.8</ele>
        <time>2017-08-27T10:41:00Z</time>
      </trkpt>
      <trkpt lat="43.91933" lon="1.71953">
        <ele>219.32</ele>
        <time>2017-08-27T10:41:01Z</time>
      </trkpt>
      <trkpt lat="43.91924" lon="1.71956">
        <ele>218.84</ele>
        <time>2017-08-27T10:41:02Z</time>
      </trkpt>
      <trkpt lat="43.91893" lon="1.71965">
        <ele>215.47</ele>
        <time>2017-08-27T10:41:05Z</time>
      </trkpt>
      <trkpt lat="43.91871" lon="1.71969">
        <ele>214.03</ele>
        <time>2017-08-27T10:41:07Z</time>
      </trkpt>
      <trkpt lat="43.9186" lon="1.71968">
        <ele>213.07</ele>
        <time>2017-08-27T10:41:08Z</time>
      </trkpt>
      <trkpt lat="43.91849" lon="1.71967">
        <ele>213.07</ele>
        <time>2017-08-27T10:41:09Z</time>
      </trkpt>
      <trkpt lat="43.91838" lon="1.71964">
        <ele>211.63</ele>
        <time>2017-08-27T10:41:10Z</time>
      </trkpt>
      <trkpt lat="43.91826" lon="1.7196">
        <ele>210.67</ele>
        <time>2017-08-27T10:41:11Z</time>
      </trkpt>
      <trkpt lat="43.91815" lon="1.71955">
        <ele>210.67</ele>
        <time>2017-08-27T10:41:12Z</time>
      </trkpt>
      <trkpt lat="43.91781" lon="1.7194">
        <ele>207.3</ele>
        <time>2017-08-27T10:41:15Z</time>
      </trkpt>
      <trkpt lat="43.91758" lon="1.7193">
        <ele>206.34</ele>
        <time>2017-08-27T10:41:17Z</time>
      </trkpt>
      <trkpt lat="43.91735" lon="1.71919">
        <ele>204.9</ele>
        <time>2017-08-27T10:41:19Z</time>
      </trkpt>
      <trkpt lat="43.91699" lon="1.719">
        <ele>200.57</ele>
        <time>2017-08-27T10:41:22Z</time>
      </trkpt>
      <trkpt lat="43.91675" lon="1.71883">
        <ele>197.21</ele>
        <time>2017-08-27T10:41:24Z</time>
      </trkpt>
      <trkpt lat="43.9164" lon="1.71852">
        <ele>193.36</ele>
        <time>2017-08-27T10:41:27Z</time>
      </trkpt>
      <trkpt lat="43.91607" lon="1.7182">
        <ele>189.04</ele>
        <time>2017-08-27T10:41:30Z</time>
      </trkpt>
      <trkpt lat="43.91588" lon="1.71802">
        <ele>187.11</ele>
        <time>2017-08-27T10:41:32Z</time>
      </trkpt>
      <trkpt lat="43.91577" lon="1.71795">
        <ele>186.63</ele>
        <time>2017-08-27T10:41:33Z</time>
      </trkpt>
      <trkpt lat="43.91566" lon="1.71789">
        <ele>184.71</ele>
        <time>2017-08-27T10:41:34Z</time>
      </trkpt>
      <trkpt lat="43.91555" lon="1.71786">
        <ele>184.23</ele>
        <time>2017-08-27T10:41:35Z</time>
      </trkpt>
      <trkpt lat="43.91543" lon="1.71784">
        <ele>182.79</ele>
        <time>2017-08-27T10:41:36Z</time>
      </trkpt>
      <trkpt lat="43.91521" lon="1.7178">
        <ele>179.9</ele>
        <time>2017-08-27T10:41:38Z</time>
      </trkpt>
      <trkpt lat="43.91511" lon="1.71776">
        <ele>178.94</ele>
        <time>2017-08-27T10:41:39Z</time>
      </trkpt>
      <trkpt lat="43.91502" lon="1.71772">
        <ele>177.98</ele>
        <time>2017-08-27T10:41:40Z</time>
      </trkpt>
      <trkpt lat="43.91493" lon="1.71766">
        <ele>177.5</ele>
        <time>2017-08-27T10:41:41Z</time>
      </trkpt>
      <trkpt lat="43.91484" lon="1.71758">
        <ele>176.54</ele>
        <time>2017-08-27T10:41:42Z</time>
      </trkpt>
      <trkpt lat="43.91476" lon="1.7175">
        <ele>176.06</ele>
        <time>2017-08-27T10:41:43Z</time>
      </trkpt>
      <trkpt lat="43.9147" lon="1.71741">
        <ele>175.58</ele>
        <time>2017-08-27T10:41:44Z</time>
      </trkpt>
      <trkpt lat="43.91466" lon="1.71732">
        <ele>174.14</ele>
        <time>2017-08-27T10:41:45Z</time>
      </trkpt>
      <trkpt lat="43.91465" lon="1.71724">
        <ele>173.66</ele>
        <time>2017-08-27T10:41:46Z</time>
      </trkpt>
      <trkpt lat="43.91466" lon="1.71715">
        <ele>173.17</ele>
        <time>2017-08-27T10:41:47Z</time>
      </trkpt>
      <trkpt lat="43.91467" lon="1.71707">
        <ele>173.66</ele>
        <time>2017-08-27T10:41:48Z</time>
      </trkpt>
      <trkpt lat="43.91468" lon="1.71698">
        <ele>173.17</ele>
        <time>2017-08-27T10:41:49Z</time>
      </trkpt>
      <trkpt lat="43.9147" lon="1.71691">
        <ele>173.17</ele>
        <time>2017-08-27T10:41:50Z</time>
      </trkpt>
      <trkpt lat="43.91471" lon="1.71683">
        <ele>173.17</ele>
        <time>2017-08-27T10:41:51Z</time>
      </trkpt>
      <trkpt lat="43.91474" lon="1.71638">
        <ele>174.14</ele>
        <time>2017-08-27T10:41:57Z</time>
      </trkpt>
      <trkpt lat="43.91474" lon="1.71631">
        <ele>174.14</ele>
        <time>2017-08-27T10:41:58Z</time>
      </trkpt>
      <trkpt lat="43.91473" lon="1.71624">
        <ele>172.69</ele>
        <time>2017-08-27T10:41:59Z</time>
      </trkpt>
      <trkpt lat="43.91467" lon="1.71562">
        <ele>172.21</ele>
        <time>2017-08-27T10:42:08Z</time>
      </trkpt>
      <trkpt lat="43.91466" lon="1.71549">
        <ele>172.21</ele>
        <time>2017-08-27T10:42:10Z</time>
      </trkpt>
      <trkpt lat="43.91466" lon="1.71542">
        <ele>172.21</ele>
        <time>2017-08-27T10:42:11Z</time>
      </trkpt>
      <trkpt lat="43.91467" lon="1.71485">
        <ele>172.69</ele>
        <time>2017-08-27T10:42:20Z</time>
      </trkpt>
      <trkpt lat="43.91465" lon="1.71434">
        <ele>171.73</ele>
        <time>2017-08-27T10:42:28Z</time>
      </trkpt>
      <trkpt lat="43.91455" lon="1.71366">
        <ele>171.73</ele>
        <time>2017-08-27T10:42:39Z</time>
      </trkpt>
      <trkpt lat="43.91443" lon="1.71306">
        <ele>170.77</ele>
        <time>2017-08-27T10:42:49Z</time>
      </trkpt>
      <trkpt lat="43.91438" lon="1.7127">
        <ele>171.25</ele>
        <time>2017-08-27T10:42:55Z</time>
      </trkpt>
      <trkpt lat="43.91438" lon="1.71202">
        <ele>170.77</ele>
        <time>2017-08-27T10:43:06Z</time>
      </trkpt>
      <trkpt lat="43.91438" lon="1.71135">
        <ele>171.25</ele>
        <time>2017-08-27T10:43:17Z</time>
      </trkpt>
      <trkpt lat="43.91437" lon="1.71075">
        <ele>171.25</ele>
        <time>2017-08-27T10:43:27Z</time>
      </trkpt>
      <trkpt lat="43.91437" lon="1.71062">
        <ele>170.29</ele>
        <time>2017-08-27T10:43:29Z</time>
      </trkpt>
      <trkpt lat="43.91438" lon="1.71056">
        <ele>170.77</ele>
        <time>2017-08-27T10:43:30Z</time>
      </trkpt>
      <trkpt lat="43.91439" lon="1.7105">
        <ele>170.29</ele>
        <time>2017-08-27T10:43:31Z</time>
      </trkpt>
      <trkpt lat="43.91439" lon="1.71045">
        <ele>170.77</ele>
        <time>2017-08-27T10:43:32Z</time>
      </trkpt>
      <trkpt lat="43.91439" lon="1.71039">
        <ele>171.25</ele>
        <time>2017-08-27T10:43:33Z</time>
      </trkpt>
      <trkpt lat="43.91439" lon="1.71034">
        <ele>170.29</ele>
        <time>2017-08-27T10:43:34Z</time>
      </trkpt>
      <trkpt lat="43.91439" lon="1.71028">
        <ele>171.25</ele>
        <time>2017-08-27T10:43:35Z</time>
      </trkpt>
      <trkpt lat="43.91439" lon="1.70988">
        <ele>171.25</ele>
        <time>2017-08-27T10:43:42Z</time>
      </trkpt>
      <trkpt lat="43.91435" lon="1.70951">
        <ele>171.73</ele>
        <time>2017-08-27T10:43:49Z</time>
      </trkpt>
      <trkpt lat="43.91431" lon="1.70948">
        <ele>170.77</ele>
        <time>2017-08-27T10:43:50Z</time>
      </trkpt>
      <trkpt lat="43.91418" lon="1.70943">
        <ele>170.77</ele>
        <time>2017-08-27T10:43:53Z</time>
      </trkpt>
      <trkpt lat="43.91381" lon="1.70931">
        <ele>171.73</ele>
        <time>2017-08-27T10:44:02Z</time>
      </trkpt>
      <trkpt lat="43.91369" lon="1.70927">
        <ele>171.25</ele>
        <time>2017-08-27T10:44:05Z</time>
      </trkpt>
      <trkpt lat="43.91349" lon="1.70915">
        <ele>171.25</ele>
        <time>2017-08-27T10:44:11Z</time>
      </trkpt>
      <trkpt lat="43.91348" lon="1.70912">
        <ele>170.77</ele>
        <time>2017-08-27T10:44:12Z</time>
      </trkpt>
      <trkpt lat="43.91348" lon="1.7091">
        <ele>170.29</ele>
        <time>2017-08-27T10:44:13Z</time>
      </trkpt>
      <trkpt lat="43.91347" lon="1.70908">
        <ele>171.25</ele>
        <time>2017-08-27T10:44:19Z</time>
      </trkpt>
      <trkpt lat="43.91348" lon="1.70906">
        <ele>171.25</ele>
        <time>2017-08-27T10:44:34Z</time>
      </trkpt>
      <trkpt lat="43.91347" lon="1.70907">
        <ele>170.29</ele>
        <time>2017-08-27T10:44:50Z</time>
      </trkpt>
      <trkpt lat="43.91348" lon="1.70907">
        <ele>169.81</ele>
        <time>2017-08-27T10:45:02Z</time>
      </trkpt>
      <trkpt lat="43.91347" lon="1.70904">
        <ele>170.77</ele>
        <time>2017-08-27T10:45:13Z</time>
      </trkpt>
      <trkpt lat="43.91349" lon="1.70903">
        <ele>170.77</ele>
        <time>2017-08-27T10:45:14Z</time>
      </trkpt>
      <trkpt lat="43.91368" lon="1.70897">
        <ele>170.77</ele>
        <time>2017-08-27T10:45:19Z</time>
      </trkpt>
      <trkpt lat="43.91411" lon="1.70875">
        <ele>170.29</ele>
        <time>2017-08-27T10:45:28Z</time>
      </trkpt>
      <trkpt lat="43.91464" lon="1.70849">
        <ele>171.73</ele>
        <time>2017-08-27T10:45:39Z</time>
      </trkpt>
      <trkpt lat="43.91468" lon="1.70846">
        <ele>171.25</ele>
        <time>2017-08-27T10:45:40Z</time>
      </trkpt>
      <trkpt lat="43.91495" lon="1.70833">
        <ele>171.73</ele>
        <time>2017-08-27T10:45:46Z</time>
      </trkpt>
      <trkpt lat="43.91498" lon="1.70829">
        <ele>171.73</ele>
        <time>2017-08-27T10:45:47Z</time>
      </trkpt>
      <trkpt lat="43.91501" lon="1.70823">
        <ele>171.73</ele>
        <time>2017-08-27T10:45:48Z</time>
      </trkpt>
      <trkpt lat="43.91502" lon="1.70817">
        <ele>171.25</ele>
        <time>2017-08-27T10:45:49Z</time>
      </trkpt>
      <trkpt lat="43.91502" lon="1.70809">
        <ele>171.25</ele>
        <time>2017-08-27T10:45:50Z</time>
      </trkpt>
      <trkpt lat="43.915" lon="1.70802">
        <ele>171.25</ele>
        <time>2017-08-27T10:45:51Z</time>
      </trkpt>
      <trkpt lat="43.91499" lon="1.70795">
        <ele>171.73</ele>
        <time>2017-08-27T10:45:52Z</time>
      </trkpt>
      <trkpt lat="43.91494" lon="1.70773">
        <ele>171.73</ele>
        <time>2017-08-27T10:45:55Z</time>
      </trkpt>
      <trkpt lat="43.91486" lon="1.70729">
        <ele>170.77</ele>
        <time>2017-08-27T10:46:01Z</time>
      </trkpt>
      <trkpt lat="43.91486" lon="1.70721">
        <ele>171.25</ele>
        <time>2017-08-27T10:46:02Z</time>
      </trkpt>
      <trkpt lat="43.91487" lon="1.70713">
        <ele>170.29</ele>
        <time>2017-08-27T10:46:03Z</time>
      </trkpt>
      <trkpt lat="43.91496" lon="1.70642">
        <ele>170.29</ele>
        <time>2017-08-27T10:46:12Z</time>
      </trkpt>
      <trkpt lat="43.91505" lon="1.70572">
        <ele>170.29</ele>
        <time>2017-08-27T10:46:21Z</time>
      </trkpt>
      <trkpt lat="43.9151" lon="1.705">
        <ele>170.77</ele>
        <time>2017-08-27T10:46:31Z</time>
      </trkpt>
      <trkpt lat="43.91517" lon="1.70435">
        <ele>170.77</ele>
        <time>2017-08-27T10:46:40Z</time>
      </trkpt>
      <trkpt lat="43.9152" lon="1.70429">
        <ele>170.29</ele>
        <time>2017-08-27T10:46:41Z</time>
      </trkpt>
      <trkpt lat="43.91523" lon="1.70423">
        <ele>170.77</ele>
        <time>2017-08-27T10:46:42Z</time>
      </trkpt>
      <trkpt lat="43.91527" lon="1.70419">
        <ele>170.77</ele>
        <time>2017-08-27T10:46:43Z</time>
      </trkpt>
      <trkpt lat="43.91532" lon="1.70415">
        <ele>171.25</ele>
        <time>2017-08-27T10:46:44Z</time>
      </trkpt>
      <trkpt lat="43.9154" lon="1.70406">
        <ele>171.25</ele>
        <time>2017-08-27T10:46:46Z</time>
      </trkpt>
      <trkpt lat="43.91543" lon="1.704">
        <ele>170.29</ele>
        <time>2017-08-27T10:46:47Z</time>
      </trkpt>
      <trkpt lat="43.91545" lon="1.70394">
        <ele>170.77</ele>
        <time>2017-08-27T10:46:48Z</time>
      </trkpt>
      <trkpt lat="43.91561" lon="1.70324">
        <ele>170.29</ele>
        <time>2017-08-27T10:46:58Z</time>
      </trkpt>
      <trkpt lat="43.91576" lon="1.70268">
        <ele>170.77</ele>
        <time>2017-08-27T10:47:06Z</time>
      </trkpt>
      <trkpt lat="43.91586" lon="1.70228">
        <ele>170.29</ele>
        <time>2017-08-27T10:47:12Z</time>
      </trkpt>
      <trkpt lat="43.916" lon="1.70174">
        <ele>170.29</ele>
        <time>2017-08-27T10:47:20Z</time>
      </trkpt>
      <trkpt lat="43.91608" lon="1.70115">
        <ele>170.29</ele>
        <time>2017-08-27T10:47:28Z</time>
      </trkpt>
      <trkpt lat="43.9162" lon="1.70042">
        <ele>167.89</ele>
        <time>2017-08-27T10:47:37Z</time>
      </trkpt>
      <trkpt lat="43.91634" lon="1.69972">
        <ele>167.89</ele>
        <time>2017-08-27T10:47:46Z</time>
      </trkpt>
      <trkpt lat="43.91653" lon="1.69897">
        <ele>167.89</ele>
        <time>2017-08-27T10:47:57Z</time>
      </trkpt>
      <trkpt lat="43.91654" lon="1.69891">
        <ele>167.89</ele>
        <time>2017-08-27T10:47:58Z</time>
      </trkpt>
      <trkpt lat="43.91656" lon="1.69885">
        <ele>168.37</ele>
        <time>2017-08-27T10:47:59Z</time>
      </trkpt>
      <trkpt lat="43.91664" lon="1.69826">
        <ele>167.89</ele>
        <time>2017-08-27T10:48:08Z</time>
      </trkpt>
      <trkpt lat="43.91674" lon="1.69758">
        <ele>167.41</ele>
        <time>2017-08-27T10:48:18Z</time>
      </trkpt>
      <trkpt lat="43.91681" lon="1.69708">
        <ele>166.93</ele>
        <time>2017-08-27T10:48:25Z</time>
      </trkpt>
      <trkpt lat="43.91691" lon="1.69659">
        <ele>166.45</ele>
        <time>2017-08-27T10:48:32Z</time>
      </trkpt>
      <trkpt lat="43.917" lon="1.69632">
        <ele>166.45</ele>
        <time>2017-08-27T10:48:36Z</time>
      </trkpt>
      <trkpt lat="43.91703" lon="1.69626">
        <ele>166.45</ele>
        <time>2017-08-27T10:48:37Z</time>
      </trkpt>
      <trkpt lat="43.91705" lon="1.6962">
        <ele>166.45</ele>
        <time>2017-08-27T10:48:38Z</time>
      </trkpt>
      <trkpt lat="43.91719" lon="1.69554">
        <ele>166.45</ele>
        <time>2017-08-27T10:48:47Z</time>
      </trkpt>
      <trkpt lat="43.91734" lon="1.69493">
        <ele>166.93</ele>
        <time>2017-08-27T10:48:56Z</time>
      </trkpt>
      <trkpt lat="43.91748" lon="1.69437">
        <ele>166.93</ele>
        <time>2017-08-27T10:49:04Z</time>
      </trkpt>
      <trkpt lat="43.91758" lon="1.6939">
        <ele>167.41</ele>
        <time>2017-08-27T10:49:12Z</time>
      </trkpt>
      <trkpt lat="43.91762" lon="1.69376">
        <ele>166.93</ele>
        <time>2017-08-27T10:49:15Z</time>
      </trkpt>
      <trkpt lat="43.91765" lon="1.69365">
        <ele>167.41</ele>
        <time>2017-08-27T10:49:17Z</time>
      </trkpt>
      <trkpt lat="43.91771" lon="1.69334">
        <ele>166.45</ele>
        <time>2017-08-27T10:49:24Z</time>
      </trkpt>
      <trkpt lat="43.91771" lon="1.6933">
        <ele>166.93</ele>
        <time>2017-08-27T10:49:31Z</time>
      </trkpt>
      <trkpt lat="43.91774" lon="1.69303">
        <ele>166.45</ele>
        <time>2017-08-27T10:49:37Z</time>
      </trkpt>
      <trkpt lat="43.91783" lon="1.69253">
        <ele>165.96</ele>
        <time>2017-08-27T10:49:45Z</time>
      </trkpt>
      <trkpt lat="43.91784" lon="1.6925">
        <ele>165.96</ele>
        <time>2017-08-27T10:49:49Z</time>
      </trkpt>
      <trkpt lat="43.91788" lon="1.69252">
        <ele>165.48</ele>
        <time>2017-08-27T10:50:06Z</time>
      </trkpt>
      <trkpt lat="43.91788" lon="1.69255">
        <ele>165.48</ele>
        <time>2017-08-27T10:50:24Z</time>
      </trkpt>
      <trkpt lat="43.91786" lon="1.69253">
        <ele>166.45</ele>
        <time>2017-08-27T10:50:35Z</time>
      </trkpt>
      <trkpt lat="43.91786" lon="1.6925">
        <ele>165.96</ele>
        <time>2017-08-27T10:50:36Z</time>
      </trkpt>
      <trkpt lat="43.91785" lon="1.69248">
        <ele>165.48</ele>
        <time>2017-08-27T10:50:37Z</time>
      </trkpt>
      <trkpt lat="43.91784" lon="1.69227">
        <ele>165.48</ele>
        <time>2017-08-27T10:50:47Z</time>
      </trkpt>
      <trkpt lat="43.91782" lon="1.69205">
        <ele>165.48</ele>
        <time>2017-08-27T10:50:58Z</time>
      </trkpt>
      <trkpt lat="43.91782" lon="1.69203">
        <ele>165.48</ele>
        <time>2017-08-27T10:51:12Z</time>
      </trkpt>
      <trkpt lat="43.91782" lon="1.69204">
        <ele>165</ele>
        <time>2017-08-27T10:51:26Z</time>
      </trkpt>
      <trkpt lat="43.91782" lon="1.69204">
        <ele>165</ele>
        <time>2017-08-27T10:51:39Z</time>
      </trkpt>
      <trkpt lat="43.91782" lon="1.692">
        <ele>165.96</ele>
        <time>2017-08-27T10:51:51Z</time>
      </trkpt>
      <trkpt lat="43.91779" lon="1.69179">
        <ele>165.48</ele>
        <time>2017-08-27T10:51:56Z</time>
      </trkpt>
      <trkpt lat="43.91775" lon="1.69129">
        <ele>165.48</ele>
        <time>2017-08-27T10:52:04Z</time>
      </trkpt>
      <trkpt lat="43.9177" lon="1.69064">
        <ele>166.45</ele>
        <time>2017-08-27T10:52:13Z</time>
      </trkpt>
      <trkpt lat="43.91775" lon="1.68998">
        <ele>165.48</ele>
        <time>2017-08-27T10:52:21Z</time>
      </trkpt>
      <trkpt lat="43.91776" lon="1.68936">
        <ele>165</ele>
        <time>2017-08-27T10:52:28Z</time>
      </trkpt>
      <trkpt lat="43.91782" lon="1.68873">
        <ele>165.48</ele>
        <time>2017-08-27T10:52:35Z</time>
      </trkpt>
      <trkpt lat="43.91797" lon="1.68806">
        <ele>164.52</ele>
        <time>2017-08-27T10:52:43Z</time>
      </trkpt>
      <trkpt lat="43.91805" lon="1.68731">
        <ele>164.04</ele>
        <time>2017-08-27T10:52:52Z</time>
      </trkpt>
      <trkpt lat="43.91807" lon="1.68656">
        <ele>164.52</ele>
        <time>2017-08-27T10:53:01Z</time>
      </trkpt>
      <trkpt lat="43.91807" lon="1.68595">
        <ele>164.52</ele>
        <time>2017-08-27T10:53:08Z</time>
      </trkpt>
      <trkpt lat="43.91803" lon="1.68471">
        <ele>164.04</ele>
        <time>2017-08-27T10:53:23Z</time>
      </trkpt>
      <trkpt lat="43.91802" lon="1.68443">
        <ele>165</ele>
        <time>2017-08-27T10:53:27Z</time>
      </trkpt>
      <trkpt lat="43.918" lon="1.68438">
        <ele>165.48</ele>
        <time>2017-08-27T10:53:28Z</time>
      </trkpt>
      <trkpt lat="43.91796" lon="1.68436">
        <ele>165</ele>
        <time>2017-08-27T10:53:29Z</time>
      </trkpt>
      <trkpt lat="43.91791" lon="1.68434">
        <ele>164.04</ele>
        <time>2017-08-27T10:53:30Z</time>
      </trkpt>
      <trkpt lat="43.91786" lon="1.68434">
        <ele>164.52</ele>
        <time>2017-08-27T10:53:31Z</time>
      </trkpt>
      <trkpt lat="43.91781" lon="1.68433">
        <ele>165</ele>
        <time>2017-08-27T10:53:32Z</time>
      </trkpt>
      <trkpt lat="43.91776" lon="1.68432">
        <ele>164.52</ele>
        <time>2017-08-27T10:53:33Z</time>
      </trkpt>
      <trkpt lat="43.91766" lon="1.68431">
        <ele>164.52</ele>
        <time>2017-08-27T10:53:35Z</time>
      </trkpt>
      <trkpt lat="43.91761" lon="1.68432">
        <ele>164.04</ele>
        <time>2017-08-27T10:53:36Z</time>
      </trkpt>
      <trkpt lat="43.91756" lon="1.68433">
        <ele>163.08</ele>
        <time>2017-08-27T10:53:37Z</time>
      </trkpt>
      <trkpt lat="43.91732" lon="1.68445">
        <ele>164.52</ele>
        <time>2017-08-27T10:53:42Z</time>
      </trkpt>
      <trkpt lat="43.91727" lon="1.6845">
        <ele>164.04</ele>
        <time>2017-08-27T10:53:43Z</time>
      </trkpt>
      <trkpt lat="43.91723" lon="1.68454">
        <ele>163.56</ele>
        <time>2017-08-27T10:53:44Z</time>
      </trkpt>
      <trkpt lat="43.91696" lon="1.68497">
        <ele>163.08</ele>
        <time>2017-08-27T10:53:53Z</time>
      </trkpt>
      <trkpt lat="43.91695" lon="1.68512">
        <ele>162.6</ele>
        <time>2017-08-27T10:53:58Z</time>
      </trkpt>
      <trkpt lat="43.91694" lon="1.68512">
        <ele>163.08</ele>
        <time>2017-08-27T10:54:03Z</time>
      </trkpt>
      <trkpt lat="43.9169" lon="1.68516">
        <ele>163.56</ele>
        <time>2017-08-27T10:54:10Z</time>
      </trkpt>
      <trkpt lat="43.91683" lon="1.68522">
        <ele>162.6</ele>
        <time>2017-08-27T10:54:18Z</time>
      </trkpt>
      <trkpt lat="43.91682" lon="1.68523">
        <ele>162.12</ele>
        <time>2017-08-27T10:54:26Z</time>
      </trkpt>
      <trkpt lat="43.91683" lon="1.68524">
        <ele>162.12</ele>
        <time>2017-08-27T10:54:47Z</time>
      </trkpt>
      <trkpt lat="43.9168" lon="1.68523">
        <ele>162.6</ele>
        <time>2017-08-27T10:54:51Z</time>
      </trkpt>
      <trkpt lat="43.91678" lon="1.68524">
        <ele>163.08</ele>
        <time>2017-08-27T10:54:52Z</time>
      </trkpt>
      <trkpt lat="43.91675" lon="1.68525">
        <ele>162.6</ele>
        <time>2017-08-27T10:54:53Z</time>
      </trkpt>
      <trkpt lat="43.91656" lon="1.68541">
        <ele>163.08</ele>
        <time>2017-08-27T10:54:59Z</time>
      </trkpt>
      <trkpt lat="43.91647" lon="1.68555">
        <ele>163.56</ele>
        <time>2017-08-27T10:55:02Z</time>
      </trkpt>
      <trkpt lat="43.91644" lon="1.68559">
        <ele>163.56</ele>
        <time>2017-08-27T10:55:03Z</time>
      </trkpt>
      <trkpt lat="43.9164" lon="1.68563">
        <ele>164.04</ele>
        <time>2017-08-27T10:55:04Z</time>
      </trkpt>
      <trkpt lat="43.91633" lon="1.6857">
        <ele>164.04</ele>
        <time>2017-08-27T10:55:06Z</time>
      </trkpt>
      <trkpt lat="43.91629" lon="1.68573">
        <ele>164.04</ele>
        <time>2017-08-27T10:55:07Z</time>
      </trkpt>
      <trkpt lat="43.916" lon="1.68594">
        <ele>164.52</ele>
        <time>2017-08-27T10:55:14Z</time>
      </trkpt>
      <trkpt lat="43.91596" lon="1.68595">
        <ele>164.52</ele>
        <time>2017-08-27T10:55:15Z</time>
      </trkpt>
      <trkpt lat="43.91591" lon="1.68597">
        <ele>164.52</ele>
        <time>2017-08-27T10:55:16Z</time>
      </trkpt>
      <trkpt lat="43.91587" lon="1.68597">
        <ele>165</ele>
        <time>2017-08-27T10:55:17Z</time>
      </trkpt>
      <trkpt lat="43.91528" lon="1.68601">
        <ele>165.48</ele>
        <time>2017-08-27T10:55:33Z</time>
      </trkpt>
      <trkpt lat="43.91525" lon="1.686">
        <ele>165.48</ele>
        <time>2017-08-27T10:55:34Z</time>
      </trkpt>
      <trkpt lat="43.91504" lon="1.68599">
        <ele>166.93</ele>
        <time>2017-08-27T10:55:41Z</time>
      </trkpt>
      <trkpt lat="43.91483" lon="1.68595">
        <ele>168.37</ele>
        <time>2017-08-27T10:55:48Z</time>
      </trkpt>
      <trkpt lat="43.91458" lon="1.68562">
        <ele>170.77</ele>
        <time>2017-08-27T10:56:46Z</time>
      </trkpt>
      <trkpt lat="43.91457" lon="1.68557">
        <ele>171.25</ele>
        <time>2017-08-27T10:56:47Z</time>
      </trkpt>
      <trkpt lat="43.91457" lon="1.68551">
        <ele>170.77</ele>
        <time>2017-08-27T10:56:48Z</time>
      </trkpt>
      <trkpt lat="43.91456" lon="1.68539">
        <ele>171.25</ele>
        <time>2017-08-27T10:56:50Z</time>
      </trkpt>
      <trkpt lat="43.91455" lon="1.68499">
        <ele>171.25</ele>
        <time>2017-08-27T10:56:56Z</time>
      </trkpt>
      <trkpt lat="43.91451" lon="1.68429">
        <ele>171.25</ele>
        <time>2017-08-27T10:57:06Z</time>
      </trkpt>
      <trkpt lat="43.91447" lon="1.68361">
        <ele>170.77</ele>
        <time>2017-08-27T10:57:15Z</time>
      </trkpt>
      <trkpt lat="43.91446" lon="1.68307">
        <ele>170.77</ele>
        <time>2017-08-27T10:57:22Z</time>
      </trkpt>
      <trkpt lat="43.91446" lon="1.68299">
        <ele>170.29</ele>
        <time>2017-08-27T10:57:23Z</time>
      </trkpt>
      <trkpt lat="43.91444" lon="1.68243">
        <ele>169.81</ele>
        <time>2017-08-27T10:57:31Z</time>
      </trkpt>
      <trkpt lat="43.91443" lon="1.68229">
        <ele>170.77</ele>
        <time>2017-08-27T10:57:33Z</time>
      </trkpt>
      <trkpt lat="43.91442" lon="1.68222">
        <ele>170.77</ele>
        <time>2017-08-27T10:57:34Z</time>
      </trkpt>
      <trkpt lat="43.91441" lon="1.68214">
        <ele>170.77</ele>
        <time>2017-08-27T10:57:35Z</time>
      </trkpt>
      <trkpt lat="43.9144" lon="1.68143">
        <ele>170.77</ele>
        <time>2017-08-27T10:57:44Z</time>
      </trkpt>
      <trkpt lat="43.91437" lon="1.68072">
        <ele>170.29</ele>
        <time>2017-08-27T10:57:53Z</time>
      </trkpt>
      <trkpt lat="43.91435" lon="1.68065">
        <ele>170.77</ele>
        <time>2017-08-27T10:57:54Z</time>
      </trkpt>
      <trkpt lat="43.91433" lon="1.68059">
        <ele>169.81</ele>
        <time>2017-08-27T10:57:55Z</time>
      </trkpt>
      <trkpt lat="43.91429" lon="1.68054">
        <ele>170.29</ele>
        <time>2017-08-27T10:57:56Z</time>
      </trkpt>
      <trkpt lat="43.91424" lon="1.68051">
        <ele>169.81</ele>
        <time>2017-08-27T10:57:57Z</time>
      </trkpt>
      <trkpt lat="43.91418" lon="1.68051">
        <ele>169.81</ele>
        <time>2017-08-27T10:57:58Z</time>
      </trkpt>
      <trkpt lat="43.91413" lon="1.68053">
        <ele>169.81</ele>
        <time>2017-08-27T10:57:59Z</time>
      </trkpt>
      <trkpt lat="43.91408" lon="1.68054">
        <ele>170.29</ele>
        <time>2017-08-27T10:58:00Z</time>
      </trkpt>
      <trkpt lat="43.91398" lon="1.68057">
        <ele>170.77</ele>
        <time>2017-08-27T10:58:02Z</time>
      </trkpt>
      <trkpt lat="43.91393" lon="1.68059">
        <ele>170.77</ele>
        <time>2017-08-27T10:58:03Z</time>
      </trkpt>
      <trkpt lat="43.91381" lon="1.68067">
        <ele>170.77</ele>
        <time>2017-08-27T10:58:06Z</time>
      </trkpt>
      <trkpt lat="43.91357" lon="1.68098">
        <ele>172.21</ele>
        <time>2017-08-27T10:58:14Z</time>
      </trkpt>
      <trkpt lat="43.91324" lon="1.68142">
        <ele>173.66</ele>
        <time>2017-08-27T10:58:26Z</time>
      </trkpt>
      <trkpt lat="43.91296" lon="1.68182">
        <ele>176.06</ele>
        <time>2017-08-27T10:58:37Z</time>
      </trkpt>
      <trkpt lat="43.91271" lon="1.68216">
        <ele>177.5</ele>
        <time>2017-08-27T10:58:48Z</time>
      </trkpt>
      <trkpt lat="43.91245" lon="1.68254">
        <ele>179.42</ele>
        <time>2017-08-27T10:59:00Z</time>
      </trkpt>
      <trkpt lat="43.91219" lon="1.68287">
        <ele>181.83</ele>
        <time>2017-08-27T10:59:11Z</time>
      </trkpt>
      <trkpt lat="43.91197" lon="1.68317">
        <ele>183.27</ele>
        <time>2017-08-27T10:59:22Z</time>
      </trkpt>
      <trkpt lat="43.91176" lon="1.68343">
        <ele>185.19</ele>
        <time>2017-08-27T10:59:32Z</time>
      </trkpt>
      <trkpt lat="43.91156" lon="1.68362">
        <ele>187.11</ele>
        <time>2017-08-27T10:59:42Z</time>
      </trkpt>
      <trkpt lat="43.91139" lon="1.68383">
        <ele>189.52</ele>
        <time>2017-08-27T10:59:52Z</time>
      </trkpt>
      <trkpt lat="43.91126" lon="1.68406">
        <ele>190.96</ele>
        <time>2017-08-27T11:00:02Z</time>
      </trkpt>
      <trkpt lat="43.91115" lon="1.68419">
        <ele>192.88</ele>
        <time>2017-08-27T11:00:09Z</time>
      </trkpt>
      <trkpt lat="43.91097" lon="1.68432">
        <ele>193.84</ele>
        <time>2017-08-27T11:00:19Z</time>
      </trkpt>
      <trkpt lat="43.91083" lon="1.6844">
        <ele>194.8</ele>
        <time>2017-08-27T11:00:27Z</time>
      </trkpt>
      <trkpt lat="43.91058" lon="1.68452">
        <ele>193.84</ele>
        <time>2017-08-27T11:00:35Z</time>
      </trkpt>
      <trkpt lat="43.91018" lon="1.68471">
        <ele>191.92</ele>
        <time>2017-08-27T11:00:43Z</time>
      </trkpt>
      <trkpt lat="43.90963" lon="1.685">
        <ele>190.48</ele>
        <time>2017-08-27T11:00:53Z</time>
      </trkpt>
      <trkpt lat="43.90947" lon="1.68507">
        <ele>190.48</ele>
        <time>2017-08-27T11:00:56Z</time>
      </trkpt>
      <trkpt lat="43.9092" lon="1.68528">
        <ele>189.52</ele>
        <time>2017-08-27T11:01:02Z</time>
      </trkpt>
      <trkpt lat="43.90896" lon="1.68568">
        <ele>190.48</ele>
        <time>2017-08-27T11:01:10Z</time>
      </trkpt>
      <trkpt lat="43.90876" lon="1.68604">
        <ele>191.44</ele>
        <time>2017-08-27T11:01:19Z</time>
      </trkpt>
      <trkpt lat="43.90864" lon="1.68624">
        <ele>192.88</ele>
        <time>2017-08-27T11:01:27Z</time>
      </trkpt>
      <trkpt lat="43.9085" lon="1.68649">
        <ele>194.8</ele>
        <time>2017-08-27T11:01:37Z</time>
      </trkpt>
      <trkpt lat="43.90835" lon="1.68672">
        <ele>198.17</ele>
        <time>2017-08-27T11:01:48Z</time>
      </trkpt>
      <trkpt lat="43.9082" lon="1.68681">
        <ele>199.61</ele>
        <time>2017-08-27T11:01:57Z</time>
      </trkpt>
      <trkpt lat="43.90815" lon="1.68678">
        <ele>201.05</ele>
        <time>2017-08-27T11:02:03Z</time>
      </trkpt>
      <trkpt lat="43.90804" lon="1.68675">
        <ele>202.98</ele>
        <time>2017-08-27T11:02:12Z</time>
      </trkpt>
      <trkpt lat="43.90791" lon="1.6867">
        <ele>205.38</ele>
        <time>2017-08-27T11:02:23Z</time>
      </trkpt>
      <trkpt lat="43.9078" lon="1.68667">
        <ele>207.3</ele>
        <time>2017-08-27T11:02:33Z</time>
      </trkpt>
      <trkpt lat="43.90769" lon="1.68663">
        <ele>208.26</ele>
        <time>2017-08-27T11:02:42Z</time>
      </trkpt>
      <trkpt lat="43.90758" lon="1.68661">
        <ele>211.15</ele>
        <time>2017-08-27T11:02:52Z</time>
      </trkpt>
      <trkpt lat="43.90748" lon="1.68662">
        <ele>213.55</ele>
        <time>2017-08-27T11:03:01Z</time>
      </trkpt>
      <trkpt lat="43.90745" lon="1.68663">
        <ele>214.03</ele>
        <time>2017-08-27T11:03:05Z</time>
      </trkpt>
      <trkpt lat="43.90741" lon="1.68665">
        <ele>214.51</ele>
        <time>2017-08-27T11:03:09Z</time>
      </trkpt>
      <trkpt lat="43.90733" lon="1.68668">
        <ele>216.91</ele>
        <time>2017-08-27T11:03:17Z</time>
      </trkpt>
      <trkpt lat="43.90733" lon="1.68668">
        <ele>216.91</ele>
        <time>2017-08-27T11:03:25Z</time>
      </trkpt>
      <trkpt lat="43.90731" lon="1.68666">
        <ele>216.91</ele>
        <time>2017-08-27T11:03:35Z</time>
      </trkpt>
      <trkpt lat="43.90729" lon="1.68666">
        <ele>216.91</ele>
        <time>2017-08-27T11:03:36Z</time>
      </trkpt>
      <trkpt lat="43.90728" lon="1.68666">
        <ele>217.4</ele>
        <time>2017-08-27T11:03:37Z</time>
      </trkpt>
      <trkpt lat="43.90726" lon="1.68666">
        <ele>217.4</ele>
        <time>2017-08-27T11:03:38Z</time>
      </trkpt>
      <trkpt lat="43.90725" lon="1.68666">
        <ele>218.36</ele>
        <time>2017-08-27T11:03:39Z</time>
      </trkpt>
      <trkpt lat="43.90713" lon="1.68669">
        <ele>221.24</ele>
        <time>2017-08-27T11:03:47Z</time>
      </trkpt>
      <trkpt lat="43.90711" lon="1.6867">
        <ele>221.72</ele>
        <time>2017-08-27T11:03:49Z</time>
      </trkpt>
      <trkpt lat="43.90703" lon="1.68672">
        <ele>223.64</ele>
        <time>2017-08-27T11:03:54Z</time>
      </trkpt>
      <trkpt lat="43.90697" lon="1.68673">
        <ele>226.05</ele>
        <time>2017-08-27T11:03:59Z</time>
      </trkpt>
      <trkpt lat="43.90689" lon="1.68676">
        <ele>227.97</ele>
        <time>2017-08-27T11:04:04Z</time>
      </trkpt>
      <trkpt lat="43.90688" lon="1.68677">
        <ele>227.01</ele>
        <time>2017-08-27T11:04:05Z</time>
      </trkpt>
      <trkpt lat="43.90687" lon="1.68679">
        <ele>227.49</ele>
        <time>2017-08-27T11:04:06Z</time>
      </trkpt>
      <trkpt lat="43.90686" lon="1.68681">
        <ele>227.49</ele>
        <time>2017-08-27T11:04:07Z</time>
      </trkpt>
      <trkpt lat="43.90685" lon="1.68682">
        <ele>228.45</ele>
        <time>2017-08-27T11:04:08Z</time>
      </trkpt>
      <trkpt lat="43.90685" lon="1.68684">
        <ele>228.45</ele>
        <time>2017-08-27T11:04:09Z</time>
      </trkpt>
      <trkpt lat="43.90683" lon="1.68687">
        <ele>227.97</ele>
        <time>2017-08-27T11:04:11Z</time>
      </trkpt>
      <trkpt lat="43.90683" lon="1.68689">
        <ele>228.45</ele>
        <time>2017-08-27T11:04:12Z</time>
      </trkpt>
      <trkpt lat="43.90684" lon="1.6869">
        <ele>227.01</ele>
        <time>2017-08-27T11:04:13Z</time>
      </trkpt>
      <trkpt lat="43.90685" lon="1.68692">
        <ele>227.49</ele>
        <time>2017-08-27T11:04:14Z</time>
      </trkpt>
      <trkpt lat="43.90686" lon="1.68693">
        <ele>227.01</ele>
        <time>2017-08-27T11:04:15Z</time>
      </trkpt>
      <trkpt lat="43.90687" lon="1.68695">
        <ele>228.45</ele>
        <time>2017-08-27T11:04:16Z</time>
      </trkpt>
      <trkpt lat="43.90688" lon="1.68698">
        <ele>227.49</ele>
        <time>2017-08-27T11:04:17Z</time>
      </trkpt>
      <trkpt lat="43.90688" lon="1.687">
        <ele>227.49</ele>
        <time>2017-08-27T11:04:18Z</time>
      </trkpt>
      <trkpt lat="43.90689" lon="1.68703">
        <ele>228.45</ele>
        <time>2017-08-27T11:04:19Z</time>
      </trkpt>
      <trkpt lat="43.90689" lon="1.68705">
        <ele>227.49</ele>
        <time>2017-08-27T11:04:20Z</time>
      </trkpt>
      <trkpt lat="43.90689" lon="1.68708">
        <ele>227.49</ele>
        <time>2017-08-27T11:04:21Z</time>
      </trkpt>
      <trkpt lat="43.90687" lon="1.6871">
        <ele>228.93</ele>
        <time>2017-08-27T11:04:22Z</time>
      </trkpt>
      <trkpt lat="43.90686" lon="1.68711">
        <ele>228.45</ele>
        <time>2017-08-27T11:04:23Z</time>
      </trkpt>
      <trkpt lat="43.90682" lon="1.68712">
        <ele>228.45</ele>
        <time>2017-08-27T11:04:25Z</time>
      </trkpt>
      <trkpt lat="43.9068" lon="1.68711">
        <ele>227.97</ele>
        <time>2017-08-27T11:04:26Z</time>
      </trkpt>
      <trkpt lat="43.90678" lon="1.6871">
        <ele>227.97</ele>
        <time>2017-08-27T11:04:27Z</time>
      </trkpt>
      <trkpt lat="43.90673" lon="1.68705">
        <ele>231.81</ele>
        <time>2017-08-27T11:04:30Z</time>
      </trkpt>
      <trkpt lat="43.90671" lon="1.68702">
        <ele>227.97</ele>
        <time>2017-08-27T11:04:32Z</time>
      </trkpt>
      <trkpt lat="43.9067" lon="1.68701">
        <ele>231.81</ele>
        <time>2017-08-27T11:04:33Z</time>
      </trkpt>
      <trkpt lat="43.90668" lon="1.68698">
        <ele>226.05</ele>
        <time>2017-08-27T11:04:35Z</time>
      </trkpt>
      <trkpt lat="43.90667" lon="1.68696">
        <ele>226.05</ele>
        <time>2017-08-27T11:04:36Z</time>
      </trkpt>
    </trkseg>
  </trk>
</gpx>